<?xml version="1.0" encoding="UTF-8" standalone="no" ?>
<gpx xmlns="http://www.topografix.com/GPX/1/1" xmlns:xsi="http://www.w3.org/2001/XMLSchema-instance" xsi:schemaLocation="http://www.topografix.com/GPX/1/1 http://www.topografix.com/GPX/1/1/gpx.xsd" version="1.1" creator="VisuGPX - https://www.visugpx.com">
  <metadata>
    <name>Road trip fait P/E</name>
  </metadata>
  <trk>
    <name><![CDATA[Road trip fait P/E_9]]></name>
    <extensions>
      <line xmlns="http://www.topografix.com/GPX/gpx_style/0/2">
        <color>880088</color>
        <width>4</width>
      </line>
    </extensions>
    <trkseg>
      <trkpt lat="37.39553" lon="-5.98466">
        <ele>8.688274</ele>
        <time>2021-07-15T07:18:41Z</time>
      </trkpt>
      <trkpt lat="37.39553" lon="-5.98466">
        <ele>8.688274</ele>
        <time>2021-07-15T07:18:41Z</time>
      </trkpt>
      <trkpt lat="37.3956" lon="-5.98471">
        <ele>9.075666</ele>
        <time>2021-07-15T07:18:52Z</time>
      </trkpt>
      <trkpt lat="37.3956" lon="-5.98478">
        <ele>7.774059</ele>
        <time>2021-07-15T07:19:04Z</time>
      </trkpt>
      <trkpt lat="37.39561" lon="-5.98468">
        <ele>8.653921</ele>
        <time>2021-07-15T07:19:15Z</time>
      </trkpt>
      <trkpt lat="37.3953" lon="-5.98449">
        <ele>8.152921</ele>
        <time>2021-07-15T07:19:26Z</time>
      </trkpt>
      <trkpt lat="37.39557" lon="-5.98466">
        <ele>8.956996</ele>
        <time>2021-07-15T07:19:37Z</time>
      </trkpt>
      <trkpt lat="37.39574" lon="-5.98475">
        <ele>8.801298</ele>
        <time>2021-07-15T07:19:48Z</time>
      </trkpt>
      <trkpt lat="37.39577" lon="-5.98473">
        <ele>9.657639</ele>
        <time>2021-07-15T07:20:05Z</time>
      </trkpt>
      <trkpt lat="37.39594" lon="-5.98436">
        <ele>7.760431</ele>
        <time>2021-07-15T07:20:16Z</time>
      </trkpt>
      <trkpt lat="37.3961" lon="-5.98407">
        <ele>7.890029</ele>
        <time>2021-07-15T07:20:27Z</time>
      </trkpt>
      <trkpt lat="37.39612" lon="-5.984">
        <ele>9.359605</ele>
        <time>2021-07-15T07:20:38Z</time>
      </trkpt>
      <trkpt lat="37.39616" lon="-5.98402">
        <ele>8.723524</ele>
        <time>2021-07-15T07:20:49Z</time>
      </trkpt>
      <trkpt lat="37.39612" lon="-5.98403">
        <ele>10.58292</ele>
        <time>2021-07-15T07:21:32Z</time>
      </trkpt>
      <trkpt lat="37.39616" lon="-5.98404">
        <ele>9.428322</ele>
        <time>2021-07-15T07:21:58Z</time>
      </trkpt>
      <trkpt lat="37.39621" lon="-5.98405">
        <ele>9.521184</ele>
        <time>2021-07-15T07:22:09Z</time>
      </trkpt>
      <trkpt lat="37.3961" lon="-5.98402">
        <ele>8.609639</ele>
        <time>2021-07-15T07:22:42Z</time>
      </trkpt>
      <trkpt lat="37.39609" lon="-5.98401">
        <ele>8.744586</ele>
        <time>2021-07-15T07:23:41Z</time>
      </trkpt>
      <trkpt lat="37.39614" lon="-5.98396">
        <ele>6.147089</ele>
        <time>2021-07-15T07:23:56Z</time>
      </trkpt>
      <trkpt lat="37.39643" lon="-5.98337">
        <ele>5.797944</ele>
        <time>2021-07-15T07:24:07Z</time>
      </trkpt>
      <trkpt lat="37.39685" lon="-5.98271">
        <ele>7.828863</ele>
        <time>2021-07-15T07:24:18Z</time>
      </trkpt>
      <trkpt lat="37.39703" lon="-5.98236">
        <ele>7.765001</ele>
        <time>2021-07-15T07:24:29Z</time>
      </trkpt>
      <trkpt lat="37.39725" lon="-5.98253">
        <ele>9.785167</ele>
        <time>2021-07-15T07:24:40Z</time>
      </trkpt>
      <trkpt lat="37.39764" lon="-5.98281">
        <ele>9.24366</ele>
        <time>2021-07-15T07:24:51Z</time>
      </trkpt>
      <trkpt lat="37.398" lon="-5.98262">
        <ele>8.847812</ele>
        <time>2021-07-15T07:25:02Z</time>
      </trkpt>
      <trkpt lat="37.39828" lon="-5.98212">
        <ele>12.07448</ele>
        <time>2021-07-15T07:25:13Z</time>
      </trkpt>
      <trkpt lat="37.39822" lon="-5.9816">
        <ele>9.401732</ele>
        <time>2021-07-15T07:25:24Z</time>
      </trkpt>
      <trkpt lat="37.39765" lon="-5.98149">
        <ele>10.42257</ele>
        <time>2021-07-15T07:25:35Z</time>
      </trkpt>
      <trkpt lat="37.39764" lon="-5.98144">
        <ele>9.686497</ele>
        <time>2021-07-15T07:25:47Z</time>
      </trkpt>
      <trkpt lat="37.39742" lon="-5.98137">
        <ele>10.18924</ele>
        <time>2021-07-15T07:25:58Z</time>
      </trkpt>
      <trkpt lat="37.39669" lon="-5.98191">
        <ele>8.853859</ele>
        <time>2021-07-15T07:26:09Z</time>
      </trkpt>
      <trkpt lat="37.39584" lon="-5.98256">
        <ele>10.44361</ele>
        <time>2021-07-15T07:26:20Z</time>
      </trkpt>
      <trkpt lat="37.39496" lon="-5.98322">
        <ele>9.237879</ele>
        <time>2021-07-15T07:26:31Z</time>
      </trkpt>
      <trkpt lat="37.39417" lon="-5.98371">
        <ele>9.046515</ele>
        <time>2021-07-15T07:26:42Z</time>
      </trkpt>
      <trkpt lat="37.39312" lon="-5.98403">
        <ele>8.621499</ele>
        <time>2021-07-15T07:26:53Z</time>
      </trkpt>
      <trkpt lat="37.39245" lon="-5.98413">
        <ele>8.370959</ele>
        <time>2021-07-15T07:27:04Z</time>
      </trkpt>
      <trkpt lat="37.39129" lon="-5.98414">
        <ele>8.820364</ele>
        <time>2021-07-15T07:27:15Z</time>
      </trkpt>
      <trkpt lat="37.39018" lon="-5.98421">
        <ele>8.317016</ele>
        <time>2021-07-15T07:27:26Z</time>
      </trkpt>
      <trkpt lat="37.38961" lon="-5.98436">
        <ele>9.365351</ele>
        <time>2021-07-15T07:27:37Z</time>
      </trkpt>
      <trkpt lat="37.3888" lon="-5.98469">
        <ele>8.244633</ele>
        <time>2021-07-15T07:27:48Z</time>
      </trkpt>
      <trkpt lat="37.38799" lon="-5.98501">
        <ele>7.981572</ele>
        <time>2021-07-15T07:27:59Z</time>
      </trkpt>
      <trkpt lat="37.38689" lon="-5.98547">
        <ele>9.114338</ele>
        <time>2021-07-15T07:28:10Z</time>
      </trkpt>
      <trkpt lat="37.38615" lon="-5.98587">
        <ele>8.760615</ele>
        <time>2021-07-15T07:28:21Z</time>
      </trkpt>
      <trkpt lat="37.38616" lon="-5.98582">
        <ele>8.282097</ele>
        <time>2021-07-15T07:28:35Z</time>
      </trkpt>
      <trkpt lat="37.38613" lon="-5.98586">
        <ele>8.844921</ele>
        <time>2021-07-15T07:28:48Z</time>
      </trkpt>
      <trkpt lat="37.38609" lon="-5.98588">
        <ele>9.531591</ele>
        <time>2021-07-15T07:29:12Z</time>
      </trkpt>
      <trkpt lat="37.38537" lon="-5.98626">
        <ele>8.389619</ele>
        <time>2021-07-15T07:29:23Z</time>
      </trkpt>
      <trkpt lat="37.38419" lon="-5.98689">
        <ele>7.208072</ele>
        <time>2021-07-15T07:29:34Z</time>
      </trkpt>
      <trkpt lat="37.38301" lon="-5.98752">
        <ele>8.519718</ele>
        <time>2021-07-15T07:29:45Z</time>
      </trkpt>
      <trkpt lat="37.38261" lon="-5.98774">
        <ele>7.031282</ele>
        <time>2021-07-15T07:29:56Z</time>
      </trkpt>
      <trkpt lat="37.38249" lon="-5.9878">
        <ele>8.744273</ele>
        <time>2021-07-15T07:30:07Z</time>
      </trkpt>
      <trkpt lat="37.38182" lon="-5.98819">
        <ele>7.697603</ele>
        <time>2021-07-15T07:30:18Z</time>
      </trkpt>
      <trkpt lat="37.38093" lon="-5.98878">
        <ele>5.991697</ele>
        <time>2021-07-15T07:30:29Z</time>
      </trkpt>
      <trkpt lat="37.38011" lon="-5.98911">
        <ele>8.904931</ele>
        <time>2021-07-15T07:30:40Z</time>
      </trkpt>
      <trkpt lat="37.37927" lon="-5.98966">
        <ele>9.750047</ele>
        <time>2021-07-15T07:30:51Z</time>
      </trkpt>
      <trkpt lat="37.37831" lon="-5.99017">
        <ele>9.049132</ele>
        <time>2021-07-15T07:31:02Z</time>
      </trkpt>
      <trkpt lat="37.37728" lon="-5.99076">
        <ele>9.700348</ele>
        <time>2021-07-15T07:31:13Z</time>
      </trkpt>
      <trkpt lat="37.37644" lon="-5.99122">
        <ele>8.425568</ele>
        <time>2021-07-15T07:31:24Z</time>
      </trkpt>
      <trkpt lat="37.37634" lon="-5.99127">
        <ele>9.093375</ele>
        <time>2021-07-15T07:31:35Z</time>
      </trkpt>
      <trkpt lat="37.37629" lon="-5.99126">
        <ele>8.870023</ele>
        <time>2021-07-15T07:31:46Z</time>
      </trkpt>
      <trkpt lat="37.37623" lon="-5.99129">
        <ele>9.655195</ele>
        <time>2021-07-15T07:32:16Z</time>
      </trkpt>
      <trkpt lat="37.37581" lon="-5.99158">
        <ele>7.455153</ele>
        <time>2021-07-15T07:32:27Z</time>
      </trkpt>
      <trkpt lat="37.37541" lon="-5.99163">
        <ele>7.656768</ele>
        <time>2021-07-15T07:32:38Z</time>
      </trkpt>
      <trkpt lat="37.37536" lon="-5.99159">
        <ele>7.77129</ele>
        <time>2021-07-15T07:32:58Z</time>
      </trkpt>
      <trkpt lat="37.37426" lon="-5.99091">
        <ele>7.303642</ele>
        <time>2021-07-15T07:33:09Z</time>
      </trkpt>
      <trkpt lat="37.37362" lon="-5.99052">
        <ele>8.01958</ele>
        <time>2021-07-15T07:33:20Z</time>
      </trkpt>
      <trkpt lat="37.37298" lon="-5.99014">
        <ele>7.798623</ele>
        <time>2021-07-15T07:33:31Z</time>
      </trkpt>
      <trkpt lat="37.37169" lon="-5.98936">
        <ele>7.869973</ele>
        <time>2021-07-15T07:33:42Z</time>
      </trkpt>
      <trkpt lat="37.37045" lon="-5.98861">
        <ele>8.299368</ele>
        <time>2021-07-15T07:33:53Z</time>
      </trkpt>
      <trkpt lat="37.36998" lon="-5.98832">
        <ele>8.343214</ele>
        <time>2021-07-15T07:34:04Z</time>
      </trkpt>
      <trkpt lat="37.36995" lon="-5.98828">
        <ele>9.218482</ele>
        <time>2021-07-15T07:34:52Z</time>
      </trkpt>
      <trkpt lat="37.36925" lon="-5.98785">
        <ele>8.228216</ele>
        <time>2021-07-15T07:35:03Z</time>
      </trkpt>
      <trkpt lat="37.36812" lon="-5.98719">
        <ele>8.810233</ele>
        <time>2021-07-15T07:35:14Z</time>
      </trkpt>
      <trkpt lat="37.36675" lon="-5.98637">
        <ele>7.985181</ele>
        <time>2021-07-15T07:35:25Z</time>
      </trkpt>
      <trkpt lat="37.36532" lon="-5.98552">
        <ele>8.242012</ele>
        <time>2021-07-15T07:35:36Z</time>
      </trkpt>
      <trkpt lat="37.36422" lon="-5.98485">
        <ele>8.352477</ele>
        <time>2021-07-15T07:35:47Z</time>
      </trkpt>
      <trkpt lat="37.36368" lon="-5.98453">
        <ele>8.806525</ele>
        <time>2021-07-15T07:35:58Z</time>
      </trkpt>
      <trkpt lat="37.36305" lon="-5.98416">
        <ele>7.920684</ele>
        <time>2021-07-15T07:36:09Z</time>
      </trkpt>
      <trkpt lat="37.36179" lon="-5.9834">
        <ele>7.783565</ele>
        <time>2021-07-15T07:36:20Z</time>
      </trkpt>
      <trkpt lat="37.36053" lon="-5.98265">
        <ele>6.922124</ele>
        <time>2021-07-15T07:36:31Z</time>
      </trkpt>
      <trkpt lat="37.3593" lon="-5.98192">
        <ele>7.868558</ele>
        <time>2021-07-15T07:36:42Z</time>
      </trkpt>
      <trkpt lat="37.35817" lon="-5.98126">
        <ele>6.672681</ele>
        <time>2021-07-15T07:36:53Z</time>
      </trkpt>
      <trkpt lat="37.35735" lon="-5.98077">
        <ele>7.42608</ele>
        <time>2021-07-15T07:37:04Z</time>
      </trkpt>
      <trkpt lat="37.35651" lon="-5.98033">
        <ele>7.930169</ele>
        <time>2021-07-15T07:37:15Z</time>
      </trkpt>
      <trkpt lat="37.35547" lon="-5.97965">
        <ele>8.996273</ele>
        <time>2021-07-15T07:37:26Z</time>
      </trkpt>
      <trkpt lat="37.35416" lon="-5.97889">
        <ele>10.3311</ele>
        <time>2021-07-15T07:37:37Z</time>
      </trkpt>
      <trkpt lat="37.35284" lon="-5.97809">
        <ele>9.567994</ele>
        <time>2021-07-15T07:37:48Z</time>
      </trkpt>
      <trkpt lat="37.35239" lon="-5.97781">
        <ele>9.510365</ele>
        <time>2021-07-15T07:37:59Z</time>
      </trkpt>
      <trkpt lat="37.35236" lon="-5.97783">
        <ele>10.77773</ele>
        <time>2021-07-15T07:38:10Z</time>
      </trkpt>
      <trkpt lat="37.3522" lon="-5.97774">
        <ele>10.19989</ele>
        <time>2021-07-15T07:38:21Z</time>
      </trkpt>
      <trkpt lat="37.35139" lon="-5.97726">
        <ele>10.10043</ele>
        <time>2021-07-15T07:38:32Z</time>
      </trkpt>
      <trkpt lat="37.35008" lon="-5.97676">
        <ele>11.53037</ele>
        <time>2021-07-15T07:38:43Z</time>
      </trkpt>
      <trkpt lat="37.34875" lon="-5.97652">
        <ele>12.2433</ele>
        <time>2021-07-15T07:38:54Z</time>
      </trkpt>
      <trkpt lat="37.3473" lon="-5.97618">
        <ele>11.93153</ele>
        <time>2021-07-15T07:39:05Z</time>
      </trkpt>
      <trkpt lat="37.34611" lon="-5.97551">
        <ele>12.90213</ele>
        <time>2021-07-15T07:39:16Z</time>
      </trkpt>
      <trkpt lat="37.34499" lon="-5.97483">
        <ele>11.78172</ele>
        <time>2021-07-15T07:39:27Z</time>
      </trkpt>
      <trkpt lat="37.34455" lon="-5.97458">
        <ele>11.22421</ele>
        <time>2021-07-15T07:39:38Z</time>
      </trkpt>
      <trkpt lat="37.34417" lon="-5.97438">
        <ele>10.0911</ele>
        <time>2021-07-15T07:39:49Z</time>
      </trkpt>
      <trkpt lat="37.34411" lon="-5.97434">
        <ele>9.159762</ele>
        <time>2021-07-15T07:40:03Z</time>
      </trkpt>
      <trkpt lat="37.34322" lon="-5.97379">
        <ele>8.218192</ele>
        <time>2021-07-15T07:40:14Z</time>
      </trkpt>
      <trkpt lat="37.34195" lon="-5.97302">
        <ele>7.12228</ele>
        <time>2021-07-15T07:40:25Z</time>
      </trkpt>
      <trkpt lat="37.34014" lon="-5.97189">
        <ele>10.9306</ele>
        <time>2021-07-15T07:40:36Z</time>
      </trkpt>
      <trkpt lat="37.33816" lon="-5.97077">
        <ele>9.362437</ele>
        <time>2021-07-15T07:40:47Z</time>
      </trkpt>
      <trkpt lat="37.33638" lon="-5.97014">
        <ele>14.92806</ele>
        <time>2021-07-15T07:40:58Z</time>
      </trkpt>
      <trkpt lat="37.33568" lon="-5.96994">
        <ele>14.01376</ele>
        <time>2021-07-15T07:41:09Z</time>
      </trkpt>
      <trkpt lat="37.33564" lon="-5.96994">
        <ele>14.4451</ele>
        <time>2021-07-15T07:41:22Z</time>
      </trkpt>
      <trkpt lat="37.33553" lon="-5.9699">
        <ele>13.64615</ele>
        <time>2021-07-15T07:41:33Z</time>
      </trkpt>
      <trkpt lat="37.33448" lon="-5.96952">
        <ele>13.36636</ele>
        <time>2021-07-15T07:41:44Z</time>
      </trkpt>
      <trkpt lat="37.33322" lon="-5.96908">
        <ele>14.30047</ele>
        <time>2021-07-15T07:41:55Z</time>
      </trkpt>
      <trkpt lat="37.33202" lon="-5.96866">
        <ele>13.68447</ele>
        <time>2021-07-15T07:42:06Z</time>
      </trkpt>
      <trkpt lat="37.33092" lon="-5.9683">
        <ele>13.90193</ele>
        <time>2021-07-15T07:42:17Z</time>
      </trkpt>
      <trkpt lat="37.33042" lon="-5.96827">
        <ele>13.95049</ele>
        <time>2021-07-15T07:42:28Z</time>
      </trkpt>
      <trkpt lat="37.33037" lon="-5.96825">
        <ele>14.09963</ele>
        <time>2021-07-15T07:43:09Z</time>
      </trkpt>
      <trkpt lat="37.32988" lon="-5.96858">
        <ele>13.71474</ele>
        <time>2021-07-15T07:43:20Z</time>
      </trkpt>
      <trkpt lat="37.32869" lon="-5.96859">
        <ele>13.89961</ele>
        <time>2021-07-15T07:43:31Z</time>
      </trkpt>
      <trkpt lat="37.32765" lon="-5.96903">
        <ele>17.30593</ele>
        <time>2021-07-15T07:43:42Z</time>
      </trkpt>
      <trkpt lat="37.32737" lon="-5.96913">
        <ele>18.1644</ele>
        <time>2021-07-15T07:43:53Z</time>
      </trkpt>
      <trkpt lat="37.32672" lon="-5.96925">
        <ele>18.12541</ele>
        <time>2021-07-15T07:44:04Z</time>
      </trkpt>
      <trkpt lat="37.32561" lon="-5.96902">
        <ele>18.74271</ele>
        <time>2021-07-15T07:44:15Z</time>
      </trkpt>
      <trkpt lat="37.32452" lon="-5.96872">
        <ele>19.60852</ele>
        <time>2021-07-15T07:44:26Z</time>
      </trkpt>
      <trkpt lat="37.32339" lon="-5.96851">
        <ele>20.25415</ele>
        <time>2021-07-15T07:44:37Z</time>
      </trkpt>
      <trkpt lat="37.32213" lon="-5.9686">
        <ele>21.8109</ele>
        <time>2021-07-15T07:44:48Z</time>
      </trkpt>
      <trkpt lat="37.32101" lon="-5.96868">
        <ele>21.55843</ele>
        <time>2021-07-15T07:44:59Z</time>
      </trkpt>
      <trkpt lat="37.32078" lon="-5.96869">
        <ele>22.04723</ele>
        <time>2021-07-15T07:45:10Z</time>
      </trkpt>
      <trkpt lat="37.32023" lon="-5.9692">
        <ele>20.71817</ele>
        <time>2021-07-15T07:45:21Z</time>
      </trkpt>
      <trkpt lat="37.31913" lon="-5.96895">
        <ele>19.90811</ele>
        <time>2021-07-15T07:45:32Z</time>
      </trkpt>
      <trkpt lat="37.31789" lon="-5.96912">
        <ele>19.50916</ele>
        <time>2021-07-15T07:45:43Z</time>
      </trkpt>
      <trkpt lat="37.31686" lon="-5.96907">
        <ele>17.9413</ele>
        <time>2021-07-15T07:45:54Z</time>
      </trkpt>
      <trkpt lat="37.3152" lon="-5.96939">
        <ele>21.11603</ele>
        <time>2021-07-15T07:46:05Z</time>
      </trkpt>
      <trkpt lat="37.31295" lon="-5.96988">
        <ele>21.61903</ele>
        <time>2021-07-15T07:46:16Z</time>
      </trkpt>
      <trkpt lat="37.31074" lon="-5.97033">
        <ele>22.66441</ele>
        <time>2021-07-15T07:46:27Z</time>
      </trkpt>
      <trkpt lat="37.30854" lon="-5.97003">
        <ele>20.41426</ele>
        <time>2021-07-15T07:46:38Z</time>
      </trkpt>
      <trkpt lat="37.30635" lon="-5.96919">
        <ele>18.94139</ele>
        <time>2021-07-15T07:46:49Z</time>
      </trkpt>
      <trkpt lat="37.3044" lon="-5.96774">
        <ele>18.10628</ele>
        <time>2021-07-15T07:47:00Z</time>
      </trkpt>
      <trkpt lat="37.30272" lon="-5.96547">
        <ele>21.02828</ele>
        <time>2021-07-15T07:47:11Z</time>
      </trkpt>
      <trkpt lat="37.3015" lon="-5.96286">
        <ele>22.14301</ele>
        <time>2021-07-15T07:47:22Z</time>
      </trkpt>
      <trkpt lat="37.30024" lon="-5.96024">
        <ele>18.9297</ele>
        <time>2021-07-15T07:47:33Z</time>
      </trkpt>
      <trkpt lat="37.29885" lon="-5.95774">
        <ele>16.88855</ele>
        <time>2021-07-15T07:47:44Z</time>
      </trkpt>
      <trkpt lat="37.29757" lon="-5.95543">
        <ele>17.74003</ele>
        <time>2021-07-15T07:47:55Z</time>
      </trkpt>
      <trkpt lat="37.29615" lon="-5.95286">
        <ele>16.29684</ele>
        <time>2021-07-15T07:48:06Z</time>
      </trkpt>
      <trkpt lat="37.29481" lon="-5.95038">
        <ele>16.90001</ele>
        <time>2021-07-15T07:48:17Z</time>
      </trkpt>
      <trkpt lat="37.29329" lon="-5.94779">
        <ele>20.52298</ele>
        <time>2021-07-15T07:48:28Z</time>
      </trkpt>
      <trkpt lat="37.29137" lon="-5.94609">
        <ele>24.02925</ele>
        <time>2021-07-15T07:48:39Z</time>
      </trkpt>
      <trkpt lat="37.28946" lon="-5.94454">
        <ele>28.60478</ele>
        <time>2021-07-15T07:48:50Z</time>
      </trkpt>
      <trkpt lat="37.28817" lon="-5.94355">
        <ele>30.30799</ele>
        <time>2021-07-15T07:49:01Z</time>
      </trkpt>
      <trkpt lat="37.28782" lon="-5.94331">
        <ele>32.27146</ele>
        <time>2021-07-15T07:49:12Z</time>
      </trkpt>
      <trkpt lat="37.28731" lon="-5.94289">
        <ele>33.26855</ele>
        <time>2021-07-15T07:49:23Z</time>
      </trkpt>
      <trkpt lat="37.28728" lon="-5.94284">
        <ele>35.0281</ele>
        <time>2021-07-15T07:49:34Z</time>
      </trkpt>
      <trkpt lat="37.28722" lon="-5.94277">
        <ele>33.83568</ele>
        <time>2021-07-15T07:49:50Z</time>
      </trkpt>
      <trkpt lat="37.28628" lon="-5.94191">
        <ele>36.23109</ele>
        <time>2021-07-15T07:50:01Z</time>
      </trkpt>
      <trkpt lat="37.285" lon="-5.9408">
        <ele>36.55203</ele>
        <time>2021-07-15T07:50:12Z</time>
      </trkpt>
      <trkpt lat="37.28372" lon="-5.93965">
        <ele>33.32519</ele>
        <time>2021-07-15T07:50:23Z</time>
      </trkpt>
      <trkpt lat="37.28267" lon="-5.9387">
        <ele>37.3398</ele>
        <time>2021-07-15T07:50:34Z</time>
      </trkpt>
      <trkpt lat="37.28145" lon="-5.93766">
        <ele>40.8048</ele>
        <time>2021-07-15T07:50:45Z</time>
      </trkpt>
      <trkpt lat="37.28032" lon="-5.93668">
        <ele>37.91405</ele>
        <time>2021-07-15T07:50:56Z</time>
      </trkpt>
      <trkpt lat="37.27936" lon="-5.93584">
        <ele>36.45739</ele>
        <time>2021-07-15T07:51:07Z</time>
      </trkpt>
      <trkpt lat="37.27862" lon="-5.93522">
        <ele>36.87132</ele>
        <time>2021-07-15T07:51:18Z</time>
      </trkpt>
      <trkpt lat="37.27778" lon="-5.93446">
        <ele>37.56464</ele>
        <time>2021-07-15T07:51:29Z</time>
      </trkpt>
      <trkpt lat="37.2766" lon="-5.93352">
        <ele>40.65717</ele>
        <time>2021-07-15T07:51:40Z</time>
      </trkpt>
      <trkpt lat="37.27526" lon="-5.93266">
        <ele>42.86233</ele>
        <time>2021-07-15T07:51:51Z</time>
      </trkpt>
      <trkpt lat="37.2743" lon="-5.93203">
        <ele>44.09139</ele>
        <time>2021-07-15T07:52:02Z</time>
      </trkpt>
      <trkpt lat="37.27354" lon="-5.93165">
        <ele>44.75796</ele>
        <time>2021-07-15T07:52:13Z</time>
      </trkpt>
      <trkpt lat="37.27285" lon="-5.93111">
        <ele>44.74914</ele>
        <time>2021-07-15T07:52:24Z</time>
      </trkpt>
      <trkpt lat="37.27159" lon="-5.93019">
        <ele>42.67051</ele>
        <time>2021-07-15T07:52:35Z</time>
      </trkpt>
      <trkpt lat="37.27006" lon="-5.92891">
        <ele>41.68606</ele>
        <time>2021-07-15T07:52:46Z</time>
      </trkpt>
      <trkpt lat="37.26849" lon="-5.92762">
        <ele>43.29944</ele>
        <time>2021-07-15T07:52:57Z</time>
      </trkpt>
      <trkpt lat="37.26711" lon="-5.92649">
        <ele>42.363</ele>
        <time>2021-07-15T07:53:08Z</time>
      </trkpt>
      <trkpt lat="37.26576" lon="-5.92529">
        <ele>45.40304</ele>
        <time>2021-07-15T07:53:19Z</time>
      </trkpt>
      <trkpt lat="37.26442" lon="-5.92402">
        <ele>46.01418</ele>
        <time>2021-07-15T07:53:30Z</time>
      </trkpt>
      <trkpt lat="37.26328" lon="-5.92279">
        <ele>47.99482</ele>
        <time>2021-07-15T07:53:41Z</time>
      </trkpt>
      <trkpt lat="37.26209" lon="-5.92201">
        <ele>50.83569</ele>
        <time>2021-07-15T07:53:52Z</time>
      </trkpt>
      <trkpt lat="37.26055" lon="-5.92223">
        <ele>53.73989</ele>
        <time>2021-07-15T07:54:03Z</time>
      </trkpt>
      <trkpt lat="37.25897" lon="-5.92166">
        <ele>54.63078</ele>
        <time>2021-07-15T07:54:14Z</time>
      </trkpt>
      <trkpt lat="37.25712" lon="-5.92131">
        <ele>50.5686</ele>
        <time>2021-07-15T07:54:25Z</time>
      </trkpt>
      <trkpt lat="37.25609" lon="-5.92134">
        <ele>50.61084</ele>
        <time>2021-07-15T07:54:36Z</time>
      </trkpt>
      <trkpt lat="37.25506" lon="-5.92129">
        <ele>49.62702</ele>
        <time>2021-07-15T07:54:47Z</time>
      </trkpt>
      <trkpt lat="37.25324" lon="-5.92193">
        <ele>49.30415</ele>
        <time>2021-07-15T07:54:58Z</time>
      </trkpt>
      <trkpt lat="37.25117" lon="-5.92278">
        <ele>52.76555</ele>
        <time>2021-07-15T07:55:09Z</time>
      </trkpt>
      <trkpt lat="37.24889" lon="-5.9232">
        <ele>46.22836</ele>
        <time>2021-07-15T07:55:20Z</time>
      </trkpt>
      <trkpt lat="37.24656" lon="-5.92372">
        <ele>43.4179</ele>
        <time>2021-07-15T07:55:31Z</time>
      </trkpt>
      <trkpt lat="37.24428" lon="-5.92432">
        <ele>42.41884</ele>
        <time>2021-07-15T07:55:42Z</time>
      </trkpt>
      <trkpt lat="37.24208" lon="-5.92496">
        <ele>39.51161</ele>
        <time>2021-07-15T07:55:53Z</time>
      </trkpt>
      <trkpt lat="37.23984" lon="-5.92561">
        <ele>36.83367</ele>
        <time>2021-07-15T07:56:04Z</time>
      </trkpt>
      <trkpt lat="37.23774" lon="-5.92622">
        <ele>37.97749</ele>
        <time>2021-07-15T07:56:15Z</time>
      </trkpt>
      <trkpt lat="37.23541" lon="-5.9266">
        <ele>38.42571</ele>
        <time>2021-07-15T07:56:26Z</time>
      </trkpt>
      <trkpt lat="37.23305" lon="-5.92637">
        <ele>36.60968</ele>
        <time>2021-07-15T07:56:37Z</time>
      </trkpt>
      <trkpt lat="37.23069" lon="-5.92574">
        <ele>33.51424</ele>
        <time>2021-07-15T07:56:48Z</time>
      </trkpt>
      <trkpt lat="37.22816" lon="-5.925">
        <ele>32.04769</ele>
        <time>2021-07-15T07:56:59Z</time>
      </trkpt>
      <trkpt lat="37.22599" lon="-5.92374">
        <ele>30.44717</ele>
        <time>2021-07-15T07:57:10Z</time>
      </trkpt>
      <trkpt lat="37.22388" lon="-5.92243">
        <ele>31.12504</ele>
        <time>2021-07-15T07:57:21Z</time>
      </trkpt>
      <trkpt lat="37.22156" lon="-5.92165">
        <ele>26.22177</ele>
        <time>2021-07-15T07:57:32Z</time>
      </trkpt>
      <trkpt lat="37.21922" lon="-5.92091">
        <ele>21.30305</ele>
        <time>2021-07-15T07:57:43Z</time>
      </trkpt>
      <trkpt lat="37.21686" lon="-5.92038">
        <ele>17.35431</ele>
        <time>2021-07-15T07:57:54Z</time>
      </trkpt>
      <trkpt lat="37.21448" lon="-5.92063">
        <ele>18.37969</ele>
        <time>2021-07-15T07:58:05Z</time>
      </trkpt>
      <trkpt lat="37.21215" lon="-5.92141">
        <ele>18.11294</ele>
        <time>2021-07-15T07:58:16Z</time>
      </trkpt>
      <trkpt lat="37.21006" lon="-5.92214">
        <ele>18.04402</ele>
        <time>2021-07-15T07:58:27Z</time>
      </trkpt>
      <trkpt lat="37.20779" lon="-5.92296">
        <ele>19.14527</ele>
        <time>2021-07-15T07:58:38Z</time>
      </trkpt>
      <trkpt lat="37.2055" lon="-5.92379">
        <ele>21.24222</ele>
        <time>2021-07-15T07:58:49Z</time>
      </trkpt>
      <trkpt lat="37.20325" lon="-5.92456">
        <ele>22.24038</ele>
        <time>2021-07-15T07:59:00Z</time>
      </trkpt>
      <trkpt lat="37.20099" lon="-5.92525">
        <ele>24.16444</ele>
        <time>2021-07-15T07:59:11Z</time>
      </trkpt>
      <trkpt lat="37.19845" lon="-5.92544">
        <ele>25.31663</ele>
        <time>2021-07-15T07:59:22Z</time>
      </trkpt>
      <trkpt lat="37.19608" lon="-5.92512">
        <ele>23.81492</ele>
        <time>2021-07-15T07:59:33Z</time>
      </trkpt>
      <trkpt lat="37.19369" lon="-5.92461">
        <ele>21.36807</ele>
        <time>2021-07-15T07:59:44Z</time>
      </trkpt>
      <trkpt lat="37.19127" lon="-5.92439">
        <ele>20.73767</ele>
        <time>2021-07-15T07:59:55Z</time>
      </trkpt>
      <trkpt lat="37.18888" lon="-5.92429">
        <ele>17.17333</ele>
        <time>2021-07-15T08:00:06Z</time>
      </trkpt>
      <trkpt lat="37.18643" lon="-5.92434">
        <ele>13.83827</ele>
        <time>2021-07-15T08:00:17Z</time>
      </trkpt>
      <trkpt lat="37.18423" lon="-5.92457">
        <ele>12.25468</ele>
        <time>2021-07-15T08:00:28Z</time>
      </trkpt>
      <trkpt lat="37.182" lon="-5.92576">
        <ele>11.16644</ele>
        <time>2021-07-15T08:00:39Z</time>
      </trkpt>
      <trkpt lat="37.1802" lon="-5.92779">
        <ele>9.95331</ele>
        <time>2021-07-15T08:00:50Z</time>
      </trkpt>
      <trkpt lat="37.17868" lon="-5.93012">
        <ele>6.668756</ele>
        <time>2021-07-15T08:01:01Z</time>
      </trkpt>
      <trkpt lat="37.17703" lon="-5.93267">
        <ele>6.115023</ele>
        <time>2021-07-15T08:01:12Z</time>
      </trkpt>
      <trkpt lat="37.17552" lon="-5.93501">
        <ele>5.406593</ele>
        <time>2021-07-15T08:01:23Z</time>
      </trkpt>
      <trkpt lat="37.17399" lon="-5.9374">
        <ele>3.724326</ele>
        <time>2021-07-15T08:01:34Z</time>
      </trkpt>
      <trkpt lat="37.17245" lon="-5.93979">
        <ele>4.554557</ele>
        <time>2021-07-15T08:01:45Z</time>
      </trkpt>
      <trkpt lat="37.17068" lon="-5.94183">
        <ele>7.445201</ele>
        <time>2021-07-15T08:01:56Z</time>
      </trkpt>
      <trkpt lat="37.16842" lon="-5.94275">
        <ele>7.766261</ele>
        <time>2021-07-15T08:02:07Z</time>
      </trkpt>
      <trkpt lat="37.16605" lon="-5.94265">
        <ele>5.729916</ele>
        <time>2021-07-15T08:02:18Z</time>
      </trkpt>
      <trkpt lat="37.16367" lon="-5.94253">
        <ele>1.754361</ele>
        <time>2021-07-15T08:02:29Z</time>
      </trkpt>
      <trkpt lat="37.16153" lon="-5.94243">
        <ele>1.893108</ele>
        <time>2021-07-15T08:02:40Z</time>
      </trkpt>
      <trkpt lat="37.1592" lon="-5.9422">
        <ele>1.718466</ele>
        <time>2021-07-15T08:02:51Z</time>
      </trkpt>
      <trkpt lat="37.15705" lon="-5.94102">
        <ele>2.163676</ele>
        <time>2021-07-15T08:03:02Z</time>
      </trkpt>
      <trkpt lat="37.15547" lon="-5.93887">
        <ele>2.599549</ele>
        <time>2021-07-15T08:03:13Z</time>
      </trkpt>
      <trkpt lat="37.15437" lon="-5.93592">
        <ele>3.638188</ele>
        <time>2021-07-15T08:03:24Z</time>
      </trkpt>
      <trkpt lat="37.15338" lon="-5.93321">
        <ele>3.842252</ele>
        <time>2021-07-15T08:03:35Z</time>
      </trkpt>
      <trkpt lat="37.15239" lon="-5.93052">
        <ele>3.296785</ele>
        <time>2021-07-15T08:03:46Z</time>
      </trkpt>
      <trkpt lat="37.15145" lon="-5.92783">
        <ele>2.057506</ele>
        <time>2021-07-15T08:03:57Z</time>
      </trkpt>
      <trkpt lat="37.1503" lon="-5.92526">
        <ele>3.296537</ele>
        <time>2021-07-15T08:04:08Z</time>
      </trkpt>
      <trkpt lat="37.14875" lon="-5.92315">
        <ele>4.206484</ele>
        <time>2021-07-15T08:04:19Z</time>
      </trkpt>
      <trkpt lat="37.1469" lon="-5.9217">
        <ele>4.151262</ele>
        <time>2021-07-15T08:04:30Z</time>
      </trkpt>
      <trkpt lat="37.14492" lon="-5.92025">
        <ele>5.626064</ele>
        <time>2021-07-15T08:04:41Z</time>
      </trkpt>
      <trkpt lat="37.14318" lon="-5.91835">
        <ele>8.959959</ele>
        <time>2021-07-15T08:04:52Z</time>
      </trkpt>
      <trkpt lat="37.14161" lon="-5.91605">
        <ele>9.881692</ele>
        <time>2021-07-15T08:05:03Z</time>
      </trkpt>
      <trkpt lat="37.14031" lon="-5.91348">
        <ele>5.701521</ele>
        <time>2021-07-15T08:05:14Z</time>
      </trkpt>
      <trkpt lat="37.1388" lon="-5.91114">
        <ele>3.926895</ele>
        <time>2021-07-15T08:05:25Z</time>
      </trkpt>
      <trkpt lat="37.13706" lon="-5.90908">
        <ele>5.148119</ele>
        <time>2021-07-15T08:05:36Z</time>
      </trkpt>
      <trkpt lat="37.13526" lon="-5.90714">
        <ele>7.217166</ele>
        <time>2021-07-15T08:05:47Z</time>
      </trkpt>
      <trkpt lat="37.13348" lon="-5.90523">
        <ele>6.505958</ele>
        <time>2021-07-15T08:05:58Z</time>
      </trkpt>
      <trkpt lat="37.13167" lon="-5.90329">
        <ele>7.090608</ele>
        <time>2021-07-15T08:06:09Z</time>
      </trkpt>
      <trkpt lat="37.12984" lon="-5.9013">
        <ele>6.043876</ele>
        <time>2021-07-15T08:06:20Z</time>
      </trkpt>
      <trkpt lat="37.128" lon="-5.89932">
        <ele>5.794502</ele>
        <time>2021-07-15T08:06:31Z</time>
      </trkpt>
      <trkpt lat="37.12616" lon="-5.89733">
        <ele>5.498804</ele>
        <time>2021-07-15T08:06:42Z</time>
      </trkpt>
      <trkpt lat="37.12429" lon="-5.89532">
        <ele>5.456749</ele>
        <time>2021-07-15T08:06:53Z</time>
      </trkpt>
      <trkpt lat="37.12243" lon="-5.89331">
        <ele>5.276768</ele>
        <time>2021-07-15T08:07:04Z</time>
      </trkpt>
      <trkpt lat="37.1206" lon="-5.89131">
        <ele>5.289988</ele>
        <time>2021-07-15T08:07:15Z</time>
      </trkpt>
      <trkpt lat="37.11874" lon="-5.88931">
        <ele>5.559505</ele>
        <time>2021-07-15T08:07:26Z</time>
      </trkpt>
      <trkpt lat="37.11688" lon="-5.88732">
        <ele>5.234691</ele>
        <time>2021-07-15T08:07:37Z</time>
      </trkpt>
      <trkpt lat="37.11505" lon="-5.88534">
        <ele>5.434802</ele>
        <time>2021-07-15T08:07:48Z</time>
      </trkpt>
      <trkpt lat="37.11307" lon="-5.88322">
        <ele>5.574599</ele>
        <time>2021-07-15T08:07:59Z</time>
      </trkpt>
      <trkpt lat="37.11117" lon="-5.88116">
        <ele>5.703518</ele>
        <time>2021-07-15T08:08:10Z</time>
      </trkpt>
      <trkpt lat="37.10926" lon="-5.8791">
        <ele>6.875757</ele>
        <time>2021-07-15T08:08:21Z</time>
      </trkpt>
      <trkpt lat="37.10734" lon="-5.87701">
        <ele>7.883997</ele>
        <time>2021-07-15T08:08:32Z</time>
      </trkpt>
      <trkpt lat="37.1054" lon="-5.87493">
        <ele>7.555008</ele>
        <time>2021-07-15T08:08:43Z</time>
      </trkpt>
      <trkpt lat="37.10344" lon="-5.87283">
        <ele>7.912275</ele>
        <time>2021-07-15T08:08:54Z</time>
      </trkpt>
      <trkpt lat="37.10153" lon="-5.87076">
        <ele>8.499901</ele>
        <time>2021-07-15T08:09:05Z</time>
      </trkpt>
      <trkpt lat="37.09962" lon="-5.8687">
        <ele>8.982132</ele>
        <time>2021-07-15T08:09:16Z</time>
      </trkpt>
      <trkpt lat="37.0977" lon="-5.86661">
        <ele>9.673892</ele>
        <time>2021-07-15T08:09:27Z</time>
      </trkpt>
      <trkpt lat="37.09567" lon="-5.86469">
        <ele>13.21295</ele>
        <time>2021-07-15T08:09:38Z</time>
      </trkpt>
      <trkpt lat="37.0935" lon="-5.86311">
        <ele>18.12252</ele>
        <time>2021-07-15T08:09:49Z</time>
      </trkpt>
      <trkpt lat="37.09134" lon="-5.8615">
        <ele>16.40733</ele>
        <time>2021-07-15T08:10:00Z</time>
      </trkpt>
      <trkpt lat="37.08912" lon="-5.86018">
        <ele>11.46853</ele>
        <time>2021-07-15T08:10:11Z</time>
      </trkpt>
      <trkpt lat="37.08675" lon="-5.85936">
        <ele>11.46861</ele>
        <time>2021-07-15T08:10:22Z</time>
      </trkpt>
      <trkpt lat="37.0843" lon="-5.85926">
        <ele>14.77063</ele>
        <time>2021-07-15T08:10:33Z</time>
      </trkpt>
      <trkpt lat="37.082" lon="-5.85836">
        <ele>17.8289</ele>
        <time>2021-07-15T08:10:44Z</time>
      </trkpt>
      <trkpt lat="37.08014" lon="-5.85632">
        <ele>12.94235</ele>
        <time>2021-07-15T08:10:55Z</time>
      </trkpt>
      <trkpt lat="37.07793" lon="-5.85483">
        <ele>10.71425</ele>
        <time>2021-07-15T08:11:06Z</time>
      </trkpt>
      <trkpt lat="37.07585" lon="-5.85324">
        <ele>11.42409</ele>
        <time>2021-07-15T08:11:17Z</time>
      </trkpt>
      <trkpt lat="37.07395" lon="-5.85156">
        <ele>11.81286</ele>
        <time>2021-07-15T08:11:28Z</time>
      </trkpt>
      <trkpt lat="37.07205" lon="-5.84986">
        <ele>12.51305</ele>
        <time>2021-07-15T08:11:39Z</time>
      </trkpt>
      <trkpt lat="37.07012" lon="-5.84816">
        <ele>12.24155</ele>
        <time>2021-07-15T08:11:50Z</time>
      </trkpt>
      <trkpt lat="37.06827" lon="-5.84645">
        <ele>12.99211</ele>
        <time>2021-07-15T08:12:01Z</time>
      </trkpt>
      <trkpt lat="37.06647" lon="-5.84468">
        <ele>13.00104</ele>
        <time>2021-07-15T08:12:12Z</time>
      </trkpt>
      <trkpt lat="37.06469" lon="-5.8429">
        <ele>13.10013</ele>
        <time>2021-07-15T08:12:23Z</time>
      </trkpt>
      <trkpt lat="37.06293" lon="-5.84115">
        <ele>13.24667</ele>
        <time>2021-07-15T08:12:34Z</time>
      </trkpt>
      <trkpt lat="37.06108" lon="-5.83955">
        <ele>13.78968</ele>
        <time>2021-07-15T08:12:45Z</time>
      </trkpt>
      <trkpt lat="37.05888" lon="-5.83909">
        <ele>12.61022</ele>
        <time>2021-07-15T08:12:56Z</time>
      </trkpt>
      <trkpt lat="37.05663" lon="-5.83876">
        <ele>12.88528</ele>
        <time>2021-07-15T08:13:07Z</time>
      </trkpt>
      <trkpt lat="37.0544" lon="-5.8386">
        <ele>15.06135</ele>
        <time>2021-07-15T08:13:18Z</time>
      </trkpt>
      <trkpt lat="37.05219" lon="-5.83877">
        <ele>15.31343</ele>
        <time>2021-07-15T08:13:29Z</time>
      </trkpt>
      <trkpt lat="37.04995" lon="-5.83893">
        <ele>16.33942</ele>
        <time>2021-07-15T08:13:40Z</time>
      </trkpt>
      <trkpt lat="37.0477" lon="-5.83909">
        <ele>17.5522</ele>
        <time>2021-07-15T08:13:51Z</time>
      </trkpt>
      <trkpt lat="37.04537" lon="-5.83889">
        <ele>18.31497</ele>
        <time>2021-07-15T08:14:02Z</time>
      </trkpt>
      <trkpt lat="37.0428" lon="-5.83862">
        <ele>17.38736</ele>
        <time>2021-07-15T08:14:13Z</time>
      </trkpt>
      <trkpt lat="37.04042" lon="-5.83836">
        <ele>18.50537</ele>
        <time>2021-07-15T08:14:24Z</time>
      </trkpt>
      <trkpt lat="37.03801" lon="-5.83808">
        <ele>16.52485</ele>
        <time>2021-07-15T08:14:35Z</time>
      </trkpt>
      <trkpt lat="37.03554" lon="-5.83783">
        <ele>15.05818</ele>
        <time>2021-07-15T08:14:46Z</time>
      </trkpt>
      <trkpt lat="37.0331" lon="-5.83757">
        <ele>15.36445</ele>
        <time>2021-07-15T08:14:57Z</time>
      </trkpt>
      <trkpt lat="37.03068" lon="-5.83739">
        <ele>13.319</ele>
        <time>2021-07-15T08:15:08Z</time>
      </trkpt>
      <trkpt lat="37.02832" lon="-5.83714">
        <ele>17.99439</ele>
        <time>2021-07-15T08:15:19Z</time>
      </trkpt>
      <trkpt lat="37.02599" lon="-5.83691">
        <ele>18.66739</ele>
        <time>2021-07-15T08:15:30Z</time>
      </trkpt>
      <trkpt lat="37.0236" lon="-5.83663">
        <ele>21.64383</ele>
        <time>2021-07-15T08:15:41Z</time>
      </trkpt>
      <trkpt lat="37.02128" lon="-5.83576">
        <ele>30.49363</ele>
        <time>2021-07-15T08:15:52Z</time>
      </trkpt>
      <trkpt lat="37.01901" lon="-5.83467">
        <ele>32.53414</ele>
        <time>2021-07-15T08:16:03Z</time>
      </trkpt>
      <trkpt lat="37.0168" lon="-5.83364">
        <ele>43.78718</ele>
        <time>2021-07-15T08:16:14Z</time>
      </trkpt>
      <trkpt lat="37.01459" lon="-5.8326">
        <ele>52.62174</ele>
        <time>2021-07-15T08:16:25Z</time>
      </trkpt>
      <trkpt lat="37.01227" lon="-5.83208">
        <ele>53.48524</ele>
        <time>2021-07-15T08:16:36Z</time>
      </trkpt>
      <trkpt lat="37.00998" lon="-5.8321">
        <ele>55.54306</ele>
        <time>2021-07-15T08:16:47Z</time>
      </trkpt>
      <trkpt lat="37.00768" lon="-5.83206">
        <ele>66.56389</ele>
        <time>2021-07-15T08:16:58Z</time>
      </trkpt>
      <trkpt lat="37.00544" lon="-5.83115">
        <ele>70.54756</ele>
        <time>2021-07-15T08:17:09Z</time>
      </trkpt>
      <trkpt lat="37.00329" lon="-5.83038">
        <ele>57.49075</ele>
        <time>2021-07-15T08:17:20Z</time>
      </trkpt>
      <trkpt lat="37.00103" lon="-5.82958">
        <ele>54.32036</ele>
        <time>2021-07-15T08:17:31Z</time>
      </trkpt>
      <trkpt lat="36.99873" lon="-5.82884">
        <ele>60.3323</ele>
        <time>2021-07-15T08:17:42Z</time>
      </trkpt>
      <trkpt lat="36.99632" lon="-5.82867">
        <ele>57.18457</ele>
        <time>2021-07-15T08:17:53Z</time>
      </trkpt>
      <trkpt lat="36.99394" lon="-5.82854">
        <ele>60.73958</ele>
        <time>2021-07-15T08:18:04Z</time>
      </trkpt>
      <trkpt lat="36.99161" lon="-5.82887">
        <ele>66.11983</ele>
        <time>2021-07-15T08:18:15Z</time>
      </trkpt>
      <trkpt lat="36.98998" lon="-5.83058">
        <ele>64.61225</ele>
        <time>2021-07-15T08:18:26Z</time>
      </trkpt>
      <trkpt lat="36.98881" lon="-5.8335">
        <ele>55.92879</ele>
        <time>2021-07-15T08:18:37Z</time>
      </trkpt>
      <trkpt lat="36.98778" lon="-5.83633">
        <ele>39.74989</ele>
        <time>2021-07-15T08:18:48Z</time>
      </trkpt>
      <trkpt lat="36.98673" lon="-5.83912">
        <ele>47.64759</ele>
        <time>2021-07-15T08:18:59Z</time>
      </trkpt>
      <trkpt lat="36.98561" lon="-5.84187">
        <ele>54.03731</ele>
        <time>2021-07-15T08:19:10Z</time>
      </trkpt>
      <trkpt lat="36.98425" lon="-5.84425">
        <ele>59.08447</ele>
        <time>2021-07-15T08:19:21Z</time>
      </trkpt>
      <trkpt lat="36.98295" lon="-5.84616">
        <ele>59.14778</ele>
        <time>2021-07-15T08:19:32Z</time>
      </trkpt>
      <trkpt lat="36.98192" lon="-5.84873">
        <ele>64.14895</ele>
        <time>2021-07-15T08:19:43Z</time>
      </trkpt>
      <trkpt lat="36.98018" lon="-5.85074">
        <ele>66.0456</ele>
        <time>2021-07-15T08:19:54Z</time>
      </trkpt>
      <trkpt lat="36.9785" lon="-5.85298">
        <ele>55.3687</ele>
        <time>2021-07-15T08:20:05Z</time>
      </trkpt>
      <trkpt lat="36.97723" lon="-5.85562">
        <ele>50.9332</ele>
        <time>2021-07-15T08:20:16Z</time>
      </trkpt>
      <trkpt lat="36.97614" lon="-5.85831">
        <ele>57.79327</ele>
        <time>2021-07-15T08:20:27Z</time>
      </trkpt>
      <trkpt lat="36.97474" lon="-5.86082">
        <ele>55.87261</ele>
        <time>2021-07-15T08:20:38Z</time>
      </trkpt>
      <trkpt lat="36.97317" lon="-5.86327">
        <ele>41.74263</ele>
        <time>2021-07-15T08:20:49Z</time>
      </trkpt>
      <trkpt lat="36.97166" lon="-5.86562">
        <ele>43.80399</ele>
        <time>2021-07-15T08:21:00Z</time>
      </trkpt>
      <trkpt lat="36.97042" lon="-5.86766">
        <ele>50.77575</ele>
        <time>2021-07-15T08:21:11Z</time>
      </trkpt>
      <trkpt lat="36.96977" lon="-5.86877">
        <ele>53.35876</ele>
        <time>2021-07-15T08:21:22Z</time>
      </trkpt>
      <trkpt lat="36.96877" lon="-5.8708">
        <ele>52.81446</ele>
        <time>2021-07-15T08:21:33Z</time>
      </trkpt>
      <trkpt lat="36.96904" lon="-5.87229">
        <ele>52.53314</ele>
        <time>2021-07-15T08:21:44Z</time>
      </trkpt>
      <trkpt lat="36.96934" lon="-5.87137">
        <ele>59.96534</ele>
        <time>2021-07-15T08:21:55Z</time>
      </trkpt>
      <trkpt lat="36.96789" lon="-5.86972">
        <ele>56.46144</ele>
        <time>2021-07-15T08:22:06Z</time>
      </trkpt>
      <trkpt lat="36.96652" lon="-5.86729">
        <ele>61.01318</ele>
        <time>2021-07-15T08:22:17Z</time>
      </trkpt>
      <trkpt lat="36.96526" lon="-5.86523">
        <ele>74.53085</ele>
        <time>2021-07-15T08:22:28Z</time>
      </trkpt>
      <trkpt lat="36.96308" lon="-5.86479">
        <ele>80.43006</ele>
        <time>2021-07-15T08:22:39Z</time>
      </trkpt>
      <trkpt lat="36.96143" lon="-5.86339">
        <ele>81.1693</ele>
        <time>2021-07-15T08:22:50Z</time>
      </trkpt>
      <trkpt lat="36.96024" lon="-5.86083">
        <ele>82.10034</ele>
        <time>2021-07-15T08:23:01Z</time>
      </trkpt>
      <trkpt lat="36.95905" lon="-5.85828">
        <ele>83.97346</ele>
        <time>2021-07-15T08:23:12Z</time>
      </trkpt>
      <trkpt lat="36.95819" lon="-5.85541">
        <ele>83.5582</ele>
        <time>2021-07-15T08:23:23Z</time>
      </trkpt>
      <trkpt lat="36.9574" lon="-5.85259">
        <ele>90.05298</ele>
        <time>2021-07-15T08:23:34Z</time>
      </trkpt>
      <trkpt lat="36.95657" lon="-5.84978">
        <ele>88.655</ele>
        <time>2021-07-15T08:23:45Z</time>
      </trkpt>
      <trkpt lat="36.95577" lon="-5.84706">
        <ele>90.61356</ele>
        <time>2021-07-15T08:23:56Z</time>
      </trkpt>
      <trkpt lat="36.95497" lon="-5.84431">
        <ele>97.35391</ele>
        <time>2021-07-15T08:24:07Z</time>
      </trkpt>
      <trkpt lat="36.95455" lon="-5.84137">
        <ele>103.1731</ele>
        <time>2021-07-15T08:24:18Z</time>
      </trkpt>
      <trkpt lat="36.95409" lon="-5.83841">
        <ele>107.5416</ele>
        <time>2021-07-15T08:24:29Z</time>
      </trkpt>
      <trkpt lat="36.95359" lon="-5.8355">
        <ele>115.1862</ele>
        <time>2021-07-15T08:24:40Z</time>
      </trkpt>
      <trkpt lat="36.95308" lon="-5.83256">
        <ele>111.4494</ele>
        <time>2021-07-15T08:24:51Z</time>
      </trkpt>
      <trkpt lat="36.95253" lon="-5.8297">
        <ele>116.4611</ele>
        <time>2021-07-15T08:25:02Z</time>
      </trkpt>
      <trkpt lat="36.95211" lon="-5.82683">
        <ele>119.9121</ele>
        <time>2021-07-15T08:25:13Z</time>
      </trkpt>
      <trkpt lat="36.95196" lon="-5.82384">
        <ele>118.8325</ele>
        <time>2021-07-15T08:25:24Z</time>
      </trkpt>
      <trkpt lat="36.95181" lon="-5.82079">
        <ele>118.2504</ele>
        <time>2021-07-15T08:25:35Z</time>
      </trkpt>
      <trkpt lat="36.95167" lon="-5.81779">
        <ele>123.7987</ele>
        <time>2021-07-15T08:25:46Z</time>
      </trkpt>
      <trkpt lat="36.95118" lon="-5.81492">
        <ele>128.3398</ele>
        <time>2021-07-15T08:25:57Z</time>
      </trkpt>
      <trkpt lat="36.9494" lon="-5.81295">
        <ele>132.2198</ele>
        <time>2021-07-15T08:26:08Z</time>
      </trkpt>
      <trkpt lat="36.94752" lon="-5.81104">
        <ele>134.8394</ele>
        <time>2021-07-15T08:26:19Z</time>
      </trkpt>
      <trkpt lat="36.94564" lon="-5.80916">
        <ele>137.2406</ele>
        <time>2021-07-15T08:26:30Z</time>
      </trkpt>
      <trkpt lat="36.94365" lon="-5.80737">
        <ele>137.3395</ele>
        <time>2021-07-15T08:26:41Z</time>
      </trkpt>
      <trkpt lat="36.94161" lon="-5.80574">
        <ele>137.324</ele>
        <time>2021-07-15T08:26:52Z</time>
      </trkpt>
      <trkpt lat="36.93966" lon="-5.8045">
        <ele>134.1678</ele>
        <time>2021-07-15T08:27:03Z</time>
      </trkpt>
      <trkpt lat="36.9383" lon="-5.80209">
        <ele>126.2194</ele>
        <time>2021-07-15T08:27:14Z</time>
      </trkpt>
      <trkpt lat="36.93638" lon="-5.80077">
        <ele>126.0198</ele>
        <time>2021-07-15T08:27:25Z</time>
      </trkpt>
      <trkpt lat="36.93541" lon="-5.79809">
        <ele>128.7189</ele>
        <time>2021-07-15T08:27:36Z</time>
      </trkpt>
      <trkpt lat="36.93433" lon="-5.79548">
        <ele>128.4983</ele>
        <time>2021-07-15T08:27:47Z</time>
      </trkpt>
      <trkpt lat="36.93224" lon="-5.79419">
        <ele>135.2931</ele>
        <time>2021-07-15T08:27:58Z</time>
      </trkpt>
      <trkpt lat="36.93092" lon="-5.79208">
        <ele>149.71</ele>
        <time>2021-07-15T08:28:09Z</time>
      </trkpt>
      <trkpt lat="36.92977" lon="-5.78954">
        <ele>150.5072</ele>
        <time>2021-07-15T08:28:20Z</time>
      </trkpt>
      <trkpt lat="36.92895" lon="-5.7868">
        <ele>149.3675</ele>
        <time>2021-07-15T08:28:31Z</time>
      </trkpt>
      <trkpt lat="36.9276" lon="-5.78436">
        <ele>141.755</ele>
        <time>2021-07-15T08:28:42Z</time>
      </trkpt>
      <trkpt lat="36.9265" lon="-5.7817">
        <ele>129.0129</ele>
        <time>2021-07-15T08:28:53Z</time>
      </trkpt>
      <trkpt lat="36.92514" lon="-5.77926">
        <ele>116.441</ele>
        <time>2021-07-15T08:29:04Z</time>
      </trkpt>
      <trkpt lat="36.92443" lon="-5.77639">
        <ele>106.4275</ele>
        <time>2021-07-15T08:29:15Z</time>
      </trkpt>
      <trkpt lat="36.92337" lon="-5.77381">
        <ele>105.1535</ele>
        <time>2021-07-15T08:29:26Z</time>
      </trkpt>
      <trkpt lat="36.92142" lon="-5.77224">
        <ele>110.8294</ele>
        <time>2021-07-15T08:29:37Z</time>
      </trkpt>
      <trkpt lat="36.91991" lon="-5.77014">
        <ele>125.3972</ele>
        <time>2021-07-15T08:29:48Z</time>
      </trkpt>
      <trkpt lat="36.9194" lon="-5.76742">
        <ele>135.2335</ele>
        <time>2021-07-15T08:29:59Z</time>
      </trkpt>
      <trkpt lat="36.91945" lon="-5.76443">
        <ele>130.5267</ele>
        <time>2021-07-15T08:30:10Z</time>
      </trkpt>
      <trkpt lat="36.91858" lon="-5.76161">
        <ele>128.9367</ele>
        <time>2021-07-15T08:30:21Z</time>
      </trkpt>
      <trkpt lat="36.91729" lon="-5.75906">
        <ele>138.4665</ele>
        <time>2021-07-15T08:30:32Z</time>
      </trkpt>
      <trkpt lat="36.91564" lon="-5.75683">
        <ele>145.236</ele>
        <time>2021-07-15T08:30:43Z</time>
      </trkpt>
      <trkpt lat="36.91386" lon="-5.75482">
        <ele>157.6699</ele>
        <time>2021-07-15T08:30:54Z</time>
      </trkpt>
      <trkpt lat="36.91204" lon="-5.75276">
        <ele>153.1241</ele>
        <time>2021-07-15T08:31:05Z</time>
      </trkpt>
      <trkpt lat="36.91029" lon="-5.75043">
        <ele>146.3899</ele>
        <time>2021-07-15T08:31:16Z</time>
      </trkpt>
      <trkpt lat="36.90969" lon="-5.74745">
        <ele>152.6514</ele>
        <time>2021-07-15T08:31:27Z</time>
      </trkpt>
      <trkpt lat="36.91034" lon="-5.74438">
        <ele>156.9202</ele>
        <time>2021-07-15T08:31:38Z</time>
      </trkpt>
      <trkpt lat="36.91116" lon="-5.74135">
        <ele>159.6282</ele>
        <time>2021-07-15T08:31:49Z</time>
      </trkpt>
      <trkpt lat="36.91176" lon="-5.73854">
        <ele>154.5133</ele>
        <time>2021-07-15T08:32:00Z</time>
      </trkpt>
      <trkpt lat="36.9118" lon="-5.73536">
        <ele>151.7571</ele>
        <time>2021-07-15T08:32:11Z</time>
      </trkpt>
      <trkpt lat="36.91106" lon="-5.73208">
        <ele>148.9844</ele>
        <time>2021-07-15T08:32:22Z</time>
      </trkpt>
      <trkpt lat="36.90972" lon="-5.72937">
        <ele>139.335</ele>
        <time>2021-07-15T08:32:33Z</time>
      </trkpt>
      <trkpt lat="36.90805" lon="-5.7269">
        <ele>131.7618</ele>
        <time>2021-07-15T08:32:44Z</time>
      </trkpt>
      <trkpt lat="36.90645" lon="-5.72453">
        <ele>130.4269</ele>
        <time>2021-07-15T08:32:55Z</time>
      </trkpt>
      <trkpt lat="36.90479" lon="-5.72208">
        <ele>131.2698</ele>
        <time>2021-07-15T08:33:06Z</time>
      </trkpt>
      <trkpt lat="36.90307" lon="-5.71973">
        <ele>133.834</ele>
        <time>2021-07-15T08:33:17Z</time>
      </trkpt>
      <trkpt lat="36.9011" lon="-5.71777">
        <ele>135.2099</ele>
        <time>2021-07-15T08:33:28Z</time>
      </trkpt>
      <trkpt lat="36.89898" lon="-5.71606">
        <ele>135.7371</ele>
        <time>2021-07-15T08:33:39Z</time>
      </trkpt>
      <trkpt lat="36.89689" lon="-5.71438">
        <ele>138.293</ele>
        <time>2021-07-15T08:33:50Z</time>
      </trkpt>
      <trkpt lat="36.89502" lon="-5.71275">
        <ele>143.1446</ele>
        <time>2021-07-15T08:34:01Z</time>
      </trkpt>
      <trkpt lat="36.89308" lon="-5.71034">
        <ele>151.1287</ele>
        <time>2021-07-15T08:34:13Z</time>
      </trkpt>
      <trkpt lat="36.89153" lon="-5.70752">
        <ele>138.7825</ele>
        <time>2021-07-15T08:34:24Z</time>
      </trkpt>
      <trkpt lat="36.89023" lon="-5.7048">
        <ele>128.0287</ele>
        <time>2021-07-15T08:34:35Z</time>
      </trkpt>
      <trkpt lat="36.88861" lon="-5.70243">
        <ele>121.6757</ele>
        <time>2021-07-15T08:34:46Z</time>
      </trkpt>
      <trkpt lat="36.8869" lon="-5.70009">
        <ele>118.2357</ele>
        <time>2021-07-15T08:34:57Z</time>
      </trkpt>
      <trkpt lat="36.88518" lon="-5.69776">
        <ele>114.7831</ele>
        <time>2021-07-15T08:35:08Z</time>
      </trkpt>
      <trkpt lat="36.88355" lon="-5.69556">
        <ele>112.431</ele>
        <time>2021-07-15T08:35:19Z</time>
      </trkpt>
      <trkpt lat="36.88202" lon="-5.69347">
        <ele>110.5336</ele>
        <time>2021-07-15T08:35:30Z</time>
      </trkpt>
      <trkpt lat="36.88048" lon="-5.69137">
        <ele>110.018</ele>
        <time>2021-07-15T08:35:41Z</time>
      </trkpt>
      <trkpt lat="36.87885" lon="-5.68912">
        <ele>110.8606</ele>
        <time>2021-07-15T08:35:52Z</time>
      </trkpt>
      <trkpt lat="36.87716" lon="-5.68681">
        <ele>110.8229</ele>
        <time>2021-07-15T08:36:03Z</time>
      </trkpt>
      <trkpt lat="36.87559" lon="-5.68469">
        <ele>110.7036</ele>
        <time>2021-07-15T08:36:14Z</time>
      </trkpt>
      <trkpt lat="36.8739" lon="-5.68238">
        <ele>119.7093</ele>
        <time>2021-07-15T08:36:25Z</time>
      </trkpt>
      <trkpt lat="36.87221" lon="-5.68006">
        <ele>118.7376</ele>
        <time>2021-07-15T08:36:36Z</time>
      </trkpt>
      <trkpt lat="36.87023" lon="-5.67764">
        <ele>122.3806</ele>
        <time>2021-07-15T08:36:47Z</time>
      </trkpt>
      <trkpt lat="36.86818" lon="-5.67591">
        <ele>133.7231</ele>
        <time>2021-07-15T08:36:58Z</time>
      </trkpt>
      <trkpt lat="36.86586" lon="-5.67467">
        <ele>134.0496</ele>
        <time>2021-07-15T08:37:09Z</time>
      </trkpt>
      <trkpt lat="36.86337" lon="-5.67396">
        <ele>126.3613</ele>
        <time>2021-07-15T08:37:20Z</time>
      </trkpt>
      <trkpt lat="36.86084" lon="-5.67393">
        <ele>115.8612</ele>
        <time>2021-07-15T08:37:31Z</time>
      </trkpt>
      <trkpt lat="36.85839" lon="-5.67445">
        <ele>104.2563</ele>
        <time>2021-07-15T08:37:42Z</time>
      </trkpt>
      <trkpt lat="36.85609" lon="-5.6755">
        <ele>100.7134</ele>
        <time>2021-07-15T08:37:53Z</time>
      </trkpt>
      <trkpt lat="36.85424" lon="-5.67668">
        <ele>98.36889</ele>
        <time>2021-07-15T08:38:04Z</time>
      </trkpt>
      <trkpt lat="36.85325" lon="-5.67756">
        <ele>100.5079</ele>
        <time>2021-07-15T08:38:15Z</time>
      </trkpt>
      <trkpt lat="36.85162" lon="-5.67949">
        <ele>108.6753</ele>
        <time>2021-07-15T08:38:26Z</time>
      </trkpt>
      <trkpt lat="36.84954" lon="-5.68094">
        <ele>110.182</ele>
        <time>2021-07-15T08:38:37Z</time>
      </trkpt>
      <trkpt lat="36.84782" lon="-5.68286">
        <ele>108.0452</ele>
        <time>2021-07-15T08:38:48Z</time>
      </trkpt>
      <trkpt lat="36.8465" lon="-5.68503">
        <ele>112.3111</ele>
        <time>2021-07-15T08:38:59Z</time>
      </trkpt>
      <trkpt lat="36.84552" lon="-5.68732">
        <ele>112.8867</ele>
        <time>2021-07-15T08:39:10Z</time>
      </trkpt>
      <trkpt lat="36.84457" lon="-5.68953">
        <ele>110.5602</ele>
        <time>2021-07-15T08:39:21Z</time>
      </trkpt>
      <trkpt lat="36.84366" lon="-5.69183">
        <ele>107.2047</ele>
        <time>2021-07-15T08:39:32Z</time>
      </trkpt>
      <trkpt lat="36.84238" lon="-5.6947">
        <ele>109.9658</ele>
        <time>2021-07-15T08:39:43Z</time>
      </trkpt>
      <trkpt lat="36.84129" lon="-5.69732">
        <ele>107.4171</ele>
        <time>2021-07-15T08:39:54Z</time>
      </trkpt>
      <trkpt lat="36.84028" lon="-5.69989">
        <ele>105.4025</ele>
        <time>2021-07-15T08:40:05Z</time>
      </trkpt>
      <trkpt lat="36.84047" lon="-5.70272">
        <ele>107.1008</ele>
        <time>2021-07-15T08:40:16Z</time>
      </trkpt>
      <trkpt lat="36.84102" lon="-5.70566">
        <ele>103.6492</ele>
        <time>2021-07-15T08:40:27Z</time>
      </trkpt>
      <trkpt lat="36.84083" lon="-5.70863">
        <ele>103.8556</ele>
        <time>2021-07-15T08:40:38Z</time>
      </trkpt>
      <trkpt lat="36.84055" lon="-5.7116">
        <ele>104.3642</ele>
        <time>2021-07-15T08:40:49Z</time>
      </trkpt>
      <trkpt lat="36.83924" lon="-5.71405">
        <ele>102.5652</ele>
        <time>2021-07-15T08:41:00Z</time>
      </trkpt>
      <trkpt lat="36.83778" lon="-5.71634">
        <ele>102.8376</ele>
        <time>2021-07-15T08:41:11Z</time>
      </trkpt>
      <trkpt lat="36.83586" lon="-5.71781">
        <ele>101.2201</ele>
        <time>2021-07-15T08:41:22Z</time>
      </trkpt>
      <trkpt lat="36.8336" lon="-5.71835">
        <ele>103.781</ele>
        <time>2021-07-15T08:41:33Z</time>
      </trkpt>
      <trkpt lat="36.83196" lon="-5.72034">
        <ele>105.6187</ele>
        <time>2021-07-15T08:41:44Z</time>
      </trkpt>
      <trkpt lat="36.83095" lon="-5.72296">
        <ele>112.8034</ele>
        <time>2021-07-15T08:41:55Z</time>
      </trkpt>
      <trkpt lat="36.82996" lon="-5.72542">
        <ele>121.0454</ele>
        <time>2021-07-15T08:42:06Z</time>
      </trkpt>
      <trkpt lat="36.829" lon="-5.72782">
        <ele>117.7085</ele>
        <time>2021-07-15T08:42:17Z</time>
      </trkpt>
      <trkpt lat="36.82803" lon="-5.73025">
        <ele>122.2624</ele>
        <time>2021-07-15T08:42:28Z</time>
      </trkpt>
      <trkpt lat="36.8271" lon="-5.73275">
        <ele>123.1621</ele>
        <time>2021-07-15T08:42:39Z</time>
      </trkpt>
      <trkpt lat="36.82643" lon="-5.73539">
        <ele>119.8023</ele>
        <time>2021-07-15T08:42:50Z</time>
      </trkpt>
      <trkpt lat="36.82577" lon="-5.73801">
        <ele>124.1898</ele>
        <time>2021-07-15T08:43:01Z</time>
      </trkpt>
      <trkpt lat="36.8251" lon="-5.74055">
        <ele>132.5393</ele>
        <time>2021-07-15T08:43:12Z</time>
      </trkpt>
      <trkpt lat="36.82471" lon="-5.74216">
        <ele>138.0485</ele>
        <time>2021-07-15T08:43:23Z</time>
      </trkpt>
      <trkpt lat="36.82389" lon="-5.74196">
        <ele>130.934</ele>
        <time>2021-07-15T08:43:34Z</time>
      </trkpt>
      <trkpt lat="36.82323" lon="-5.74218">
        <ele>130.2858</ele>
        <time>2021-07-15T08:43:45Z</time>
      </trkpt>
      <trkpt lat="36.82273" lon="-5.74242">
        <ele>132.354</ele>
        <time>2021-07-15T08:43:56Z</time>
      </trkpt>
      <trkpt lat="36.8225" lon="-5.7426">
        <ele>133.7433</ele>
        <time>2021-07-15T08:44:07Z</time>
      </trkpt>
      <trkpt lat="36.82206" lon="-5.743">
        <ele>134.1523</ele>
        <time>2021-07-15T08:44:18Z</time>
      </trkpt>
      <trkpt lat="36.82151" lon="-5.74344">
        <ele>138.7444</ele>
        <time>2021-07-15T08:44:29Z</time>
      </trkpt>
      <trkpt lat="36.82089" lon="-5.74358">
        <ele>141.6077</ele>
        <time>2021-07-15T08:44:40Z</time>
      </trkpt>
      <trkpt lat="36.82025" lon="-5.74357">
        <ele>152.7198</ele>
        <time>2021-07-15T08:44:51Z</time>
      </trkpt>
      <trkpt lat="36.81966" lon="-5.74354">
        <ele>153.2289</ele>
        <time>2021-07-15T08:45:02Z</time>
      </trkpt>
      <trkpt lat="36.81927" lon="-5.7435">
        <ele>149.61</ele>
        <time>2021-07-15T08:45:13Z</time>
      </trkpt>
      <trkpt lat="36.81871" lon="-5.74347">
        <ele>146.996</ele>
        <time>2021-07-15T08:45:24Z</time>
      </trkpt>
      <trkpt lat="36.81824" lon="-5.74344">
        <ele>146.9073</ele>
        <time>2021-07-15T08:45:35Z</time>
      </trkpt>
      <trkpt lat="36.81776" lon="-5.74335">
        <ele>150.8183</ele>
        <time>2021-07-15T08:45:46Z</time>
      </trkpt>
      <trkpt lat="36.81737" lon="-5.74319">
        <ele>147.0442</ele>
        <time>2021-07-15T08:45:57Z</time>
      </trkpt>
      <trkpt lat="36.81668" lon="-5.74313">
        <ele>148.9801</ele>
        <time>2021-07-15T08:46:08Z</time>
      </trkpt>
      <trkpt lat="36.81608" lon="-5.74326">
        <ele>151.5004</ele>
        <time>2021-07-15T08:46:19Z</time>
      </trkpt>
      <trkpt lat="36.81562" lon="-5.74328">
        <ele>151.7249</ele>
        <time>2021-07-15T08:46:30Z</time>
      </trkpt>
      <trkpt lat="36.81519" lon="-5.74314">
        <ele>152.8145</ele>
        <time>2021-07-15T08:46:41Z</time>
      </trkpt>
      <trkpt lat="36.8148" lon="-5.74305">
        <ele>164.3063</ele>
        <time>2021-07-15T08:46:52Z</time>
      </trkpt>
      <trkpt lat="36.81437" lon="-5.74301">
        <ele>162.206</ele>
        <time>2021-07-15T08:47:03Z</time>
      </trkpt>
      <trkpt lat="36.81382" lon="-5.7431">
        <ele>152.0944</ele>
        <time>2021-07-15T08:47:14Z</time>
      </trkpt>
      <trkpt lat="36.81359" lon="-5.74298">
        <ele>151.5856</ele>
        <time>2021-07-15T08:47:25Z</time>
      </trkpt>
      <trkpt lat="36.81381" lon="-5.74287">
        <ele>146.8215</ele>
        <time>2021-07-15T08:47:36Z</time>
      </trkpt>
      <trkpt lat="36.81457" lon="-5.74262">
        <ele>148.7644</ele>
        <time>2021-07-15T08:47:47Z</time>
      </trkpt>
      <trkpt lat="36.81531" lon="-5.74265">
        <ele>153.1101</ele>
        <time>2021-07-15T08:47:58Z</time>
      </trkpt>
      <trkpt lat="36.81578" lon="-5.74279">
        <ele>145.5866</ele>
        <time>2021-07-15T08:48:09Z</time>
      </trkpt>
      <trkpt lat="36.81588" lon="-5.74227">
        <ele>141.7658</ele>
        <time>2021-07-15T08:48:20Z</time>
      </trkpt>
      <trkpt lat="36.81595" lon="-5.74191">
        <ele>141.939</ele>
        <time>2021-07-15T08:48:31Z</time>
      </trkpt>
      <trkpt lat="36.81597" lon="-5.74181">
        <ele>142.4565</ele>
        <time>2021-07-15T08:48:42Z</time>
      </trkpt>
      <trkpt lat="36.81599" lon="-5.74175">
        <ele>141.8873</ele>
        <time>2021-07-15T08:48:53Z</time>
      </trkpt>
      <trkpt lat="36.81659" lon="-5.74194">
        <ele>142.4413</ele>
        <time>2021-07-15T08:49:04Z</time>
      </trkpt>
      <trkpt lat="36.81701" lon="-5.74207">
        <ele>139.1398</ele>
        <time>2021-07-15T08:49:15Z</time>
      </trkpt>
      <trkpt lat="36.81741" lon="-5.74218">
        <ele>139.8906</ele>
        <time>2021-07-15T08:49:26Z</time>
      </trkpt>
      <trkpt lat="36.81752" lon="-5.74293">
        <ele>141.2759</ele>
        <time>2021-07-15T08:49:37Z</time>
      </trkpt>
      <trkpt lat="36.81754" lon="-5.74313">
        <ele>145.3458</ele>
        <time>2021-07-15T08:49:48Z</time>
      </trkpt>
      <trkpt lat="36.81785" lon="-5.74331">
        <ele>143.5136</ele>
        <time>2021-07-15T08:49:59Z</time>
      </trkpt>
      <trkpt lat="36.81846" lon="-5.74339">
        <ele>145.831</ele>
        <time>2021-07-15T08:50:10Z</time>
      </trkpt>
      <trkpt lat="36.81909" lon="-5.74342">
        <ele>153.0203</ele>
        <time>2021-07-15T08:50:21Z</time>
      </trkpt>
      <trkpt lat="36.81927" lon="-5.74344">
        <ele>155.7528</ele>
        <time>2021-07-15T08:50:32Z</time>
      </trkpt>
      <trkpt lat="36.81992" lon="-5.74348">
        <ele>153.9562</ele>
        <time>2021-07-15T08:50:43Z</time>
      </trkpt>
      <trkpt lat="36.82056" lon="-5.74351">
        <ele>153.9119</ele>
        <time>2021-07-15T08:50:54Z</time>
      </trkpt>
      <trkpt lat="36.82121" lon="-5.7435">
        <ele>161.8411</ele>
        <time>2021-07-15T08:51:05Z</time>
      </trkpt>
      <trkpt lat="36.82195" lon="-5.74309">
        <ele>149.7386</ele>
        <time>2021-07-15T08:51:16Z</time>
      </trkpt>
      <trkpt lat="36.82185" lon="-5.74289">
        <ele>149.0906</ele>
        <time>2021-07-15T08:51:27Z</time>
      </trkpt>
      <trkpt lat="36.82188" lon="-5.74292">
        <ele>140.6496</ele>
        <time>2021-07-15T08:52:19Z</time>
      </trkpt>
      <trkpt lat="36.82185" lon="-5.74289">
        <ele>142.9173</ele>
        <time>2021-07-15T08:52:50Z</time>
      </trkpt>
      <trkpt lat="36.82184" lon="-5.74283">
        <ele>142.4452</ele>
        <time>2021-07-15T08:53:03Z</time>
      </trkpt>
      <trkpt lat="36.82181" lon="-5.74286">
        <ele>139.8544</ele>
        <time>2021-07-15T08:53:23Z</time>
      </trkpt>
      <trkpt lat="36.82174" lon="-5.74278">
        <ele>145.4106</ele>
        <time>2021-07-15T08:53:34Z</time>
      </trkpt>
      <trkpt lat="36.8217" lon="-5.74277">
        <ele>137.2777</ele>
        <time>2021-07-15T08:53:55Z</time>
      </trkpt>
      <trkpt lat="36.82171" lon="-5.74281">
        <ele>137.7029</ele>
        <time>2021-07-15T08:54:08Z</time>
      </trkpt>
      <trkpt lat="36.82175" lon="-5.74284">
        <ele>138.4808</ele>
        <time>2021-07-15T08:54:26Z</time>
      </trkpt>
      <trkpt lat="36.82171" lon="-5.74282">
        <ele>138.5528</ele>
        <time>2021-07-15T08:54:52Z</time>
      </trkpt>
      <trkpt lat="36.82171" lon="-5.74276">
        <ele>138.024</ele>
        <time>2021-07-15T08:55:05Z</time>
      </trkpt>
      <trkpt lat="36.82169" lon="-5.74281">
        <ele>138.0889</ele>
        <time>2021-07-15T08:55:17Z</time>
      </trkpt>
      <trkpt lat="36.8217" lon="-5.7428">
        <ele>138.2862</ele>
        <time>2021-07-15T08:56:15Z</time>
      </trkpt>
      <trkpt lat="36.82169" lon="-5.74282">
        <ele>137.7836</ele>
        <time>2021-07-15T08:57:13Z</time>
      </trkpt>
      <trkpt lat="36.8217" lon="-5.74278">
        <ele>139.1595</ele>
        <time>2021-07-15T08:57:48Z</time>
      </trkpt>
      <trkpt lat="36.82169" lon="-5.74282">
        <ele>138.4724</ele>
        <time>2021-07-15T08:58:45Z</time>
      </trkpt>
      <trkpt lat="36.82171" lon="-5.74281">
        <ele>137.5256</ele>
        <time>2021-07-15T08:59:44Z</time>
      </trkpt>
      <trkpt lat="36.82169" lon="-5.74281">
        <ele>138.4635</ele>
        <time>2021-07-15T09:00:42Z</time>
      </trkpt>
      <trkpt lat="36.82173" lon="-5.74279">
        <ele>138.0835</ele>
        <time>2021-07-15T09:01:32Z</time>
      </trkpt>
      <trkpt lat="36.82171" lon="-5.74277">
        <ele>138.3621</ele>
        <time>2021-07-15T09:02:31Z</time>
      </trkpt>
      <trkpt lat="36.82172" lon="-5.74276">
        <ele>138.2719</ele>
        <time>2021-07-15T09:03:31Z</time>
      </trkpt>
      <trkpt lat="36.8217" lon="-5.74279">
        <ele>138.1499</ele>
        <time>2021-07-15T09:04:30Z</time>
      </trkpt>
      <trkpt lat="36.82167" lon="-5.74282">
        <ele>138.4511</ele>
        <time>2021-07-15T09:05:26Z</time>
      </trkpt>
      <trkpt lat="36.82168" lon="-5.74278">
        <ele>138.166</ele>
        <time>2021-07-15T09:05:42Z</time>
      </trkpt>
      <trkpt lat="36.82168" lon="-5.7428">
        <ele>137.9677</ele>
        <time>2021-07-15T09:06:41Z</time>
      </trkpt>
      <trkpt lat="36.82167" lon="-5.74276">
        <ele>138.2173</ele>
        <time>2021-07-15T09:07:02Z</time>
      </trkpt>
      <trkpt lat="36.8217" lon="-5.74273">
        <ele>137.9812</ele>
        <time>2021-07-15T09:07:30Z</time>
      </trkpt>
      <trkpt lat="36.82167" lon="-5.74275">
        <ele>139.1038</ele>
        <time>2021-07-15T09:08:12Z</time>
      </trkpt>
      <trkpt lat="36.82166" lon="-5.7428">
        <ele>138.1017</ele>
        <time>2021-07-15T09:08:39Z</time>
      </trkpt>
      <trkpt lat="36.82167" lon="-5.74275">
        <ele>138.5064</ele>
        <time>2021-07-15T09:09:21Z</time>
      </trkpt>
      <trkpt lat="36.82167" lon="-5.7428">
        <ele>138.0402</ele>
        <time>2021-07-15T09:10:08Z</time>
      </trkpt>
      <trkpt lat="36.8217" lon="-5.74279">
        <ele>138.8036</ele>
        <time>2021-07-15T09:11:07Z</time>
      </trkpt>
      <trkpt lat="36.82169" lon="-5.74275">
        <ele>139.5173</ele>
        <time>2021-07-15T09:11:33Z</time>
      </trkpt>
      <trkpt lat="36.82171" lon="-5.74272">
        <ele>138.3402</ele>
        <time>2021-07-15T09:12:26Z</time>
      </trkpt>
      <trkpt lat="36.82172" lon="-5.74272">
        <ele>136.8205</ele>
        <time>2021-07-15T09:13:25Z</time>
      </trkpt>
      <trkpt lat="36.82171" lon="-5.74277">
        <ele>138.1249</ele>
        <time>2021-07-15T09:14:14Z</time>
      </trkpt>
      <trkpt lat="36.82173" lon="-5.74283">
        <ele>138.4442</ele>
        <time>2021-07-15T09:14:38Z</time>
      </trkpt>
      <trkpt lat="36.82169" lon="-5.74281">
        <ele>138.0925</ele>
        <time>2021-07-15T09:14:49Z</time>
      </trkpt>
      <trkpt lat="36.82168" lon="-5.74277">
        <ele>138.8588</ele>
        <time>2021-07-15T09:15:15Z</time>
      </trkpt>
      <trkpt lat="36.82168" lon="-5.74283">
        <ele>138.2391</ele>
        <time>2021-07-15T09:15:50Z</time>
      </trkpt>
      <trkpt lat="36.8217" lon="-5.74279">
        <ele>138.2561</ele>
        <time>2021-07-15T09:16:08Z</time>
      </trkpt>
      <trkpt lat="36.82172" lon="-5.74274">
        <ele>137.7704</ele>
        <time>2021-07-15T09:16:19Z</time>
      </trkpt>
      <trkpt lat="36.82171" lon="-5.74273">
        <ele>137.5424</ele>
        <time>2021-07-15T09:17:18Z</time>
      </trkpt>
      <trkpt lat="36.82174" lon="-5.7427">
        <ele>138.1017</ele>
        <time>2021-07-15T09:17:34Z</time>
      </trkpt>
      <trkpt lat="36.82173" lon="-5.74275">
        <ele>138.1283</ele>
        <time>2021-07-15T09:17:49Z</time>
      </trkpt>
      <trkpt lat="36.82171" lon="-5.7428">
        <ele>137.7722</ele>
        <time>2021-07-15T09:18:27Z</time>
      </trkpt>
      <trkpt lat="36.8217" lon="-5.74281">
        <ele>137.6545</ele>
        <time>2021-07-15T09:19:26Z</time>
      </trkpt>
      <trkpt lat="36.82174" lon="-5.74287">
        <ele>139.0462</ele>
        <time>2021-07-15T09:20:02Z</time>
      </trkpt>
      <trkpt lat="36.82174" lon="-5.74281">
        <ele>138.4836</ele>
        <time>2021-07-15T09:20:13Z</time>
      </trkpt>
      <trkpt lat="36.82178" lon="-5.74282">
        <ele>138.5959</ele>
        <time>2021-07-15T09:20:47Z</time>
      </trkpt>
      <trkpt lat="36.82183" lon="-5.74293">
        <ele>134.3562</ele>
        <time>2021-07-15T09:21:36Z</time>
      </trkpt>
      <trkpt lat="36.82178" lon="-5.74273">
        <ele>137.4082</ele>
        <time>2021-07-15T09:21:47Z</time>
      </trkpt>
      <trkpt lat="36.8217" lon="-5.74276">
        <ele>137.2659</ele>
        <time>2021-07-15T09:21:58Z</time>
      </trkpt>
      <trkpt lat="36.82172" lon="-5.74277">
        <ele>138.817</ele>
        <time>2021-07-15T09:22:57Z</time>
      </trkpt>
      <trkpt lat="36.82172" lon="-5.7428">
        <ele>137.933</ele>
        <time>2021-07-15T09:23:57Z</time>
      </trkpt>
      <trkpt lat="36.82176" lon="-5.74282">
        <ele>138.378</ele>
        <time>2021-07-15T09:24:45Z</time>
      </trkpt>
      <trkpt lat="36.82187" lon="-5.74287">
        <ele>137.5559</ele>
        <time>2021-07-15T09:24:56Z</time>
      </trkpt>
      <trkpt lat="36.82192" lon="-5.74287">
        <ele>137.9907</ele>
        <time>2021-07-15T09:25:19Z</time>
      </trkpt>
      <trkpt lat="36.82192" lon="-5.7429">
        <ele>138.3712</ele>
        <time>2021-07-15T09:26:19Z</time>
      </trkpt>
      <trkpt lat="36.82195" lon="-5.74288">
        <ele>138.2344</ele>
        <time>2021-07-15T09:27:04Z</time>
      </trkpt>
      <trkpt lat="36.82199" lon="-5.74292">
        <ele>137.8366</ele>
        <time>2021-07-15T09:27:15Z</time>
      </trkpt>
      <trkpt lat="36.82202" lon="-5.74296">
        <ele>138.4067</ele>
        <time>2021-07-15T09:27:26Z</time>
      </trkpt>
      <trkpt lat="36.82163" lon="-5.74338">
        <ele>142.9503</ele>
        <time>2021-07-15T09:27:37Z</time>
      </trkpt>
      <trkpt lat="36.82093" lon="-5.74355">
        <ele>144.1676</ele>
        <time>2021-07-15T09:27:48Z</time>
      </trkpt>
      <trkpt lat="36.82078" lon="-5.74428">
        <ele>151.0866</ele>
        <time>2021-07-15T09:27:59Z</time>
      </trkpt>
      <trkpt lat="36.82072" lon="-5.74503">
        <ele>158.4571</ele>
        <time>2021-07-15T09:28:10Z</time>
      </trkpt>
      <trkpt lat="36.82119" lon="-5.74521">
        <ele>164.2899</ele>
        <time>2021-07-15T09:28:21Z</time>
      </trkpt>
      <trkpt lat="36.82132" lon="-5.7453">
        <ele>165.5846</ele>
        <time>2021-07-15T09:28:32Z</time>
      </trkpt>
      <trkpt lat="36.82132" lon="-5.74524">
        <ele>166.2404</ele>
        <time>2021-07-15T09:28:58Z</time>
      </trkpt>
      <trkpt lat="36.82028" lon="-5.74622">
        <ele>172.6841</ele>
        <time>2021-07-15T09:29:09Z</time>
      </trkpt>
      <trkpt lat="36.81852" lon="-5.74746">
        <ele>181.6943</ele>
        <time>2021-07-15T09:29:20Z</time>
      </trkpt>
      <trkpt lat="36.81667" lon="-5.74865">
        <ele>193.7055</ele>
        <time>2021-07-15T09:29:31Z</time>
      </trkpt>
      <trkpt lat="36.81469" lon="-5.74954">
        <ele>202.2903</ele>
        <time>2021-07-15T09:29:42Z</time>
      </trkpt>
      <trkpt lat="36.81319" lon="-5.75133">
        <ele>216.9977</ele>
        <time>2021-07-15T09:29:53Z</time>
      </trkpt>
      <trkpt lat="36.81247" lon="-5.7541">
        <ele>231.0763</ele>
        <time>2021-07-15T09:30:04Z</time>
      </trkpt>
      <trkpt lat="36.81388" lon="-5.75677">
        <ele>249.4877</ele>
        <time>2021-07-15T09:30:15Z</time>
      </trkpt>
      <trkpt lat="36.81549" lon="-5.75914">
        <ele>254.485</ele>
        <time>2021-07-15T09:30:26Z</time>
      </trkpt>
      <trkpt lat="36.81631" lon="-5.76214">
        <ele>247.9569</ele>
        <time>2021-07-15T09:30:37Z</time>
      </trkpt>
      <trkpt lat="36.81654" lon="-5.76497">
        <ele>246.3443</ele>
        <time>2021-07-15T09:30:48Z</time>
      </trkpt>
      <trkpt lat="36.81664" lon="-5.76838">
        <ele>242.4178</ele>
        <time>2021-07-15T09:30:59Z</time>
      </trkpt>
      <trkpt lat="36.81623" lon="-5.7714">
        <ele>231.4692</ele>
        <time>2021-07-15T09:31:10Z</time>
      </trkpt>
      <trkpt lat="36.8142" lon="-5.77322">
        <ele>219.7705</ele>
        <time>2021-07-15T09:31:21Z</time>
      </trkpt>
      <trkpt lat="36.81243" lon="-5.77568">
        <ele>202.7252</ele>
        <time>2021-07-15T09:31:32Z</time>
      </trkpt>
      <trkpt lat="36.81236" lon="-5.77853">
        <ele>184.3494</ele>
        <time>2021-07-15T09:31:43Z</time>
      </trkpt>
      <trkpt lat="36.81299" lon="-5.78117">
        <ele>170.2619</ele>
        <time>2021-07-15T09:31:54Z</time>
      </trkpt>
      <trkpt lat="36.81243" lon="-5.78388">
        <ele>155.8408</ele>
        <time>2021-07-15T09:32:05Z</time>
      </trkpt>
      <trkpt lat="36.81046" lon="-5.78535">
        <ele>139.5713</ele>
        <time>2021-07-15T09:32:16Z</time>
      </trkpt>
      <trkpt lat="36.80836" lon="-5.7868">
        <ele>126.1821</ele>
        <time>2021-07-15T09:32:27Z</time>
      </trkpt>
      <trkpt lat="36.80623" lon="-5.78807">
        <ele>116.6391</ele>
        <time>2021-07-15T09:32:38Z</time>
      </trkpt>
      <trkpt lat="36.80431" lon="-5.78922">
        <ele>106.9263</ele>
        <time>2021-07-15T09:32:49Z</time>
      </trkpt>
      <trkpt lat="36.80247" lon="-5.79034">
        <ele>102.7065</ele>
        <time>2021-07-15T09:33:00Z</time>
      </trkpt>
      <trkpt lat="36.80062" lon="-5.79145">
        <ele>96.93608</ele>
        <time>2021-07-15T09:33:11Z</time>
      </trkpt>
      <trkpt lat="36.79867" lon="-5.79264">
        <ele>92.69374</ele>
        <time>2021-07-15T09:33:22Z</time>
      </trkpt>
      <trkpt lat="36.79673" lon="-5.79379">
        <ele>88.46754</ele>
        <time>2021-07-15T09:33:33Z</time>
      </trkpt>
      <trkpt lat="36.79464" lon="-5.79506">
        <ele>89.28917</ele>
        <time>2021-07-15T09:33:44Z</time>
      </trkpt>
      <trkpt lat="36.79263" lon="-5.79627">
        <ele>92.68608</ele>
        <time>2021-07-15T09:33:55Z</time>
      </trkpt>
      <trkpt lat="36.79062" lon="-5.7975">
        <ele>97.13283</ele>
        <time>2021-07-15T09:34:06Z</time>
      </trkpt>
      <trkpt lat="36.78824" lon="-5.7989">
        <ele>101.064</ele>
        <time>2021-07-15T09:34:17Z</time>
      </trkpt>
      <trkpt lat="36.78598" lon="-5.80029">
        <ele>107.7312</ele>
        <time>2021-07-15T09:34:28Z</time>
      </trkpt>
      <trkpt lat="36.78388" lon="-5.80155">
        <ele>112.2262</ele>
        <time>2021-07-15T09:34:39Z</time>
      </trkpt>
      <trkpt lat="36.78188" lon="-5.80298">
        <ele>113.6148</ele>
        <time>2021-07-15T09:34:50Z</time>
      </trkpt>
      <trkpt lat="36.78022" lon="-5.80521">
        <ele>106.8288</ele>
        <time>2021-07-15T09:35:01Z</time>
      </trkpt>
      <trkpt lat="36.77869" lon="-5.8075">
        <ele>98.67682</ele>
        <time>2021-07-15T09:35:12Z</time>
      </trkpt>
      <trkpt lat="36.77691" lon="-5.80938">
        <ele>93.67528</ele>
        <time>2021-07-15T09:35:23Z</time>
      </trkpt>
      <trkpt lat="36.77614" lon="-5.81117">
        <ele>99.0415</ele>
        <time>2021-07-15T09:35:34Z</time>
      </trkpt>
      <trkpt lat="36.77576" lon="-5.81101">
        <ele>99.05629</ele>
        <time>2021-07-15T09:35:45Z</time>
      </trkpt>
      <trkpt lat="36.77481" lon="-5.80971">
        <ele>100.6353</ele>
        <time>2021-07-15T09:35:56Z</time>
      </trkpt>
      <trkpt lat="36.77353" lon="-5.80922">
        <ele>101.031</ele>
        <time>2021-07-15T09:36:07Z</time>
      </trkpt>
      <trkpt lat="36.7718" lon="-5.80891">
        <ele>110.2373</ele>
        <time>2021-07-15T09:36:18Z</time>
      </trkpt>
      <trkpt lat="36.77022" lon="-5.80826">
        <ele>120.5825</ele>
        <time>2021-07-15T09:36:29Z</time>
      </trkpt>
      <trkpt lat="36.76848" lon="-5.80818">
        <ele>121.6278</ele>
        <time>2021-07-15T09:36:40Z</time>
      </trkpt>
      <trkpt lat="36.76716" lon="-5.80757">
        <ele>122.1728</ele>
        <time>2021-07-15T09:36:51Z</time>
      </trkpt>
      <trkpt lat="36.76554" lon="-5.80783">
        <ele>124.4208</ele>
        <time>2021-07-15T09:37:02Z</time>
      </trkpt>
      <trkpt lat="36.76339" lon="-5.80824">
        <ele>129.0547</ele>
        <time>2021-07-15T09:37:13Z</time>
      </trkpt>
      <trkpt lat="36.76164" lon="-5.80858">
        <ele>134.4121</ele>
        <time>2021-07-15T09:37:24Z</time>
      </trkpt>
      <trkpt lat="36.7604" lon="-5.80902">
        <ele>140.4711</ele>
        <time>2021-07-15T09:37:35Z</time>
      </trkpt>
      <trkpt lat="36.76017" lon="-5.8107">
        <ele>151.7727</ele>
        <time>2021-07-15T09:37:46Z</time>
      </trkpt>
      <trkpt lat="36.76051" lon="-5.81159">
        <ele>161.0236</ele>
        <time>2021-07-15T09:37:57Z</time>
      </trkpt>
      <trkpt lat="36.76078" lon="-5.8126">
        <ele>168.3991</ele>
        <time>2021-07-15T09:38:08Z</time>
      </trkpt>
      <trkpt lat="36.76048" lon="-5.81414">
        <ele>177.3835</ele>
        <time>2021-07-15T09:38:19Z</time>
      </trkpt>
      <trkpt lat="36.75953" lon="-5.81569">
        <ele>182.4078</ele>
        <time>2021-07-15T09:38:30Z</time>
      </trkpt>
      <trkpt lat="36.7585" lon="-5.81686">
        <ele>188.4091</ele>
        <time>2021-07-15T09:38:41Z</time>
      </trkpt>
      <trkpt lat="36.75822" lon="-5.81717">
        <ele>190.3116</ele>
        <time>2021-07-15T09:38:52Z</time>
      </trkpt>
      <trkpt lat="36.75819" lon="-5.81719">
        <ele>192.6048</ele>
        <time>2021-07-15T09:39:05Z</time>
      </trkpt>
      <trkpt lat="36.75784" lon="-5.81773">
        <ele>193.1282</ele>
        <time>2021-07-15T09:39:16Z</time>
      </trkpt>
      <trkpt lat="36.75721" lon="-5.81836">
        <ele>190.9783</ele>
        <time>2021-07-15T09:39:27Z</time>
      </trkpt>
      <trkpt lat="36.7565" lon="-5.81916">
        <ele>191.0924</ele>
        <time>2021-07-15T09:39:38Z</time>
      </trkpt>
      <trkpt lat="36.75586" lon="-5.8199">
        <ele>187.5144</ele>
        <time>2021-07-15T09:39:49Z</time>
      </trkpt>
      <trkpt lat="36.75564" lon="-5.82024">
        <ele>186.8924</ele>
        <time>2021-07-15T09:40:00Z</time>
      </trkpt>
      <trkpt lat="36.75482" lon="-5.82102">
        <ele>180.5397</ele>
        <time>2021-07-15T09:40:11Z</time>
      </trkpt>
      <trkpt lat="36.75362" lon="-5.8216">
        <ele>175.0569</ele>
        <time>2021-07-15T09:40:22Z</time>
      </trkpt>
      <trkpt lat="36.75247" lon="-5.82144">
        <ele>167.0116</ele>
        <time>2021-07-15T09:40:33Z</time>
      </trkpt>
      <trkpt lat="36.75099" lon="-5.8212">
        <ele>159.4389</ele>
        <time>2021-07-15T09:40:44Z</time>
      </trkpt>
      <trkpt lat="36.7496" lon="-5.82166">
        <ele>146.811</ele>
        <time>2021-07-15T09:40:55Z</time>
      </trkpt>
      <trkpt lat="36.74885" lon="-5.82222">
        <ele>144.6491</ele>
        <time>2021-07-15T09:41:06Z</time>
      </trkpt>
      <trkpt lat="36.74772" lon="-5.82273">
        <ele>144.0865</ele>
        <time>2021-07-15T09:41:17Z</time>
      </trkpt>
      <trkpt lat="36.74689" lon="-5.82368">
        <ele>141.6948</ele>
        <time>2021-07-15T09:41:28Z</time>
      </trkpt>
      <trkpt lat="36.74649" lon="-5.82441">
        <ele>139.7741</ele>
        <time>2021-07-15T09:41:39Z</time>
      </trkpt>
      <trkpt lat="36.74558" lon="-5.82378">
        <ele>138.4507</ele>
        <time>2021-07-15T09:41:50Z</time>
      </trkpt>
      <trkpt lat="36.74374" lon="-5.82438">
        <ele>130.9636</ele>
        <time>2021-07-15T09:42:01Z</time>
      </trkpt>
      <trkpt lat="36.74177" lon="-5.82483">
        <ele>132.7282</ele>
        <time>2021-07-15T09:42:12Z</time>
      </trkpt>
      <trkpt lat="36.74003" lon="-5.82376">
        <ele>143.3473</ele>
        <time>2021-07-15T09:42:23Z</time>
      </trkpt>
      <trkpt lat="36.73806" lon="-5.82395">
        <ele>140.64</ele>
        <time>2021-07-15T09:42:34Z</time>
      </trkpt>
      <trkpt lat="36.73591" lon="-5.82443">
        <ele>142.9325</ele>
        <time>2021-07-15T09:42:45Z</time>
      </trkpt>
      <trkpt lat="36.73389" lon="-5.82382">
        <ele>150.8675</ele>
        <time>2021-07-15T09:42:56Z</time>
      </trkpt>
      <trkpt lat="36.73191" lon="-5.82518">
        <ele>151.1967</ele>
        <time>2021-07-15T09:43:07Z</time>
      </trkpt>
      <trkpt lat="36.72978" lon="-5.82649">
        <ele>153.7975</ele>
        <time>2021-07-15T09:43:18Z</time>
      </trkpt>
      <trkpt lat="36.72843" lon="-5.82878">
        <ele>140.0445</ele>
        <time>2021-07-15T09:43:29Z</time>
      </trkpt>
      <trkpt lat="36.72734" lon="-5.83147">
        <ele>126.5487</ele>
        <time>2021-07-15T09:43:40Z</time>
      </trkpt>
      <trkpt lat="36.72514" lon="-5.83218">
        <ele>127.6031</ele>
        <time>2021-07-15T09:43:51Z</time>
      </trkpt>
      <trkpt lat="36.72277" lon="-5.83261">
        <ele>116.1316</ele>
        <time>2021-07-15T09:44:02Z</time>
      </trkpt>
      <trkpt lat="36.72111" lon="-5.83491">
        <ele>102.9045</ele>
        <time>2021-07-15T09:44:13Z</time>
      </trkpt>
      <trkpt lat="36.72084" lon="-5.83805">
        <ele>91.28634</ele>
        <time>2021-07-15T09:44:24Z</time>
      </trkpt>
      <trkpt lat="36.71914" lon="-5.84041">
        <ele>70.41318</ele>
        <time>2021-07-15T09:44:35Z</time>
      </trkpt>
      <trkpt lat="36.71724" lon="-5.84248">
        <ele>60.88338</ele>
        <time>2021-07-15T09:44:46Z</time>
      </trkpt>
      <trkpt lat="36.71585" lon="-5.84498">
        <ele>49.67671</ele>
        <time>2021-07-15T09:44:57Z</time>
      </trkpt>
      <trkpt lat="36.7138" lon="-5.84694">
        <ele>37.53301</ele>
        <time>2021-07-15T09:45:08Z</time>
      </trkpt>
      <trkpt lat="36.71174" lon="-5.84891">
        <ele>38.59215</ele>
        <time>2021-07-15T09:45:19Z</time>
      </trkpt>
      <trkpt lat="36.7097" lon="-5.85063">
        <ele>37.56876</ele>
        <time>2021-07-15T09:45:30Z</time>
      </trkpt>
      <trkpt lat="36.70757" lon="-5.85203">
        <ele>37.34589</ele>
        <time>2021-07-15T09:45:41Z</time>
      </trkpt>
      <trkpt lat="36.70542" lon="-5.85342">
        <ele>36.91034</ele>
        <time>2021-07-15T09:45:52Z</time>
      </trkpt>
      <trkpt lat="36.7033" lon="-5.8549">
        <ele>38.9844</ele>
        <time>2021-07-15T09:46:03Z</time>
      </trkpt>
      <trkpt lat="36.70136" lon="-5.85647">
        <ele>35.46887</ele>
        <time>2021-07-15T09:46:14Z</time>
      </trkpt>
      <trkpt lat="36.69997" lon="-5.85762">
        <ele>34.82709</ele>
        <time>2021-07-15T09:46:25Z</time>
      </trkpt>
      <trkpt lat="36.69861" lon="-5.85869">
        <ele>36.47431</ele>
        <time>2021-07-15T09:46:36Z</time>
      </trkpt>
      <trkpt lat="36.6971" lon="-5.8593">
        <ele>32.86132</ele>
        <time>2021-07-15T09:46:47Z</time>
      </trkpt>
      <trkpt lat="36.6955" lon="-5.85951">
        <ele>35.49933</ele>
        <time>2021-07-15T09:46:58Z</time>
      </trkpt>
      <trkpt lat="36.69341" lon="-5.85863">
        <ele>36.89067</ele>
        <time>2021-07-15T09:47:09Z</time>
      </trkpt>
      <trkpt lat="36.69112" lon="-5.85747">
        <ele>40.99684</ele>
        <time>2021-07-15T09:47:20Z</time>
      </trkpt>
      <trkpt lat="36.68937" lon="-5.8559">
        <ele>45.7184</ele>
        <time>2021-07-15T09:47:31Z</time>
      </trkpt>
      <trkpt lat="36.68764" lon="-5.85396">
        <ele>59.42674</ele>
        <time>2021-07-15T09:47:42Z</time>
      </trkpt>
      <trkpt lat="36.68541" lon="-5.85356">
        <ele>78.63763</ele>
        <time>2021-07-15T09:47:53Z</time>
      </trkpt>
      <trkpt lat="36.68302" lon="-5.85347">
        <ele>79.9572</ele>
        <time>2021-07-15T09:48:04Z</time>
      </trkpt>
      <trkpt lat="36.68064" lon="-5.8533">
        <ele>74.59212</ele>
        <time>2021-07-15T09:48:15Z</time>
      </trkpt>
      <trkpt lat="36.67824" lon="-5.85313">
        <ele>72.94157</ele>
        <time>2021-07-15T09:48:26Z</time>
      </trkpt>
      <trkpt lat="36.67584" lon="-5.85329">
        <ele>72.51939</ele>
        <time>2021-07-15T09:48:37Z</time>
      </trkpt>
      <trkpt lat="36.67343" lon="-5.85373">
        <ele>66.97052</ele>
        <time>2021-07-15T09:48:48Z</time>
      </trkpt>
      <trkpt lat="36.67102" lon="-5.85414">
        <ele>62.93273</ele>
        <time>2021-07-15T09:48:59Z</time>
      </trkpt>
      <trkpt lat="36.66879" lon="-5.85457">
        <ele>62.19371</ele>
        <time>2021-07-15T09:49:10Z</time>
      </trkpt>
      <trkpt lat="36.66649" lon="-5.85498">
        <ele>64.41546</ele>
        <time>2021-07-15T09:49:21Z</time>
      </trkpt>
      <trkpt lat="36.66423" lon="-5.85541">
        <ele>67.88598</ele>
        <time>2021-07-15T09:49:32Z</time>
      </trkpt>
      <trkpt lat="36.66226" lon="-5.85575">
        <ele>69.42935</ele>
        <time>2021-07-15T09:49:43Z</time>
      </trkpt>
      <trkpt lat="36.65983" lon="-5.85617">
        <ele>69.05899</ele>
        <time>2021-07-15T09:49:54Z</time>
      </trkpt>
      <trkpt lat="36.6576" lon="-5.85658">
        <ele>70.99233</ele>
        <time>2021-07-15T09:50:05Z</time>
      </trkpt>
      <trkpt lat="36.65546" lon="-5.85696">
        <ele>70.1707</ele>
        <time>2021-07-15T09:50:16Z</time>
      </trkpt>
      <trkpt lat="36.65327" lon="-5.85736">
        <ele>72.83429</ele>
        <time>2021-07-15T09:50:27Z</time>
      </trkpt>
      <trkpt lat="36.65105" lon="-5.85776">
        <ele>74.46516</ele>
        <time>2021-07-15T09:50:38Z</time>
      </trkpt>
      <trkpt lat="36.64876" lon="-5.85816">
        <ele>74.01987</ele>
        <time>2021-07-15T09:50:49Z</time>
      </trkpt>
      <trkpt lat="36.64642" lon="-5.8583">
        <ele>74.41351</ele>
        <time>2021-07-15T09:51:00Z</time>
      </trkpt>
      <trkpt lat="36.64409" lon="-5.85795">
        <ele>72.07388</ele>
        <time>2021-07-15T09:51:11Z</time>
      </trkpt>
      <trkpt lat="36.64171" lon="-5.85766">
        <ele>69.31555</ele>
        <time>2021-07-15T09:51:22Z</time>
      </trkpt>
      <trkpt lat="36.63927" lon="-5.85713">
        <ele>72.77212</ele>
        <time>2021-07-15T09:51:33Z</time>
      </trkpt>
      <trkpt lat="36.63708" lon="-5.8567">
        <ele>76.55285</ele>
        <time>2021-07-15T09:51:44Z</time>
      </trkpt>
      <trkpt lat="36.63448" lon="-5.85624">
        <ele>77.13138</ele>
        <time>2021-07-15T09:51:55Z</time>
      </trkpt>
      <trkpt lat="36.63223" lon="-5.85586">
        <ele>84.24735</ele>
        <time>2021-07-15T09:52:06Z</time>
      </trkpt>
      <trkpt lat="36.62994" lon="-5.8555">
        <ele>82.63749</ele>
        <time>2021-07-15T09:52:17Z</time>
      </trkpt>
      <trkpt lat="36.62784" lon="-5.85546">
        <ele>83.42132</ele>
        <time>2021-07-15T09:52:28Z</time>
      </trkpt>
      <trkpt lat="36.6258" lon="-5.85539">
        <ele>85.93661</ele>
        <time>2021-07-15T09:52:39Z</time>
      </trkpt>
      <trkpt lat="36.62349" lon="-5.85537">
        <ele>85.19076</ele>
        <time>2021-07-15T09:52:50Z</time>
      </trkpt>
      <trkpt lat="36.62114" lon="-5.85529">
        <ele>85.53378</ele>
        <time>2021-07-15T09:53:01Z</time>
      </trkpt>
      <trkpt lat="36.61877" lon="-5.85524">
        <ele>88.1818</ele>
        <time>2021-07-15T09:53:12Z</time>
      </trkpt>
      <trkpt lat="36.61633" lon="-5.85516">
        <ele>90.47708</ele>
        <time>2021-07-15T09:53:23Z</time>
      </trkpt>
      <trkpt lat="36.61383" lon="-5.85508">
        <ele>89.36027</ele>
        <time>2021-07-15T09:53:34Z</time>
      </trkpt>
      <trkpt lat="36.6114" lon="-5.85501">
        <ele>91.34707</ele>
        <time>2021-07-15T09:53:45Z</time>
      </trkpt>
      <trkpt lat="36.60922" lon="-5.85497">
        <ele>94.43353</ele>
        <time>2021-07-15T09:53:56Z</time>
      </trkpt>
      <trkpt lat="36.60679" lon="-5.85468">
        <ele>93.34767</ele>
        <time>2021-07-15T09:54:07Z</time>
      </trkpt>
      <trkpt lat="36.60423" lon="-5.8538">
        <ele>93.34777</ele>
        <time>2021-07-15T09:54:18Z</time>
      </trkpt>
      <trkpt lat="36.60187" lon="-5.85335">
        <ele>94.48474</ele>
        <time>2021-07-15T09:54:29Z</time>
      </trkpt>
      <trkpt lat="36.5995" lon="-5.85325">
        <ele>101.4064</ele>
        <time>2021-07-15T09:54:40Z</time>
      </trkpt>
      <trkpt lat="36.59729" lon="-5.85225">
        <ele>105.1736</ele>
        <time>2021-07-15T09:54:51Z</time>
      </trkpt>
      <trkpt lat="36.59501" lon="-5.85218">
        <ele>106.4395</ele>
        <time>2021-07-15T09:55:02Z</time>
      </trkpt>
      <trkpt lat="36.5928" lon="-5.85216">
        <ele>112.5795</ele>
        <time>2021-07-15T09:55:13Z</time>
      </trkpt>
      <trkpt lat="36.59045" lon="-5.85235">
        <ele>119.6911</ele>
        <time>2021-07-15T09:55:24Z</time>
      </trkpt>
      <trkpt lat="36.58805" lon="-5.85291">
        <ele>122.7378</ele>
        <time>2021-07-15T09:55:35Z</time>
      </trkpt>
      <trkpt lat="36.58561" lon="-5.85346">
        <ele>125.5515</ele>
        <time>2021-07-15T09:55:46Z</time>
      </trkpt>
      <trkpt lat="36.58339" lon="-5.85397">
        <ele>128.5131</ele>
        <time>2021-07-15T09:55:57Z</time>
      </trkpt>
      <trkpt lat="36.58072" lon="-5.85459">
        <ele>132.0098</ele>
        <time>2021-07-15T09:56:09Z</time>
      </trkpt>
      <trkpt lat="36.57856" lon="-5.85592">
        <ele>132.1187</ele>
        <time>2021-07-15T09:56:20Z</time>
      </trkpt>
      <trkpt lat="36.57686" lon="-5.85747">
        <ele>130.9441</ele>
        <time>2021-07-15T09:56:31Z</time>
      </trkpt>
      <trkpt lat="36.575" lon="-5.85897">
        <ele>128.116</ele>
        <time>2021-07-15T09:56:42Z</time>
      </trkpt>
      <trkpt lat="36.57292" lon="-5.85981">
        <ele>118.9731</ele>
        <time>2021-07-15T09:56:53Z</time>
      </trkpt>
      <trkpt lat="36.57115" lon="-5.86161">
        <ele>104.9088</ele>
        <time>2021-07-15T09:57:04Z</time>
      </trkpt>
      <trkpt lat="36.56915" lon="-5.86297">
        <ele>91.79561</ele>
        <time>2021-07-15T09:57:15Z</time>
      </trkpt>
      <trkpt lat="36.56686" lon="-5.86419">
        <ele>86.96983</ele>
        <time>2021-07-15T09:57:26Z</time>
      </trkpt>
      <trkpt lat="36.56461" lon="-5.86537">
        <ele>81.21696</ele>
        <time>2021-07-15T09:57:37Z</time>
      </trkpt>
      <trkpt lat="36.56231" lon="-5.86631">
        <ele>75.58537</ele>
        <time>2021-07-15T09:57:48Z</time>
      </trkpt>
      <trkpt lat="36.55999" lon="-5.86681">
        <ele>68.29173</ele>
        <time>2021-07-15T09:57:59Z</time>
      </trkpt>
      <trkpt lat="36.55793" lon="-5.86762">
        <ele>62.2002</ele>
        <time>2021-07-15T09:58:10Z</time>
      </trkpt>
      <trkpt lat="36.55565" lon="-5.86851">
        <ele>58.60307</ele>
        <time>2021-07-15T09:58:21Z</time>
      </trkpt>
      <trkpt lat="36.55313" lon="-5.86945">
        <ele>57.33602</ele>
        <time>2021-07-15T09:58:32Z</time>
      </trkpt>
      <trkpt lat="36.55073" lon="-5.87014">
        <ele>57.76941</ele>
        <time>2021-07-15T09:58:43Z</time>
      </trkpt>
      <trkpt lat="36.54799" lon="-5.87063">
        <ele>56.74085</ele>
        <time>2021-07-15T09:58:54Z</time>
      </trkpt>
      <trkpt lat="36.54538" lon="-5.87106">
        <ele>57.33936</ele>
        <time>2021-07-15T09:59:05Z</time>
      </trkpt>
      <trkpt lat="36.54288" lon="-5.87114">
        <ele>58.05357</ele>
        <time>2021-07-15T09:59:16Z</time>
      </trkpt>
      <trkpt lat="36.54071" lon="-5.87102">
        <ele>54.98207</ele>
        <time>2021-07-15T09:59:27Z</time>
      </trkpt>
      <trkpt lat="36.53921" lon="-5.87114">
        <ele>59.32459</ele>
        <time>2021-07-15T09:59:38Z</time>
      </trkpt>
      <trkpt lat="36.53836" lon="-5.87121">
        <ele>65.35969</ele>
        <time>2021-07-15T09:59:49Z</time>
      </trkpt>
      <trkpt lat="36.53724" lon="-5.87105">
        <ele>68.41087</ele>
        <time>2021-07-15T10:00:00Z</time>
      </trkpt>
      <trkpt lat="36.53682" lon="-5.86998">
        <ele>76.17458</ele>
        <time>2021-07-15T10:00:11Z</time>
      </trkpt>
      <trkpt lat="36.53625" lon="-5.8688">
        <ele>84.6466</ele>
        <time>2021-07-15T10:00:22Z</time>
      </trkpt>
      <trkpt lat="36.53495" lon="-5.86883">
        <ele>90.17699</ele>
        <time>2021-07-15T10:00:33Z</time>
      </trkpt>
      <trkpt lat="36.53376" lon="-5.86961">
        <ele>96.84327</ele>
        <time>2021-07-15T10:00:44Z</time>
      </trkpt>
      <trkpt lat="36.5325" lon="-5.87007">
        <ele>96.4057</ele>
        <time>2021-07-15T10:00:55Z</time>
      </trkpt>
      <trkpt lat="36.53147" lon="-5.86909">
        <ele>100.0926</ele>
        <time>2021-07-15T10:01:06Z</time>
      </trkpt>
      <trkpt lat="36.53034" lon="-5.86797">
        <ele>105.6156</ele>
        <time>2021-07-15T10:01:17Z</time>
      </trkpt>
      <trkpt lat="36.52895" lon="-5.86729">
        <ele>108.1973</ele>
        <time>2021-07-15T10:01:28Z</time>
      </trkpt>
      <trkpt lat="36.5279" lon="-5.86696">
        <ele>108.8316</ele>
        <time>2021-07-15T10:01:39Z</time>
      </trkpt>
      <trkpt lat="36.52695" lon="-5.8667">
        <ele>106.183</ele>
        <time>2021-07-15T10:01:50Z</time>
      </trkpt>
      <trkpt lat="36.52617" lon="-5.86671">
        <ele>110.4699</ele>
        <time>2021-07-15T10:02:01Z</time>
      </trkpt>
      <trkpt lat="36.52572" lon="-5.86686">
        <ele>105.7538</ele>
        <time>2021-07-15T10:02:13Z</time>
      </trkpt>
      <trkpt lat="36.52519" lon="-5.86706">
        <ele>110.7572</ele>
        <time>2021-07-15T10:02:24Z</time>
      </trkpt>
      <trkpt lat="36.52474" lon="-5.86729">
        <ele>115.6008</ele>
        <time>2021-07-15T10:02:35Z</time>
      </trkpt>
      <trkpt lat="36.52393" lon="-5.86758">
        <ele>120.6795</ele>
        <time>2021-07-15T10:02:46Z</time>
      </trkpt>
      <trkpt lat="36.52338" lon="-5.86776">
        <ele>123.8933</ele>
        <time>2021-07-15T10:02:57Z</time>
      </trkpt>
      <trkpt lat="36.52256" lon="-5.86784">
        <ele>125.6655</ele>
        <time>2021-07-15T10:03:08Z</time>
      </trkpt>
      <trkpt lat="36.52171" lon="-5.86765">
        <ele>123.2693</ele>
        <time>2021-07-15T10:03:19Z</time>
      </trkpt>
      <trkpt lat="36.52115" lon="-5.86752">
        <ele>124.1132</ele>
        <time>2021-07-15T10:03:30Z</time>
      </trkpt>
      <trkpt lat="36.52019" lon="-5.86776">
        <ele>125.6392</ele>
        <time>2021-07-15T10:03:41Z</time>
      </trkpt>
      <trkpt lat="36.51936" lon="-5.86822">
        <ele>121.5895</ele>
        <time>2021-07-15T10:03:52Z</time>
      </trkpt>
      <trkpt lat="36.5188" lon="-5.86858">
        <ele>111.4663</ele>
        <time>2021-07-15T10:04:03Z</time>
      </trkpt>
      <trkpt lat="36.51853" lon="-5.86912">
        <ele>106.7975</ele>
        <time>2021-07-15T10:04:14Z</time>
      </trkpt>
      <trkpt lat="36.51832" lon="-5.87043">
        <ele>100.0915</ele>
        <time>2021-07-15T10:04:25Z</time>
      </trkpt>
      <trkpt lat="36.51801" lon="-5.87203">
        <ele>91.24765</ele>
        <time>2021-07-15T10:04:36Z</time>
      </trkpt>
      <trkpt lat="36.51674" lon="-5.87276">
        <ele>77.90982</ele>
        <time>2021-07-15T10:04:47Z</time>
      </trkpt>
      <trkpt lat="36.51555" lon="-5.87407">
        <ele>70.01879</ele>
        <time>2021-07-15T10:04:58Z</time>
      </trkpt>
      <trkpt lat="36.51403" lon="-5.87612">
        <ele>63.11658</ele>
        <time>2021-07-15T10:05:09Z</time>
      </trkpt>
      <trkpt lat="36.51237" lon="-5.87821">
        <ele>62.23957</ele>
        <time>2021-07-15T10:05:20Z</time>
      </trkpt>
      <trkpt lat="36.51073" lon="-5.88002">
        <ele>56.99342</ele>
        <time>2021-07-15T10:05:31Z</time>
      </trkpt>
      <trkpt lat="36.5089" lon="-5.88026">
        <ele>55.8203</ele>
        <time>2021-07-15T10:05:42Z</time>
      </trkpt>
      <trkpt lat="36.50709" lon="-5.88045">
        <ele>51.26024</ele>
        <time>2021-07-15T10:05:53Z</time>
      </trkpt>
      <trkpt lat="36.5058" lon="-5.88079">
        <ele>57.58554</ele>
        <time>2021-07-15T10:06:04Z</time>
      </trkpt>
      <trkpt lat="36.50479" lon="-5.88188">
        <ele>64.00294</ele>
        <time>2021-07-15T10:06:15Z</time>
      </trkpt>
      <trkpt lat="36.5036" lon="-5.88312">
        <ele>59.90284</ele>
        <time>2021-07-15T10:06:26Z</time>
      </trkpt>
      <trkpt lat="36.50239" lon="-5.8842">
        <ele>53.54831</ele>
        <time>2021-07-15T10:06:37Z</time>
      </trkpt>
      <trkpt lat="36.50046" lon="-5.88532">
        <ele>52.72928</ele>
        <time>2021-07-15T10:06:48Z</time>
      </trkpt>
      <trkpt lat="36.49897" lon="-5.88639">
        <ele>59.08004</ele>
        <time>2021-07-15T10:06:59Z</time>
      </trkpt>
      <trkpt lat="36.4981" lon="-5.88848">
        <ele>56.31564</ele>
        <time>2021-07-15T10:07:10Z</time>
      </trkpt>
      <trkpt lat="36.49658" lon="-5.88974">
        <ele>65.37507</ele>
        <time>2021-07-15T10:07:21Z</time>
      </trkpt>
      <trkpt lat="36.49485" lon="-5.89057">
        <ele>61.83968</ele>
        <time>2021-07-15T10:07:32Z</time>
      </trkpt>
      <trkpt lat="36.49349" lon="-5.89149">
        <ele>72.78811</ele>
        <time>2021-07-15T10:07:43Z</time>
      </trkpt>
      <trkpt lat="36.49272" lon="-5.89243">
        <ele>77.2953</ele>
        <time>2021-07-15T10:07:54Z</time>
      </trkpt>
      <trkpt lat="36.49237" lon="-5.89428">
        <ele>67.86598</ele>
        <time>2021-07-15T10:08:05Z</time>
      </trkpt>
      <trkpt lat="36.49156" lon="-5.89691">
        <ele>62.25818</ele>
        <time>2021-07-15T10:08:16Z</time>
      </trkpt>
      <trkpt lat="36.49069" lon="-5.8997">
        <ele>60.43729</ele>
        <time>2021-07-15T10:08:27Z</time>
      </trkpt>
      <trkpt lat="36.4895" lon="-5.90217">
        <ele>61.80638</ele>
        <time>2021-07-15T10:08:38Z</time>
      </trkpt>
      <trkpt lat="36.48835" lon="-5.9043">
        <ele>68.62532</ele>
        <time>2021-07-15T10:08:49Z</time>
      </trkpt>
      <trkpt lat="36.48705" lon="-5.90678">
        <ele>84.12115</ele>
        <time>2021-07-15T10:09:00Z</time>
      </trkpt>
      <trkpt lat="36.48545" lon="-5.9089">
        <ele>80.3354</ele>
        <time>2021-07-15T10:09:11Z</time>
      </trkpt>
      <trkpt lat="36.48376" lon="-5.91106">
        <ele>78.56459</ele>
        <time>2021-07-15T10:09:22Z</time>
      </trkpt>
      <trkpt lat="36.48212" lon="-5.91309">
        <ele>85.59101</ele>
        <time>2021-07-15T10:09:33Z</time>
      </trkpt>
      <trkpt lat="36.48022" lon="-5.9145">
        <ele>100.6139</ele>
        <time>2021-07-15T10:09:44Z</time>
      </trkpt>
      <trkpt lat="36.47928" lon="-5.91568">
        <ele>96.25913</ele>
        <time>2021-07-15T10:09:55Z</time>
      </trkpt>
      <trkpt lat="36.47886" lon="-5.91591">
        <ele>95.80424</ele>
        <time>2021-07-15T10:10:06Z</time>
      </trkpt>
      <trkpt lat="36.47739" lon="-5.91484">
        <ele>96.6991</ele>
        <time>2021-07-15T10:10:17Z</time>
      </trkpt>
      <trkpt lat="36.47577" lon="-5.91319">
        <ele>96.82436</ele>
        <time>2021-07-15T10:10:28Z</time>
      </trkpt>
      <trkpt lat="36.47445" lon="-5.91115">
        <ele>95.06678</ele>
        <time>2021-07-15T10:10:39Z</time>
      </trkpt>
      <trkpt lat="36.47356" lon="-5.90862">
        <ele>93.95399</ele>
        <time>2021-07-15T10:10:50Z</time>
      </trkpt>
      <trkpt lat="36.47265" lon="-5.90605">
        <ele>105.2331</ele>
        <time>2021-07-15T10:11:01Z</time>
      </trkpt>
      <trkpt lat="36.47081" lon="-5.90517">
        <ele>121.3158</ele>
        <time>2021-07-15T10:11:12Z</time>
      </trkpt>
      <trkpt lat="36.46882" lon="-5.90571">
        <ele>137.3155</ele>
        <time>2021-07-15T10:11:23Z</time>
      </trkpt>
      <trkpt lat="36.46705" lon="-5.90495">
        <ele>146.2701</ele>
        <time>2021-07-15T10:11:34Z</time>
      </trkpt>
      <trkpt lat="36.46644" lon="-5.90281">
        <ele>143.6118</ele>
        <time>2021-07-15T10:11:45Z</time>
      </trkpt>
      <trkpt lat="36.4656" lon="-5.90049">
        <ele>133.0121</ele>
        <time>2021-07-15T10:11:56Z</time>
      </trkpt>
      <trkpt lat="36.46392" lon="-5.89903">
        <ele>119.7202</ele>
        <time>2021-07-15T10:12:07Z</time>
      </trkpt>
      <trkpt lat="36.4619" lon="-5.89837">
        <ele>107.8192</ele>
        <time>2021-07-15T10:12:18Z</time>
      </trkpt>
      <trkpt lat="36.45986" lon="-5.89763">
        <ele>92.53446</ele>
        <time>2021-07-15T10:12:29Z</time>
      </trkpt>
      <trkpt lat="36.45813" lon="-5.8961">
        <ele>83.72132</ele>
        <time>2021-07-15T10:12:40Z</time>
      </trkpt>
      <trkpt lat="36.45689" lon="-5.89413">
        <ele>76.89844</ele>
        <time>2021-07-15T10:12:51Z</time>
      </trkpt>
      <trkpt lat="36.4557" lon="-5.89196">
        <ele>76.84079</ele>
        <time>2021-07-15T10:13:02Z</time>
      </trkpt>
      <trkpt lat="36.45557" lon="-5.88976">
        <ele>76.46846</ele>
        <time>2021-07-15T10:13:13Z</time>
      </trkpt>
      <trkpt lat="36.45441" lon="-5.88991">
        <ele>73.82005</ele>
        <time>2021-07-15T10:13:24Z</time>
      </trkpt>
      <trkpt lat="36.45212" lon="-5.88994">
        <ele>73.0344</ele>
        <time>2021-07-15T10:13:35Z</time>
      </trkpt>
      <trkpt lat="36.44976" lon="-5.88978">
        <ele>73.46085</ele>
        <time>2021-07-15T10:13:46Z</time>
      </trkpt>
      <trkpt lat="36.44749" lon="-5.89075">
        <ele>73.4999</ele>
        <time>2021-07-15T10:13:57Z</time>
      </trkpt>
      <trkpt lat="36.44552" lon="-5.8922">
        <ele>75.989</ele>
        <time>2021-07-15T10:14:08Z</time>
      </trkpt>
      <trkpt lat="36.44461" lon="-5.89493">
        <ele>74.21104</ele>
        <time>2021-07-15T10:14:19Z</time>
      </trkpt>
      <trkpt lat="36.44416" lon="-5.8979">
        <ele>72.01414</ele>
        <time>2021-07-15T10:14:30Z</time>
      </trkpt>
      <trkpt lat="36.44381" lon="-5.90088">
        <ele>70.6149</ele>
        <time>2021-07-15T10:14:41Z</time>
      </trkpt>
      <trkpt lat="36.44357" lon="-5.90357">
        <ele>73.13641</ele>
        <time>2021-07-15T10:14:52Z</time>
      </trkpt>
      <trkpt lat="36.44401" lon="-5.90648">
        <ele>81.68307</ele>
        <time>2021-07-15T10:15:03Z</time>
      </trkpt>
      <trkpt lat="36.444" lon="-5.90949">
        <ele>88.82722</ele>
        <time>2021-07-15T10:15:14Z</time>
      </trkpt>
      <trkpt lat="36.44396" lon="-5.91251">
        <ele>88.94624</ele>
        <time>2021-07-15T10:15:25Z</time>
      </trkpt>
      <trkpt lat="36.44346" lon="-5.91485">
        <ele>85.94709</ele>
        <time>2021-07-15T10:15:36Z</time>
      </trkpt>
      <trkpt lat="36.44242" lon="-5.91489">
        <ele>77.05752</ele>
        <time>2021-07-15T10:15:47Z</time>
      </trkpt>
      <trkpt lat="36.44026" lon="-5.91455">
        <ele>69.74968</ele>
        <time>2021-07-15T10:15:58Z</time>
      </trkpt>
      <trkpt lat="36.43798" lon="-5.91432">
        <ele>67.39743</ele>
        <time>2021-07-15T10:16:09Z</time>
      </trkpt>
      <trkpt lat="36.43668" lon="-5.91498">
        <ele>67.33709</ele>
        <time>2021-07-15T10:16:20Z</time>
      </trkpt>
      <trkpt lat="36.43659" lon="-5.915">
        <ele>67.6709</ele>
        <time>2021-07-15T10:16:31Z</time>
      </trkpt>
      <trkpt lat="36.43652" lon="-5.91503">
        <ele>67.04061</ele>
        <time>2021-07-15T10:16:48Z</time>
      </trkpt>
      <trkpt lat="36.43547" lon="-5.91393">
        <ele>64.03132</ele>
        <time>2021-07-15T10:16:59Z</time>
      </trkpt>
      <trkpt lat="36.43341" lon="-5.913">
        <ele>58.47152</ele>
        <time>2021-07-15T10:17:10Z</time>
      </trkpt>
      <trkpt lat="36.43104" lon="-5.9118">
        <ele>55.64847</ele>
        <time>2021-07-15T10:17:21Z</time>
      </trkpt>
      <trkpt lat="36.42885" lon="-5.9104">
        <ele>55.25572</ele>
        <time>2021-07-15T10:17:32Z</time>
      </trkpt>
      <trkpt lat="36.42673" lon="-5.90892">
        <ele>53.73464</ele>
        <time>2021-07-15T10:17:43Z</time>
      </trkpt>
      <trkpt lat="36.42452" lon="-5.90782">
        <ele>53.21932</ele>
        <time>2021-07-15T10:17:54Z</time>
      </trkpt>
      <trkpt lat="36.42219" lon="-5.90779">
        <ele>52.20555</ele>
        <time>2021-07-15T10:18:05Z</time>
      </trkpt>
      <trkpt lat="36.41976" lon="-5.90832">
        <ele>47.7764</ele>
        <time>2021-07-15T10:18:16Z</time>
      </trkpt>
      <trkpt lat="36.41748" lon="-5.9087">
        <ele>49.84565</ele>
        <time>2021-07-15T10:18:27Z</time>
      </trkpt>
      <trkpt lat="36.41521" lon="-5.90774">
        <ele>44.11429</ele>
        <time>2021-07-15T10:18:38Z</time>
      </trkpt>
      <trkpt lat="36.41302" lon="-5.90677">
        <ele>40.8216</ele>
        <time>2021-07-15T10:18:49Z</time>
      </trkpt>
      <trkpt lat="36.41094" lon="-5.90546">
        <ele>39.82115</ele>
        <time>2021-07-15T10:19:01Z</time>
      </trkpt>
      <trkpt lat="36.40897" lon="-5.9038">
        <ele>40.20633</ele>
        <time>2021-07-15T10:19:12Z</time>
      </trkpt>
      <trkpt lat="36.40686" lon="-5.90211">
        <ele>39.85303</ele>
        <time>2021-07-15T10:19:23Z</time>
      </trkpt>
      <trkpt lat="36.40501" lon="-5.90052">
        <ele>41.4474</ele>
        <time>2021-07-15T10:19:34Z</time>
      </trkpt>
      <trkpt lat="36.40286" lon="-5.89873">
        <ele>45.2515</ele>
        <time>2021-07-15T10:19:45Z</time>
      </trkpt>
      <trkpt lat="36.40073" lon="-5.89736">
        <ele>38.3675</ele>
        <time>2021-07-15T10:19:56Z</time>
      </trkpt>
      <trkpt lat="36.39864" lon="-5.89602">
        <ele>36.2205</ele>
        <time>2021-07-15T10:20:07Z</time>
      </trkpt>
      <trkpt lat="36.39648" lon="-5.89491">
        <ele>40.23849</ele>
        <time>2021-07-15T10:20:18Z</time>
      </trkpt>
      <trkpt lat="36.39425" lon="-5.89571">
        <ele>48.46038</ele>
        <time>2021-07-15T10:20:29Z</time>
      </trkpt>
      <trkpt lat="36.39223" lon="-5.89723">
        <ele>52.60404</ele>
        <time>2021-07-15T10:20:40Z</time>
      </trkpt>
      <trkpt lat="36.39018" lon="-5.8988">
        <ele>46.83281</ele>
        <time>2021-07-15T10:20:51Z</time>
      </trkpt>
      <trkpt lat="36.38814" lon="-5.90036">
        <ele>45.94732</ele>
        <time>2021-07-15T10:21:02Z</time>
      </trkpt>
      <trkpt lat="36.38625" lon="-5.90181">
        <ele>46.64215</ele>
        <time>2021-07-15T10:21:13Z</time>
      </trkpt>
      <trkpt lat="36.38419" lon="-5.90338">
        <ele>47.71812</ele>
        <time>2021-07-15T10:21:24Z</time>
      </trkpt>
      <trkpt lat="36.38219" lon="-5.90493">
        <ele>49.16697</ele>
        <time>2021-07-15T10:21:35Z</time>
      </trkpt>
      <trkpt lat="36.38014" lon="-5.90648">
        <ele>53.36906</ele>
        <time>2021-07-15T10:21:46Z</time>
      </trkpt>
      <trkpt lat="36.37801" lon="-5.90815">
        <ele>58.30469</ele>
        <time>2021-07-15T10:21:57Z</time>
      </trkpt>
      <trkpt lat="36.37629" lon="-5.91025">
        <ele>58.98926</ele>
        <time>2021-07-15T10:22:08Z</time>
      </trkpt>
      <trkpt lat="36.3746" lon="-5.91244">
        <ele>57.7307</ele>
        <time>2021-07-15T10:22:19Z</time>
      </trkpt>
      <trkpt lat="36.3728" lon="-5.91441">
        <ele>60.12821</ele>
        <time>2021-07-15T10:22:30Z</time>
      </trkpt>
      <trkpt lat="36.37087" lon="-5.91624">
        <ele>62.95695</ele>
        <time>2021-07-15T10:22:41Z</time>
      </trkpt>
      <trkpt lat="36.36894" lon="-5.91803">
        <ele>66.6922</ele>
        <time>2021-07-15T10:22:52Z</time>
      </trkpt>
      <trkpt lat="36.36697" lon="-5.91988">
        <ele>69.77633</ele>
        <time>2021-07-15T10:23:03Z</time>
      </trkpt>
      <trkpt lat="36.36516" lon="-5.92161">
        <ele>71.15144</ele>
        <time>2021-07-15T10:23:14Z</time>
      </trkpt>
      <trkpt lat="36.36367" lon="-5.92406">
        <ele>75.55954</ele>
        <time>2021-07-15T10:23:25Z</time>
      </trkpt>
      <trkpt lat="36.36269" lon="-5.9268">
        <ele>81.79366</ele>
        <time>2021-07-15T10:23:36Z</time>
      </trkpt>
      <trkpt lat="36.36073" lon="-5.92853">
        <ele>79.49671</ele>
        <time>2021-07-15T10:23:47Z</time>
      </trkpt>
      <trkpt lat="36.35829" lon="-5.92919">
        <ele>71.72525</ele>
        <time>2021-07-15T10:23:58Z</time>
      </trkpt>
      <trkpt lat="36.3556" lon="-5.92997">
        <ele>66.25992</ele>
        <time>2021-07-15T10:24:09Z</time>
      </trkpt>
      <trkpt lat="36.35312" lon="-5.93077">
        <ele>58.7137</ele>
        <time>2021-07-15T10:24:20Z</time>
      </trkpt>
      <trkpt lat="36.35068" lon="-5.93117">
        <ele>56.37789</ele>
        <time>2021-07-15T10:24:31Z</time>
      </trkpt>
      <trkpt lat="36.34836" lon="-5.93044">
        <ele>57.47978</ele>
        <time>2021-07-15T10:24:42Z</time>
      </trkpt>
      <trkpt lat="36.34604" lon="-5.93137">
        <ele>56.35418</ele>
        <time>2021-07-15T10:24:53Z</time>
      </trkpt>
      <trkpt lat="36.34364" lon="-5.93141">
        <ele>50.1259</ele>
        <time>2021-07-15T10:25:04Z</time>
      </trkpt>
      <trkpt lat="36.34127" lon="-5.93025">
        <ele>46.23854</ele>
        <time>2021-07-15T10:25:15Z</time>
      </trkpt>
      <trkpt lat="36.33909" lon="-5.92994">
        <ele>44.25421</ele>
        <time>2021-07-15T10:25:26Z</time>
      </trkpt>
      <trkpt lat="36.3367" lon="-5.93095">
        <ele>41.17773</ele>
        <time>2021-07-15T10:25:37Z</time>
      </trkpt>
      <trkpt lat="36.33437" lon="-5.93192">
        <ele>38.93368</ele>
        <time>2021-07-15T10:25:48Z</time>
      </trkpt>
      <trkpt lat="36.33204" lon="-5.93274">
        <ele>37.44129</ele>
        <time>2021-07-15T10:25:59Z</time>
      </trkpt>
      <trkpt lat="36.3297" lon="-5.93346">
        <ele>37.19454</ele>
        <time>2021-07-15T10:26:10Z</time>
      </trkpt>
      <trkpt lat="36.32742" lon="-5.93445">
        <ele>36.01046</ele>
        <time>2021-07-15T10:26:21Z</time>
      </trkpt>
      <trkpt lat="36.32495" lon="-5.93572">
        <ele>35.61546</ele>
        <time>2021-07-15T10:26:32Z</time>
      </trkpt>
      <trkpt lat="36.32265" lon="-5.9369">
        <ele>38.15095</ele>
        <time>2021-07-15T10:26:43Z</time>
      </trkpt>
      <trkpt lat="36.32033" lon="-5.93811">
        <ele>41.5599</ele>
        <time>2021-07-15T10:26:54Z</time>
      </trkpt>
      <trkpt lat="36.31799" lon="-5.93932">
        <ele>49.97073</ele>
        <time>2021-07-15T10:27:05Z</time>
      </trkpt>
      <trkpt lat="36.31566" lon="-5.94062">
        <ele>58.65696</ele>
        <time>2021-07-15T10:27:16Z</time>
      </trkpt>
      <trkpt lat="36.31377" lon="-5.9423">
        <ele>62.12135</ele>
        <time>2021-07-15T10:27:27Z</time>
      </trkpt>
      <trkpt lat="36.31154" lon="-5.94363">
        <ele>72.19626</ele>
        <time>2021-07-15T10:27:38Z</time>
      </trkpt>
      <trkpt lat="36.30909" lon="-5.94407">
        <ele>82.33701</ele>
        <time>2021-07-15T10:27:49Z</time>
      </trkpt>
      <trkpt lat="36.30685" lon="-5.94503">
        <ele>93.52835</ele>
        <time>2021-07-15T10:28:00Z</time>
      </trkpt>
      <trkpt lat="36.30485" lon="-5.94706">
        <ele>105.6233</ele>
        <time>2021-07-15T10:28:11Z</time>
      </trkpt>
      <trkpt lat="36.3027" lon="-5.94839">
        <ele>108.4132</ele>
        <time>2021-07-15T10:28:22Z</time>
      </trkpt>
      <trkpt lat="36.30057" lon="-5.94996">
        <ele>101.8006</ele>
        <time>2021-07-15T10:28:33Z</time>
      </trkpt>
      <trkpt lat="36.29821" lon="-5.95096">
        <ele>92.80632</ele>
        <time>2021-07-15T10:28:44Z</time>
      </trkpt>
      <trkpt lat="36.29703" lon="-5.9538">
        <ele>90.22778</ele>
        <time>2021-07-15T10:28:55Z</time>
      </trkpt>
      <trkpt lat="36.29565" lon="-5.95626">
        <ele>87.07182</ele>
        <time>2021-07-15T10:29:06Z</time>
      </trkpt>
      <trkpt lat="36.29329" lon="-5.95656">
        <ele>82.36264</ele>
        <time>2021-07-15T10:29:17Z</time>
      </trkpt>
      <trkpt lat="36.29119" lon="-5.95517">
        <ele>76.09197</ele>
        <time>2021-07-15T10:29:28Z</time>
      </trkpt>
      <trkpt lat="36.28906" lon="-5.95556">
        <ele>65.24104</ele>
        <time>2021-07-15T10:29:39Z</time>
      </trkpt>
      <trkpt lat="36.28685" lon="-5.95715">
        <ele>52.63927</ele>
        <time>2021-07-15T10:29:50Z</time>
      </trkpt>
      <trkpt lat="36.28485" lon="-5.95891">
        <ele>49.50219</ele>
        <time>2021-07-15T10:30:01Z</time>
      </trkpt>
      <trkpt lat="36.28312" lon="-5.96112">
        <ele>52.01059</ele>
        <time>2021-07-15T10:30:12Z</time>
      </trkpt>
      <trkpt lat="36.28107" lon="-5.96341">
        <ele>53.14135</ele>
        <time>2021-07-15T10:30:23Z</time>
      </trkpt>
      <trkpt lat="36.27855" lon="-5.9644">
        <ele>41.97617</ele>
        <time>2021-07-15T10:30:34Z</time>
      </trkpt>
      <trkpt lat="36.27596" lon="-5.96479">
        <ele>30.16452</ele>
        <time>2021-07-15T10:30:45Z</time>
      </trkpt>
      <trkpt lat="36.27348" lon="-5.96507">
        <ele>20.76103</ele>
        <time>2021-07-15T10:30:56Z</time>
      </trkpt>
      <trkpt lat="36.27116" lon="-5.96486">
        <ele>12.90093</ele>
        <time>2021-07-15T10:31:07Z</time>
      </trkpt>
      <trkpt lat="36.26911" lon="-5.96445">
        <ele>6.706533</ele>
        <time>2021-07-15T10:31:18Z</time>
      </trkpt>
      <trkpt lat="36.26719" lon="-5.96427">
        <ele>3.200375</ele>
        <time>2021-07-15T10:31:29Z</time>
      </trkpt>
      <trkpt lat="36.26571" lon="-5.9645">
        <ele>2.269683</ele>
        <time>2021-07-15T10:31:40Z</time>
      </trkpt>
      <trkpt lat="36.26398" lon="-5.96478">
        <ele>5.374711</ele>
        <time>2021-07-15T10:31:51Z</time>
      </trkpt>
      <trkpt lat="36.26304" lon="-5.965">
        <ele>3.055931</ele>
        <time>2021-07-15T10:32:02Z</time>
      </trkpt>
      <trkpt lat="36.263" lon="-5.96503">
        <ele>0.781547</ele>
        <time>2021-07-15T10:32:15Z</time>
      </trkpt>
      <trkpt lat="36.26283" lon="-5.96498">
        <ele>2.534398</ele>
        <time>2021-07-15T10:32:26Z</time>
      </trkpt>
      <trkpt lat="36.26277" lon="-5.965">
        <ele>3.538481</ele>
        <time>2021-07-15T10:32:44Z</time>
      </trkpt>
      <trkpt lat="36.26269" lon="-5.96497">
        <ele>5.941908</ele>
        <time>2021-07-15T10:32:55Z</time>
      </trkpt>
      <trkpt lat="36.26265" lon="-5.96497">
        <ele>11.47195</ele>
        <time>2021-07-15T10:33:50Z</time>
      </trkpt>
      <trkpt lat="36.26261" lon="-5.96496">
        <ele>7.920498</ele>
        <time>2021-07-15T10:34:08Z</time>
      </trkpt>
      <trkpt lat="36.26257" lon="-5.96496">
        <ele>6.994157</ele>
        <time>2021-07-15T10:34:19Z</time>
      </trkpt>
      <trkpt lat="36.26249" lon="-5.96495">
        <ele>6.622371</ele>
        <time>2021-07-15T10:34:30Z</time>
      </trkpt>
      <trkpt lat="36.26245" lon="-5.96494">
        <ele>5.458252</ele>
        <time>2021-07-15T10:35:00Z</time>
      </trkpt>
      <trkpt lat="36.26242" lon="-5.96495">
        <ele>6.235906</ele>
        <time>2021-07-15T10:35:20Z</time>
      </trkpt>
      <trkpt lat="36.26242" lon="-5.96494">
        <ele>9.797042</ele>
        <time>2021-07-15T10:36:20Z</time>
      </trkpt>
      <trkpt lat="36.26238" lon="-5.96492">
        <ele>11.30181</ele>
        <time>2021-07-15T10:37:06Z</time>
      </trkpt>
      <trkpt lat="36.26229" lon="-5.96491">
        <ele>6.391447</ele>
        <time>2021-07-15T10:37:17Z</time>
      </trkpt>
      <trkpt lat="36.26219" lon="-5.96489">
        <ele>9.291423</ele>
        <time>2021-07-15T10:37:28Z</time>
      </trkpt>
      <trkpt lat="36.26216" lon="-5.96489">
        <ele>5.427333</ele>
        <time>2021-07-15T10:37:43Z</time>
      </trkpt>
      <trkpt lat="36.26208" lon="-5.9649">
        <ele>4.829329</ele>
        <time>2021-07-15T10:37:54Z</time>
      </trkpt>
      <trkpt lat="36.26196" lon="-5.9649">
        <ele>5.801068</ele>
        <time>2021-07-15T10:38:05Z</time>
      </trkpt>
      <trkpt lat="36.2618" lon="-5.96488">
        <ele>6.964696</ele>
        <time>2021-07-15T10:38:16Z</time>
      </trkpt>
      <trkpt lat="36.26172" lon="-5.96487">
        <ele>6.413538</ele>
        <time>2021-07-15T10:38:27Z</time>
      </trkpt>
      <trkpt lat="36.26161" lon="-5.96486">
        <ele>7.819399</ele>
        <time>2021-07-15T10:38:38Z</time>
      </trkpt>
      <trkpt lat="36.26156" lon="-5.96486">
        <ele>9.731118</ele>
        <time>2021-07-15T10:38:59Z</time>
      </trkpt>
      <trkpt lat="36.26149" lon="-5.96486">
        <ele>11.56004</ele>
        <time>2021-07-15T10:39:10Z</time>
      </trkpt>
      <trkpt lat="36.26145" lon="-5.96488">
        <ele>11.6769</ele>
        <time>2021-07-15T10:39:54Z</time>
      </trkpt>
      <trkpt lat="36.26142" lon="-5.96485">
        <ele>12.15241</ele>
        <time>2021-07-15T10:40:10Z</time>
      </trkpt>
      <trkpt lat="36.26138" lon="-5.96484">
        <ele>12.49262</ele>
        <time>2021-07-15T10:40:39Z</time>
      </trkpt>
      <trkpt lat="36.26134" lon="-5.96483">
        <ele>10.22396</ele>
        <time>2021-07-15T10:40:53Z</time>
      </trkpt>
      <trkpt lat="36.26133" lon="-5.96483">
        <ele>8.795772</ele>
        <time>2021-07-15T10:41:52Z</time>
      </trkpt>
      <trkpt lat="36.26133" lon="-5.96482">
        <ele>12.98155</ele>
        <time>2021-07-15T10:42:52Z</time>
      </trkpt>
      <trkpt lat="36.26135" lon="-5.96483">
        <ele>10.48672</ele>
        <time>2021-07-15T10:43:51Z</time>
      </trkpt>
      <trkpt lat="36.26132" lon="-5.96483">
        <ele>6.711794</ele>
        <time>2021-07-15T10:44:25Z</time>
      </trkpt>
      <trkpt lat="36.26129" lon="-5.9648">
        <ele>13.86804</ele>
        <time>2021-07-15T10:44:53Z</time>
      </trkpt>
      <trkpt lat="36.26132" lon="-5.96483">
        <ele>12.83169</ele>
        <time>2021-07-15T10:45:41Z</time>
      </trkpt>
      <trkpt lat="36.26119" lon="-5.96483">
        <ele>13.59309</ele>
        <time>2021-07-15T10:45:52Z</time>
      </trkpt>
      <trkpt lat="36.2611" lon="-5.96482">
        <ele>14.07362</ele>
        <time>2021-07-15T10:46:03Z</time>
      </trkpt>
      <trkpt lat="36.26105" lon="-5.96482">
        <ele>7.938571</ele>
        <time>2021-07-15T10:46:22Z</time>
      </trkpt>
      <trkpt lat="36.26101" lon="-5.96482">
        <ele>9.670502</ele>
        <time>2021-07-15T10:46:40Z</time>
      </trkpt>
      <trkpt lat="36.26083" lon="-5.96405">
        <ele>9.185196</ele>
        <time>2021-07-15T10:46:51Z</time>
      </trkpt>
      <trkpt lat="36.26057" lon="-5.96229">
        <ele>8.976185</ele>
        <time>2021-07-15T10:47:02Z</time>
      </trkpt>
      <trkpt lat="36.25933" lon="-5.96104">
        <ele>6.430994</ele>
        <time>2021-07-15T10:47:13Z</time>
      </trkpt>
      <trkpt lat="36.2583" lon="-5.95886">
        <ele>6.226793</ele>
        <time>2021-07-15T10:47:24Z</time>
      </trkpt>
      <trkpt lat="36.25643" lon="-5.95732">
        <ele>7.230463</ele>
        <time>2021-07-15T10:47:35Z</time>
      </trkpt>
      <trkpt lat="36.25425" lon="-5.95558">
        <ele>12.6208</ele>
        <time>2021-07-15T10:47:46Z</time>
      </trkpt>
      <trkpt lat="36.25243" lon="-5.95374">
        <ele>17.23524</ele>
        <time>2021-07-15T10:47:57Z</time>
      </trkpt>
      <trkpt lat="36.25248" lon="-5.95129">
        <ele>19.4678</ele>
        <time>2021-07-15T10:48:08Z</time>
      </trkpt>
      <trkpt lat="36.25415" lon="-5.94917">
        <ele>22.11134</ele>
        <time>2021-07-15T10:48:19Z</time>
      </trkpt>
      <trkpt lat="36.25554" lon="-5.94717">
        <ele>36.53162</ele>
        <time>2021-07-15T10:48:30Z</time>
      </trkpt>
      <trkpt lat="36.25514" lon="-5.94416">
        <ele>47.71912</ele>
        <time>2021-07-15T10:48:41Z</time>
      </trkpt>
      <trkpt lat="36.2545" lon="-5.9414">
        <ele>60.84332</ele>
        <time>2021-07-15T10:48:52Z</time>
      </trkpt>
      <trkpt lat="36.25368" lon="-5.93841">
        <ele>50.4039</ele>
        <time>2021-07-15T10:49:03Z</time>
      </trkpt>
      <trkpt lat="36.25289" lon="-5.93537">
        <ele>44.92673</ele>
        <time>2021-07-15T10:49:14Z</time>
      </trkpt>
      <trkpt lat="36.25212" lon="-5.93241">
        <ele>37.99025</ele>
        <time>2021-07-15T10:49:25Z</time>
      </trkpt>
      <trkpt lat="36.25132" lon="-5.92935">
        <ele>26.11754</ele>
        <time>2021-07-15T10:49:36Z</time>
      </trkpt>
      <trkpt lat="36.25047" lon="-5.92615">
        <ele>23.51996</ele>
        <time>2021-07-15T10:49:47Z</time>
      </trkpt>
      <trkpt lat="36.24964" lon="-5.92299">
        <ele>28.04465</ele>
        <time>2021-07-15T10:49:58Z</time>
      </trkpt>
      <trkpt lat="36.24882" lon="-5.91988">
        <ele>26.12951</ele>
        <time>2021-07-15T10:50:09Z</time>
      </trkpt>
      <trkpt lat="36.24813" lon="-5.91679">
        <ele>33.91211</ele>
        <time>2021-07-15T10:50:20Z</time>
      </trkpt>
      <trkpt lat="36.24764" lon="-5.91365">
        <ele>35.47982</ele>
        <time>2021-07-15T10:50:31Z</time>
      </trkpt>
      <trkpt lat="36.24717" lon="-5.91049">
        <ele>41.05891</ele>
        <time>2021-07-15T10:50:42Z</time>
      </trkpt>
      <trkpt lat="36.24669" lon="-5.90725">
        <ele>44.11609</ele>
        <time>2021-07-15T10:50:53Z</time>
      </trkpt>
      <trkpt lat="36.2462" lon="-5.90414">
        <ele>45.92205</ele>
        <time>2021-07-15T10:51:04Z</time>
      </trkpt>
      <trkpt lat="36.24572" lon="-5.90109">
        <ele>44.59031</ele>
        <time>2021-07-15T10:51:15Z</time>
      </trkpt>
      <trkpt lat="36.24528" lon="-5.89793">
        <ele>44.61391</ele>
        <time>2021-07-15T10:51:26Z</time>
      </trkpt>
      <trkpt lat="36.24482" lon="-5.89482">
        <ele>44.26914</ele>
        <time>2021-07-15T10:51:37Z</time>
      </trkpt>
      <trkpt lat="36.24333" lon="-5.89225">
        <ele>46.20222</ele>
        <time>2021-07-15T10:51:48Z</time>
      </trkpt>
      <trkpt lat="36.2415" lon="-5.8899">
        <ele>45.14982</ele>
        <time>2021-07-15T10:51:59Z</time>
      </trkpt>
      <trkpt lat="36.23952" lon="-5.88775">
        <ele>42.59293</ele>
        <time>2021-07-15T10:52:10Z</time>
      </trkpt>
      <trkpt lat="36.2369" lon="-5.88674">
        <ele>33.08645</ele>
        <time>2021-07-15T10:52:21Z</time>
      </trkpt>
      <trkpt lat="36.23449" lon="-5.88529">
        <ele>22.77618</ele>
        <time>2021-07-15T10:52:32Z</time>
      </trkpt>
      <trkpt lat="36.23206" lon="-5.88383">
        <ele>17.22888</ele>
        <time>2021-07-15T10:52:43Z</time>
      </trkpt>
      <trkpt lat="36.22965" lon="-5.88221">
        <ele>15.96785</ele>
        <time>2021-07-15T10:52:54Z</time>
      </trkpt>
      <trkpt lat="36.22762" lon="-5.88007">
        <ele>20.52595</ele>
        <time>2021-07-15T10:53:05Z</time>
      </trkpt>
      <trkpt lat="36.22564" lon="-5.87798">
        <ele>22.36768</ele>
        <time>2021-07-15T10:53:16Z</time>
      </trkpt>
      <trkpt lat="36.22359" lon="-5.87583">
        <ele>13.71324</ele>
        <time>2021-07-15T10:53:27Z</time>
      </trkpt>
      <trkpt lat="36.2218" lon="-5.87338">
        <ele>8.854593</ele>
        <time>2021-07-15T10:53:38Z</time>
      </trkpt>
      <trkpt lat="36.22091" lon="-5.87024">
        <ele>7.206176</ele>
        <time>2021-07-15T10:53:49Z</time>
      </trkpt>
      <trkpt lat="36.2201" lon="-5.86712">
        <ele>17.21422</ele>
        <time>2021-07-15T10:54:00Z</time>
      </trkpt>
      <trkpt lat="36.21931" lon="-5.86409">
        <ele>7.942868</ele>
        <time>2021-07-15T10:54:11Z</time>
      </trkpt>
      <trkpt lat="36.21853" lon="-5.86094">
        <ele>6.127795</ele>
        <time>2021-07-15T10:54:22Z</time>
      </trkpt>
      <trkpt lat="36.21875" lon="-5.85771">
        <ele>6.809487</ele>
        <time>2021-07-15T10:54:33Z</time>
      </trkpt>
      <trkpt lat="36.21992" lon="-5.85503">
        <ele>14.44731</ele>
        <time>2021-07-15T10:54:44Z</time>
      </trkpt>
      <trkpt lat="36.22132" lon="-5.85255">
        <ele>12.34455</ele>
        <time>2021-07-15T10:54:55Z</time>
      </trkpt>
      <trkpt lat="36.22339" lon="-5.85056">
        <ele>11.62262</ele>
        <time>2021-07-15T10:55:06Z</time>
      </trkpt>
      <trkpt lat="36.22537" lon="-5.84865">
        <ele>10.91243</ele>
        <time>2021-07-15T10:55:17Z</time>
      </trkpt>
      <trkpt lat="36.22734" lon="-5.84673">
        <ele>15.71809</ele>
        <time>2021-07-15T10:55:28Z</time>
      </trkpt>
      <trkpt lat="36.229" lon="-5.84436">
        <ele>21.8924</ele>
        <time>2021-07-15T10:55:39Z</time>
      </trkpt>
      <trkpt lat="36.22987" lon="-5.84134">
        <ele>15.9357</ele>
        <time>2021-07-15T10:55:50Z</time>
      </trkpt>
      <trkpt lat="36.23082" lon="-5.83793">
        <ele>6.183805</ele>
        <time>2021-07-15T10:56:01Z</time>
      </trkpt>
      <trkpt lat="36.23166" lon="-5.83487">
        <ele>6.0007</ele>
        <time>2021-07-15T10:56:12Z</time>
      </trkpt>
      <trkpt lat="36.23191" lon="-5.83166">
        <ele>10.90769</ele>
        <time>2021-07-15T10:56:23Z</time>
      </trkpt>
      <trkpt lat="36.23094" lon="-5.82869">
        <ele>9.083839</ele>
        <time>2021-07-15T10:56:34Z</time>
      </trkpt>
      <trkpt lat="36.22981" lon="-5.82584">
        <ele>5.166247</ele>
        <time>2021-07-15T10:56:45Z</time>
      </trkpt>
      <trkpt lat="36.22876" lon="-5.82325">
        <ele>4.123429</ele>
        <time>2021-07-15T10:56:56Z</time>
      </trkpt>
      <trkpt lat="36.22761" lon="-5.82039">
        <ele>6.66565</ele>
        <time>2021-07-15T10:57:07Z</time>
      </trkpt>
      <trkpt lat="36.22628" lon="-5.81715">
        <ele>7.195543</ele>
        <time>2021-07-15T10:57:18Z</time>
      </trkpt>
      <trkpt lat="36.22509" lon="-5.8142">
        <ele>9.642959</ele>
        <time>2021-07-15T10:57:29Z</time>
      </trkpt>
      <trkpt lat="36.22389" lon="-5.81134">
        <ele>9.09029</ele>
        <time>2021-07-15T10:57:40Z</time>
      </trkpt>
      <trkpt lat="36.22268" lon="-5.80835">
        <ele>14.09718</ele>
        <time>2021-07-15T10:57:51Z</time>
      </trkpt>
      <trkpt lat="36.22148" lon="-5.80537">
        <ele>13.63364</ele>
        <time>2021-07-15T10:58:02Z</time>
      </trkpt>
      <trkpt lat="36.21984" lon="-5.80291">
        <ele>19.75341</ele>
        <time>2021-07-15T10:58:13Z</time>
      </trkpt>
      <trkpt lat="36.21814" lon="-5.80066">
        <ele>22.50386</ele>
        <time>2021-07-15T10:58:24Z</time>
      </trkpt>
      <trkpt lat="36.21726" lon="-5.79785">
        <ele>21.74892</ele>
        <time>2021-07-15T10:58:35Z</time>
      </trkpt>
      <trkpt lat="36.21611" lon="-5.79512">
        <ele>22.95078</ele>
        <time>2021-07-15T10:58:46Z</time>
      </trkpt>
      <trkpt lat="36.21442" lon="-5.79341">
        <ele>22.36631</ele>
        <time>2021-07-15T10:58:57Z</time>
      </trkpt>
      <trkpt lat="36.21251" lon="-5.79169">
        <ele>20.61349</ele>
        <time>2021-07-15T10:59:08Z</time>
      </trkpt>
      <trkpt lat="36.2107" lon="-5.7897">
        <ele>16.53034</ele>
        <time>2021-07-15T10:59:19Z</time>
      </trkpt>
      <trkpt lat="36.20925" lon="-5.7879">
        <ele>12.39687</ele>
        <time>2021-07-15T10:59:30Z</time>
      </trkpt>
      <trkpt lat="36.2077" lon="-5.78599">
        <ele>12.93853</ele>
        <time>2021-07-15T10:59:41Z</time>
      </trkpt>
      <trkpt lat="36.20615" lon="-5.78407">
        <ele>13.71741</ele>
        <time>2021-07-15T10:59:52Z</time>
      </trkpt>
      <trkpt lat="36.20464" lon="-5.78217">
        <ele>12.23845</ele>
        <time>2021-07-15T11:00:03Z</time>
      </trkpt>
      <trkpt lat="36.20289" lon="-5.78003">
        <ele>10.6641</ele>
        <time>2021-07-15T11:00:14Z</time>
      </trkpt>
      <trkpt lat="36.20125" lon="-5.77796">
        <ele>13.01923</ele>
        <time>2021-07-15T11:00:25Z</time>
      </trkpt>
      <trkpt lat="36.1996" lon="-5.77592">
        <ele>8.972992</ele>
        <time>2021-07-15T11:00:36Z</time>
      </trkpt>
      <trkpt lat="36.19798" lon="-5.77386">
        <ele>6.846979</ele>
        <time>2021-07-15T11:00:47Z</time>
      </trkpt>
      <trkpt lat="36.19636" lon="-5.77185">
        <ele>7.958287</ele>
        <time>2021-07-15T11:00:58Z</time>
      </trkpt>
      <trkpt lat="36.19472" lon="-5.76981">
        <ele>6.767416</ele>
        <time>2021-07-15T11:01:09Z</time>
      </trkpt>
      <trkpt lat="36.1932" lon="-5.7679">
        <ele>5.391271</ele>
        <time>2021-07-15T11:01:20Z</time>
      </trkpt>
      <trkpt lat="36.19143" lon="-5.7657">
        <ele>7.629075</ele>
        <time>2021-07-15T11:01:31Z</time>
      </trkpt>
      <trkpt lat="36.18987" lon="-5.76374">
        <ele>7.061865</ele>
        <time>2021-07-15T11:01:42Z</time>
      </trkpt>
      <trkpt lat="36.18842" lon="-5.76193">
        <ele>6.160772</ele>
        <time>2021-07-15T11:01:53Z</time>
      </trkpt>
      <trkpt lat="36.18697" lon="-5.76012">
        <ele>6.6057</ele>
        <time>2021-07-15T11:02:04Z</time>
      </trkpt>
      <trkpt lat="36.18598" lon="-5.75785">
        <ele>7.411476</ele>
        <time>2021-07-15T11:02:15Z</time>
      </trkpt>
      <trkpt lat="36.18508" lon="-5.7556">
        <ele>14.96481</ele>
        <time>2021-07-15T11:02:26Z</time>
      </trkpt>
      <trkpt lat="36.18384" lon="-5.75359">
        <ele>12.31648</ele>
        <time>2021-07-15T11:02:37Z</time>
      </trkpt>
      <trkpt lat="36.18214" lon="-5.7521">
        <ele>14.43265</ele>
        <time>2021-07-15T11:02:48Z</time>
      </trkpt>
      <trkpt lat="36.18037" lon="-5.75057">
        <ele>10.47857</ele>
        <time>2021-07-15T11:02:59Z</time>
      </trkpt>
      <trkpt lat="36.1786" lon="-5.74903">
        <ele>8.145851</ele>
        <time>2021-07-15T11:03:10Z</time>
      </trkpt>
      <trkpt lat="36.17648" lon="-5.74721">
        <ele>10.01806</ele>
        <time>2021-07-15T11:03:21Z</time>
      </trkpt>
      <trkpt lat="36.1745" lon="-5.7455">
        <ele>8.982348</ele>
        <time>2021-07-15T11:03:32Z</time>
      </trkpt>
      <trkpt lat="36.17247" lon="-5.74373">
        <ele>11.21677</ele>
        <time>2021-07-15T11:03:43Z</time>
      </trkpt>
      <trkpt lat="36.17039" lon="-5.74192">
        <ele>17.59979</ele>
        <time>2021-07-15T11:03:54Z</time>
      </trkpt>
      <trkpt lat="36.16836" lon="-5.74017">
        <ele>21.18729</ele>
        <time>2021-07-15T11:04:05Z</time>
      </trkpt>
      <trkpt lat="36.16638" lon="-5.73846">
        <ele>24.19643</ele>
        <time>2021-07-15T11:04:16Z</time>
      </trkpt>
      <trkpt lat="36.16434" lon="-5.73695">
        <ele>27.99576</ele>
        <time>2021-07-15T11:04:27Z</time>
      </trkpt>
      <trkpt lat="36.16221" lon="-5.73557">
        <ele>26.39591</ele>
        <time>2021-07-15T11:04:38Z</time>
      </trkpt>
      <trkpt lat="36.16006" lon="-5.73418">
        <ele>31.32365</ele>
        <time>2021-07-15T11:04:49Z</time>
      </trkpt>
      <trkpt lat="36.15789" lon="-5.73273">
        <ele>39.67744</ele>
        <time>2021-07-15T11:05:00Z</time>
      </trkpt>
      <trkpt lat="36.15614" lon="-5.73087">
        <ele>37.1334</ele>
        <time>2021-07-15T11:05:11Z</time>
      </trkpt>
      <trkpt lat="36.15488" lon="-5.72863">
        <ele>30.82478</ele>
        <time>2021-07-15T11:05:22Z</time>
      </trkpt>
      <trkpt lat="36.15325" lon="-5.72575">
        <ele>32.39095</ele>
        <time>2021-07-15T11:05:33Z</time>
      </trkpt>
      <trkpt lat="36.15185" lon="-5.72326">
        <ele>32.9937</ele>
        <time>2021-07-15T11:05:44Z</time>
      </trkpt>
      <trkpt lat="36.15044" lon="-5.72076">
        <ele>32.74501</ele>
        <time>2021-07-15T11:05:55Z</time>
      </trkpt>
      <trkpt lat="36.149" lon="-5.71841">
        <ele>33.22124</ele>
        <time>2021-07-15T11:06:06Z</time>
      </trkpt>
      <trkpt lat="36.14696" lon="-5.71698">
        <ele>33.31034</ele>
        <time>2021-07-15T11:06:17Z</time>
      </trkpt>
      <trkpt lat="36.14471" lon="-5.71574">
        <ele>30.86236</ele>
        <time>2021-07-15T11:06:28Z</time>
      </trkpt>
      <trkpt lat="36.14245" lon="-5.7145">
        <ele>35.10941</ele>
        <time>2021-07-15T11:06:39Z</time>
      </trkpt>
      <trkpt lat="36.14022" lon="-5.71326">
        <ele>40.36561</ele>
        <time>2021-07-15T11:06:50Z</time>
      </trkpt>
      <trkpt lat="36.13811" lon="-5.71211">
        <ele>47.77748</ele>
        <time>2021-07-15T11:07:01Z</time>
      </trkpt>
      <trkpt lat="36.13614" lon="-5.71089">
        <ele>58.6547</ele>
        <time>2021-07-15T11:07:12Z</time>
      </trkpt>
      <trkpt lat="36.13435" lon="-5.70924">
        <ele>69.78423</ele>
        <time>2021-07-15T11:07:23Z</time>
      </trkpt>
      <trkpt lat="36.13229" lon="-5.7088">
        <ele>79.42754</ele>
        <time>2021-07-15T11:07:35Z</time>
      </trkpt>
      <trkpt lat="36.13006" lon="-5.70881">
        <ele>71.89078</ele>
        <time>2021-07-15T11:07:46Z</time>
      </trkpt>
      <trkpt lat="36.12807" lon="-5.70877">
        <ele>67.65077</ele>
        <time>2021-07-15T11:07:57Z</time>
      </trkpt>
      <trkpt lat="36.12611" lon="-5.70859">
        <ele>61.89001</ele>
        <time>2021-07-15T11:08:08Z</time>
      </trkpt>
      <trkpt lat="36.1239" lon="-5.70854">
        <ele>57.39015</ele>
        <time>2021-07-15T11:08:19Z</time>
      </trkpt>
      <trkpt lat="36.12204" lon="-5.70757">
        <ele>54.62987</ele>
        <time>2021-07-15T11:08:30Z</time>
      </trkpt>
      <trkpt lat="36.12013" lon="-5.70691">
        <ele>46.65018</ele>
        <time>2021-07-15T11:08:41Z</time>
      </trkpt>
      <trkpt lat="36.11815" lon="-5.70733">
        <ele>40.13466</ele>
        <time>2021-07-15T11:08:52Z</time>
      </trkpt>
      <trkpt lat="36.11631" lon="-5.7084">
        <ele>33.21214</ele>
        <time>2021-07-15T11:09:03Z</time>
      </trkpt>
      <trkpt lat="36.11446" lon="-5.70945">
        <ele>29.53286</ele>
        <time>2021-07-15T11:09:14Z</time>
      </trkpt>
      <trkpt lat="36.11247" lon="-5.70979">
        <ele>31.02317</ele>
        <time>2021-07-15T11:09:25Z</time>
      </trkpt>
      <trkpt lat="36.11062" lon="-5.70972">
        <ele>26.81423</ele>
        <time>2021-07-15T11:09:36Z</time>
      </trkpt>
      <trkpt lat="36.1088" lon="-5.70948">
        <ele>24.22965</ele>
        <time>2021-07-15T11:09:47Z</time>
      </trkpt>
      <trkpt lat="36.10739" lon="-5.70879">
        <ele>23.09957</ele>
        <time>2021-07-15T11:09:58Z</time>
      </trkpt>
      <trkpt lat="36.10582" lon="-5.70797">
        <ele>23.97336</ele>
        <time>2021-07-15T11:10:09Z</time>
      </trkpt>
      <trkpt lat="36.10402" lon="-5.70706">
        <ele>22.60512</ele>
        <time>2021-07-15T11:10:20Z</time>
      </trkpt>
      <trkpt lat="36.10228" lon="-5.70601">
        <ele>17.85179</ele>
        <time>2021-07-15T11:10:31Z</time>
      </trkpt>
      <trkpt lat="36.10101" lon="-5.70409">
        <ele>16.99368</ele>
        <time>2021-07-15T11:10:42Z</time>
      </trkpt>
      <trkpt lat="36.09958" lon="-5.70232">
        <ele>13.86325</ele>
        <time>2021-07-15T11:10:53Z</time>
      </trkpt>
      <trkpt lat="36.09787" lon="-5.70043">
        <ele>15.19651</ele>
        <time>2021-07-15T11:11:04Z</time>
      </trkpt>
      <trkpt lat="36.09602" lon="-5.69901">
        <ele>13.84184</ele>
        <time>2021-07-15T11:11:15Z</time>
      </trkpt>
      <trkpt lat="36.094" lon="-5.69774">
        <ele>12.29378</ele>
        <time>2021-07-15T11:11:26Z</time>
      </trkpt>
      <trkpt lat="36.09214" lon="-5.6962">
        <ele>14.55662</ele>
        <time>2021-07-15T11:11:37Z</time>
      </trkpt>
      <trkpt lat="36.09011" lon="-5.69495">
        <ele>10.73417</ele>
        <time>2021-07-15T11:11:48Z</time>
      </trkpt>
      <trkpt lat="36.08859" lon="-5.69294">
        <ele>6.508972</ele>
        <time>2021-07-15T11:11:59Z</time>
      </trkpt>
      <trkpt lat="36.0864" lon="-5.69197">
        <ele>5.914615</ele>
        <time>2021-07-15T11:12:10Z</time>
      </trkpt>
      <trkpt lat="36.08416" lon="-5.69202">
        <ele>7.042373</ele>
        <time>2021-07-15T11:12:21Z</time>
      </trkpt>
      <trkpt lat="36.08213" lon="-5.69173">
        <ele>9.494358</ele>
        <time>2021-07-15T11:12:32Z</time>
      </trkpt>
      <trkpt lat="36.07997" lon="-5.69101">
        <ele>3.565882</ele>
        <time>2021-07-15T11:12:43Z</time>
      </trkpt>
      <trkpt lat="36.07784" lon="-5.69026">
        <ele>-0.759101</ele>
        <time>2021-07-15T11:12:54Z</time>
      </trkpt>
      <trkpt lat="36.0759" lon="-5.68897">
        <ele>2.168198</ele>
        <time>2021-07-15T11:13:05Z</time>
      </trkpt>
      <trkpt lat="36.07417" lon="-5.68739">
        <ele>2.330285</ele>
        <time>2021-07-15T11:13:16Z</time>
      </trkpt>
      <trkpt lat="36.0725" lon="-5.68586">
        <ele>3.406525</ele>
        <time>2021-07-15T11:13:27Z</time>
      </trkpt>
      <trkpt lat="36.07082" lon="-5.68427">
        <ele>4.065567</ele>
        <time>2021-07-15T11:13:38Z</time>
      </trkpt>
      <trkpt lat="36.06966" lon="-5.68232">
        <ele>5.303501</ele>
        <time>2021-07-15T11:13:49Z</time>
      </trkpt>
      <trkpt lat="36.06862" lon="-5.68052">
        <ele>7.379994</ele>
        <time>2021-07-15T11:14:00Z</time>
      </trkpt>
      <trkpt lat="36.06739" lon="-5.67884">
        <ele>10.70771</ele>
        <time>2021-07-15T11:14:11Z</time>
      </trkpt>
      <trkpt lat="36.06609" lon="-5.67708">
        <ele>11.62505</ele>
        <time>2021-07-15T11:14:22Z</time>
      </trkpt>
      <trkpt lat="36.06482" lon="-5.67536">
        <ele>11.1028</ele>
        <time>2021-07-15T11:14:33Z</time>
      </trkpt>
      <trkpt lat="36.06345" lon="-5.67348">
        <ele>9.127051</ele>
        <time>2021-07-15T11:14:44Z</time>
      </trkpt>
      <trkpt lat="36.06203" lon="-5.67163">
        <ele>11.54857</ele>
        <time>2021-07-15T11:14:55Z</time>
      </trkpt>
      <trkpt lat="36.0607" lon="-5.66955">
        <ele>12.91686</ele>
        <time>2021-07-15T11:15:06Z</time>
      </trkpt>
      <trkpt lat="36.05949" lon="-5.66751">
        <ele>12.99763</ele>
        <time>2021-07-15T11:15:17Z</time>
      </trkpt>
      <trkpt lat="36.05833" lon="-5.66546">
        <ele>12.57377</ele>
        <time>2021-07-15T11:15:28Z</time>
      </trkpt>
      <trkpt lat="36.0572" lon="-5.6633">
        <ele>12.2734</ele>
        <time>2021-07-15T11:15:39Z</time>
      </trkpt>
      <trkpt lat="36.05666" lon="-5.66093">
        <ele>10.95263</ele>
        <time>2021-07-15T11:15:50Z</time>
      </trkpt>
      <trkpt lat="36.05643" lon="-5.65852">
        <ele>11.13215</ele>
        <time>2021-07-15T11:16:01Z</time>
      </trkpt>
      <trkpt lat="36.05634" lon="-5.65614">
        <ele>12.65274</ele>
        <time>2021-07-15T11:16:12Z</time>
      </trkpt>
      <trkpt lat="36.05629" lon="-5.65374">
        <ele>12.28124</ele>
        <time>2021-07-15T11:16:23Z</time>
      </trkpt>
      <trkpt lat="36.05595" lon="-5.65139">
        <ele>8.869957</ele>
        <time>2021-07-15T11:16:34Z</time>
      </trkpt>
      <trkpt lat="36.0547" lon="-5.64933">
        <ele>7.56665</ele>
        <time>2021-07-15T11:16:45Z</time>
      </trkpt>
      <trkpt lat="36.05327" lon="-5.64717">
        <ele>6.639239</ele>
        <time>2021-07-15T11:16:56Z</time>
      </trkpt>
      <trkpt lat="36.05193" lon="-5.64503">
        <ele>5.643419</ele>
        <time>2021-07-15T11:17:07Z</time>
      </trkpt>
      <trkpt lat="36.05059" lon="-5.6429">
        <ele>2.443442</ele>
        <time>2021-07-15T11:17:18Z</time>
      </trkpt>
      <trkpt lat="36.04923" lon="-5.64077">
        <ele>-1.411861</ele>
        <time>2021-07-15T11:17:29Z</time>
      </trkpt>
      <trkpt lat="36.0479" lon="-5.6387">
        <ele>-2.271287</ele>
        <time>2021-07-15T11:17:40Z</time>
      </trkpt>
      <trkpt lat="36.04659" lon="-5.63664">
        <ele>-2.347988</ele>
        <time>2021-07-15T11:17:51Z</time>
      </trkpt>
      <trkpt lat="36.04526" lon="-5.63458">
        <ele>0.068173</ele>
        <time>2021-07-15T11:18:02Z</time>
      </trkpt>
      <trkpt lat="36.04422" lon="-5.63207">
        <ele>6.502961</ele>
        <time>2021-07-15T11:18:13Z</time>
      </trkpt>
      <trkpt lat="36.04355" lon="-5.63008">
        <ele>1.590375</ele>
        <time>2021-07-15T11:18:24Z</time>
      </trkpt>
      <trkpt lat="36.04277" lon="-5.62804">
        <ele>-0.832599</ele>
        <time>2021-07-15T11:18:35Z</time>
      </trkpt>
      <trkpt lat="36.04147" lon="-5.62576">
        <ele>-0.55374</ele>
        <time>2021-07-15T11:18:46Z</time>
      </trkpt>
      <trkpt lat="36.04014" lon="-5.62348">
        <ele>0.018407</ele>
        <time>2021-07-15T11:18:57Z</time>
      </trkpt>
      <trkpt lat="36.03847" lon="-5.62161">
        <ele>-1.869006</ele>
        <time>2021-07-15T11:19:08Z</time>
      </trkpt>
      <trkpt lat="36.03687" lon="-5.62018">
        <ele>-3.172579</ele>
        <time>2021-07-15T11:19:19Z</time>
      </trkpt>
      <trkpt lat="36.03544" lon="-5.61858">
        <ele>-2.908827</ele>
        <time>2021-07-15T11:19:30Z</time>
      </trkpt>
      <trkpt lat="36.03401" lon="-5.61702">
        <ele>-3.193152</ele>
        <time>2021-07-15T11:19:41Z</time>
      </trkpt>
      <trkpt lat="36.03263" lon="-5.61546">
        <ele>-2.979581</ele>
        <time>2021-07-15T11:19:52Z</time>
      </trkpt>
      <trkpt lat="36.03143" lon="-5.61412">
        <ele>-2.704302</ele>
        <time>2021-07-15T11:20:03Z</time>
      </trkpt>
      <trkpt lat="36.0302" lon="-5.6128">
        <ele>-2.238625</ele>
        <time>2021-07-15T11:20:14Z</time>
      </trkpt>
      <trkpt lat="36.02903" lon="-5.61175">
        <ele>-0.496356</ele>
        <time>2021-07-15T11:20:25Z</time>
      </trkpt>
      <trkpt lat="36.02792" lon="-5.61189">
        <ele>-0.397217</ele>
        <time>2021-07-15T11:20:36Z</time>
      </trkpt>
      <trkpt lat="36.02651" lon="-5.61181">
        <ele>-0.4391</ele>
        <time>2021-07-15T11:20:47Z</time>
      </trkpt>
      <trkpt lat="36.02632" lon="-5.61181">
        <ele>1.275643</ele>
        <time>2021-07-15T11:20:58Z</time>
      </trkpt>
      <trkpt lat="36.02604" lon="-5.61178">
        <ele>5.383532</ele>
        <time>2021-07-15T11:21:09Z</time>
      </trkpt>
      <trkpt lat="36.02519" lon="-5.61165">
        <ele>11.33731</ele>
        <time>2021-07-15T11:21:20Z</time>
      </trkpt>
      <trkpt lat="36.02427" lon="-5.61159">
        <ele>12.28092</ele>
        <time>2021-07-15T11:21:31Z</time>
      </trkpt>
      <trkpt lat="36.02331" lon="-5.61166">
        <ele>10.33189</ele>
        <time>2021-07-15T11:21:42Z</time>
      </trkpt>
      <trkpt lat="36.02232" lon="-5.61149">
        <ele>16.35054</ele>
        <time>2021-07-15T11:21:53Z</time>
      </trkpt>
      <trkpt lat="36.02172" lon="-5.61194">
        <ele>18.67093</ele>
        <time>2021-07-15T11:22:04Z</time>
      </trkpt>
      <trkpt lat="36.02122" lon="-5.61304">
        <ele>5.945959</ele>
        <time>2021-07-15T11:22:15Z</time>
      </trkpt>
      <trkpt lat="36.02089" lon="-5.61337">
        <ele>3.269995</ele>
        <time>2021-07-15T11:22:26Z</time>
      </trkpt>
      <trkpt lat="36.01982" lon="-5.61332">
        <ele>5.136732</ele>
        <time>2021-07-15T11:22:37Z</time>
      </trkpt>
      <trkpt lat="36.01884" lon="-5.61294">
        <ele>10.67485</ele>
        <time>2021-07-15T11:22:48Z</time>
      </trkpt>
      <trkpt lat="36.01823" lon="-5.61218">
        <ele>16.67349</ele>
        <time>2021-07-15T11:22:59Z</time>
      </trkpt>
      <trkpt lat="36.01786" lon="-5.61248">
        <ele>14.01228</ele>
        <time>2021-07-15T11:23:10Z</time>
      </trkpt>
      <trkpt lat="36.01778" lon="-5.61229">
        <ele>6.276285</ele>
        <time>2021-07-15T11:23:21Z</time>
      </trkpt>
      <trkpt lat="36.0178" lon="-5.61233">
        <ele>1.269473</ele>
        <time>2021-07-15T11:24:02Z</time>
      </trkpt>
      <trkpt lat="36.01779" lon="-5.61243">
        <ele>-0.545713</ele>
        <time>2021-07-15T11:24:13Z</time>
      </trkpt>
      <trkpt lat="36.01779" lon="-5.61252">
        <ele>-3.263219</ele>
        <time>2021-07-15T11:24:34Z</time>
      </trkpt>
      <trkpt lat="36.01783" lon="-5.61237">
        <ele>0.763007</ele>
        <time>2021-07-15T11:24:45Z</time>
      </trkpt>
      <trkpt lat="36.01783" lon="-5.61233">
        <ele>0.530875</ele>
        <time>2021-07-15T11:25:32Z</time>
      </trkpt>
      <trkpt lat="36.01781" lon="-5.61229">
        <ele>2.636218</ele>
        <time>2021-07-15T11:26:03Z</time>
      </trkpt>
      <trkpt lat="36.01781" lon="-5.61229">
        <ele>2.585966</ele>
        <time>2021-07-15T11:27:02Z</time>
      </trkpt>
      <trkpt lat="36.01783" lon="-5.61233">
        <ele>2.81751</ele>
        <time>2021-07-15T11:27:34Z</time>
      </trkpt>
      <trkpt lat="36.01812" lon="-5.61211">
        <ele>3.962916</ele>
        <time>2021-07-15T11:27:45Z</time>
      </trkpt>
      <trkpt lat="36.01817" lon="-5.61207">
        <ele>2.483442</ele>
        <time>2021-07-15T11:27:56Z</time>
      </trkpt>
      <trkpt lat="36.01787" lon="-5.61138">
        <ele>4.329656</ele>
        <time>2021-07-15T11:28:07Z</time>
      </trkpt>
      <trkpt lat="36.01761" lon="-5.61085">
        <ele>6.009041</ele>
        <time>2021-07-15T11:28:18Z</time>
      </trkpt>
      <trkpt lat="36.01742" lon="-5.61045">
        <ele>7.191205</ele>
        <time>2021-07-15T11:28:29Z</time>
      </trkpt>
      <trkpt lat="36.01692" lon="-5.60946">
        <ele>14.37194</ele>
        <time>2021-07-15T11:28:40Z</time>
      </trkpt>
      <trkpt lat="36.01681" lon="-5.60884">
        <ele>16.06411</ele>
        <time>2021-07-15T11:28:51Z</time>
      </trkpt>
      <trkpt lat="36.0164" lon="-5.60831">
        <ele>17.66028</ele>
        <time>2021-07-15T11:29:02Z</time>
      </trkpt>
      <trkpt lat="36.01598" lon="-5.60781">
        <ele>20.38356</ele>
        <time>2021-07-15T11:29:13Z</time>
      </trkpt>
      <trkpt lat="36.01594" lon="-5.60777">
        <ele>20.58727</ele>
        <time>2021-07-15T11:29:27Z</time>
      </trkpt>
      <trkpt lat="36.01583" lon="-5.60765">
        <ele>20.40091</ele>
        <time>2021-07-15T11:29:38Z</time>
      </trkpt>
      <trkpt lat="36.01581" lon="-5.60762">
        <ele>19.52489</ele>
        <time>2021-07-15T11:29:54Z</time>
      </trkpt>
      <trkpt lat="36.01572" lon="-5.60752">
        <ele>20.24623</ele>
        <time>2021-07-15T11:30:05Z</time>
      </trkpt>
      <trkpt lat="36.01558" lon="-5.60735">
        <ele>19.97976</ele>
        <time>2021-07-15T11:30:16Z</time>
      </trkpt>
      <trkpt lat="36.01542" lon="-5.60716">
        <ele>19.58493</ele>
        <time>2021-07-15T11:30:27Z</time>
      </trkpt>
      <trkpt lat="36.01519" lon="-5.6069">
        <ele>17.75567</ele>
        <time>2021-07-15T11:30:38Z</time>
      </trkpt>
      <trkpt lat="36.01492" lon="-5.60645">
        <ele>19.13909</ele>
        <time>2021-07-15T11:30:49Z</time>
      </trkpt>
      <trkpt lat="36.01445" lon="-5.60713">
        <ele>18.04855</ele>
        <time>2021-07-15T11:31:00Z</time>
      </trkpt>
      <trkpt lat="36.01434" lon="-5.60775">
        <ele>15.41416</ele>
        <time>2021-07-15T11:31:11Z</time>
      </trkpt>
      <trkpt lat="36.01403" lon="-5.60763">
        <ele>16.73494</ele>
        <time>2021-07-15T11:31:22Z</time>
      </trkpt>
      <trkpt lat="36.01366" lon="-5.60721">
        <ele>17.37648</ele>
        <time>2021-07-15T11:31:33Z</time>
      </trkpt>
      <trkpt lat="36.01322" lon="-5.60683">
        <ele>20.09136</ele>
        <time>2021-07-15T11:31:44Z</time>
      </trkpt>
      <trkpt lat="36.0131" lon="-5.60673">
        <ele>20.3721</ele>
        <time>2021-07-15T11:31:55Z</time>
      </trkpt>
      <trkpt lat="36.01274" lon="-5.60721">
        <ele>17.55225</ele>
        <time>2021-07-15T11:32:06Z</time>
      </trkpt>
      <trkpt lat="36.01221" lon="-5.60753">
        <ele>10.73665</ele>
        <time>2021-07-15T11:32:17Z</time>
      </trkpt>
      <trkpt lat="36.01165" lon="-5.60734">
        <ele>5.377785</ele>
        <time>2021-07-15T11:32:28Z</time>
      </trkpt>
      <trkpt lat="36.01102" lon="-5.60711">
        <ele>5.117901</ele>
        <time>2021-07-15T11:32:39Z</time>
      </trkpt>
      <trkpt lat="36.01021" lon="-5.60695">
        <ele>5.09037</ele>
        <time>2021-07-15T11:32:50Z</time>
      </trkpt>
      <trkpt lat="36.00986" lon="-5.60637">
        <ele>3.913459</ele>
        <time>2021-07-15T11:33:01Z</time>
      </trkpt>
      <trkpt lat="36.0098" lon="-5.60618">
        <ele>3.419668</ele>
        <time>2021-07-15T11:33:12Z</time>
      </trkpt>
      <trkpt lat="36.00916" lon="-5.60655">
        <ele>6.524573</ele>
        <time>2021-07-15T11:33:23Z</time>
      </trkpt>
      <trkpt lat="36.00889" lon="-5.60672">
        <ele>4.007455</ele>
        <time>2021-07-15T11:33:34Z</time>
      </trkpt>
      <trkpt lat="36.00884" lon="-5.60676">
        <ele>6.068722</ele>
        <time>2021-07-15T11:33:54Z</time>
      </trkpt>
      <trkpt lat="36.00881" lon="-5.60677">
        <ele>2.425703</ele>
        <time>2021-07-15T11:34:05Z</time>
      </trkpt>
      <trkpt lat="36.00881" lon="-5.6068">
        <ele>1.902474</ele>
        <time>2021-07-15T11:35:05Z</time>
      </trkpt>
      <trkpt lat="36.00881" lon="-5.60678">
        <ele>4.28566</ele>
        <time>2021-07-15T11:36:03Z</time>
      </trkpt>
      <trkpt lat="36.00877" lon="-5.6068">
        <ele>3.332271</ele>
        <time>2021-07-15T11:36:25Z</time>
      </trkpt>
      <trkpt lat="36.00868" lon="-5.60685">
        <ele>1.50166</ele>
        <time>2021-07-15T11:36:36Z</time>
      </trkpt>
      <trkpt lat="36.00862" lon="-5.60685">
        <ele>1.987429</ele>
        <time>2021-07-15T11:36:47Z</time>
      </trkpt>
      <trkpt lat="36.00865" lon="-5.60683">
        <ele>3.296577</ele>
        <time>2021-07-15T11:37:31Z</time>
      </trkpt>
      <trkpt lat="36.00863" lon="-5.60681">
        <ele>3.569479</ele>
        <time>2021-07-15T11:38:30Z</time>
      </trkpt>
      <trkpt lat="36.00861" lon="-5.60685">
        <ele>1.265675</ele>
        <time>2021-07-15T11:38:47Z</time>
      </trkpt>
      <trkpt lat="36.00854" lon="-5.60694">
        <ele>1.207235</ele>
        <time>2021-07-15T11:38:58Z</time>
      </trkpt>
      <trkpt lat="36.00842" lon="-5.60701">
        <ele>3.074741</ele>
        <time>2021-07-15T11:39:09Z</time>
      </trkpt>
      <trkpt lat="36.0083" lon="-5.60708">
        <ele>2.224773</ele>
        <time>2021-07-15T11:39:20Z</time>
      </trkpt>
      <trkpt lat="36.00817" lon="-5.60716">
        <ele>2.518565</ele>
        <time>2021-07-15T11:39:31Z</time>
      </trkpt>
      <trkpt lat="36.00807" lon="-5.60725">
        <ele>2.193652</ele>
        <time>2021-07-15T11:39:42Z</time>
      </trkpt>
      <trkpt lat="36.00797" lon="-5.60734">
        <ele>2.077483</ele>
        <time>2021-07-15T11:39:53Z</time>
      </trkpt>
      <trkpt lat="36.00791" lon="-5.60737">
        <ele>2.669496</ele>
        <time>2021-07-15T11:40:04Z</time>
      </trkpt>
      <trkpt lat="36.00787" lon="-5.60739">
        <ele>3.843604</ele>
        <time>2021-07-15T11:40:17Z</time>
      </trkpt>
      <trkpt lat="36.00781" lon="-5.60745">
        <ele>0.993559</ele>
        <time>2021-07-15T11:40:28Z</time>
      </trkpt>
      <trkpt lat="36.00769" lon="-5.60755">
        <ele>2.376272</ele>
        <time>2021-07-15T11:40:39Z</time>
      </trkpt>
      <trkpt lat="36.00756" lon="-5.60766">
        <ele>1.470414</ele>
        <time>2021-07-15T11:40:50Z</time>
      </trkpt>
      <trkpt lat="36.00744" lon="-5.60777">
        <ele>1.958779</ele>
        <time>2021-07-15T11:41:01Z</time>
      </trkpt>
      <trkpt lat="36.00731" lon="-5.60786">
        <ele>5.589811</ele>
        <time>2021-07-15T11:41:12Z</time>
      </trkpt>
      <trkpt lat="36.00724" lon="-5.60796">
        <ele>2.582345</ele>
        <time>2021-07-15T11:41:23Z</time>
      </trkpt>
      <trkpt lat="36.00723" lon="-5.60791">
        <ele>0.611345</ele>
        <time>2021-07-15T11:41:47Z</time>
      </trkpt>
      <trkpt lat="36.00722" lon="-5.60794">
        <ele>2.532633</ele>
        <time>2021-07-15T11:42:45Z</time>
      </trkpt>
      <trkpt lat="36.00721" lon="-5.60796">
        <ele>0.464281</ele>
        <time>2021-07-15T11:43:43Z</time>
      </trkpt>
      <trkpt lat="36.00719" lon="-5.60798">
        <ele>3.83506</ele>
        <time>2021-07-15T11:44:41Z</time>
      </trkpt>
      <trkpt lat="36.00717" lon="-5.60797">
        <ele>2.360017</ele>
        <time>2021-07-15T11:45:40Z</time>
      </trkpt>
      <trkpt lat="36.00714" lon="-5.608">
        <ele>2.4767</ele>
        <time>2021-07-15T11:46:00Z</time>
      </trkpt>
      <trkpt lat="36.00704" lon="-5.60809">
        <ele>1.571156</ele>
        <time>2021-07-15T11:46:11Z</time>
      </trkpt>
      <trkpt lat="36.00693" lon="-5.6082">
        <ele>1.861816</ele>
        <time>2021-07-15T11:46:22Z</time>
      </trkpt>
      <trkpt lat="36.00681" lon="-5.60828">
        <ele>1.456092</ele>
        <time>2021-07-15T11:46:33Z</time>
      </trkpt>
      <trkpt lat="36.00669" lon="-5.60838">
        <ele>2.907618</ele>
        <time>2021-07-15T11:46:44Z</time>
      </trkpt>
      <trkpt lat="36.00656" lon="-5.60847">
        <ele>0.922163</ele>
        <time>2021-07-15T11:46:55Z</time>
      </trkpt>
      <trkpt lat="36.00644" lon="-5.60856">
        <ele>2.03704</ele>
        <time>2021-07-15T11:47:06Z</time>
      </trkpt>
      <trkpt lat="36.0064" lon="-5.60855">
        <ele>3.284738</ele>
        <time>2021-07-15T11:47:18Z</time>
      </trkpt>
      <trkpt lat="36.00629" lon="-5.60867">
        <ele>2.201042</ele>
        <time>2021-07-15T11:47:29Z</time>
      </trkpt>
      <trkpt lat="36.00618" lon="-5.60875">
        <ele>1.650236</ele>
        <time>2021-07-15T11:47:40Z</time>
      </trkpt>
      <trkpt lat="36.00611" lon="-5.60875">
        <ele>1.92805</ele>
        <time>2021-07-15T11:47:51Z</time>
      </trkpt>
      <trkpt lat="36.00601" lon="-5.60886">
        <ele>1.892972</ele>
        <time>2021-07-15T11:48:02Z</time>
      </trkpt>
      <trkpt lat="36.00593" lon="-5.609">
        <ele>1.426071</ele>
        <time>2021-07-15T11:48:13Z</time>
      </trkpt>
      <trkpt lat="36.00593" lon="-5.609">
        <ele>1.446522</ele>
        <time>2021-07-15T11:49:11Z</time>
      </trkpt>
      <trkpt lat="36.00599" lon="-5.60894">
        <ele>3.068362</ele>
        <time>2021-07-15T11:49:22Z</time>
      </trkpt>
      <trkpt lat="36.00603" lon="-5.60891">
        <ele>1.960923</ele>
        <time>2021-07-15T11:49:38Z</time>
      </trkpt>
      <trkpt lat="36.00615" lon="-5.60882">
        <ele>1.779482</ele>
        <time>2021-07-15T11:49:49Z</time>
      </trkpt>
      <trkpt lat="36.00625" lon="-5.60873">
        <ele>0.749394</ele>
        <time>2021-07-15T11:50:00Z</time>
      </trkpt>
      <trkpt lat="36.00637" lon="-5.60861">
        <ele>3.169235</ele>
        <time>2021-07-15T11:50:11Z</time>
      </trkpt>
      <trkpt lat="36.0065" lon="-5.60853">
        <ele>1.856302</ele>
        <time>2021-07-15T11:50:22Z</time>
      </trkpt>
      <trkpt lat="36.0066" lon="-5.60844">
        <ele>2.930113</ele>
        <time>2021-07-15T11:50:33Z</time>
      </trkpt>
      <trkpt lat="36.00671" lon="-5.60835">
        <ele>3.492778</ele>
        <time>2021-07-15T11:50:44Z</time>
      </trkpt>
      <trkpt lat="36.00683" lon="-5.60826">
        <ele>1.920511</ele>
        <time>2021-07-15T11:50:55Z</time>
      </trkpt>
      <trkpt lat="36.00695" lon="-5.60817">
        <ele>2.148336</ele>
        <time>2021-07-15T11:51:06Z</time>
      </trkpt>
      <trkpt lat="36.00705" lon="-5.60809">
        <ele>3.054048</ele>
        <time>2021-07-15T11:51:17Z</time>
      </trkpt>
      <trkpt lat="36.00715" lon="-5.60802">
        <ele>1.566101</ele>
        <time>2021-07-15T11:51:28Z</time>
      </trkpt>
      <trkpt lat="36.00718" lon="-5.60798">
        <ele>3.088652</ele>
        <time>2021-07-15T11:51:40Z</time>
      </trkpt>
      <trkpt lat="36.00733" lon="-5.60787">
        <ele>3.404666</ele>
        <time>2021-07-15T11:51:51Z</time>
      </trkpt>
      <trkpt lat="36.00746" lon="-5.60777">
        <ele>1.677839</ele>
        <time>2021-07-15T11:52:02Z</time>
      </trkpt>
      <trkpt lat="36.00754" lon="-5.60769">
        <ele>0.810601</ele>
        <time>2021-07-15T11:52:13Z</time>
      </trkpt>
      <trkpt lat="36.00766" lon="-5.60761">
        <ele>3.371719</ele>
        <time>2021-07-15T11:52:24Z</time>
      </trkpt>
      <trkpt lat="36.00777" lon="-5.60751">
        <ele>2.551621</ele>
        <time>2021-07-15T11:52:35Z</time>
      </trkpt>
      <trkpt lat="36.00789" lon="-5.60743">
        <ele>1.347672</ele>
        <time>2021-07-15T11:52:46Z</time>
      </trkpt>
      <trkpt lat="36.00802" lon="-5.60732">
        <ele>2.345639</ele>
        <time>2021-07-15T11:52:57Z</time>
      </trkpt>
      <trkpt lat="36.00815" lon="-5.60722">
        <ele>1.614853</ele>
        <time>2021-07-15T11:53:08Z</time>
      </trkpt>
      <trkpt lat="36.0082" lon="-5.60717">
        <ele>1.445829</ele>
        <time>2021-07-15T11:53:19Z</time>
      </trkpt>
      <trkpt lat="36.00833" lon="-5.60707">
        <ele>2.314809</ele>
        <time>2021-07-15T11:53:31Z</time>
      </trkpt>
      <trkpt lat="36.00844" lon="-5.60702">
        <ele>3.492201</ele>
        <time>2021-07-15T11:53:42Z</time>
      </trkpt>
      <trkpt lat="36.00856" lon="-5.60696">
        <ele>2.426004</ele>
        <time>2021-07-15T11:53:53Z</time>
      </trkpt>
      <trkpt lat="36.00867" lon="-5.6069">
        <ele>1.234499</ele>
        <time>2021-07-15T11:54:04Z</time>
      </trkpt>
      <trkpt lat="36.00879" lon="-5.60684">
        <ele>1.859329</ele>
        <time>2021-07-15T11:54:15Z</time>
      </trkpt>
      <trkpt lat="36.00883" lon="-5.60683">
        <ele>4.058785</ele>
        <time>2021-07-15T11:54:57Z</time>
      </trkpt>
      <trkpt lat="36.00882" lon="-5.6068">
        <ele>3.307058</ele>
        <time>2021-07-15T11:55:57Z</time>
      </trkpt>
      <trkpt lat="36.00881" lon="-5.6068">
        <ele>4.38731</ele>
        <time>2021-07-15T11:56:56Z</time>
      </trkpt>
      <trkpt lat="36.00875" lon="-5.60682">
        <ele>4.944917</ele>
        <time>2021-07-15T11:57:16Z</time>
      </trkpt>
      <trkpt lat="36.00868" lon="-5.60706">
        <ele>3.475848</ele>
        <time>2021-07-15T11:57:27Z</time>
      </trkpt>
      <trkpt lat="36.00912" lon="-5.60747">
        <ele>5.264532</ele>
        <time>2021-07-15T11:57:38Z</time>
      </trkpt>
      <trkpt lat="36.00947" lon="-5.60782">
        <ele>6.249579</ele>
        <time>2021-07-15T11:57:49Z</time>
      </trkpt>
      <trkpt lat="36.00965" lon="-5.60753">
        <ele>6.149198</ele>
        <time>2021-07-15T11:58:00Z</time>
      </trkpt>
      <trkpt lat="36.00982" lon="-5.60709">
        <ele>6.332115</ele>
        <time>2021-07-15T11:58:11Z</time>
      </trkpt>
      <trkpt lat="36.00995" lon="-5.60679">
        <ele>5.614642</ele>
        <time>2021-07-15T11:58:22Z</time>
      </trkpt>
      <trkpt lat="36.01044" lon="-5.60697">
        <ele>5.507509</ele>
        <time>2021-07-15T11:58:33Z</time>
      </trkpt>
      <trkpt lat="36.01114" lon="-5.60712">
        <ele>4.742647</ele>
        <time>2021-07-15T11:58:44Z</time>
      </trkpt>
      <trkpt lat="36.01173" lon="-5.60736">
        <ele>8.890634</ele>
        <time>2021-07-15T11:58:55Z</time>
      </trkpt>
      <trkpt lat="36.01245" lon="-5.60753">
        <ele>12.50279</ele>
        <time>2021-07-15T11:59:06Z</time>
      </trkpt>
      <trkpt lat="36.01288" lon="-5.60695">
        <ele>19.99357</ele>
        <time>2021-07-15T11:59:17Z</time>
      </trkpt>
      <trkpt lat="36.01326" lon="-5.60633">
        <ele>22.21794</ele>
        <time>2021-07-15T11:59:28Z</time>
      </trkpt>
      <trkpt lat="36.01348" lon="-5.60596">
        <ele>20.89248</ele>
        <time>2021-07-15T11:59:39Z</time>
      </trkpt>
      <trkpt lat="36.01347" lon="-5.6059">
        <ele>20.61664</ele>
        <time>2021-07-15T11:59:51Z</time>
      </trkpt>
      <trkpt lat="36.01361" lon="-5.60568">
        <ele>21.33257</ele>
        <time>2021-07-15T12:00:03Z</time>
      </trkpt>
      <trkpt lat="36.01406" lon="-5.60492">
        <ele>24.63401</ele>
        <time>2021-07-15T12:00:14Z</time>
      </trkpt>
      <trkpt lat="36.01452" lon="-5.60414">
        <ele>27.72475</ele>
        <time>2021-07-15T12:00:25Z</time>
      </trkpt>
      <trkpt lat="36.01503" lon="-5.60333">
        <ele>28.77615</ele>
        <time>2021-07-15T12:00:36Z</time>
      </trkpt>
      <trkpt lat="36.01556" lon="-5.60244">
        <ele>36.11194</ele>
        <time>2021-07-15T12:00:47Z</time>
      </trkpt>
      <trkpt lat="36.01649" lon="-5.60173">
        <ele>41.68781</ele>
        <time>2021-07-15T12:00:58Z</time>
      </trkpt>
      <trkpt lat="36.01733" lon="-5.60118">
        <ele>48.12554</ele>
        <time>2021-07-15T12:01:09Z</time>
      </trkpt>
      <trkpt lat="36.01809" lon="-5.6006">
        <ele>51.78411</ele>
        <time>2021-07-15T12:01:20Z</time>
      </trkpt>
      <trkpt lat="36.01919" lon="-5.60005">
        <ele>56.69432</ele>
        <time>2021-07-15T12:01:31Z</time>
      </trkpt>
      <trkpt lat="36.01987" lon="-5.59968">
        <ele>58.2883</ele>
        <time>2021-07-15T12:01:42Z</time>
      </trkpt>
      <trkpt lat="36.01975" lon="-5.59954">
        <ele>59.28037</ele>
        <time>2021-07-15T12:01:53Z</time>
      </trkpt>
      <trkpt lat="36.01967" lon="-5.59951">
        <ele>60.50219</ele>
        <time>2021-07-15T12:02:04Z</time>
      </trkpt>
      <trkpt lat="36.01963" lon="-5.5995">
        <ele>60.51408</ele>
        <time>2021-07-15T12:02:15Z</time>
      </trkpt>
      <trkpt lat="36.01963" lon="-5.59946">
        <ele>61.76613</ele>
        <time>2021-07-15T12:02:26Z</time>
      </trkpt>
      <trkpt lat="36.0196" lon="-5.59946">
        <ele>60.63648</ele>
        <time>2021-07-15T12:03:13Z</time>
      </trkpt>
      <trkpt lat="36.01956" lon="-5.59945">
        <ele>60.59511</ele>
        <time>2021-07-15T12:03:38Z</time>
      </trkpt>
      <trkpt lat="36.01957" lon="-5.59952">
        <ele>60.14779</ele>
        <time>2021-07-15T12:04:22Z</time>
      </trkpt>
      <trkpt lat="36.0196" lon="-5.59954">
        <ele>60.26362</ele>
        <time>2021-07-15T12:04:37Z</time>
      </trkpt>
      <trkpt lat="36.01963" lon="-5.59953">
        <ele>60.42128</ele>
        <time>2021-07-15T12:04:50Z</time>
      </trkpt>
      <trkpt lat="36.0196" lon="-5.59953">
        <ele>59.95656</ele>
        <time>2021-07-15T12:05:23Z</time>
      </trkpt>
      <trkpt lat="36.01958" lon="-5.59957">
        <ele>60.18934</ele>
        <time>2021-07-15T12:05:49Z</time>
      </trkpt>
      <trkpt lat="36.01957" lon="-5.59962">
        <ele>58.77828</ele>
        <time>2021-07-15T12:06:12Z</time>
      </trkpt>
      <trkpt lat="36.01967" lon="-5.59967">
        <ele>58.35739</ele>
        <time>2021-07-15T12:06:23Z</time>
      </trkpt>
      <trkpt lat="36.02028" lon="-5.59935">
        <ele>61.36232</ele>
        <time>2021-07-15T12:06:34Z</time>
      </trkpt>
      <trkpt lat="36.0212" lon="-5.59855">
        <ele>64.87808</ele>
        <time>2021-07-15T12:06:45Z</time>
      </trkpt>
      <trkpt lat="36.0222" lon="-5.59746">
        <ele>71.61142</ele>
        <time>2021-07-15T12:06:56Z</time>
      </trkpt>
      <trkpt lat="36.02333" lon="-5.59577">
        <ele>80.07734</ele>
        <time>2021-07-15T12:07:07Z</time>
      </trkpt>
      <trkpt lat="36.024" lon="-5.59367">
        <ele>80.27903</ele>
        <time>2021-07-15T12:07:18Z</time>
      </trkpt>
      <trkpt lat="36.02492" lon="-5.59143">
        <ele>80.27442</ele>
        <time>2021-07-15T12:07:29Z</time>
      </trkpt>
      <trkpt lat="36.02615" lon="-5.58896">
        <ele>94.7022</ele>
        <time>2021-07-15T12:07:40Z</time>
      </trkpt>
      <trkpt lat="36.02752" lon="-5.5865">
        <ele>108.4849</ele>
        <time>2021-07-15T12:07:51Z</time>
      </trkpt>
      <trkpt lat="36.0292" lon="-5.58431">
        <ele>122.4914</ele>
        <time>2021-07-15T12:08:02Z</time>
      </trkpt>
      <trkpt lat="36.03075" lon="-5.58235">
        <ele>132.5564</ele>
        <time>2021-07-15T12:08:13Z</time>
      </trkpt>
      <trkpt lat="36.03191" lon="-5.57976">
        <ele>145.7532</ele>
        <time>2021-07-15T12:08:24Z</time>
      </trkpt>
      <trkpt lat="36.03252" lon="-5.57693">
        <ele>159.0091</ele>
        <time>2021-07-15T12:08:35Z</time>
      </trkpt>
      <trkpt lat="36.03385" lon="-5.57499">
        <ele>159.0661</ele>
        <time>2021-07-15T12:08:46Z</time>
      </trkpt>
      <trkpt lat="36.03483" lon="-5.57254">
        <ele>171.8332</ele>
        <time>2021-07-15T12:08:57Z</time>
      </trkpt>
      <trkpt lat="36.03669" lon="-5.57138">
        <ele>166.3156</ele>
        <time>2021-07-15T12:09:08Z</time>
      </trkpt>
      <trkpt lat="36.03847" lon="-5.56946">
        <ele>160.0907</ele>
        <time>2021-07-15T12:09:19Z</time>
      </trkpt>
      <trkpt lat="36.04059" lon="-5.56866">
        <ele>156.1749</ele>
        <time>2021-07-15T12:09:30Z</time>
      </trkpt>
      <trkpt lat="36.04083" lon="-5.56622">
        <ele>167.8447</ele>
        <time>2021-07-15T12:09:41Z</time>
      </trkpt>
      <trkpt lat="36.04047" lon="-5.56382">
        <ele>186.7134</ele>
        <time>2021-07-15T12:09:52Z</time>
      </trkpt>
      <trkpt lat="36.04137" lon="-5.56126">
        <ele>202.4481</ele>
        <time>2021-07-15T12:10:03Z</time>
      </trkpt>
      <trkpt lat="36.04358" lon="-5.56039">
        <ele>219.7928</ele>
        <time>2021-07-15T12:10:14Z</time>
      </trkpt>
      <trkpt lat="36.04539" lon="-5.56059">
        <ele>230.0788</ele>
        <time>2021-07-15T12:10:25Z</time>
      </trkpt>
      <trkpt lat="36.04621" lon="-5.55874">
        <ele>242.7431</ele>
        <time>2021-07-15T12:10:36Z</time>
      </trkpt>
      <trkpt lat="36.04723" lon="-5.55716">
        <ele>255.5068</ele>
        <time>2021-07-15T12:10:47Z</time>
      </trkpt>
      <trkpt lat="36.04875" lon="-5.55557">
        <ele>270.6026</ele>
        <time>2021-07-15T12:10:58Z</time>
      </trkpt>
      <trkpt lat="36.05045" lon="-5.55421">
        <ele>281.1508</ele>
        <time>2021-07-15T12:11:09Z</time>
      </trkpt>
      <trkpt lat="36.05196" lon="-5.55444">
        <ele>292.0254</ele>
        <time>2021-07-15T12:11:20Z</time>
      </trkpt>
      <trkpt lat="36.05333" lon="-5.55355">
        <ele>300.2762</ele>
        <time>2021-07-15T12:11:31Z</time>
      </trkpt>
      <trkpt lat="36.05411" lon="-5.55205">
        <ele>307.2941</ele>
        <time>2021-07-15T12:11:42Z</time>
      </trkpt>
      <trkpt lat="36.05435" lon="-5.55012">
        <ele>322.8737</ele>
        <time>2021-07-15T12:11:53Z</time>
      </trkpt>
      <trkpt lat="36.05569" lon="-5.54865">
        <ele>321.8489</ele>
        <time>2021-07-15T12:12:04Z</time>
      </trkpt>
      <trkpt lat="36.05721" lon="-5.54745">
        <ele>325.1307</ele>
        <time>2021-07-15T12:12:15Z</time>
      </trkpt>
      <trkpt lat="36.05779" lon="-5.54556">
        <ele>328.5137</ele>
        <time>2021-07-15T12:12:26Z</time>
      </trkpt>
      <trkpt lat="36.05803" lon="-5.5434">
        <ele>331.1356</ele>
        <time>2021-07-15T12:12:37Z</time>
      </trkpt>
      <trkpt lat="36.05878" lon="-5.54113">
        <ele>323.9289</ele>
        <time>2021-07-15T12:12:48Z</time>
      </trkpt>
      <trkpt lat="36.06002" lon="-5.53888">
        <ele>316.4028</ele>
        <time>2021-07-15T12:12:59Z</time>
      </trkpt>
      <trkpt lat="36.06178" lon="-5.53757">
        <ele>304.8606</ele>
        <time>2021-07-15T12:13:10Z</time>
      </trkpt>
      <trkpt lat="36.06297" lon="-5.53572">
        <ele>292.6369</ele>
        <time>2021-07-15T12:13:21Z</time>
      </trkpt>
      <trkpt lat="36.06407" lon="-5.53372">
        <ele>280.8005</ele>
        <time>2021-07-15T12:13:32Z</time>
      </trkpt>
      <trkpt lat="36.0659" lon="-5.5323">
        <ele>264.157</ele>
        <time>2021-07-15T12:13:43Z</time>
      </trkpt>
      <trkpt lat="36.06739" lon="-5.53098">
        <ele>267.6757</ele>
        <time>2021-07-15T12:13:54Z</time>
      </trkpt>
      <trkpt lat="36.06913" lon="-5.53029">
        <ele>269.9343</ele>
        <time>2021-07-15T12:14:05Z</time>
      </trkpt>
      <trkpt lat="36.06908" lon="-5.52781">
        <ele>278.64</ele>
        <time>2021-07-15T12:14:16Z</time>
      </trkpt>
      <trkpt lat="36.06917" lon="-5.52484">
        <ele>275.5245</ele>
        <time>2021-07-15T12:14:27Z</time>
      </trkpt>
      <trkpt lat="36.06986" lon="-5.52227">
        <ele>281.81</ele>
        <time>2021-07-15T12:14:38Z</time>
      </trkpt>
      <trkpt lat="36.07089" lon="-5.51959">
        <ele>292.9258</ele>
        <time>2021-07-15T12:14:49Z</time>
      </trkpt>
      <trkpt lat="36.07164" lon="-5.51678">
        <ele>304.7702</ele>
        <time>2021-07-15T12:15:00Z</time>
      </trkpt>
      <trkpt lat="36.07236" lon="-5.51399">
        <ele>317.9353</ele>
        <time>2021-07-15T12:15:11Z</time>
      </trkpt>
      <trkpt lat="36.07334" lon="-5.51143">
        <ele>321.3081</ele>
        <time>2021-07-15T12:15:22Z</time>
      </trkpt>
      <trkpt lat="36.07546" lon="-5.50993">
        <ele>306.8975</ele>
        <time>2021-07-15T12:15:33Z</time>
      </trkpt>
      <trkpt lat="36.07705" lon="-5.50782">
        <ele>290.77</ele>
        <time>2021-07-15T12:15:44Z</time>
      </trkpt>
      <trkpt lat="36.07863" lon="-5.5064">
        <ele>278.1496</ele>
        <time>2021-07-15T12:15:55Z</time>
      </trkpt>
      <trkpt lat="36.08064" lon="-5.50621">
        <ele>265.4799</ele>
        <time>2021-07-15T12:16:06Z</time>
      </trkpt>
      <trkpt lat="36.08167" lon="-5.50531">
        <ele>256.903</ele>
        <time>2021-07-15T12:16:17Z</time>
      </trkpt>
      <trkpt lat="36.08233" lon="-5.50357">
        <ele>251.3724</ele>
        <time>2021-07-15T12:16:28Z</time>
      </trkpt>
      <trkpt lat="36.08283" lon="-5.50189">
        <ele>242.9408</ele>
        <time>2021-07-15T12:16:39Z</time>
      </trkpt>
      <trkpt lat="36.08334" lon="-5.49976">
        <ele>232.8072</ele>
        <time>2021-07-15T12:16:50Z</time>
      </trkpt>
      <trkpt lat="36.08378" lon="-5.49733">
        <ele>220.8977</ele>
        <time>2021-07-15T12:17:01Z</time>
      </trkpt>
      <trkpt lat="36.0849" lon="-5.49535">
        <ele>209.6984</ele>
        <time>2021-07-15T12:17:12Z</time>
      </trkpt>
      <trkpt lat="36.08603" lon="-5.49306">
        <ele>198.589</ele>
        <time>2021-07-15T12:17:23Z</time>
      </trkpt>
      <trkpt lat="36.08734" lon="-5.49076">
        <ele>186.7762</ele>
        <time>2021-07-15T12:17:34Z</time>
      </trkpt>
      <trkpt lat="36.08781" lon="-5.48801">
        <ele>176.4666</ele>
        <time>2021-07-15T12:17:45Z</time>
      </trkpt>
      <trkpt lat="36.08876" lon="-5.48527">
        <ele>165.7282</ele>
        <time>2021-07-15T12:17:56Z</time>
      </trkpt>
      <trkpt lat="36.0895" lon="-5.48263">
        <ele>161.1766</ele>
        <time>2021-07-15T12:18:07Z</time>
      </trkpt>
      <trkpt lat="36.09079" lon="-5.48052">
        <ele>154.4269</ele>
        <time>2021-07-15T12:18:18Z</time>
      </trkpt>
      <trkpt lat="36.09253" lon="-5.47967">
        <ele>146.4666</ele>
        <time>2021-07-15T12:18:29Z</time>
      </trkpt>
      <trkpt lat="36.09319" lon="-5.47761">
        <ele>135.5904</ele>
        <time>2021-07-15T12:18:40Z</time>
      </trkpt>
      <trkpt lat="36.09372" lon="-5.47538">
        <ele>126.0961</ele>
        <time>2021-07-15T12:18:51Z</time>
      </trkpt>
      <trkpt lat="36.09438" lon="-5.4729">
        <ele>113.6011</ele>
        <time>2021-07-15T12:19:02Z</time>
      </trkpt>
      <trkpt lat="36.09613" lon="-5.47123">
        <ele>101.1652</ele>
        <time>2021-07-15T12:19:13Z</time>
      </trkpt>
      <trkpt lat="36.09767" lon="-5.46924">
        <ele>89.94919</ele>
        <time>2021-07-15T12:19:24Z</time>
      </trkpt>
      <trkpt lat="36.09889" lon="-5.46732">
        <ele>80.02606</ele>
        <time>2021-07-15T12:19:35Z</time>
      </trkpt>
      <trkpt lat="36.10011" lon="-5.4658">
        <ele>69.43652</ele>
        <time>2021-07-15T12:19:46Z</time>
      </trkpt>
      <trkpt lat="36.1015" lon="-5.46433">
        <ele>59.30296</ele>
        <time>2021-07-15T12:19:57Z</time>
      </trkpt>
      <trkpt lat="36.10338" lon="-5.46343">
        <ele>48.58849</ele>
        <time>2021-07-15T12:20:08Z</time>
      </trkpt>
      <trkpt lat="36.10491" lon="-5.46253">
        <ele>42.40152</ele>
        <time>2021-07-15T12:20:19Z</time>
      </trkpt>
      <trkpt lat="36.10581" lon="-5.46156">
        <ele>39.16803</ele>
        <time>2021-07-15T12:20:30Z</time>
      </trkpt>
      <trkpt lat="36.10654" lon="-5.46066">
        <ele>39.68785</ele>
        <time>2021-07-15T12:20:41Z</time>
      </trkpt>
      <trkpt lat="36.10765" lon="-5.45947">
        <ele>34.69509</ele>
        <time>2021-07-15T12:20:52Z</time>
      </trkpt>
      <trkpt lat="36.10914" lon="-5.45853">
        <ele>34.17917</ele>
        <time>2021-07-15T12:21:03Z</time>
      </trkpt>
      <trkpt lat="36.10998" lon="-5.45808">
        <ele>36.62819</ele>
        <time>2021-07-15T12:21:14Z</time>
      </trkpt>
      <trkpt lat="36.11036" lon="-5.45789">
        <ele>35.53676</ele>
        <time>2021-07-15T12:21:25Z</time>
      </trkpt>
      <trkpt lat="36.11118" lon="-5.45846">
        <ele>37.08561</ele>
        <time>2021-07-15T12:21:36Z</time>
      </trkpt>
      <trkpt lat="36.11213" lon="-5.4594">
        <ele>38.84516</ele>
        <time>2021-07-15T12:21:47Z</time>
      </trkpt>
      <trkpt lat="36.11231" lon="-5.46052">
        <ele>36.36197</ele>
        <time>2021-07-15T12:21:58Z</time>
      </trkpt>
      <trkpt lat="36.11255" lon="-5.46089">
        <ele>34.9524</ele>
        <time>2021-07-15T12:22:09Z</time>
      </trkpt>
      <trkpt lat="36.11308" lon="-5.46057">
        <ele>32.49587</ele>
        <time>2021-07-15T12:22:20Z</time>
      </trkpt>
      <trkpt lat="36.11335" lon="-5.4609">
        <ele>36.46321</ele>
        <time>2021-07-15T12:22:31Z</time>
      </trkpt>
      <trkpt lat="36.11366" lon="-5.46218">
        <ele>43.7277</ele>
        <time>2021-07-15T12:22:42Z</time>
      </trkpt>
      <trkpt lat="36.11389" lon="-5.46315">
        <ele>44.91855</ele>
        <time>2021-07-15T12:22:53Z</time>
      </trkpt>
      <trkpt lat="36.11417" lon="-5.46416">
        <ele>47.06546</ele>
        <time>2021-07-15T12:23:04Z</time>
      </trkpt>
      <trkpt lat="36.11456" lon="-5.46524">
        <ele>49.64376</ele>
        <time>2021-07-15T12:23:15Z</time>
      </trkpt>
      <trkpt lat="36.11495" lon="-5.46627">
        <ele>48.97288</ele>
        <time>2021-07-15T12:23:26Z</time>
      </trkpt>
      <trkpt lat="36.11512" lon="-5.46716">
        <ele>55.4331</ele>
        <time>2021-07-15T12:23:37Z</time>
      </trkpt>
      <trkpt lat="36.11524" lon="-5.46839">
        <ele>57.16407</ele>
        <time>2021-07-15T12:23:48Z</time>
      </trkpt>
      <trkpt lat="36.11585" lon="-5.4693">
        <ele>55.85767</ele>
        <time>2021-07-15T12:23:59Z</time>
      </trkpt>
      <trkpt lat="36.11657" lon="-5.47044">
        <ele>58.80683</ele>
        <time>2021-07-15T12:24:10Z</time>
      </trkpt>
      <trkpt lat="36.11738" lon="-5.47161">
        <ele>61.36406</ele>
        <time>2021-07-15T12:24:21Z</time>
      </trkpt>
      <trkpt lat="36.11771" lon="-5.47293">
        <ele>67.6004</ele>
        <time>2021-07-15T12:24:32Z</time>
      </trkpt>
      <trkpt lat="36.11785" lon="-5.47326">
        <ele>68.11623</ele>
        <time>2021-07-15T12:24:43Z</time>
      </trkpt>
      <trkpt lat="36.11847" lon="-5.47425">
        <ele>61.70363</ele>
        <time>2021-07-15T12:24:54Z</time>
      </trkpt>
      <trkpt lat="36.11868" lon="-5.47543">
        <ele>54.13336</ele>
        <time>2021-07-15T12:25:05Z</time>
      </trkpt>
      <trkpt lat="36.11838" lon="-5.47687">
        <ele>46.12002</ele>
        <time>2021-07-15T12:25:16Z</time>
      </trkpt>
      <trkpt lat="36.11829" lon="-5.4782">
        <ele>46.07169</ele>
        <time>2021-07-15T12:25:27Z</time>
      </trkpt>
      <trkpt lat="36.11884" lon="-5.47891">
        <ele>45.22222</ele>
        <time>2021-07-15T12:25:38Z</time>
      </trkpt>
      <trkpt lat="36.11987" lon="-5.47964">
        <ele>43.92783</ele>
        <time>2021-07-15T12:25:49Z</time>
      </trkpt>
      <trkpt lat="36.12173" lon="-5.47959">
        <ele>39.96238</ele>
        <time>2021-07-15T12:26:00Z</time>
      </trkpt>
      <trkpt lat="36.12307" lon="-5.47944">
        <ele>40.18836</ele>
        <time>2021-07-15T12:26:11Z</time>
      </trkpt>
      <trkpt lat="36.12361" lon="-5.4807">
        <ele>49.9198</ele>
        <time>2021-07-15T12:26:22Z</time>
      </trkpt>
      <trkpt lat="36.1248" lon="-5.48207">
        <ele>57.7619</ele>
        <time>2021-07-15T12:26:33Z</time>
      </trkpt>
      <trkpt lat="36.12516" lon="-5.48371">
        <ele>68.12512</ele>
        <time>2021-07-15T12:26:44Z</time>
      </trkpt>
      <trkpt lat="36.12645" lon="-5.48498">
        <ele>69.16557</ele>
        <time>2021-07-15T12:26:55Z</time>
      </trkpt>
      <trkpt lat="36.12875" lon="-5.48549">
        <ele>60.8675</ele>
        <time>2021-07-15T12:27:06Z</time>
      </trkpt>
      <trkpt lat="36.1309" lon="-5.485">
        <ele>46.26917</ele>
        <time>2021-07-15T12:27:17Z</time>
      </trkpt>
      <trkpt lat="36.13275" lon="-5.4849">
        <ele>36.00785</ele>
        <time>2021-07-15T12:27:28Z</time>
      </trkpt>
      <trkpt lat="36.13448" lon="-5.48387">
        <ele>19.43878</ele>
        <time>2021-07-15T12:27:39Z</time>
      </trkpt>
      <trkpt lat="36.13657" lon="-5.48426">
        <ele>13.96292</ele>
        <time>2021-07-15T12:27:50Z</time>
      </trkpt>
      <trkpt lat="36.13862" lon="-5.48283">
        <ele>15.05112</ele>
        <time>2021-07-15T12:28:01Z</time>
      </trkpt>
      <trkpt lat="36.14052" lon="-5.48153">
        <ele>13.54895</ele>
        <time>2021-07-15T12:28:12Z</time>
      </trkpt>
      <trkpt lat="36.14243" lon="-5.48145">
        <ele>11.76781</ele>
        <time>2021-07-15T12:28:23Z</time>
      </trkpt>
      <trkpt lat="36.14351" lon="-5.48145">
        <ele>13.34022</ele>
        <time>2021-07-15T12:28:34Z</time>
      </trkpt>
      <trkpt lat="36.14488" lon="-5.48187">
        <ele>13.71177</ele>
        <time>2021-07-15T12:28:45Z</time>
      </trkpt>
      <trkpt lat="36.14658" lon="-5.48155">
        <ele>10.40453</ele>
        <time>2021-07-15T12:28:56Z</time>
      </trkpt>
      <trkpt lat="36.14856" lon="-5.48104">
        <ele>8.693538</ele>
        <time>2021-07-15T12:29:07Z</time>
      </trkpt>
      <trkpt lat="36.15064" lon="-5.4804">
        <ele>7.843389</ele>
        <time>2021-07-15T12:29:18Z</time>
      </trkpt>
      <trkpt lat="36.15244" lon="-5.47985">
        <ele>5.201084</ele>
        <time>2021-07-15T12:29:29Z</time>
      </trkpt>
      <trkpt lat="36.15289" lon="-5.47972">
        <ele>5.471944</ele>
        <time>2021-07-15T12:29:40Z</time>
      </trkpt>
      <trkpt lat="36.15447" lon="-5.47923">
        <ele>5.851328</ele>
        <time>2021-07-15T12:29:51Z</time>
      </trkpt>
      <trkpt lat="36.15649" lon="-5.47854">
        <ele>4.949891</ele>
        <time>2021-07-15T12:30:02Z</time>
      </trkpt>
      <trkpt lat="36.15789" lon="-5.47735">
        <ele>5.102744</ele>
        <time>2021-07-15T12:30:13Z</time>
      </trkpt>
      <trkpt lat="36.15836" lon="-5.47753">
        <ele>6.527171</ele>
        <time>2021-07-15T12:30:24Z</time>
      </trkpt>
      <trkpt lat="36.16012" lon="-5.47826">
        <ele>7.812417</ele>
        <time>2021-07-15T12:30:35Z</time>
      </trkpt>
      <trkpt lat="36.16163" lon="-5.47971">
        <ele>5.957339</ele>
        <time>2021-07-15T12:30:46Z</time>
      </trkpt>
      <trkpt lat="36.16252" lon="-5.48259">
        <ele>4.813614</ele>
        <time>2021-07-15T12:30:57Z</time>
      </trkpt>
      <trkpt lat="36.16381" lon="-5.48501">
        <ele>2.627443</ele>
        <time>2021-07-15T12:31:08Z</time>
      </trkpt>
      <trkpt lat="36.16446" lon="-5.48744">
        <ele>2.050553</ele>
        <time>2021-07-15T12:31:19Z</time>
      </trkpt>
      <trkpt lat="36.16429" lon="-5.48991">
        <ele>4.429991</ele>
        <time>2021-07-15T12:31:30Z</time>
      </trkpt>
      <trkpt lat="36.16426" lon="-5.49233">
        <ele>15.8642</ele>
        <time>2021-07-15T12:31:41Z</time>
      </trkpt>
      <trkpt lat="36.16459" lon="-5.49471">
        <ele>13.91478</ele>
        <time>2021-07-15T12:31:52Z</time>
      </trkpt>
      <trkpt lat="36.16511" lon="-5.49692">
        <ele>9.729835</ele>
        <time>2021-07-15T12:32:03Z</time>
      </trkpt>
      <trkpt lat="36.16624" lon="-5.49823">
        <ele>9.991504</ele>
        <time>2021-07-15T12:32:14Z</time>
      </trkpt>
      <trkpt lat="36.16745" lon="-5.49694">
        <ele>2.685577</ele>
        <time>2021-07-15T12:32:25Z</time>
      </trkpt>
      <trkpt lat="36.16958" lon="-5.49541">
        <ele>2.427975</ele>
        <time>2021-07-15T12:32:36Z</time>
      </trkpt>
      <trkpt lat="36.17179" lon="-5.49429">
        <ele>0.101117</ele>
        <time>2021-07-15T12:32:47Z</time>
      </trkpt>
      <trkpt lat="36.17345" lon="-5.49375">
        <ele>-0.377351</ele>
        <time>2021-07-15T12:32:58Z</time>
      </trkpt>
      <trkpt lat="36.174" lon="-5.49212">
        <ele>4.009215</ele>
        <time>2021-07-15T12:33:09Z</time>
      </trkpt>
      <trkpt lat="36.1752" lon="-5.49134">
        <ele>4.290324</ele>
        <time>2021-07-15T12:33:20Z</time>
      </trkpt>
      <trkpt lat="36.1765" lon="-5.49095">
        <ele>6.523212</ele>
        <time>2021-07-15T12:33:31Z</time>
      </trkpt>
      <trkpt lat="36.17772" lon="-5.49048">
        <ele>6.934394</ele>
        <time>2021-07-15T12:33:42Z</time>
      </trkpt>
      <trkpt lat="36.17857" lon="-5.49054">
        <ele>6.365035</ele>
        <time>2021-07-15T12:33:53Z</time>
      </trkpt>
      <trkpt lat="36.17952" lon="-5.49103">
        <ele>7.349209</ele>
        <time>2021-07-15T12:34:04Z</time>
      </trkpt>
      <trkpt lat="36.18017" lon="-5.49139">
        <ele>6.407477</ele>
        <time>2021-07-15T12:34:15Z</time>
      </trkpt>
      <trkpt lat="36.18052" lon="-5.49161">
        <ele>9.615304</ele>
        <time>2021-07-15T12:34:26Z</time>
      </trkpt>
      <trkpt lat="36.18135" lon="-5.49214">
        <ele>13.34042</ele>
        <time>2021-07-15T12:34:37Z</time>
      </trkpt>
      <trkpt lat="36.18231" lon="-5.4925">
        <ele>12.05223</ele>
        <time>2021-07-15T12:34:48Z</time>
      </trkpt>
      <trkpt lat="36.18289" lon="-5.4925">
        <ele>13.74891</ele>
        <time>2021-07-15T12:34:59Z</time>
      </trkpt>
      <trkpt lat="36.18304" lon="-5.49288">
        <ele>16.14981</ele>
        <time>2021-07-15T12:35:10Z</time>
      </trkpt>
      <trkpt lat="36.18325" lon="-5.49369">
        <ele>19.02608</ele>
        <time>2021-07-15T12:35:21Z</time>
      </trkpt>
      <trkpt lat="36.18342" lon="-5.49441">
        <ele>20.03124</ele>
        <time>2021-07-15T12:35:32Z</time>
      </trkpt>
      <trkpt lat="36.18408" lon="-5.49513">
        <ele>15.54693</ele>
        <time>2021-07-15T12:35:43Z</time>
      </trkpt>
      <trkpt lat="36.18469" lon="-5.49631">
        <ele>19.00382</ele>
        <time>2021-07-15T12:35:54Z</time>
      </trkpt>
      <trkpt lat="36.18517" lon="-5.49772">
        <ele>22.88018</ele>
        <time>2021-07-15T12:36:05Z</time>
      </trkpt>
      <trkpt lat="36.18534" lon="-5.49871">
        <ele>22.13263</ele>
        <time>2021-07-15T12:36:16Z</time>
      </trkpt>
      <trkpt lat="36.18599" lon="-5.50012">
        <ele>21.21252</ele>
        <time>2021-07-15T12:36:27Z</time>
      </trkpt>
      <trkpt lat="36.18774" lon="-5.50039">
        <ele>9.077658</ele>
        <time>2021-07-15T12:36:38Z</time>
      </trkpt>
      <trkpt lat="36.18883" lon="-5.50065">
        <ele>7.742812</ele>
        <time>2021-07-15T12:36:49Z</time>
      </trkpt>
      <trkpt lat="36.19026" lon="-5.50252">
        <ele>9.215551</ele>
        <time>2021-07-15T12:37:00Z</time>
      </trkpt>
      <trkpt lat="36.1916" lon="-5.50471">
        <ele>9.886116</ele>
        <time>2021-07-15T12:37:11Z</time>
      </trkpt>
      <trkpt lat="36.19297" lon="-5.50687">
        <ele>25.86918</ele>
        <time>2021-07-15T12:37:22Z</time>
      </trkpt>
      <trkpt lat="36.19456" lon="-5.50842">
        <ele>44.78209</ele>
        <time>2021-07-15T12:37:33Z</time>
      </trkpt>
      <trkpt lat="36.19616" lon="-5.50906">
        <ele>45.88254</ele>
        <time>2021-07-15T12:37:44Z</time>
      </trkpt>
      <trkpt lat="36.19762" lon="-5.50821">
        <ele>49.86936</ele>
        <time>2021-07-15T12:37:55Z</time>
      </trkpt>
      <trkpt lat="36.19927" lon="-5.50824">
        <ele>53.41855</ele>
        <time>2021-07-15T12:38:06Z</time>
      </trkpt>
      <trkpt lat="36.20031" lon="-5.50807">
        <ele>53.42605</ele>
        <time>2021-07-15T12:38:17Z</time>
      </trkpt>
      <trkpt lat="36.20186" lon="-5.5084">
        <ele>54.10408</ele>
        <time>2021-07-15T12:38:28Z</time>
      </trkpt>
      <trkpt lat="36.20295" lon="-5.50704">
        <ele>57.21953</ele>
        <time>2021-07-15T12:38:39Z</time>
      </trkpt>
      <trkpt lat="36.20411" lon="-5.50593">
        <ele>57.54234</ele>
        <time>2021-07-15T12:38:50Z</time>
      </trkpt>
      <trkpt lat="36.20417" lon="-5.50425">
        <ele>64.45186</ele>
        <time>2021-07-15T12:39:01Z</time>
      </trkpt>
      <trkpt lat="36.20347" lon="-5.50264">
        <ele>72.65667</ele>
        <time>2021-07-15T12:39:12Z</time>
      </trkpt>
      <trkpt lat="36.20436" lon="-5.50169">
        <ele>72.15888</ele>
        <time>2021-07-15T12:39:23Z</time>
      </trkpt>
      <trkpt lat="36.20428" lon="-5.49992">
        <ele>73.90369</ele>
        <time>2021-07-15T12:39:34Z</time>
      </trkpt>
      <trkpt lat="36.20399" lon="-5.49796">
        <ele>84.94708</ele>
        <time>2021-07-15T12:39:45Z</time>
      </trkpt>
      <trkpt lat="36.20449" lon="-5.49618">
        <ele>97.87869</ele>
        <time>2021-07-15T12:39:56Z</time>
      </trkpt>
      <trkpt lat="36.20509" lon="-5.49471">
        <ele>111.42</ele>
        <time>2021-07-15T12:40:07Z</time>
      </trkpt>
      <trkpt lat="36.20509" lon="-5.49274">
        <ele>128.3116</ele>
        <time>2021-07-15T12:40:18Z</time>
      </trkpt>
      <trkpt lat="36.20562" lon="-5.49079">
        <ele>134.8923</ele>
        <time>2021-07-15T12:40:29Z</time>
      </trkpt>
      <trkpt lat="36.20681" lon="-5.49096">
        <ele>138.6903</ele>
        <time>2021-07-15T12:40:40Z</time>
      </trkpt>
      <trkpt lat="36.20699" lon="-5.4902">
        <ele>135.0285</ele>
        <time>2021-07-15T12:40:51Z</time>
      </trkpt>
      <trkpt lat="36.20603" lon="-5.48838">
        <ele>131.2088</ele>
        <time>2021-07-15T12:41:02Z</time>
      </trkpt>
      <trkpt lat="36.20531" lon="-5.48658">
        <ele>132.114</ele>
        <time>2021-07-15T12:41:13Z</time>
      </trkpt>
      <trkpt lat="36.2049" lon="-5.48463">
        <ele>126.2171</ele>
        <time>2021-07-15T12:41:24Z</time>
      </trkpt>
      <trkpt lat="36.20616" lon="-5.48336">
        <ele>109.821</ele>
        <time>2021-07-15T12:41:35Z</time>
      </trkpt>
      <trkpt lat="36.20659" lon="-5.48149">
        <ele>101.2965</ele>
        <time>2021-07-15T12:41:46Z</time>
      </trkpt>
      <trkpt lat="36.20544" lon="-5.48015">
        <ele>102.4469</ele>
        <time>2021-07-15T12:41:57Z</time>
      </trkpt>
      <trkpt lat="36.20482" lon="-5.47845">
        <ele>102.5071</ele>
        <time>2021-07-15T12:42:08Z</time>
      </trkpt>
      <trkpt lat="36.20593" lon="-5.47764">
        <ele>90.07272</ele>
        <time>2021-07-15T12:42:19Z</time>
      </trkpt>
      <trkpt lat="36.20578" lon="-5.47615">
        <ele>80.74523</ele>
        <time>2021-07-15T12:42:30Z</time>
      </trkpt>
      <trkpt lat="36.20581" lon="-5.47535">
        <ele>74.97249</ele>
        <time>2021-07-15T12:42:41Z</time>
      </trkpt>
      <trkpt lat="36.20531" lon="-5.47398">
        <ele>59.92585</ele>
        <time>2021-07-15T12:42:52Z</time>
      </trkpt>
      <trkpt lat="36.20477" lon="-5.47195">
        <ele>49.9043</ele>
        <time>2021-07-15T12:43:03Z</time>
      </trkpt>
      <trkpt lat="36.20433" lon="-5.47041">
        <ele>41.08346</ele>
        <time>2021-07-15T12:43:14Z</time>
      </trkpt>
      <trkpt lat="36.20319" lon="-5.47112">
        <ele>35.78799</ele>
        <time>2021-07-15T12:43:25Z</time>
      </trkpt>
      <trkpt lat="36.20374" lon="-5.46957">
        <ele>31.98592</ele>
        <time>2021-07-15T12:43:36Z</time>
      </trkpt>
      <trkpt lat="36.20384" lon="-5.46727">
        <ele>25.65246</ele>
        <time>2021-07-15T12:43:47Z</time>
      </trkpt>
      <trkpt lat="36.20414" lon="-5.46525">
        <ele>20.99509</ele>
        <time>2021-07-15T12:43:58Z</time>
      </trkpt>
      <trkpt lat="36.20575" lon="-5.46375">
        <ele>20.80642</ele>
        <time>2021-07-15T12:44:09Z</time>
      </trkpt>
      <trkpt lat="36.20694" lon="-5.46222">
        <ele>38.97335</ele>
        <time>2021-07-15T12:44:20Z</time>
      </trkpt>
      <trkpt lat="36.20775" lon="-5.46133">
        <ele>48.5236</ele>
        <time>2021-07-15T12:44:31Z</time>
      </trkpt>
      <trkpt lat="36.2083" lon="-5.46266">
        <ele>60.48834</ele>
        <time>2021-07-15T12:44:42Z</time>
      </trkpt>
      <trkpt lat="36.20967" lon="-5.46188">
        <ele>69.55182</ele>
        <time>2021-07-15T12:44:53Z</time>
      </trkpt>
      <trkpt lat="36.20903" lon="-5.46178">
        <ele>70.73294</ele>
        <time>2021-07-15T12:45:04Z</time>
      </trkpt>
      <trkpt lat="36.20964" lon="-5.46117">
        <ele>83.68677</ele>
        <time>2021-07-15T12:45:15Z</time>
      </trkpt>
      <trkpt lat="36.21029" lon="-5.46014">
        <ele>96.75405</ele>
        <time>2021-07-15T12:45:26Z</time>
      </trkpt>
      <trkpt lat="36.21037" lon="-5.45921">
        <ele>107.1841</ele>
        <time>2021-07-15T12:45:37Z</time>
      </trkpt>
      <trkpt lat="36.21068" lon="-5.45749">
        <ele>109.7079</ele>
        <time>2021-07-15T12:45:48Z</time>
      </trkpt>
      <trkpt lat="36.21211" lon="-5.45752">
        <ele>99.58093</ele>
        <time>2021-07-15T12:45:59Z</time>
      </trkpt>
      <trkpt lat="36.21298" lon="-5.45666">
        <ele>81.81369</ele>
        <time>2021-07-15T12:46:10Z</time>
      </trkpt>
      <trkpt lat="36.21312" lon="-5.45423">
        <ele>58.77277</ele>
        <time>2021-07-15T12:46:21Z</time>
      </trkpt>
      <trkpt lat="36.21293" lon="-5.45185">
        <ele>44.66251</ele>
        <time>2021-07-15T12:46:32Z</time>
      </trkpt>
      <trkpt lat="36.21258" lon="-5.45001">
        <ele>34.16207</ele>
        <time>2021-07-15T12:46:43Z</time>
      </trkpt>
      <trkpt lat="36.21178" lon="-5.44892">
        <ele>31.44205</ele>
        <time>2021-07-15T12:46:54Z</time>
      </trkpt>
      <trkpt lat="36.21161" lon="-5.44699">
        <ele>27.96766</ele>
        <time>2021-07-15T12:47:05Z</time>
      </trkpt>
      <trkpt lat="36.21301" lon="-5.44604">
        <ele>31.53905</ele>
        <time>2021-07-15T12:47:16Z</time>
      </trkpt>
      <trkpt lat="36.21441" lon="-5.44475">
        <ele>17.01953</ele>
        <time>2021-07-15T12:47:27Z</time>
      </trkpt>
      <trkpt lat="36.21579" lon="-5.44502">
        <ele>10.91968</ele>
        <time>2021-07-15T12:47:38Z</time>
      </trkpt>
      <trkpt lat="36.21681" lon="-5.44604">
        <ele>18.33265</ele>
        <time>2021-07-15T12:47:49Z</time>
      </trkpt>
      <trkpt lat="36.21774" lon="-5.44711">
        <ele>27.93605</ele>
        <time>2021-07-15T12:48:00Z</time>
      </trkpt>
      <trkpt lat="36.21906" lon="-5.44758">
        <ele>25.21218</ele>
        <time>2021-07-15T12:48:11Z</time>
      </trkpt>
      <trkpt lat="36.22002" lon="-5.44852">
        <ele>18.37687</ele>
        <time>2021-07-15T12:48:23Z</time>
      </trkpt>
      <trkpt lat="36.22134" lon="-5.44698">
        <ele>16.87026</ele>
        <time>2021-07-15T12:48:34Z</time>
      </trkpt>
      <trkpt lat="36.22268" lon="-5.4459">
        <ele>5.522423</ele>
        <time>2021-07-15T12:48:45Z</time>
      </trkpt>
      <trkpt lat="36.22372" lon="-5.44387">
        <ele>5.211152</ele>
        <time>2021-07-15T12:48:56Z</time>
      </trkpt>
      <trkpt lat="36.22433" lon="-5.44216">
        <ele>5.839293</ele>
        <time>2021-07-15T12:49:07Z</time>
      </trkpt>
      <trkpt lat="36.2239" lon="-5.43978">
        <ele>8.280976</ele>
        <time>2021-07-15T12:49:18Z</time>
      </trkpt>
      <trkpt lat="36.22437" lon="-5.43775">
        <ele>9.045418</ele>
        <time>2021-07-15T12:49:29Z</time>
      </trkpt>
      <trkpt lat="36.22448" lon="-5.43726">
        <ele>9.086598</ele>
        <time>2021-07-15T12:49:40Z</time>
      </trkpt>
      <trkpt lat="36.22471" lon="-5.43675">
        <ele>10.84723</ele>
        <time>2021-07-15T12:49:51Z</time>
      </trkpt>
      <trkpt lat="36.22534" lon="-5.43493">
        <ele>17.73505</ele>
        <time>2021-07-15T12:50:02Z</time>
      </trkpt>
      <trkpt lat="36.22537" lon="-5.43314">
        <ele>20.19697</ele>
        <time>2021-07-15T12:50:13Z</time>
      </trkpt>
      <trkpt lat="36.22644" lon="-5.43175">
        <ele>22.93634</ele>
        <time>2021-07-15T12:50:24Z</time>
      </trkpt>
      <trkpt lat="36.22667" lon="-5.42974">
        <ele>21.69149</ele>
        <time>2021-07-15T12:50:35Z</time>
      </trkpt>
      <trkpt lat="36.22725" lon="-5.42715">
        <ele>23.07082</ele>
        <time>2021-07-15T12:50:46Z</time>
      </trkpt>
      <trkpt lat="36.22735" lon="-5.42528">
        <ele>27.80262</ele>
        <time>2021-07-15T12:50:57Z</time>
      </trkpt>
      <trkpt lat="36.22631" lon="-5.42348">
        <ele>28.24484</ele>
        <time>2021-07-15T12:51:08Z</time>
      </trkpt>
      <trkpt lat="36.22589" lon="-5.42115">
        <ele>35.91041</ele>
        <time>2021-07-15T12:51:19Z</time>
      </trkpt>
      <trkpt lat="36.22566" lon="-5.41955">
        <ele>49.22532</ele>
        <time>2021-07-15T12:51:30Z</time>
      </trkpt>
      <trkpt lat="36.22576" lon="-5.41737">
        <ele>52.62394</ele>
        <time>2021-07-15T12:51:41Z</time>
      </trkpt>
      <trkpt lat="36.22657" lon="-5.41506">
        <ele>50.49928</ele>
        <time>2021-07-15T12:51:52Z</time>
      </trkpt>
      <trkpt lat="36.22742" lon="-5.41293">
        <ele>51.13853</ele>
        <time>2021-07-15T12:52:03Z</time>
      </trkpt>
      <trkpt lat="36.22776" lon="-5.41054">
        <ele>50.64056</ele>
        <time>2021-07-15T12:52:14Z</time>
      </trkpt>
      <trkpt lat="36.22812" lon="-5.40841">
        <ele>67.3082</ele>
        <time>2021-07-15T12:52:25Z</time>
      </trkpt>
      <trkpt lat="36.22964" lon="-5.4064">
        <ele>82.04517</ele>
        <time>2021-07-15T12:52:36Z</time>
      </trkpt>
      <trkpt lat="36.23078" lon="-5.40447">
        <ele>55.2388</ele>
        <time>2021-07-15T12:52:47Z</time>
      </trkpt>
      <trkpt lat="36.23174" lon="-5.40353">
        <ele>45.28974</ele>
        <time>2021-07-15T12:52:58Z</time>
      </trkpt>
      <trkpt lat="36.2314" lon="-5.40257">
        <ele>38.63089</ele>
        <time>2021-07-15T12:53:09Z</time>
      </trkpt>
      <trkpt lat="36.23141" lon="-5.40098">
        <ele>32.38852</ele>
        <time>2021-07-15T12:53:20Z</time>
      </trkpt>
      <trkpt lat="36.23199" lon="-5.39957">
        <ele>25.99478</ele>
        <time>2021-07-15T12:53:31Z</time>
      </trkpt>
      <trkpt lat="36.23105" lon="-5.39832">
        <ele>29.82452</ele>
        <time>2021-07-15T12:53:42Z</time>
      </trkpt>
      <trkpt lat="36.2293" lon="-5.39783">
        <ele>29.56814</ele>
        <time>2021-07-15T12:53:53Z</time>
      </trkpt>
      <trkpt lat="36.22719" lon="-5.39763">
        <ele>30.3858</ele>
        <time>2021-07-15T12:54:04Z</time>
      </trkpt>
      <trkpt lat="36.22524" lon="-5.39665">
        <ele>25.50105</ele>
        <time>2021-07-15T12:54:15Z</time>
      </trkpt>
      <trkpt lat="36.22338" lon="-5.39509">
        <ele>25.08791</ele>
        <time>2021-07-15T12:54:26Z</time>
      </trkpt>
      <trkpt lat="36.22129" lon="-5.39548">
        <ele>23.92247</ele>
        <time>2021-07-15T12:54:37Z</time>
      </trkpt>
      <trkpt lat="36.21913" lon="-5.39665">
        <ele>23.2245</ele>
        <time>2021-07-15T12:54:48Z</time>
      </trkpt>
      <trkpt lat="36.21766" lon="-5.39591">
        <ele>37.75618</ele>
        <time>2021-07-15T12:54:59Z</time>
      </trkpt>
      <trkpt lat="36.21729" lon="-5.39375">
        <ele>32.15711</ele>
        <time>2021-07-15T12:55:10Z</time>
      </trkpt>
      <trkpt lat="36.2162" lon="-5.39198">
        <ele>28.21758</ele>
        <time>2021-07-15T12:55:21Z</time>
      </trkpt>
      <trkpt lat="36.21683" lon="-5.39004">
        <ele>34.19434</ele>
        <time>2021-07-15T12:55:32Z</time>
      </trkpt>
      <trkpt lat="36.21758" lon="-5.38843">
        <ele>25.21717</ele>
        <time>2021-07-15T12:55:43Z</time>
      </trkpt>
      <trkpt lat="36.21764" lon="-5.38782">
        <ele>22.33705</ele>
        <time>2021-07-15T12:55:54Z</time>
      </trkpt>
      <trkpt lat="36.21764" lon="-5.38777">
        <ele>25.12583</ele>
        <time>2021-07-15T12:56:08Z</time>
      </trkpt>
      <trkpt lat="36.21764" lon="-5.38777">
        <ele>23.9915</ele>
        <time>2021-07-15T12:57:07Z</time>
      </trkpt>
      <trkpt lat="36.21764" lon="-5.38777">
        <ele>23.9915</ele>
        <time>2021-07-15T12:58:06Z</time>
      </trkpt>
      <trkpt lat="36.21764" lon="-5.3878">
        <ele>23.16498</ele>
        <time>2021-07-15T12:59:05Z</time>
      </trkpt>
      <trkpt lat="36.21764" lon="-5.38779">
        <ele>21.20095</ele>
        <time>2021-07-15T13:00:04Z</time>
      </trkpt>
      <trkpt lat="36.21764" lon="-5.3878">
        <ele>20.25975</ele>
        <time>2021-07-15T13:01:03Z</time>
      </trkpt>
      <trkpt lat="36.21764" lon="-5.3878">
        <ele>23.25158</ele>
        <time>2021-07-15T13:02:02Z</time>
      </trkpt>
      <trkpt lat="36.21764" lon="-5.38777">
        <ele>24.65299</ele>
        <time>2021-07-15T13:03:01Z</time>
      </trkpt>
      <trkpt lat="36.21764" lon="-5.38776">
        <ele>24.88738</ele>
        <time>2021-07-15T13:04:00Z</time>
      </trkpt>
      <trkpt lat="36.21764" lon="-5.38776">
        <ele>24.88738</ele>
        <time>2021-07-15T13:04:59Z</time>
      </trkpt>
      <trkpt lat="36.21764" lon="-5.38776">
        <ele>25.18932</ele>
        <time>2021-07-15T13:05:58Z</time>
      </trkpt>
      <trkpt lat="36.21767" lon="-5.38786">
        <ele>24.00522</ele>
        <time>2021-07-15T13:06:38Z</time>
      </trkpt>
      <trkpt lat="36.21756" lon="-5.38819">
        <ele>23.87966</ele>
        <time>2021-07-15T13:06:49Z</time>
      </trkpt>
      <trkpt lat="36.21672" lon="-5.38803">
        <ele>28.20849</ele>
        <time>2021-07-15T13:07:00Z</time>
      </trkpt>
      <trkpt lat="36.2155" lon="-5.38815">
        <ele>40.99677</ele>
        <time>2021-07-15T13:07:11Z</time>
      </trkpt>
      <trkpt lat="36.2147" lon="-5.38757">
        <ele>50.114</ele>
        <time>2021-07-15T13:07:22Z</time>
      </trkpt>
      <trkpt lat="36.21459" lon="-5.38595">
        <ele>56.46976</ele>
        <time>2021-07-15T13:07:33Z</time>
      </trkpt>
      <trkpt lat="36.21436" lon="-5.3848">
        <ele>69.68481</ele>
        <time>2021-07-15T13:07:44Z</time>
      </trkpt>
      <trkpt lat="36.21448" lon="-5.3839">
        <ele>71.44231</ele>
        <time>2021-07-15T13:07:55Z</time>
      </trkpt>
      <trkpt lat="36.21441" lon="-5.38341">
        <ele>78.39191</ele>
        <time>2021-07-15T13:08:06Z</time>
      </trkpt>
      <trkpt lat="36.21354" lon="-5.38285">
        <ele>83.87835</ele>
        <time>2021-07-15T13:08:17Z</time>
      </trkpt>
      <trkpt lat="36.21266" lon="-5.38233">
        <ele>89.40501</ele>
        <time>2021-07-15T13:08:28Z</time>
      </trkpt>
      <trkpt lat="36.21225" lon="-5.38192">
        <ele>84.69965</ele>
        <time>2021-07-15T13:08:39Z</time>
      </trkpt>
      <trkpt lat="36.21187" lon="-5.38176">
        <ele>83.28402</ele>
        <time>2021-07-15T13:08:50Z</time>
      </trkpt>
      <trkpt lat="36.21019" lon="-5.3815">
        <ele>81.66573</ele>
        <time>2021-07-15T13:09:01Z</time>
      </trkpt>
      <trkpt lat="36.20866" lon="-5.38152">
        <ele>71.24595</ele>
        <time>2021-07-15T13:09:12Z</time>
      </trkpt>
      <trkpt lat="36.20735" lon="-5.38311">
        <ele>70.84764</ele>
        <time>2021-07-15T13:09:24Z</time>
      </trkpt>
      <trkpt lat="36.20694" lon="-5.38466">
        <ele>62.86661</ele>
        <time>2021-07-15T13:09:35Z</time>
      </trkpt>
      <trkpt lat="36.20724" lon="-5.38594">
        <ele>62.15385</ele>
        <time>2021-07-15T13:09:46Z</time>
      </trkpt>
      <trkpt lat="36.20619" lon="-5.38564">
        <ele>61.18245</ele>
        <time>2021-07-15T13:09:57Z</time>
      </trkpt>
      <trkpt lat="36.20474" lon="-5.38441">
        <ele>61.25847</ele>
        <time>2021-07-15T13:10:08Z</time>
      </trkpt>
      <trkpt lat="36.20275" lon="-5.38386">
        <ele>54.17531</ele>
        <time>2021-07-15T13:10:19Z</time>
      </trkpt>
      <trkpt lat="36.20047" lon="-5.38322">
        <ele>38.70608</ele>
        <time>2021-07-15T13:10:30Z</time>
      </trkpt>
      <trkpt lat="36.19843" lon="-5.38266">
        <ele>24.21285</ele>
        <time>2021-07-15T13:10:41Z</time>
      </trkpt>
      <trkpt lat="36.19622" lon="-5.38324">
        <ele>15.5341</ele>
        <time>2021-07-15T13:10:52Z</time>
      </trkpt>
      <trkpt lat="36.19411" lon="-5.38419">
        <ele>8.690693</ele>
        <time>2021-07-15T13:11:03Z</time>
      </trkpt>
      <trkpt lat="36.19233" lon="-5.38494">
        <ele>8.218208</ele>
        <time>2021-07-15T13:11:14Z</time>
      </trkpt>
      <trkpt lat="36.19083" lon="-5.38555">
        <ele>6.99509</ele>
        <time>2021-07-15T13:11:25Z</time>
      </trkpt>
      <trkpt lat="36.18917" lon="-5.38598">
        <ele>6.773571</ele>
        <time>2021-07-15T13:11:36Z</time>
      </trkpt>
      <trkpt lat="36.18746" lon="-5.38487">
        <ele>7.164988</ele>
        <time>2021-07-15T13:11:47Z</time>
      </trkpt>
      <trkpt lat="36.18566" lon="-5.38329">
        <ele>5.616379</ele>
        <time>2021-07-15T13:11:58Z</time>
      </trkpt>
      <trkpt lat="36.18411" lon="-5.38201">
        <ele>4.313299</ele>
        <time>2021-07-15T13:12:09Z</time>
      </trkpt>
      <trkpt lat="36.1828" lon="-5.38128">
        <ele>2.544526</ele>
        <time>2021-07-15T13:12:20Z</time>
      </trkpt>
      <trkpt lat="36.18213" lon="-5.38116">
        <ele>5.64816</ele>
        <time>2021-07-15T13:12:31Z</time>
      </trkpt>
      <trkpt lat="36.18107" lon="-5.38028">
        <ele>5.21735</ele>
        <time>2021-07-15T13:12:42Z</time>
      </trkpt>
      <trkpt lat="36.17972" lon="-5.37935">
        <ele>8.971877</ele>
        <time>2021-07-15T13:12:53Z</time>
      </trkpt>
      <trkpt lat="36.17877" lon="-5.37846">
        <ele>13.49109</ele>
        <time>2021-07-15T13:13:04Z</time>
      </trkpt>
      <trkpt lat="36.17797" lon="-5.37763">
        <ele>15.24728</ele>
        <time>2021-07-15T13:13:15Z</time>
      </trkpt>
      <trkpt lat="36.17742" lon="-5.37671">
        <ele>18.69305</ele>
        <time>2021-07-15T13:13:26Z</time>
      </trkpt>
      <trkpt lat="36.17653" lon="-5.37559">
        <ele>15.71735</ele>
        <time>2021-07-15T13:13:37Z</time>
      </trkpt>
      <trkpt lat="36.17584" lon="-5.37475">
        <ele>14.93078</ele>
        <time>2021-07-15T13:13:48Z</time>
      </trkpt>
      <trkpt lat="36.17495" lon="-5.374">
        <ele>12.85158</ele>
        <time>2021-07-15T13:13:59Z</time>
      </trkpt>
      <trkpt lat="36.17384" lon="-5.37321">
        <ele>11.15048</ele>
        <time>2021-07-15T13:14:10Z</time>
      </trkpt>
      <trkpt lat="36.17263" lon="-5.3722">
        <ele>8.820461</ele>
        <time>2021-07-15T13:14:21Z</time>
      </trkpt>
      <trkpt lat="36.17125" lon="-5.37126">
        <ele>4.605202</ele>
        <time>2021-07-15T13:14:32Z</time>
      </trkpt>
      <trkpt lat="36.16982" lon="-5.37062">
        <ele>2.718409</ele>
        <time>2021-07-15T13:14:43Z</time>
      </trkpt>
      <trkpt lat="36.16871" lon="-5.36952">
        <ele>2.88554</ele>
        <time>2021-07-15T13:14:54Z</time>
      </trkpt>
      <trkpt lat="36.16813" lon="-5.36827">
        <ele>3.461563</ele>
        <time>2021-07-15T13:15:05Z</time>
      </trkpt>
      <trkpt lat="36.16763" lon="-5.36671">
        <ele>4.613872</ele>
        <time>2021-07-15T13:15:16Z</time>
      </trkpt>
      <trkpt lat="36.16714" lon="-5.36543">
        <ele>4.519367</ele>
        <time>2021-07-15T13:15:27Z</time>
      </trkpt>
      <trkpt lat="36.16684" lon="-5.3648">
        <ele>2.57734</ele>
        <time>2021-07-15T13:15:38Z</time>
      </trkpt>
      <trkpt lat="36.16642" lon="-5.36375">
        <ele>3.597388</ele>
        <time>2021-07-15T13:15:49Z</time>
      </trkpt>
      <trkpt lat="36.16588" lon="-5.36271">
        <ele>5.475416</ele>
        <time>2021-07-15T13:16:00Z</time>
      </trkpt>
      <trkpt lat="36.16529" lon="-5.36175">
        <ele>7.482174</ele>
        <time>2021-07-15T13:16:11Z</time>
      </trkpt>
      <trkpt lat="36.16486" lon="-5.36114">
        <ele>4.514287</ele>
        <time>2021-07-15T13:16:22Z</time>
      </trkpt>
      <trkpt lat="36.16455" lon="-5.36027">
        <ele>1.649309</ele>
        <time>2021-07-15T13:16:33Z</time>
      </trkpt>
      <trkpt lat="36.16402" lon="-5.35936">
        <ele>2.893958</ele>
        <time>2021-07-15T13:16:44Z</time>
      </trkpt>
      <trkpt lat="36.16346" lon="-5.35858">
        <ele>6.474247</ele>
        <time>2021-07-15T13:16:55Z</time>
      </trkpt>
      <trkpt lat="36.16303" lon="-5.35798">
        <ele>8.070859</ele>
        <time>2021-07-15T13:17:06Z</time>
      </trkpt>
      <trkpt lat="36.16259" lon="-5.35747">
        <ele>7.001737</ele>
        <time>2021-07-15T13:17:17Z</time>
      </trkpt>
      <trkpt lat="36.16215" lon="-5.35688">
        <ele>5.579913</ele>
        <time>2021-07-15T13:17:28Z</time>
      </trkpt>
      <trkpt lat="36.16158" lon="-5.35627">
        <ele>9.128442</ele>
        <time>2021-07-15T13:17:39Z</time>
      </trkpt>
      <trkpt lat="36.16084" lon="-5.35552">
        <ele>7.783212</ele>
        <time>2021-07-15T13:17:50Z</time>
      </trkpt>
      <trkpt lat="36.16" lon="-5.35476">
        <ele>7.318687</ele>
        <time>2021-07-15T13:18:01Z</time>
      </trkpt>
      <trkpt lat="36.15921" lon="-5.35404">
        <ele>6.435244</ele>
        <time>2021-07-15T13:18:12Z</time>
      </trkpt>
      <trkpt lat="36.1588" lon="-5.3537">
        <ele>6.379039</ele>
        <time>2021-07-15T13:18:23Z</time>
      </trkpt>
      <trkpt lat="36.15805" lon="-5.35321">
        <ele>5.572823</ele>
        <time>2021-07-15T13:18:34Z</time>
      </trkpt>
      <trkpt lat="36.15689" lon="-5.35245">
        <ele>5.700819</ele>
        <time>2021-07-15T13:18:45Z</time>
      </trkpt>
      <trkpt lat="36.15607" lon="-5.35192">
        <ele>4.580046</ele>
        <time>2021-07-15T13:18:56Z</time>
      </trkpt>
      <trkpt lat="36.15525" lon="-5.35187">
        <ele>4.08423</ele>
        <time>2021-07-15T13:19:07Z</time>
      </trkpt>
      <trkpt lat="36.15504" lon="-5.35063">
        <ele>4.099507</ele>
        <time>2021-07-15T13:19:18Z</time>
      </trkpt>
      <trkpt lat="36.15522" lon="-5.34948">
        <ele>6.713055</ele>
        <time>2021-07-15T13:19:29Z</time>
      </trkpt>
      <trkpt lat="36.15594" lon="-5.34946">
        <ele>7.776208</ele>
        <time>2021-07-15T13:19:40Z</time>
      </trkpt>
      <trkpt lat="36.15604" lon="-5.34874">
        <ele>6.928931</ele>
        <time>2021-07-15T13:19:51Z</time>
      </trkpt>
      <trkpt lat="36.15603" lon="-5.34848">
        <ele>6.18411</ele>
        <time>2021-07-15T13:20:02Z</time>
      </trkpt>
      <trkpt lat="36.15603" lon="-5.34843">
        <ele>6.133837</ele>
        <time>2021-07-15T13:20:16Z</time>
      </trkpt>
      <trkpt lat="36.15589" lon="-5.34835">
        <ele>5.869061</ele>
        <time>2021-07-15T13:20:27Z</time>
      </trkpt>
      <trkpt lat="36.15585" lon="-5.34836">
        <ele>9.174266</ele>
        <time>2021-07-15T13:20:42Z</time>
      </trkpt>
      <trkpt lat="36.15579" lon="-5.34836">
        <ele>9.410672</ele>
        <time>2021-07-15T13:20:53Z</time>
      </trkpt>
      <trkpt lat="36.15565" lon="-5.34837">
        <ele>8.711591</ele>
        <time>2021-07-15T13:21:04Z</time>
      </trkpt>
      <trkpt lat="36.15561" lon="-5.34837">
        <ele>8.439698</ele>
        <time>2021-07-15T13:21:18Z</time>
      </trkpt>
      <trkpt lat="36.15549" lon="-5.34838">
        <ele>9.874134</ele>
        <time>2021-07-15T13:21:29Z</time>
      </trkpt>
      <trkpt lat="36.15536" lon="-5.34838">
        <ele>9.086469</ele>
        <time>2021-07-15T13:21:40Z</time>
      </trkpt>
      <trkpt lat="36.15532" lon="-5.34837">
        <ele>7.925831</ele>
        <time>2021-07-15T13:21:51Z</time>
      </trkpt>
      <trkpt lat="36.15517" lon="-5.34838">
        <ele>9.287665</ele>
        <time>2021-07-15T13:22:02Z</time>
      </trkpt>
      <trkpt lat="36.15508" lon="-5.34839">
        <ele>10.60179</ele>
        <time>2021-07-15T13:22:13Z</time>
      </trkpt>
      <trkpt lat="36.15504" lon="-5.34839">
        <ele>6.934098</ele>
        <time>2021-07-15T13:22:43Z</time>
      </trkpt>
      <trkpt lat="36.15494" lon="-5.3484">
        <ele>7.994745</ele>
        <time>2021-07-15T13:22:54Z</time>
      </trkpt>
      <trkpt lat="36.1547" lon="-5.34841">
        <ele>11.87804</ele>
        <time>2021-07-15T13:23:05Z</time>
      </trkpt>
      <trkpt lat="36.15454" lon="-5.34844">
        <ele>12.2464</ele>
        <time>2021-07-15T13:23:16Z</time>
      </trkpt>
      <trkpt lat="36.15437" lon="-5.34848">
        <ele>17.8656</ele>
        <time>2021-07-15T13:23:27Z</time>
      </trkpt>
      <trkpt lat="36.15429" lon="-5.34848">
        <ele>15.88314</ele>
        <time>2021-07-15T13:24:12Z</time>
      </trkpt>
      <trkpt lat="36.15352" lon="-5.34856">
        <ele>10.71243</ele>
        <time>2021-07-15T13:24:23Z</time>
      </trkpt>
      <trkpt lat="36.15257" lon="-5.34861">
        <ele>7.849321</ele>
        <time>2021-07-15T13:24:34Z</time>
      </trkpt>
      <trkpt lat="36.15151" lon="-5.34872">
        <ele>9.41927</ele>
        <time>2021-07-15T13:24:45Z</time>
      </trkpt>
      <trkpt lat="36.1503" lon="-5.34884">
        <ele>6.38084</ele>
        <time>2021-07-15T13:24:56Z</time>
      </trkpt>
      <trkpt lat="36.14937" lon="-5.3491">
        <ele>6.804625</ele>
        <time>2021-07-15T13:25:07Z</time>
      </trkpt>
      <trkpt lat="36.14857" lon="-5.34943">
        <ele>7.997245</ele>
        <time>2021-07-15T13:25:18Z</time>
      </trkpt>
      <trkpt lat="36.14753" lon="-5.34979">
        <ele>8.260646</ele>
        <time>2021-07-15T13:25:29Z</time>
      </trkpt>
      <trkpt lat="36.14677" lon="-5.35038">
        <ele>10.24367</ele>
        <time>2021-07-15T13:25:40Z</time>
      </trkpt>
      <trkpt lat="36.14671" lon="-5.35044">
        <ele>14.60465</ele>
        <time>2021-07-15T13:25:51Z</time>
      </trkpt>
      <trkpt lat="36.14643" lon="-5.35057">
        <ele>25.16374</ele>
        <time>2021-07-15T13:26:02Z</time>
      </trkpt>
      <trkpt lat="36.1463" lon="-5.35115">
        <ele>30.31034</ele>
        <time>2021-07-15T13:26:13Z</time>
      </trkpt>
      <trkpt lat="36.14628" lon="-5.35208">
        <ele>24.53603</ele>
        <time>2021-07-15T13:26:24Z</time>
      </trkpt>
      <trkpt lat="36.14568" lon="-5.3528">
        <ele>14.40805</ele>
        <time>2021-07-15T13:26:35Z</time>
      </trkpt>
      <trkpt lat="36.14501" lon="-5.3534">
        <ele>9.009783</ele>
        <time>2021-07-15T13:26:46Z</time>
      </trkpt>
      <trkpt lat="36.14466" lon="-5.35383">
        <ele>10.00302</ele>
        <time>2021-07-15T13:26:57Z</time>
      </trkpt>
      <trkpt lat="36.14371" lon="-5.3542">
        <ele>12.9607</ele>
        <time>2021-07-15T13:27:08Z</time>
      </trkpt>
      <trkpt lat="36.14259" lon="-5.35429">
        <ele>14.58501</ele>
        <time>2021-07-15T13:27:19Z</time>
      </trkpt>
      <trkpt lat="36.14164" lon="-5.35447">
        <ele>19.75616</ele>
        <time>2021-07-15T13:27:30Z</time>
      </trkpt>
      <trkpt lat="36.14101" lon="-5.35468">
        <ele>23.74661</ele>
        <time>2021-07-15T13:27:41Z</time>
      </trkpt>
      <trkpt lat="36.14075" lon="-5.35476">
        <ele>35.76696</ele>
        <time>2021-07-15T13:27:52Z</time>
      </trkpt>
      <trkpt lat="36.14016" lon="-5.35468">
        <ele>29.90309</ele>
        <time>2021-07-15T13:28:03Z</time>
      </trkpt>
      <trkpt lat="36.13943" lon="-5.35476">
        <ele>26.65024</ele>
        <time>2021-07-15T13:28:14Z</time>
      </trkpt>
      <trkpt lat="36.13865" lon="-5.35473">
        <ele>25.71581</ele>
        <time>2021-07-15T13:28:25Z</time>
      </trkpt>
      <trkpt lat="36.13806" lon="-5.35466">
        <ele>14.85355</ele>
        <time>2021-07-15T13:28:36Z</time>
      </trkpt>
      <trkpt lat="36.13746" lon="-5.3545">
        <ele>8.538169</ele>
        <time>2021-07-15T13:28:47Z</time>
      </trkpt>
      <trkpt lat="36.13675" lon="-5.35418">
        <ele>8.328276</ele>
        <time>2021-07-15T13:28:58Z</time>
      </trkpt>
      <trkpt lat="36.13607" lon="-5.35401">
        <ele>9.654852</ele>
        <time>2021-07-15T13:29:09Z</time>
      </trkpt>
      <trkpt lat="36.13538" lon="-5.35373">
        <ele>5.991097</ele>
        <time>2021-07-15T13:29:20Z</time>
      </trkpt>
      <trkpt lat="36.13496" lon="-5.35333">
        <ele>6.145943</ele>
        <time>2021-07-15T13:29:31Z</time>
      </trkpt>
      <trkpt lat="36.13497" lon="-5.35295">
        <ele>7.140214</ele>
        <time>2021-07-15T13:29:42Z</time>
      </trkpt>
      <trkpt lat="36.13462" lon="-5.35276">
        <ele>9.878907</ele>
        <time>2021-07-15T13:29:53Z</time>
      </trkpt>
      <trkpt lat="36.13445" lon="-5.35269">
        <ele>16.37652</ele>
        <time>2021-07-15T13:30:04Z</time>
      </trkpt>
      <trkpt lat="36.13402" lon="-5.35277">
        <ele>21.22935</ele>
        <time>2021-07-15T13:30:15Z</time>
      </trkpt>
      <trkpt lat="36.13377" lon="-5.35244">
        <ele>21.66607</ele>
        <time>2021-07-15T13:30:26Z</time>
      </trkpt>
      <trkpt lat="36.1339" lon="-5.35157">
        <ele>25.96122</ele>
        <time>2021-07-15T13:30:37Z</time>
      </trkpt>
      <trkpt lat="36.13316" lon="-5.35119">
        <ele>37.01762</ele>
        <time>2021-07-15T13:30:48Z</time>
      </trkpt>
      <trkpt lat="36.13265" lon="-5.35094">
        <ele>37.48645</ele>
        <time>2021-07-15T13:30:59Z</time>
      </trkpt>
      <trkpt lat="36.13199" lon="-5.35063">
        <ele>44.69016</ele>
        <time>2021-07-15T13:31:10Z</time>
      </trkpt>
      <trkpt lat="36.13117" lon="-5.35003">
        <ele>55.37215</ele>
        <time>2021-07-15T13:31:21Z</time>
      </trkpt>
      <trkpt lat="36.13027" lon="-5.34977">
        <ele>66.46066</ele>
        <time>2021-07-15T13:31:32Z</time>
      </trkpt>
      <trkpt lat="36.12924" lon="-5.34953">
        <ele>78.14524</ele>
        <time>2021-07-15T13:31:43Z</time>
      </trkpt>
      <trkpt lat="36.12818" lon="-5.34947">
        <ele>83.62369</ele>
        <time>2021-07-15T13:31:54Z</time>
      </trkpt>
      <trkpt lat="36.12716" lon="-5.3496">
        <ele>85.26896</ele>
        <time>2021-07-15T13:32:05Z</time>
      </trkpt>
      <trkpt lat="36.12633" lon="-5.3497">
        <ele>91.91227</ele>
        <time>2021-07-15T13:32:16Z</time>
      </trkpt>
      <trkpt lat="36.12539" lon="-5.34971">
        <ele>92.57334</ele>
        <time>2021-07-15T13:32:27Z</time>
      </trkpt>
      <trkpt lat="36.1243" lon="-5.34958">
        <ele>87.11048</ele>
        <time>2021-07-15T13:32:38Z</time>
      </trkpt>
      <trkpt lat="36.12323" lon="-5.34946">
        <ele>87.80425</ele>
        <time>2021-07-15T13:32:49Z</time>
      </trkpt>
      <trkpt lat="36.12234" lon="-5.3489">
        <ele>89.85387</ele>
        <time>2021-07-15T13:33:00Z</time>
      </trkpt>
      <trkpt lat="36.1215" lon="-5.34818">
        <ele>95.48802</ele>
        <time>2021-07-15T13:33:11Z</time>
      </trkpt>
      <trkpt lat="36.12059" lon="-5.34759">
        <ele>97.08118</ele>
        <time>2021-07-15T13:33:22Z</time>
      </trkpt>
      <trkpt lat="36.11981" lon="-5.34735">
        <ele>92.92552</ele>
        <time>2021-07-15T13:33:33Z</time>
      </trkpt>
      <trkpt lat="36.11902" lon="-5.34756">
        <ele>91.82409</ele>
        <time>2021-07-15T13:33:44Z</time>
      </trkpt>
      <trkpt lat="36.11876" lon="-5.3481">
        <ele>85.69951</ele>
        <time>2021-07-15T13:33:55Z</time>
      </trkpt>
      <trkpt lat="36.11873" lon="-5.34813">
        <ele>92.13618</ele>
        <time>2021-07-15T13:34:06Z</time>
      </trkpt>
      <trkpt lat="36.11805" lon="-5.34823">
        <ele>87.49834</ele>
        <time>2021-07-15T13:34:18Z</time>
      </trkpt>
      <trkpt lat="36.11724" lon="-5.34829">
        <ele>81.87681</ele>
        <time>2021-07-15T13:34:29Z</time>
      </trkpt>
      <trkpt lat="36.11636" lon="-5.34843">
        <ele>72.04196</ele>
        <time>2021-07-15T13:34:40Z</time>
      </trkpt>
      <trkpt lat="36.11534" lon="-5.34816">
        <ele>67.43977</ele>
        <time>2021-07-15T13:34:51Z</time>
      </trkpt>
      <trkpt lat="36.11449" lon="-5.34855">
        <ele>61.96524</ele>
        <time>2021-07-15T13:35:02Z</time>
      </trkpt>
      <trkpt lat="36.11357" lon="-5.34873">
        <ele>54.40205</ele>
        <time>2021-07-15T13:35:13Z</time>
      </trkpt>
      <trkpt lat="36.11267" lon="-5.34766">
        <ele>54.32801</ele>
        <time>2021-07-15T13:35:24Z</time>
      </trkpt>
      <trkpt lat="36.11226" lon="-5.3463">
        <ele>46.47367</ele>
        <time>2021-07-15T13:35:35Z</time>
      </trkpt>
      <trkpt lat="36.11218" lon="-5.34529">
        <ele>36.584</ele>
        <time>2021-07-15T13:35:46Z</time>
      </trkpt>
      <trkpt lat="36.11251" lon="-5.34435">
        <ele>42.98521</ele>
        <time>2021-07-15T13:35:57Z</time>
      </trkpt>
      <trkpt lat="36.11325" lon="-5.34365">
        <ele>37.98146</ele>
        <time>2021-07-15T13:36:08Z</time>
      </trkpt>
      <trkpt lat="36.11436" lon="-5.34358">
        <ele>38.01837</ele>
        <time>2021-07-15T13:36:19Z</time>
      </trkpt>
      <trkpt lat="36.11537" lon="-5.34352">
        <ele>40.10367</ele>
        <time>2021-07-15T13:36:30Z</time>
      </trkpt>
      <trkpt lat="36.11659" lon="-5.34289">
        <ele>41.50955</ele>
        <time>2021-07-15T13:36:41Z</time>
      </trkpt>
      <trkpt lat="36.11748" lon="-5.3422">
        <ele>37.30114</ele>
        <time>2021-07-15T13:36:52Z</time>
      </trkpt>
      <trkpt lat="36.11836" lon="-5.34256">
        <ele>50.45318</ele>
        <time>2021-07-15T13:37:03Z</time>
      </trkpt>
      <trkpt lat="36.11912" lon="-5.34271">
        <ele>62.08088</ele>
        <time>2021-07-15T13:37:14Z</time>
      </trkpt>
      <trkpt lat="36.11962" lon="-5.34317">
        <ele>65.08869</ele>
        <time>2021-07-15T13:37:25Z</time>
      </trkpt>
      <trkpt lat="36.12074" lon="-5.34319">
        <ele>60.56669</ele>
        <time>2021-07-15T13:37:36Z</time>
      </trkpt>
      <trkpt lat="36.12188" lon="-5.34246">
        <ele>60.56669</ele>
        <time>2021-07-15T13:37:47Z</time>
      </trkpt>
      <trkpt lat="36.12654" lon="-5.34039">
        <ele>14.92952</ele>
        <time>2021-07-15T13:38:49Z</time>
      </trkpt>
      <trkpt lat="36.1271" lon="-5.3412">
        <ele>12.96759</ele>
        <time>2021-07-15T13:39:00Z</time>
      </trkpt>
      <trkpt lat="36.12736" lon="-5.34134">
        <ele>23.09937</ele>
        <time>2021-07-15T13:39:11Z</time>
      </trkpt>
      <trkpt lat="36.12734" lon="-5.34129">
        <ele>43.29259</ele>
        <time>2021-07-15T13:39:23Z</time>
      </trkpt>
      <trkpt lat="36.12737" lon="-5.34132">
        <ele>38.78082</ele>
        <time>2021-07-15T13:39:58Z</time>
      </trkpt>
      <trkpt lat="36.12734" lon="-5.34128">
        <ele>43.41729</ele>
        <time>2021-07-15T13:40:19Z</time>
      </trkpt>
      <trkpt lat="36.12728" lon="-5.34121">
        <ele>36.25075</ele>
        <time>2021-07-15T13:40:44Z</time>
      </trkpt>
      <trkpt lat="36.12661" lon="-5.34047">
        <ele>29.72251</ele>
        <time>2021-07-15T13:40:55Z</time>
      </trkpt>
      <trkpt lat="36.12576" lon="-5.34069">
        <ele>32.30644</ele>
        <time>2021-07-15T13:41:06Z</time>
      </trkpt>
      <trkpt lat="36.12489" lon="-5.34131">
        <ele>35.28924</ele>
        <time>2021-07-15T13:41:17Z</time>
      </trkpt>
      <trkpt lat="36.12392" lon="-5.34165">
        <ele>40.45163</ele>
        <time>2021-07-15T13:41:28Z</time>
      </trkpt>
      <trkpt lat="36.12288" lon="-5.34206">
        <ele>40.45163</ele>
        <time>2021-07-15T13:41:39Z</time>
      </trkpt>
      <trkpt lat="36.12183" lon="-5.34251">
        <ele>40.45163</ele>
        <time>2021-07-15T13:41:50Z</time>
      </trkpt>
      <trkpt lat="36.12088" lon="-5.34318">
        <ele>40.45163</ele>
        <time>2021-07-15T13:42:01Z</time>
      </trkpt>
      <trkpt lat="36.11978" lon="-5.34329">
        <ele>40.45163</ele>
        <time>2021-07-15T13:42:12Z</time>
      </trkpt>
      <trkpt lat="36.11909" lon="-5.34285">
        <ele>29.23601</ele>
        <time>2021-07-15T13:42:23Z</time>
      </trkpt>
      <trkpt lat="36.11818" lon="-5.3426">
        <ele>40.8787</ele>
        <time>2021-07-15T13:42:34Z</time>
      </trkpt>
      <trkpt lat="36.11732" lon="-5.34229">
        <ele>6.349636</ele>
        <time>2021-07-15T13:42:45Z</time>
      </trkpt>
      <trkpt lat="36.11686" lon="-5.34271">
        <ele>10.08885</ele>
        <time>2021-07-15T13:42:56Z</time>
      </trkpt>
      <trkpt lat="36.11637" lon="-5.3431">
        <ele>10.55763</ele>
        <time>2021-07-15T13:43:07Z</time>
      </trkpt>
      <trkpt lat="36.11547" lon="-5.34357">
        <ele>9.181592</ele>
        <time>2021-07-15T13:43:18Z</time>
      </trkpt>
      <trkpt lat="36.1145" lon="-5.3437">
        <ele>7.950316</ele>
        <time>2021-07-15T13:43:29Z</time>
      </trkpt>
      <trkpt lat="36.11357" lon="-5.34374">
        <ele>8.468312</ele>
        <time>2021-07-15T13:43:40Z</time>
      </trkpt>
      <trkpt lat="36.11269" lon="-5.34421">
        <ele>12.76002</ele>
        <time>2021-07-15T13:43:51Z</time>
      </trkpt>
      <trkpt lat="36.11241" lon="-5.34518">
        <ele>23.67212</ele>
        <time>2021-07-15T13:44:02Z</time>
      </trkpt>
      <trkpt lat="36.11176" lon="-5.34523">
        <ele>26.41443</ele>
        <time>2021-07-15T13:44:13Z</time>
      </trkpt>
      <trkpt lat="36.11077" lon="-5.34526">
        <ele>17.71546</ele>
        <time>2021-07-15T13:44:24Z</time>
      </trkpt>
      <trkpt lat="36.11023" lon="-5.34542">
        <ele>16.6031</ele>
        <time>2021-07-15T13:44:35Z</time>
      </trkpt>
      <trkpt lat="36.11026" lon="-5.34525">
        <ele>14.03768</ele>
        <time>2021-07-15T13:44:46Z</time>
      </trkpt>
      <trkpt lat="36.11025" lon="-5.34526">
        <ele>12.83841</ele>
        <time>2021-07-15T13:45:46Z</time>
      </trkpt>
      <trkpt lat="36.11028" lon="-5.34523">
        <ele>10.02232</ele>
        <time>2021-07-15T13:46:11Z</time>
      </trkpt>
      <trkpt lat="36.11024" lon="-5.34526">
        <ele>10.83044</ele>
        <time>2021-07-15T13:46:22Z</time>
      </trkpt>
      <trkpt lat="36.11008" lon="-5.34518">
        <ele>12.57631</ele>
        <time>2021-07-15T13:46:33Z</time>
      </trkpt>
      <trkpt lat="36.11001" lon="-5.34513">
        <ele>12.92754</ele>
        <time>2021-07-15T13:46:44Z</time>
      </trkpt>
      <trkpt lat="36.11002" lon="-5.34518">
        <ele>11.67121</ele>
        <time>2021-07-15T13:47:20Z</time>
      </trkpt>
      <trkpt lat="36.11006" lon="-5.34518">
        <ele>14.00224</ele>
        <time>2021-07-15T13:47:32Z</time>
      </trkpt>
      <trkpt lat="36.11004" lon="-5.3453">
        <ele>12.35013</ele>
        <time>2021-07-15T13:47:43Z</time>
      </trkpt>
      <trkpt lat="36.10997" lon="-5.34539">
        <ele>17.32935</ele>
        <time>2021-07-15T13:47:54Z</time>
      </trkpt>
      <trkpt lat="36.1099" lon="-5.34551">
        <ele>19.28413</ele>
        <time>2021-07-15T13:48:05Z</time>
      </trkpt>
      <trkpt lat="36.10984" lon="-5.34562">
        <ele>22.1409</ele>
        <time>2021-07-15T13:48:16Z</time>
      </trkpt>
      <trkpt lat="36.10988" lon="-5.3457">
        <ele>23.92908</ele>
        <time>2021-07-15T13:48:27Z</time>
      </trkpt>
      <trkpt lat="36.11" lon="-5.34573">
        <ele>25.15014</ele>
        <time>2021-07-15T13:48:38Z</time>
      </trkpt>
      <trkpt lat="36.10996" lon="-5.34584">
        <ele>28.82655</ele>
        <time>2021-07-15T13:48:49Z</time>
      </trkpt>
      <trkpt lat="36.10986" lon="-5.34582">
        <ele>25.70835</ele>
        <time>2021-07-15T13:49:00Z</time>
      </trkpt>
      <trkpt lat="36.10971" lon="-5.3458">
        <ele>26.13263</ele>
        <time>2021-07-15T13:49:11Z</time>
      </trkpt>
      <trkpt lat="36.10959" lon="-5.34579">
        <ele>21.10267</ele>
        <time>2021-07-15T13:49:22Z</time>
      </trkpt>
      <trkpt lat="36.10956" lon="-5.34582">
        <ele>18.92921</ele>
        <time>2021-07-15T13:49:42Z</time>
      </trkpt>
      <trkpt lat="36.10956" lon="-5.34587">
        <ele>19.6025</ele>
        <time>2021-07-15T13:50:20Z</time>
      </trkpt>
      <trkpt lat="36.10949" lon="-5.34593">
        <ele>18.32301</ele>
        <time>2021-07-15T13:50:31Z</time>
      </trkpt>
      <trkpt lat="36.10947" lon="-5.34608">
        <ele>21.88877</ele>
        <time>2021-07-15T13:50:42Z</time>
      </trkpt>
      <trkpt lat="36.10947" lon="-5.34622">
        <ele>25.24862</ele>
        <time>2021-07-15T13:50:53Z</time>
      </trkpt>
      <trkpt lat="36.10952" lon="-5.34625">
        <ele>26.22552</ele>
        <time>2021-07-15T13:51:04Z</time>
      </trkpt>
      <trkpt lat="36.10956" lon="-5.34625">
        <ele>31.27639</ele>
        <time>2021-07-15T13:51:15Z</time>
      </trkpt>
      <trkpt lat="36.10952" lon="-5.34623">
        <ele>25.69081</ele>
        <time>2021-07-15T13:51:55Z</time>
      </trkpt>
      <trkpt lat="36.10945" lon="-5.34632">
        <ele>26.60995</ele>
        <time>2021-07-15T13:52:06Z</time>
      </trkpt>
      <trkpt lat="36.10949" lon="-5.34646">
        <ele>24.92721</ele>
        <time>2021-07-15T13:52:17Z</time>
      </trkpt>
      <trkpt lat="36.10944" lon="-5.34645">
        <ele>26.77163</ele>
        <time>2021-07-15T13:52:28Z</time>
      </trkpt>
      <trkpt lat="36.10945" lon="-5.3465">
        <ele>25.06843</ele>
        <time>2021-07-15T13:52:45Z</time>
      </trkpt>
      <trkpt lat="36.10949" lon="-5.34647">
        <ele>26.93089</ele>
        <time>2021-07-15T13:53:06Z</time>
      </trkpt>
      <trkpt lat="36.10957" lon="-5.34655">
        <ele>27.23112</ele>
        <time>2021-07-15T13:53:17Z</time>
      </trkpt>
      <trkpt lat="36.10954" lon="-5.34663">
        <ele>26.44676</ele>
        <time>2021-07-15T13:53:28Z</time>
      </trkpt>
      <trkpt lat="36.10954" lon="-5.34654">
        <ele>24.77829</ele>
        <time>2021-07-15T13:53:39Z</time>
      </trkpt>
      <trkpt lat="36.1095" lon="-5.34655">
        <ele>25.22055</ele>
        <time>2021-07-15T13:53:50Z</time>
      </trkpt>
      <trkpt lat="36.10951" lon="-5.34661">
        <ele>25.6326</ele>
        <time>2021-07-15T13:54:19Z</time>
      </trkpt>
      <trkpt lat="36.10958" lon="-5.34654">
        <ele>25.8201</ele>
        <time>2021-07-15T13:54:30Z</time>
      </trkpt>
      <trkpt lat="36.10949" lon="-5.34641">
        <ele>27.69777</ele>
        <time>2021-07-15T13:54:41Z</time>
      </trkpt>
      <trkpt lat="36.10945" lon="-5.34625">
        <ele>24.15729</ele>
        <time>2021-07-15T13:54:52Z</time>
      </trkpt>
      <trkpt lat="36.1095" lon="-5.34626">
        <ele>29.15447</ele>
        <time>2021-07-15T13:55:03Z</time>
      </trkpt>
      <trkpt lat="36.1096" lon="-5.34624">
        <ele>30.62004</ele>
        <time>2021-07-15T13:55:14Z</time>
      </trkpt>
      <trkpt lat="36.10968" lon="-5.34612">
        <ele>30.62641</ele>
        <time>2021-07-15T13:55:25Z</time>
      </trkpt>
      <trkpt lat="36.10981" lon="-5.34605">
        <ele>32.10744</ele>
        <time>2021-07-15T13:55:36Z</time>
      </trkpt>
      <trkpt lat="36.10992" lon="-5.34609">
        <ele>32.986</ele>
        <time>2021-07-15T13:55:47Z</time>
      </trkpt>
      <trkpt lat="36.11003" lon="-5.34592">
        <ele>30.41536</ele>
        <time>2021-07-15T13:55:58Z</time>
      </trkpt>
      <trkpt lat="36.11007" lon="-5.34581">
        <ele>27.51293</ele>
        <time>2021-07-15T13:56:09Z</time>
      </trkpt>
      <trkpt lat="36.11004" lon="-5.34583">
        <ele>27.36746</ele>
        <time>2021-07-15T13:56:24Z</time>
      </trkpt>
      <trkpt lat="36.11007" lon="-5.34579">
        <ele>28.23722</ele>
        <time>2021-07-15T13:56:42Z</time>
      </trkpt>
      <trkpt lat="36.1101" lon="-5.34579">
        <ele>27.80117</ele>
        <time>2021-07-15T13:57:11Z</time>
      </trkpt>
      <trkpt lat="36.1101" lon="-5.34573">
        <ele>25.66278</ele>
        <time>2021-07-15T13:57:25Z</time>
      </trkpt>
      <trkpt lat="36.1101" lon="-5.3456">
        <ele>20.21703</ele>
        <time>2021-07-15T13:57:36Z</time>
      </trkpt>
      <trkpt lat="36.11009" lon="-5.34544">
        <ele>14.61551</ele>
        <time>2021-07-15T13:57:48Z</time>
      </trkpt>
      <trkpt lat="36.11012" lon="-5.34532">
        <ele>14.93036</ele>
        <time>2021-07-15T13:57:59Z</time>
      </trkpt>
      <trkpt lat="36.11019" lon="-5.34519">
        <ele>9.117267</ele>
        <time>2021-07-15T13:58:10Z</time>
      </trkpt>
      <trkpt lat="36.11022" lon="-5.34519">
        <ele>11.94967</ele>
        <time>2021-07-15T13:58:45Z</time>
      </trkpt>
      <trkpt lat="36.11019" lon="-5.34519">
        <ele>12.91707</ele>
        <time>2021-07-15T13:58:56Z</time>
      </trkpt>
      <trkpt lat="36.11006" lon="-5.34515">
        <ele>13.24845</ele>
        <time>2021-07-15T13:59:07Z</time>
      </trkpt>
      <trkpt lat="36.11" lon="-5.34516">
        <ele>11.63055</ele>
        <time>2021-07-15T13:59:18Z</time>
      </trkpt>
      <trkpt lat="36.11" lon="-5.34521">
        <ele>13.21143</ele>
        <time>2021-07-15T13:59:40Z</time>
      </trkpt>
      <trkpt lat="36.11001" lon="-5.34516">
        <ele>13.12763</ele>
        <time>2021-07-15T14:00:20Z</time>
      </trkpt>
      <trkpt lat="36.11005" lon="-5.34517">
        <ele>13.45938</ele>
        <time>2021-07-15T14:00:42Z</time>
      </trkpt>
      <trkpt lat="36.11017" lon="-5.3452">
        <ele>13.19123</ele>
        <time>2021-07-15T14:00:53Z</time>
      </trkpt>
      <trkpt lat="36.11021" lon="-5.34519">
        <ele>12.02864</ele>
        <time>2021-07-15T14:01:19Z</time>
      </trkpt>
      <trkpt lat="36.11025" lon="-5.34519">
        <ele>15.34005</ele>
        <time>2021-07-15T14:01:40Z</time>
      </trkpt>
      <trkpt lat="36.11027" lon="-5.34518">
        <ele>13.64428</ele>
        <time>2021-07-15T14:02:39Z</time>
      </trkpt>
      <trkpt lat="36.1103" lon="-5.34522">
        <ele>15.47901</ele>
        <time>2021-07-15T14:02:52Z</time>
      </trkpt>
      <trkpt lat="36.11074" lon="-5.34523">
        <ele>16.87443</ele>
        <time>2021-07-15T14:03:03Z</time>
      </trkpt>
      <trkpt lat="36.11103" lon="-5.34522">
        <ele>18.68276</ele>
        <time>2021-07-15T14:03:14Z</time>
      </trkpt>
      <trkpt lat="36.11128" lon="-5.34525">
        <ele>20.37368</ele>
        <time>2021-07-15T14:03:25Z</time>
      </trkpt>
      <trkpt lat="36.11114" lon="-5.34533">
        <ele>21.80061</ele>
        <time>2021-07-15T14:03:36Z</time>
      </trkpt>
      <trkpt lat="36.1111" lon="-5.34534">
        <ele>21.42619</ele>
        <time>2021-07-15T14:04:15Z</time>
      </trkpt>
      <trkpt lat="36.11109" lon="-5.3454">
        <ele>22.14574</ele>
        <time>2021-07-15T14:04:26Z</time>
      </trkpt>
      <trkpt lat="36.11108" lon="-5.34566">
        <ele>24.91357</ele>
        <time>2021-07-15T14:04:37Z</time>
      </trkpt>
      <trkpt lat="36.11101" lon="-5.34569">
        <ele>26.53356</ele>
        <time>2021-07-15T14:04:48Z</time>
      </trkpt>
      <trkpt lat="36.11094" lon="-5.34556">
        <ele>26.34057</ele>
        <time>2021-07-15T14:04:59Z</time>
      </trkpt>
      <trkpt lat="36.11092" lon="-5.34526">
        <ele>20.54943</ele>
        <time>2021-07-15T14:05:10Z</time>
      </trkpt>
      <trkpt lat="36.11159" lon="-5.3452">
        <ele>20.20469</ele>
        <time>2021-07-15T14:05:21Z</time>
      </trkpt>
      <trkpt lat="36.11225" lon="-5.34508">
        <ele>33.90275</ele>
        <time>2021-07-15T14:05:32Z</time>
      </trkpt>
      <trkpt lat="36.11293" lon="-5.34401">
        <ele>13.09259</ele>
        <time>2021-07-15T14:05:43Z</time>
      </trkpt>
      <trkpt lat="36.11393" lon="-5.34373">
        <ele>7.205106</ele>
        <time>2021-07-15T14:05:54Z</time>
      </trkpt>
      <trkpt lat="36.11508" lon="-5.3437">
        <ele>11.91036</ele>
        <time>2021-07-15T14:06:05Z</time>
      </trkpt>
      <trkpt lat="36.11621" lon="-5.34329">
        <ele>15.35743</ele>
        <time>2021-07-15T14:06:16Z</time>
      </trkpt>
      <trkpt lat="36.11708" lon="-5.34257">
        <ele>12.20567</ele>
        <time>2021-07-15T14:06:27Z</time>
      </trkpt>
      <trkpt lat="36.11778" lon="-5.3425">
        <ele>10.4654</ele>
        <time>2021-07-15T14:06:38Z</time>
      </trkpt>
      <trkpt lat="36.11836" lon="-5.34283">
        <ele>15.14786</ele>
        <time>2021-07-15T14:06:49Z</time>
      </trkpt>
      <trkpt lat="36.11859" lon="-5.34283">
        <ele>15.28194</ele>
        <time>2021-07-15T14:07:00Z</time>
      </trkpt>
      <trkpt lat="36.11957" lon="-5.34336">
        <ele>23.92899</ele>
        <time>2021-07-15T14:07:11Z</time>
      </trkpt>
      <trkpt lat="36.11972" lon="-5.3439">
        <ele>26.51734</ele>
        <time>2021-07-15T14:07:22Z</time>
      </trkpt>
      <trkpt lat="36.12589" lon="-5.34048">
        <ele>37.29233</ele>
        <time>2021-07-15T14:09:01Z</time>
      </trkpt>
      <trkpt lat="36.12665" lon="-5.34039">
        <ele>26.85182</ele>
        <time>2021-07-15T14:09:12Z</time>
      </trkpt>
      <trkpt lat="36.12709" lon="-5.34116">
        <ele>20.31903</ele>
        <time>2021-07-15T14:09:23Z</time>
      </trkpt>
      <trkpt lat="36.12781" lon="-5.3416">
        <ele>16.24878</ele>
        <time>2021-07-15T14:09:34Z</time>
      </trkpt>
      <trkpt lat="36.12846" lon="-5.34166">
        <ele>14.39385</ele>
        <time>2021-07-15T14:09:45Z</time>
      </trkpt>
      <trkpt lat="36.12887" lon="-5.3416">
        <ele>15.88729</ele>
        <time>2021-07-15T14:09:56Z</time>
      </trkpt>
      <trkpt lat="36.12889" lon="-5.34164">
        <ele>19.82391</ele>
        <time>2021-07-15T14:10:42Z</time>
      </trkpt>
      <trkpt lat="36.12893" lon="-5.34165">
        <ele>17.78187</ele>
        <time>2021-07-15T14:10:58Z</time>
      </trkpt>
      <trkpt lat="36.1289" lon="-5.34162">
        <ele>21.07161</ele>
        <time>2021-07-15T14:11:11Z</time>
      </trkpt>
      <trkpt lat="36.12889" lon="-5.34159">
        <ele>14.66343</ele>
        <time>2021-07-15T14:12:10Z</time>
      </trkpt>
      <trkpt lat="36.12897" lon="-5.34161">
        <ele>14.92573</ele>
        <time>2021-07-15T14:12:35Z</time>
      </trkpt>
      <trkpt lat="36.12976" lon="-5.34213">
        <ele>15.8123</ele>
        <time>2021-07-15T14:12:46Z</time>
      </trkpt>
      <trkpt lat="36.13072" lon="-5.34207">
        <ele>14.37645</ele>
        <time>2021-07-15T14:12:57Z</time>
      </trkpt>
      <trkpt lat="36.1316" lon="-5.34175">
        <ele>18.07791</ele>
        <time>2021-07-15T14:13:08Z</time>
      </trkpt>
      <trkpt lat="36.13258" lon="-5.34132">
        <ele>18.9536</ele>
        <time>2021-07-15T14:13:19Z</time>
      </trkpt>
      <trkpt lat="36.13349" lon="-5.34102">
        <ele>20.75266</ele>
        <time>2021-07-15T14:13:30Z</time>
      </trkpt>
      <trkpt lat="36.13456" lon="-5.34098">
        <ele>20.64208</ele>
        <time>2021-07-15T14:13:41Z</time>
      </trkpt>
      <trkpt lat="36.13541" lon="-5.34092">
        <ele>22.31032</ele>
        <time>2021-07-15T14:13:52Z</time>
      </trkpt>
      <trkpt lat="36.1366" lon="-5.34098">
        <ele>24.01241</ele>
        <time>2021-07-15T14:14:03Z</time>
      </trkpt>
      <trkpt lat="36.13754" lon="-5.34126">
        <ele>23.24339</ele>
        <time>2021-07-15T14:14:14Z</time>
      </trkpt>
      <trkpt lat="36.13835" lon="-5.34196">
        <ele>22.36753</ele>
        <time>2021-07-15T14:14:25Z</time>
      </trkpt>
      <trkpt lat="36.13932" lon="-5.34206">
        <ele>27.62033</ele>
        <time>2021-07-15T14:14:36Z</time>
      </trkpt>
      <trkpt lat="36.14008" lon="-5.34125">
        <ele>21.7659</ele>
        <time>2021-07-15T14:14:47Z</time>
      </trkpt>
      <trkpt lat="36.14091" lon="-5.34049">
        <ele>18.2607</ele>
        <time>2021-07-15T14:14:58Z</time>
      </trkpt>
      <trkpt lat="36.14193" lon="-5.33989">
        <ele>14.72525</ele>
        <time>2021-07-15T14:15:09Z</time>
      </trkpt>
      <trkpt lat="36.14317" lon="-5.33993">
        <ele>12.14871</ele>
        <time>2021-07-15T14:15:20Z</time>
      </trkpt>
      <trkpt lat="36.1444" lon="-5.34051">
        <ele>10.20875</ele>
        <time>2021-07-15T14:15:31Z</time>
      </trkpt>
      <trkpt lat="36.14525" lon="-5.34131">
        <ele>14.17189</ele>
        <time>2021-07-15T14:15:42Z</time>
      </trkpt>
      <trkpt lat="36.14605" lon="-5.34208">
        <ele>4.860277</ele>
        <time>2021-07-15T14:15:53Z</time>
      </trkpt>
      <trkpt lat="36.14657" lon="-5.34309">
        <ele>5.305607</ele>
        <time>2021-07-15T14:16:04Z</time>
      </trkpt>
      <trkpt lat="36.14699" lon="-5.34431">
        <ele>6.263799</ele>
        <time>2021-07-15T14:16:15Z</time>
      </trkpt>
      <trkpt lat="36.14737" lon="-5.34537">
        <ele>4.291973</ele>
        <time>2021-07-15T14:16:26Z</time>
      </trkpt>
      <trkpt lat="36.14771" lon="-5.34635">
        <ele>4.442293</ele>
        <time>2021-07-15T14:16:37Z</time>
      </trkpt>
      <trkpt lat="36.14816" lon="-5.34748">
        <ele>4.310523</ele>
        <time>2021-07-15T14:16:48Z</time>
      </trkpt>
      <trkpt lat="36.14851" lon="-5.34867">
        <ele>3.732627</ele>
        <time>2021-07-15T14:16:59Z</time>
      </trkpt>
      <trkpt lat="36.14861" lon="-5.34904">
        <ele>3.97383</ele>
        <time>2021-07-15T14:17:10Z</time>
      </trkpt>
      <trkpt lat="36.14879" lon="-5.34915">
        <ele>3.828502</ele>
        <time>2021-07-15T14:17:21Z</time>
      </trkpt>
      <trkpt lat="36.14887" lon="-5.34915">
        <ele>2.858287</ele>
        <time>2021-07-15T14:17:32Z</time>
      </trkpt>
      <trkpt lat="36.14888" lon="-5.34917">
        <ele>2.742151</ele>
        <time>2021-07-15T14:18:32Z</time>
      </trkpt>
      <trkpt lat="36.14888" lon="-5.34916">
        <ele>2.563684</ele>
        <time>2021-07-15T14:19:32Z</time>
      </trkpt>
      <trkpt lat="36.14888" lon="-5.34915">
        <ele>3.010643</ele>
        <time>2021-07-15T14:20:32Z</time>
      </trkpt>
      <trkpt lat="36.14892" lon="-5.34915">
        <ele>2.431397</ele>
        <time>2021-07-15T14:21:05Z</time>
      </trkpt>
      <trkpt lat="36.14888" lon="-5.34913">
        <ele>2.633362</ele>
        <time>2021-07-15T14:21:37Z</time>
      </trkpt>
      <trkpt lat="36.14885" lon="-5.34919">
        <ele>2.844349</ele>
        <time>2021-07-15T14:22:03Z</time>
      </trkpt>
      <trkpt lat="36.14887" lon="-5.34918">
        <ele>2.790402</ele>
        <time>2021-07-15T14:23:03Z</time>
      </trkpt>
      <trkpt lat="36.14889" lon="-5.34914">
        <ele>2.691592</ele>
        <time>2021-07-15T14:23:27Z</time>
      </trkpt>
      <trkpt lat="36.14901" lon="-5.34912">
        <ele>2.920445</ele>
        <time>2021-07-15T14:23:38Z</time>
      </trkpt>
      <trkpt lat="36.1493" lon="-5.34906">
        <ele>4.203228</ele>
        <time>2021-07-15T14:23:49Z</time>
      </trkpt>
      <trkpt lat="36.15003" lon="-5.34883">
        <ele>2.726896</ele>
        <time>2021-07-15T14:24:00Z</time>
      </trkpt>
      <trkpt lat="36.15084" lon="-5.34868">
        <ele>3.248882</ele>
        <time>2021-07-15T14:24:11Z</time>
      </trkpt>
      <trkpt lat="36.15162" lon="-5.3486">
        <ele>1.850841</ele>
        <time>2021-07-15T14:24:22Z</time>
      </trkpt>
      <trkpt lat="36.15227" lon="-5.34856">
        <ele>3.437762</ele>
        <time>2021-07-15T14:24:33Z</time>
      </trkpt>
      <trkpt lat="36.15287" lon="-5.34852">
        <ele>4.566065</ele>
        <time>2021-07-15T14:24:44Z</time>
      </trkpt>
      <trkpt lat="36.15322" lon="-5.34849">
        <ele>4.594113</ele>
        <time>2021-07-15T14:24:55Z</time>
      </trkpt>
      <trkpt lat="36.15339" lon="-5.34847">
        <ele>3.249791</ele>
        <time>2021-07-15T14:25:06Z</time>
      </trkpt>
      <trkpt lat="36.15387" lon="-5.34843">
        <ele>2.789154</ele>
        <time>2021-07-15T14:25:17Z</time>
      </trkpt>
      <trkpt lat="36.15449" lon="-5.34831">
        <ele>3.045424</ele>
        <time>2021-07-15T14:25:28Z</time>
      </trkpt>
      <trkpt lat="36.15468" lon="-5.34775">
        <ele>4.111124</ele>
        <time>2021-07-15T14:25:39Z</time>
      </trkpt>
      <trkpt lat="36.15471" lon="-5.34756">
        <ele>3.18773</ele>
        <time>2021-07-15T14:25:50Z</time>
      </trkpt>
      <trkpt lat="36.15474" lon="-5.34773">
        <ele>3.683303</ele>
        <time>2021-07-15T14:26:01Z</time>
      </trkpt>
      <trkpt lat="36.15475" lon="-5.34763">
        <ele>3.678502</ele>
        <time>2021-07-15T14:26:13Z</time>
      </trkpt>
      <trkpt lat="36.15479" lon="-5.34706">
        <ele>3.50651</ele>
        <time>2021-07-15T14:26:24Z</time>
      </trkpt>
      <trkpt lat="36.15479" lon="-5.34792">
        <ele>3.262177</ele>
        <time>2021-07-15T14:26:35Z</time>
      </trkpt>
      <trkpt lat="36.15487" lon="-5.34809">
        <ele>3.771574</ele>
        <time>2021-07-15T14:26:46Z</time>
      </trkpt>
      <trkpt lat="36.15487" lon="-5.34814">
        <ele>4.499679</ele>
        <time>2021-07-15T14:26:57Z</time>
      </trkpt>
      <trkpt lat="36.15491" lon="-5.34813">
        <ele>4.356686</ele>
        <time>2021-07-15T14:27:08Z</time>
      </trkpt>
      <trkpt lat="36.15498" lon="-5.34807">
        <ele>3.478042</ele>
        <time>2021-07-15T14:27:19Z</time>
      </trkpt>
      <trkpt lat="36.15506" lon="-5.34802">
        <ele>3.987192</ele>
        <time>2021-07-15T14:27:30Z</time>
      </trkpt>
      <trkpt lat="36.15515" lon="-5.348">
        <ele>3.976284</ele>
        <time>2021-07-15T14:27:41Z</time>
      </trkpt>
      <trkpt lat="36.15518" lon="-5.34791">
        <ele>2.535626</ele>
        <time>2021-07-15T14:27:52Z</time>
      </trkpt>
      <trkpt lat="36.1552" lon="-5.34784">
        <ele>2.03681</ele>
        <time>2021-07-15T14:28:03Z</time>
      </trkpt>
      <trkpt lat="36.15517" lon="-5.34774">
        <ele>2.067225</ele>
        <time>2021-07-15T14:28:14Z</time>
      </trkpt>
      <trkpt lat="36.15508" lon="-5.34719">
        <ele>2.880414</ele>
        <time>2021-07-15T14:28:25Z</time>
      </trkpt>
      <trkpt lat="36.15523" lon="-5.34733">
        <ele>3.718145</ele>
        <time>2021-07-15T14:28:36Z</time>
      </trkpt>
      <trkpt lat="36.15586" lon="-5.34751">
        <ele>2.785549</ele>
        <time>2021-07-15T14:28:47Z</time>
      </trkpt>
      <trkpt lat="36.1561" lon="-5.34697">
        <ele>3.666821</ele>
        <time>2021-07-15T14:28:58Z</time>
      </trkpt>
      <trkpt lat="36.15615" lon="-5.3463">
        <ele>3.235567</ele>
        <time>2021-07-15T14:29:09Z</time>
      </trkpt>
      <trkpt lat="36.15626" lon="-5.34696">
        <ele>2.797274</ele>
        <time>2021-07-15T14:29:20Z</time>
      </trkpt>
      <trkpt lat="36.15628" lon="-5.34764">
        <ele>3.372463</ele>
        <time>2021-07-15T14:29:31Z</time>
      </trkpt>
      <trkpt lat="36.15627" lon="-5.34793">
        <ele>4.117295</ele>
        <time>2021-07-15T14:29:42Z</time>
      </trkpt>
      <trkpt lat="36.15628" lon="-5.34818">
        <ele>3.870763</ele>
        <time>2021-07-15T14:29:53Z</time>
      </trkpt>
      <trkpt lat="36.1563" lon="-5.34827">
        <ele>3.630482</ele>
        <time>2021-07-15T14:30:04Z</time>
      </trkpt>
      <trkpt lat="36.1562" lon="-5.34915">
        <ele>4.315604</ele>
        <time>2021-07-15T14:30:15Z</time>
      </trkpt>
      <trkpt lat="36.15615" lon="-5.35057">
        <ele>3.739518</ele>
        <time>2021-07-15T14:30:26Z</time>
      </trkpt>
      <trkpt lat="36.15663" lon="-5.35195">
        <ele>4.047357</ele>
        <time>2021-07-15T14:30:37Z</time>
      </trkpt>
      <trkpt lat="36.15759" lon="-5.35284">
        <ele>1.908972</ele>
        <time>2021-07-15T14:30:48Z</time>
      </trkpt>
      <trkpt lat="36.15805" lon="-5.35306">
        <ele>2.261495</ele>
        <time>2021-07-15T14:30:59Z</time>
      </trkpt>
      <trkpt lat="36.15807" lon="-5.35311">
        <ele>3.111147</ele>
        <time>2021-07-15T14:31:14Z</time>
      </trkpt>
      <trkpt lat="36.15827" lon="-5.35319">
        <ele>2.456516</ele>
        <time>2021-07-15T14:31:25Z</time>
      </trkpt>
      <trkpt lat="36.15848" lon="-5.35323">
        <ele>1.998669</ele>
        <time>2021-07-15T14:31:36Z</time>
      </trkpt>
      <trkpt lat="36.15877" lon="-5.35348">
        <ele>2.710394</ele>
        <time>2021-07-15T14:31:47Z</time>
      </trkpt>
      <trkpt lat="36.15959" lon="-5.35427">
        <ele>4.289603</ele>
        <time>2021-07-15T14:31:58Z</time>
      </trkpt>
      <trkpt lat="36.16075" lon="-5.35528">
        <ele>2.517356</ele>
        <time>2021-07-15T14:32:09Z</time>
      </trkpt>
      <trkpt lat="36.16186" lon="-5.35641">
        <ele>3.280076</ele>
        <time>2021-07-15T14:32:20Z</time>
      </trkpt>
      <trkpt lat="36.16269" lon="-5.35714">
        <ele>3.756941</ele>
        <time>2021-07-15T14:32:31Z</time>
      </trkpt>
      <trkpt lat="36.16349" lon="-5.35846">
        <ele>3.643396</ele>
        <time>2021-07-15T14:32:42Z</time>
      </trkpt>
      <trkpt lat="36.16428" lon="-5.35964">
        <ele>4.742964</ele>
        <time>2021-07-15T14:32:53Z</time>
      </trkpt>
      <trkpt lat="36.1649" lon="-5.36059">
        <ele>3.050185</ele>
        <time>2021-07-15T14:33:04Z</time>
      </trkpt>
      <trkpt lat="36.16557" lon="-5.36207">
        <ele>4.950216</ele>
        <time>2021-07-15T14:33:15Z</time>
      </trkpt>
      <trkpt lat="36.16644" lon="-5.36363">
        <ele>2.861166</ele>
        <time>2021-07-15T14:33:26Z</time>
      </trkpt>
      <trkpt lat="36.16684" lon="-5.36431">
        <ele>3.317614</ele>
        <time>2021-07-15T14:33:37Z</time>
      </trkpt>
      <trkpt lat="36.16668" lon="-5.36456">
        <ele>5.969608</ele>
        <time>2021-07-15T14:33:48Z</time>
      </trkpt>
      <trkpt lat="36.16609" lon="-5.36305">
        <ele>2.323025</ele>
        <time>2021-07-15T14:33:59Z</time>
      </trkpt>
      <trkpt lat="36.16536" lon="-5.36182">
        <ele>0.979694</ele>
        <time>2021-07-15T14:34:10Z</time>
      </trkpt>
      <trkpt lat="36.16525" lon="-5.3617">
        <ele>1.666859</ele>
        <time>2021-07-15T14:34:21Z</time>
      </trkpt>
      <trkpt lat="36.16521" lon="-5.3617">
        <ele>2.238499</ele>
        <time>2021-07-15T14:35:17Z</time>
      </trkpt>
      <trkpt lat="36.1652" lon="-5.36161">
        <ele>2.35588</ele>
        <time>2021-07-15T14:35:31Z</time>
      </trkpt>
      <trkpt lat="36.1646" lon="-5.36071">
        <ele>1.768961</ele>
        <time>2021-07-15T14:35:42Z</time>
      </trkpt>
      <trkpt lat="36.1651" lon="-5.36121">
        <ele>2.868487</ele>
        <time>2021-07-15T14:35:53Z</time>
      </trkpt>
      <trkpt lat="36.16593" lon="-5.36258">
        <ele>3.222007</ele>
        <time>2021-07-15T14:36:04Z</time>
      </trkpt>
      <trkpt lat="36.16651" lon="-5.36367">
        <ele>2.58072</ele>
        <time>2021-07-15T14:36:15Z</time>
      </trkpt>
      <trkpt lat="36.16732" lon="-5.36413">
        <ele>3.270487</ele>
        <time>2021-07-15T14:36:26Z</time>
      </trkpt>
      <trkpt lat="36.16804" lon="-5.36341">
        <ele>3.617505</ele>
        <time>2021-07-15T14:36:37Z</time>
      </trkpt>
      <trkpt lat="36.16913" lon="-5.3634">
        <ele>3.827136</ele>
        <time>2021-07-15T14:36:48Z</time>
      </trkpt>
      <trkpt lat="36.17054" lon="-5.36327">
        <ele>6.174578</ele>
        <time>2021-07-15T14:36:59Z</time>
      </trkpt>
      <trkpt lat="36.17182" lon="-5.36321">
        <ele>7.755415</ele>
        <time>2021-07-15T14:37:10Z</time>
      </trkpt>
      <trkpt lat="36.173" lon="-5.36261">
        <ele>8.343695</ele>
        <time>2021-07-15T14:37:21Z</time>
      </trkpt>
      <trkpt lat="36.17389" lon="-5.36169">
        <ele>7.547907</ele>
        <time>2021-07-15T14:37:32Z</time>
      </trkpt>
      <trkpt lat="36.17425" lon="-5.3612">
        <ele>8.727375</ele>
        <time>2021-07-15T14:37:43Z</time>
      </trkpt>
      <trkpt lat="36.17395" lon="-5.36171">
        <ele>7.690217</ele>
        <time>2021-07-15T14:37:54Z</time>
      </trkpt>
      <trkpt lat="36.17358" lon="-5.36233">
        <ele>7.318618</ele>
        <time>2021-07-15T14:38:05Z</time>
      </trkpt>
      <trkpt lat="36.17392" lon="-5.36264">
        <ele>5.881821</ele>
        <time>2021-07-15T14:38:16Z</time>
      </trkpt>
      <trkpt lat="36.17414" lon="-5.36256">
        <ele>6.914703</ele>
        <time>2021-07-15T14:38:27Z</time>
      </trkpt>
      <trkpt lat="36.17416" lon="-5.36251">
        <ele>9.641757</ele>
        <time>2021-07-15T14:39:04Z</time>
      </trkpt>
      <trkpt lat="36.17415" lon="-5.36256">
        <ele>7.352195</ele>
        <time>2021-07-15T14:39:17Z</time>
      </trkpt>
      <trkpt lat="36.17414" lon="-5.36248">
        <ele>7.56986</ele>
        <time>2021-07-15T14:39:28Z</time>
      </trkpt>
      <trkpt lat="36.1741" lon="-5.36247">
        <ele>7.932132</ele>
        <time>2021-07-15T14:40:09Z</time>
      </trkpt>
      <trkpt lat="36.17412" lon="-5.3624">
        <ele>6.907544</ele>
        <time>2021-07-15T14:40:20Z</time>
      </trkpt>
      <trkpt lat="36.17411" lon="-5.36244">
        <ele>7.566044</ele>
        <time>2021-07-15T14:40:33Z</time>
      </trkpt>
      <trkpt lat="36.17414" lon="-5.3625">
        <ele>7.888458</ele>
        <time>2021-07-15T14:40:44Z</time>
      </trkpt>
      <trkpt lat="36.17414" lon="-5.36255">
        <ele>8.519101</ele>
        <time>2021-07-15T14:41:01Z</time>
      </trkpt>
      <trkpt lat="36.17418" lon="-5.36254">
        <ele>7.541132</ele>
        <time>2021-07-15T14:41:12Z</time>
      </trkpt>
      <trkpt lat="36.17424" lon="-5.36251">
        <ele>8.961062</ele>
        <time>2021-07-15T14:41:23Z</time>
      </trkpt>
      <trkpt lat="36.17421" lon="-5.36249">
        <ele>8.577946</ele>
        <time>2021-07-15T14:41:53Z</time>
      </trkpt>
      <trkpt lat="36.17423" lon="-5.36245">
        <ele>8.657657</ele>
        <time>2021-07-15T14:42:28Z</time>
      </trkpt>
      <trkpt lat="36.17418" lon="-5.36249">
        <ele>7.819039</ele>
        <time>2021-07-15T14:42:39Z</time>
      </trkpt>
      <trkpt lat="36.17417" lon="-5.36244">
        <ele>7.741476</ele>
        <time>2021-07-15T14:42:59Z</time>
      </trkpt>
      <trkpt lat="36.17414" lon="-5.36244">
        <ele>7.009773</ele>
        <time>2021-07-15T14:43:29Z</time>
      </trkpt>
      <trkpt lat="36.17411" lon="-5.36238">
        <ele>7.690833</ele>
        <time>2021-07-15T14:43:40Z</time>
      </trkpt>
      <trkpt lat="36.17414" lon="-5.36241">
        <ele>5.814027</ele>
        <time>2021-07-15T14:44:11Z</time>
      </trkpt>
      <trkpt lat="36.17418" lon="-5.36239">
        <ele>6.870695</ele>
        <time>2021-07-15T14:44:31Z</time>
      </trkpt>
      <trkpt lat="36.17417" lon="-5.36246">
        <ele>8.020859</ele>
        <time>2021-07-15T14:44:42Z</time>
      </trkpt>
      <trkpt lat="36.1742" lon="-5.36248">
        <ele>7.496518</ele>
        <time>2021-07-15T14:45:01Z</time>
      </trkpt>
      <trkpt lat="36.17414" lon="-5.36246">
        <ele>7.719816</ele>
        <time>2021-07-15T14:45:12Z</time>
      </trkpt>
      <trkpt lat="36.17418" lon="-5.36247">
        <ele>7.088882</ele>
        <time>2021-07-15T14:45:32Z</time>
      </trkpt>
      <trkpt lat="36.17414" lon="-5.36247">
        <ele>7.826612</ele>
        <time>2021-07-15T14:46:00Z</time>
      </trkpt>
      <trkpt lat="36.17416" lon="-5.36251">
        <ele>7.255776</ele>
        <time>2021-07-15T14:46:37Z</time>
      </trkpt>
      <trkpt lat="36.17416" lon="-5.36247">
        <ele>8.112085</ele>
        <time>2021-07-15T14:47:00Z</time>
      </trkpt>
      <trkpt lat="36.17419" lon="-5.36244">
        <ele>6.575988</ele>
        <time>2021-07-15T14:47:18Z</time>
      </trkpt>
      <trkpt lat="36.17421" lon="-5.36248">
        <ele>7.42952</ele>
        <time>2021-07-15T14:47:42Z</time>
      </trkpt>
      <trkpt lat="36.17424" lon="-5.36246">
        <ele>7.657123</ele>
        <time>2021-07-15T14:48:01Z</time>
      </trkpt>
      <trkpt lat="36.17421" lon="-5.36249">
        <ele>7.813905</ele>
        <time>2021-07-15T14:48:12Z</time>
      </trkpt>
      <trkpt lat="36.17415" lon="-5.36255">
        <ele>8.096025</ele>
        <time>2021-07-15T14:48:23Z</time>
      </trkpt>
      <trkpt lat="36.17413" lon="-5.36251">
        <ele>7.811008</ele>
        <time>2021-07-15T14:48:36Z</time>
      </trkpt>
      <trkpt lat="36.17413" lon="-5.36253">
        <ele>7.773142</ele>
        <time>2021-07-15T14:49:36Z</time>
      </trkpt>
      <trkpt lat="36.17413" lon="-5.36258">
        <ele>8.197476</ele>
        <time>2021-07-15T14:50:35Z</time>
      </trkpt>
      <trkpt lat="36.17414" lon="-5.36253">
        <ele>8.334812</ele>
        <time>2021-07-15T14:51:00Z</time>
      </trkpt>
      <trkpt lat="36.17413" lon="-5.36258">
        <ele>7.848443</ele>
        <time>2021-07-15T14:51:13Z</time>
      </trkpt>
      <trkpt lat="36.17411" lon="-5.36262">
        <ele>7.91126</ele>
        <time>2021-07-15T14:51:38Z</time>
      </trkpt>
      <trkpt lat="36.17415" lon="-5.3626">
        <ele>7.531916</ele>
        <time>2021-07-15T14:52:08Z</time>
      </trkpt>
      <trkpt lat="36.17414" lon="-5.36255">
        <ele>8.123503</ele>
        <time>2021-07-15T14:52:22Z</time>
      </trkpt>
      <trkpt lat="36.17409" lon="-5.36257">
        <ele>8.423093</ele>
        <time>2021-07-15T14:52:50Z</time>
      </trkpt>
      <trkpt lat="36.17409" lon="-5.36252">
        <ele>7.828972</ele>
        <time>2021-07-15T14:53:09Z</time>
      </trkpt>
      <trkpt lat="36.17412" lon="-5.36255">
        <ele>6.703409</ele>
        <time>2021-07-15T14:53:46Z</time>
      </trkpt>
      <trkpt lat="36.17415" lon="-5.36258">
        <ele>7.695913</ele>
        <time>2021-07-15T14:53:57Z</time>
      </trkpt>
      <trkpt lat="36.17412" lon="-5.36254">
        <ele>8.868148</ele>
        <time>2021-07-15T14:54:25Z</time>
      </trkpt>
      <trkpt lat="36.17413" lon="-5.36251">
        <ele>7.572148</ele>
        <time>2021-07-15T14:55:24Z</time>
      </trkpt>
      <trkpt lat="36.17415" lon="-5.36255">
        <ele>7.700006</ele>
        <time>2021-07-15T14:56:02Z</time>
      </trkpt>
      <trkpt lat="36.17411" lon="-5.36255">
        <ele>8.037277</ele>
        <time>2021-07-15T14:56:28Z</time>
      </trkpt>
      <trkpt lat="36.17411" lon="-5.3625">
        <ele>6.873115</ele>
        <time>2021-07-15T14:56:50Z</time>
      </trkpt>
      <trkpt lat="36.17413" lon="-5.36251">
        <ele>6.948312</ele>
        <time>2021-07-15T14:57:50Z</time>
      </trkpt>
      <trkpt lat="36.1741" lon="-5.36254">
        <ele>7.04015</ele>
        <time>2021-07-15T14:58:19Z</time>
      </trkpt>
      <trkpt lat="36.1741" lon="-5.36259">
        <ele>6.476191</ele>
        <time>2021-07-15T14:58:46Z</time>
      </trkpt>
      <trkpt lat="36.17409" lon="-5.36254">
        <ele>7.452182</ele>
        <time>2021-07-15T14:59:19Z</time>
      </trkpt>
      <trkpt lat="36.17406" lon="-5.36252">
        <ele>7.930678</ele>
        <time>2021-07-15T14:59:37Z</time>
      </trkpt>
      <trkpt lat="36.17407" lon="-5.36256">
        <ele>7.51146</ele>
        <time>2021-07-15T15:00:03Z</time>
      </trkpt>
      <trkpt lat="36.17407" lon="-5.36251">
        <ele>7.387096</ele>
        <time>2021-07-15T15:00:39Z</time>
      </trkpt>
      <trkpt lat="36.17403" lon="-5.36247">
        <ele>8.149605</ele>
        <time>2021-07-15T15:00:50Z</time>
      </trkpt>
      <trkpt lat="36.17407" lon="-5.36249">
        <ele>7.518666</ele>
        <time>2021-07-15T15:01:05Z</time>
      </trkpt>
      <trkpt lat="36.17408" lon="-5.36256">
        <ele>7.396031</ele>
        <time>2021-07-15T15:01:16Z</time>
      </trkpt>
      <trkpt lat="36.17407" lon="-5.36251">
        <ele>7.035931</ele>
        <time>2021-07-15T15:01:29Z</time>
      </trkpt>
      <trkpt lat="36.17409" lon="-5.36247">
        <ele>7.194828</ele>
        <time>2021-07-15T15:01:40Z</time>
      </trkpt>
      <trkpt lat="36.17409" lon="-5.36252">
        <ele>6.385267</ele>
        <time>2021-07-15T15:02:13Z</time>
      </trkpt>
      <trkpt lat="36.17411" lon="-5.36258">
        <ele>7.598396</ele>
        <time>2021-07-15T15:02:30Z</time>
      </trkpt>
      <trkpt lat="36.17412" lon="-5.36251">
        <ele>7.065441</ele>
        <time>2021-07-15T15:02:41Z</time>
      </trkpt>
      <trkpt lat="36.17414" lon="-5.36248">
        <ele>7.742536</ele>
        <time>2021-07-15T15:02:57Z</time>
      </trkpt>
      <trkpt lat="36.1741" lon="-5.36247">
        <ele>7.174801</ele>
        <time>2021-07-15T15:03:15Z</time>
      </trkpt>
      <trkpt lat="36.17408" lon="-5.36243">
        <ele>6.904305</ele>
        <time>2021-07-15T15:03:34Z</time>
      </trkpt>
      <trkpt lat="36.17411" lon="-5.36246">
        <ele>7.473787</ele>
        <time>2021-07-15T15:04:01Z</time>
      </trkpt>
      <trkpt lat="36.17405" lon="-5.36249">
        <ele>7.985142</ele>
        <time>2021-07-15T15:04:12Z</time>
      </trkpt>
      <trkpt lat="36.17408" lon="-5.36252">
        <ele>7.167915</ele>
        <time>2021-07-15T15:04:23Z</time>
      </trkpt>
      <trkpt lat="36.17411" lon="-5.36255">
        <ele>7.067924</ele>
        <time>2021-07-15T15:04:47Z</time>
      </trkpt>
      <trkpt lat="36.17413" lon="-5.3626">
        <ele>6.915024</ele>
        <time>2021-07-15T15:05:27Z</time>
      </trkpt>
      <trkpt lat="36.1741" lon="-5.36258">
        <ele>7.557702</ele>
        <time>2021-07-15T15:06:11Z</time>
      </trkpt>
      <trkpt lat="36.17416" lon="-5.36249">
        <ele>9.012361</ele>
        <time>2021-07-15T15:06:22Z</time>
      </trkpt>
      <trkpt lat="36.17416" lon="-5.36244">
        <ele>7.606486</ele>
        <time>2021-07-15T15:06:52Z</time>
      </trkpt>
      <trkpt lat="36.17413" lon="-5.36247">
        <ele>7.579775</ele>
        <time>2021-07-15T15:07:14Z</time>
      </trkpt>
      <trkpt lat="36.17412" lon="-5.36253">
        <ele>9.919333</ele>
        <time>2021-07-15T15:07:31Z</time>
      </trkpt>
      <trkpt lat="36.17405" lon="-5.36255">
        <ele>8.696917</ele>
        <time>2021-07-15T15:07:42Z</time>
      </trkpt>
      <trkpt lat="36.17409" lon="-5.36264">
        <ele>7.315693</ele>
        <time>2021-07-15T15:07:53Z</time>
      </trkpt>
      <trkpt lat="36.17414" lon="-5.3628">
        <ele>7.484568</ele>
        <time>2021-07-15T15:08:04Z</time>
      </trkpt>
      <trkpt lat="36.17412" lon="-5.36299">
        <ele>7.227572</ele>
        <time>2021-07-15T15:08:15Z</time>
      </trkpt>
      <trkpt lat="36.17413" lon="-5.3631">
        <ele>7.286415</ele>
        <time>2021-07-15T15:08:26Z</time>
      </trkpt>
      <trkpt lat="36.1741" lon="-5.36331">
        <ele>7.63511</ele>
        <time>2021-07-15T15:08:37Z</time>
      </trkpt>
      <trkpt lat="36.17406" lon="-5.36331">
        <ele>7.677662</ele>
        <time>2021-07-15T15:09:06Z</time>
      </trkpt>
      <trkpt lat="36.17397" lon="-5.36321">
        <ele>7.42571</ele>
        <time>2021-07-15T15:09:17Z</time>
      </trkpt>
      <trkpt lat="36.17391" lon="-5.36317">
        <ele>6.956275</ele>
        <time>2021-07-15T15:09:28Z</time>
      </trkpt>
      <trkpt lat="36.17387" lon="-5.3632">
        <ele>5.079848</ele>
        <time>2021-07-15T15:09:40Z</time>
      </trkpt>
      <trkpt lat="36.17402" lon="-5.36318">
        <ele>6.563492</ele>
        <time>2021-07-15T15:09:51Z</time>
      </trkpt>
      <trkpt lat="36.17412" lon="-5.36318">
        <ele>7.585154</ele>
        <time>2021-07-15T15:10:02Z</time>
      </trkpt>
      <trkpt lat="36.17413" lon="-5.36324">
        <ele>7.000045</ele>
        <time>2021-07-15T15:10:13Z</time>
      </trkpt>
      <trkpt lat="36.17408" lon="-5.36323">
        <ele>7.403116</ele>
        <time>2021-07-15T15:10:24Z</time>
      </trkpt>
      <trkpt lat="36.17415" lon="-5.36315">
        <ele>7.325539</ele>
        <time>2021-07-15T15:10:35Z</time>
      </trkpt>
      <trkpt lat="36.17411" lon="-5.36312">
        <ele>7.463535</ele>
        <time>2021-07-15T15:10:46Z</time>
      </trkpt>
      <trkpt lat="36.17407" lon="-5.36321">
        <ele>7.094672</ele>
        <time>2021-07-15T15:10:57Z</time>
      </trkpt>
      <trkpt lat="36.17409" lon="-5.36325">
        <ele>7.202608</ele>
        <time>2021-07-15T15:11:11Z</time>
      </trkpt>
      <trkpt lat="36.17405" lon="-5.36327">
        <ele>6.570711</ele>
        <time>2021-07-15T15:11:29Z</time>
      </trkpt>
      <trkpt lat="36.17406" lon="-5.36334">
        <ele>10.58069</ele>
        <time>2021-07-15T15:11:40Z</time>
      </trkpt>
      <trkpt lat="36.17402" lon="-5.36332">
        <ele>7.384938</ele>
        <time>2021-07-15T15:11:51Z</time>
      </trkpt>
      <trkpt lat="36.17405" lon="-5.36323">
        <ele>7.289427</ele>
        <time>2021-07-15T15:12:02Z</time>
      </trkpt>
      <trkpt lat="36.17408" lon="-5.3632">
        <ele>7.654832</ele>
        <time>2021-07-15T15:12:16Z</time>
      </trkpt>
      <trkpt lat="36.17413" lon="-5.36301">
        <ele>7.010811</ele>
        <time>2021-07-15T15:12:27Z</time>
      </trkpt>
      <trkpt lat="36.17409" lon="-5.36283">
        <ele>6.465219</ele>
        <time>2021-07-15T15:12:38Z</time>
      </trkpt>
      <trkpt lat="36.17408" lon="-5.36272">
        <ele>7.722962</ele>
        <time>2021-07-15T15:12:49Z</time>
      </trkpt>
      <trkpt lat="36.17408" lon="-5.36257">
        <ele>7.613138</ele>
        <time>2021-07-15T15:13:00Z</time>
      </trkpt>
      <trkpt lat="36.17413" lon="-5.36252">
        <ele>8.436723</ele>
        <time>2021-07-15T15:13:11Z</time>
      </trkpt>
      <trkpt lat="36.1741" lon="-5.36248">
        <ele>7.110756</ele>
        <time>2021-07-15T15:13:28Z</time>
      </trkpt>
      <trkpt lat="36.17408" lon="-5.36251">
        <ele>8.030065</ele>
        <time>2021-07-15T15:13:43Z</time>
      </trkpt>
      <trkpt lat="36.17411" lon="-5.36246">
        <ele>8.000166</ele>
        <time>2021-07-15T15:14:06Z</time>
      </trkpt>
      <trkpt lat="36.17415" lon="-5.36242">
        <ele>8.382439</ele>
        <time>2021-07-15T15:14:43Z</time>
      </trkpt>
      <trkpt lat="36.17411" lon="-5.36241">
        <ele>8.124437</ele>
        <time>2021-07-15T15:14:58Z</time>
      </trkpt>
      <trkpt lat="36.17409" lon="-5.36246">
        <ele>7.336959</ele>
        <time>2021-07-15T15:15:09Z</time>
      </trkpt>
      <trkpt lat="36.17406" lon="-5.36249">
        <ele>7.602124</ele>
        <time>2021-07-15T15:16:00Z</time>
      </trkpt>
      <trkpt lat="36.17409" lon="-5.36249">
        <ele>5.462358</ele>
        <time>2021-07-15T15:16:12Z</time>
      </trkpt>
      <trkpt lat="36.1741" lon="-5.36254">
        <ele>4.455786</ele>
        <time>2021-07-15T15:16:23Z</time>
      </trkpt>
      <trkpt lat="36.17412" lon="-5.36258">
        <ele>4.723635</ele>
        <time>2021-07-15T15:16:39Z</time>
      </trkpt>
      <trkpt lat="36.17416" lon="-5.36257">
        <ele>7.293771</ele>
        <time>2021-07-15T15:17:07Z</time>
      </trkpt>
      <trkpt lat="36.17419" lon="-5.36254">
        <ele>6.845094</ele>
        <time>2021-07-15T15:17:19Z</time>
      </trkpt>
      <trkpt lat="36.17412" lon="-5.3625">
        <ele>8.33036</ele>
        <time>2021-07-15T15:17:30Z</time>
      </trkpt>
      <trkpt lat="36.17409" lon="-5.36247">
        <ele>7.992682</ele>
        <time>2021-07-15T15:17:53Z</time>
      </trkpt>
      <trkpt lat="36.17406" lon="-5.3625">
        <ele>7.932933</ele>
        <time>2021-07-15T15:18:11Z</time>
      </trkpt>
      <trkpt lat="36.17407" lon="-5.36246">
        <ele>7.301813</ele>
        <time>2021-07-15T15:18:35Z</time>
      </trkpt>
      <trkpt lat="36.17412" lon="-5.36247">
        <ele>7.360789</ele>
        <time>2021-07-15T15:18:52Z</time>
      </trkpt>
      <trkpt lat="36.17406" lon="-5.36251">
        <ele>7.605903</ele>
        <time>2021-07-15T15:19:03Z</time>
      </trkpt>
      <trkpt lat="36.17401" lon="-5.36251">
        <ele>7.127485</ele>
        <time>2021-07-15T15:19:29Z</time>
      </trkpt>
      <trkpt lat="36.1741" lon="-5.36259">
        <ele>6.910102</ele>
        <time>2021-07-15T15:20:07Z</time>
      </trkpt>
      <trkpt lat="36.17415" lon="-5.36261">
        <ele>7.831416</ele>
        <time>2021-07-15T15:20:29Z</time>
      </trkpt>
      <trkpt lat="36.17409" lon="-5.3626">
        <ele>7.297736</ele>
        <time>2021-07-15T15:20:40Z</time>
      </trkpt>
      <trkpt lat="36.17409" lon="-5.36255">
        <ele>7.607981</ele>
        <time>2021-07-15T15:20:51Z</time>
      </trkpt>
      <trkpt lat="36.17407" lon="-5.3625">
        <ele>7.210755</ele>
        <time>2021-07-15T15:21:02Z</time>
      </trkpt>
      <trkpt lat="36.17409" lon="-5.36246">
        <ele>7.381183</ele>
        <time>2021-07-15T15:21:20Z</time>
      </trkpt>
      <trkpt lat="36.17412" lon="-5.36249">
        <ele>7.353109</ele>
        <time>2021-07-15T15:21:32Z</time>
      </trkpt>
      <trkpt lat="36.17409" lon="-5.3625">
        <ele>7.211853</ele>
        <time>2021-07-15T15:21:52Z</time>
      </trkpt>
      <trkpt lat="36.17411" lon="-5.36254">
        <ele>8.71845</ele>
        <time>2021-07-15T15:22:06Z</time>
      </trkpt>
      <trkpt lat="36.17409" lon="-5.36258">
        <ele>5.412694</ele>
        <time>2021-07-15T15:22:20Z</time>
      </trkpt>
      <trkpt lat="36.17404" lon="-5.36255">
        <ele>9.068137</ele>
        <time>2021-07-15T15:22:31Z</time>
      </trkpt>
      <trkpt lat="36.17403" lon="-5.3625">
        <ele>8.262908</ele>
        <time>2021-07-15T15:23:14Z</time>
      </trkpt>
      <trkpt lat="36.17409" lon="-5.36249">
        <ele>7.950534</ele>
        <time>2021-07-15T15:23:25Z</time>
      </trkpt>
      <trkpt lat="36.17412" lon="-5.36255">
        <ele>7.549813</ele>
        <time>2021-07-15T15:23:36Z</time>
      </trkpt>
      <trkpt lat="36.17413" lon="-5.36261">
        <ele>7.874468</ele>
        <time>2021-07-15T15:23:47Z</time>
      </trkpt>
      <trkpt lat="36.17417" lon="-5.36262">
        <ele>6.505447</ele>
        <time>2021-07-15T15:23:58Z</time>
      </trkpt>
      <trkpt lat="36.1742" lon="-5.36261">
        <ele>8.045082</ele>
        <time>2021-07-15T15:24:14Z</time>
      </trkpt>
      <trkpt lat="36.17417" lon="-5.36259">
        <ele>8.425919</ele>
        <time>2021-07-15T15:24:32Z</time>
      </trkpt>
      <trkpt lat="36.17414" lon="-5.36262">
        <ele>8.161399</ele>
        <time>2021-07-15T15:25:19Z</time>
      </trkpt>
      <trkpt lat="36.1742" lon="-5.36255">
        <ele>8.059847</ele>
        <time>2021-07-15T15:25:48Z</time>
      </trkpt>
      <trkpt lat="36.17419" lon="-5.36232">
        <ele>9.703266</ele>
        <time>2021-07-15T15:25:59Z</time>
      </trkpt>
      <trkpt lat="36.17404" lon="-5.36185">
        <ele>7.298954</ele>
        <time>2021-07-15T15:26:10Z</time>
      </trkpt>
      <trkpt lat="36.1743" lon="-5.36189">
        <ele>7.868526</ele>
        <time>2021-07-15T15:26:21Z</time>
      </trkpt>
      <trkpt lat="36.17431" lon="-5.36193">
        <ele>7.925777</ele>
        <time>2021-07-15T15:27:20Z</time>
      </trkpt>
      <trkpt lat="36.17432" lon="-5.36186">
        <ele>7.329801</ele>
        <time>2021-07-15T15:27:37Z</time>
      </trkpt>
      <trkpt lat="36.17428" lon="-5.36189">
        <ele>7.78572</ele>
        <time>2021-07-15T15:28:08Z</time>
      </trkpt>
      <trkpt lat="36.17431" lon="-5.36193">
        <ele>7.574224</ele>
        <time>2021-07-15T15:28:26Z</time>
      </trkpt>
      <trkpt lat="36.17435" lon="-5.36203">
        <ele>8.064225</ele>
        <time>2021-07-15T15:28:54Z</time>
      </trkpt>
      <trkpt lat="36.17442" lon="-5.36213">
        <ele>7.95847</ele>
        <time>2021-07-15T15:29:05Z</time>
      </trkpt>
      <trkpt lat="36.17438" lon="-5.36212">
        <ele>7.930103</ele>
        <time>2021-07-15T15:29:43Z</time>
      </trkpt>
      <trkpt lat="36.17435" lon="-5.36209">
        <ele>8.04719</ele>
        <time>2021-07-15T15:29:54Z</time>
      </trkpt>
      <trkpt lat="36.17437" lon="-5.36214">
        <ele>7.90481</ele>
        <time>2021-07-15T15:30:05Z</time>
      </trkpt>
      <trkpt lat="36.1742" lon="-5.36246">
        <ele>8.258277</ele>
        <time>2021-07-15T15:30:16Z</time>
      </trkpt>
      <trkpt lat="36.17381" lon="-5.36289">
        <ele>7.11977</ele>
        <time>2021-07-15T15:30:27Z</time>
      </trkpt>
      <trkpt lat="36.17352" lon="-5.36261">
        <ele>5.802046</ele>
        <time>2021-07-15T15:30:38Z</time>
      </trkpt>
      <trkpt lat="36.17341" lon="-5.36242">
        <ele>5.353387</ele>
        <time>2021-07-15T15:30:49Z</time>
      </trkpt>
      <trkpt lat="36.17287" lon="-5.36277">
        <ele>6.73006</ele>
        <time>2021-07-15T15:31:00Z</time>
      </trkpt>
      <trkpt lat="36.1723" lon="-5.36331">
        <ele>6.433736</ele>
        <time>2021-07-15T15:31:11Z</time>
      </trkpt>
      <trkpt lat="36.17308" lon="-5.36246">
        <ele>6.954383</ele>
        <time>2021-07-15T15:31:22Z</time>
      </trkpt>
      <trkpt lat="36.17394" lon="-5.3616">
        <ele>7.176965</ele>
        <time>2021-07-15T15:31:33Z</time>
      </trkpt>
      <trkpt lat="36.17422" lon="-5.36127">
        <ele>7.655356</ele>
        <time>2021-07-15T15:31:44Z</time>
      </trkpt>
      <trkpt lat="36.17475" lon="-5.36177">
        <ele>8.967225</ele>
        <time>2021-07-15T15:31:55Z</time>
      </trkpt>
      <trkpt lat="36.17546" lon="-5.36318">
        <ele>8.844913</ele>
        <time>2021-07-15T15:32:06Z</time>
      </trkpt>
      <trkpt lat="36.17622" lon="-5.36491">
        <ele>10.29719</ele>
        <time>2021-07-15T15:32:17Z</time>
      </trkpt>
      <trkpt lat="36.17696" lon="-5.36662">
        <ele>11.20582</ele>
        <time>2021-07-15T15:32:28Z</time>
      </trkpt>
      <trkpt lat="36.17762" lon="-5.36818">
        <ele>12.76672</ele>
        <time>2021-07-15T15:32:39Z</time>
      </trkpt>
      <trkpt lat="36.17793" lon="-5.36893">
        <ele>12.94171</ele>
        <time>2021-07-15T15:32:50Z</time>
      </trkpt>
      <trkpt lat="36.17748" lon="-5.3701">
        <ele>15.48263</ele>
        <time>2021-07-15T15:33:01Z</time>
      </trkpt>
      <trkpt lat="36.17804" lon="-5.37151">
        <ele>19.01549</ele>
        <time>2021-07-15T15:33:12Z</time>
      </trkpt>
      <trkpt lat="36.17882" lon="-5.37296">
        <ele>20.63316</ele>
        <time>2021-07-15T15:33:23Z</time>
      </trkpt>
      <trkpt lat="36.17978" lon="-5.37478">
        <ele>25.45418</ele>
        <time>2021-07-15T15:33:34Z</time>
      </trkpt>
      <trkpt lat="36.18069" lon="-5.37626">
        <ele>23.35542</ele>
        <time>2021-07-15T15:33:45Z</time>
      </trkpt>
      <trkpt lat="36.18153" lon="-5.3769">
        <ele>19.77096</ele>
        <time>2021-07-15T15:33:56Z</time>
      </trkpt>
      <trkpt lat="36.18154" lon="-5.37823">
        <ele>10.7347</ele>
        <time>2021-07-15T15:34:07Z</time>
      </trkpt>
      <trkpt lat="36.18214" lon="-5.37959">
        <ele>5.625294</ele>
        <time>2021-07-15T15:34:18Z</time>
      </trkpt>
      <trkpt lat="36.18275" lon="-5.38095">
        <ele>5.074272</ele>
        <time>2021-07-15T15:34:29Z</time>
      </trkpt>
      <trkpt lat="36.18439" lon="-5.382">
        <ele>6.861711</ele>
        <time>2021-07-15T15:34:40Z</time>
      </trkpt>
      <trkpt lat="36.186" lon="-5.38335">
        <ele>5.951627</ele>
        <time>2021-07-15T15:34:51Z</time>
      </trkpt>
      <trkpt lat="36.18766" lon="-5.38485">
        <ele>7.982855</ele>
        <time>2021-07-15T15:35:02Z</time>
      </trkpt>
      <trkpt lat="36.18956" lon="-5.38578">
        <ele>6.638427</ele>
        <time>2021-07-15T15:35:13Z</time>
      </trkpt>
      <trkpt lat="36.19111" lon="-5.38519">
        <ele>5.754272</ele>
        <time>2021-07-15T15:35:24Z</time>
      </trkpt>
      <trkpt lat="36.19231" lon="-5.38474">
        <ele>6.950606</ele>
        <time>2021-07-15T15:35:35Z</time>
      </trkpt>
      <trkpt lat="36.19394" lon="-5.38406">
        <ele>10.21859</ele>
        <time>2021-07-15T15:35:46Z</time>
      </trkpt>
      <trkpt lat="36.19579" lon="-5.38321">
        <ele>14.46029</ele>
        <time>2021-07-15T15:35:57Z</time>
      </trkpt>
      <trkpt lat="36.19789" lon="-5.38246">
        <ele>20.88921</ele>
        <time>2021-07-15T15:36:08Z</time>
      </trkpt>
      <trkpt lat="36.20004" lon="-5.38291">
        <ele>35.5536</ele>
        <time>2021-07-15T15:36:19Z</time>
      </trkpt>
      <trkpt lat="36.20227" lon="-5.38354">
        <ele>50.87592</ele>
        <time>2021-07-15T15:36:30Z</time>
      </trkpt>
      <trkpt lat="36.20445" lon="-5.38416">
        <ele>65.3007</ele>
        <time>2021-07-15T15:36:41Z</time>
      </trkpt>
      <trkpt lat="36.20602" lon="-5.38431">
        <ele>61.16809</ele>
        <time>2021-07-15T15:36:52Z</time>
      </trkpt>
      <trkpt lat="36.20708" lon="-5.38531">
        <ele>63.0748</ele>
        <time>2021-07-15T15:37:03Z</time>
      </trkpt>
      <trkpt lat="36.20776" lon="-5.38736">
        <ele>62.04634</ele>
        <time>2021-07-15T15:37:14Z</time>
      </trkpt>
      <trkpt lat="36.20774" lon="-5.38974">
        <ele>51.25642</ele>
        <time>2021-07-15T15:37:25Z</time>
      </trkpt>
      <trkpt lat="36.20738" lon="-5.39213">
        <ele>42.97095</ele>
        <time>2021-07-15T15:37:36Z</time>
      </trkpt>
      <trkpt lat="36.20705" lon="-5.39471">
        <ele>36.03135</ele>
        <time>2021-07-15T15:37:47Z</time>
      </trkpt>
      <trkpt lat="36.20737" lon="-5.39749">
        <ele>24.06971</ele>
        <time>2021-07-15T15:37:58Z</time>
      </trkpt>
      <trkpt lat="36.20788" lon="-5.3999">
        <ele>18.69899</ele>
        <time>2021-07-15T15:38:09Z</time>
      </trkpt>
      <trkpt lat="36.20851" lon="-5.40038">
        <ele>14.38072</ele>
        <time>2021-07-15T15:38:20Z</time>
      </trkpt>
      <trkpt lat="36.20944" lon="-5.39928">
        <ele>14.50183</ele>
        <time>2021-07-15T15:38:31Z</time>
      </trkpt>
      <trkpt lat="36.21031" lon="-5.39811">
        <ele>20.5808</ele>
        <time>2021-07-15T15:38:42Z</time>
      </trkpt>
      <trkpt lat="36.21146" lon="-5.39731">
        <ele>25.46114</ele>
        <time>2021-07-15T15:38:53Z</time>
      </trkpt>
      <trkpt lat="36.21261" lon="-5.3971">
        <ele>33.84555</ele>
        <time>2021-07-15T15:39:04Z</time>
      </trkpt>
      <trkpt lat="36.21319" lon="-5.39799">
        <ele>24.33896</ele>
        <time>2021-07-15T15:39:15Z</time>
      </trkpt>
      <trkpt lat="36.21403" lon="-5.39738">
        <ele>17.03086</ele>
        <time>2021-07-15T15:39:26Z</time>
      </trkpt>
      <trkpt lat="36.2149" lon="-5.39718">
        <ele>14.67449</ele>
        <time>2021-07-15T15:39:37Z</time>
      </trkpt>
      <trkpt lat="36.21599" lon="-5.39732">
        <ele>25.75545</ele>
        <time>2021-07-15T15:39:48Z</time>
      </trkpt>
      <trkpt lat="36.21696" lon="-5.39668">
        <ele>33.74217</ele>
        <time>2021-07-15T15:39:59Z</time>
      </trkpt>
      <trkpt lat="36.21747" lon="-5.39576">
        <ele>38.93948</ele>
        <time>2021-07-15T15:40:10Z</time>
      </trkpt>
      <trkpt lat="36.21768" lon="-5.39589">
        <ele>38.65513</ele>
        <time>2021-07-15T15:40:21Z</time>
      </trkpt>
      <trkpt lat="36.21864" lon="-5.39676">
        <ele>28.14582</ele>
        <time>2021-07-15T15:40:32Z</time>
      </trkpt>
      <trkpt lat="36.22023" lon="-5.396">
        <ele>22.74406</ele>
        <time>2021-07-15T15:40:43Z</time>
      </trkpt>
      <trkpt lat="36.2219" lon="-5.3951">
        <ele>24.96856</ele>
        <time>2021-07-15T15:40:54Z</time>
      </trkpt>
      <trkpt lat="36.22357" lon="-5.39526">
        <ele>24.80125</ele>
        <time>2021-07-15T15:41:05Z</time>
      </trkpt>
      <trkpt lat="36.2252" lon="-5.3966">
        <ele>24.75996</ele>
        <time>2021-07-15T15:41:16Z</time>
      </trkpt>
      <trkpt lat="36.22691" lon="-5.39756">
        <ele>28.49728</ele>
        <time>2021-07-15T15:41:27Z</time>
      </trkpt>
      <trkpt lat="36.22861" lon="-5.3977">
        <ele>32.42626</ele>
        <time>2021-07-15T15:41:38Z</time>
      </trkpt>
      <trkpt lat="36.23029" lon="-5.39802">
        <ele>33.54301</ele>
        <time>2021-07-15T15:41:49Z</time>
      </trkpt>
      <trkpt lat="36.23172" lon="-5.39877">
        <ele>33.10755</ele>
        <time>2021-07-15T15:42:00Z</time>
      </trkpt>
      <trkpt lat="36.23213" lon="-5.39988">
        <ele>29.70463</ele>
        <time>2021-07-15T15:42:11Z</time>
      </trkpt>
      <trkpt lat="36.23312" lon="-5.39912">
        <ele>28.34358</ele>
        <time>2021-07-15T15:42:22Z</time>
      </trkpt>
      <trkpt lat="36.23463" lon="-5.3999">
        <ele>44.19686</ele>
        <time>2021-07-15T15:42:33Z</time>
      </trkpt>
      <trkpt lat="36.23621" lon="-5.40077">
        <ele>50.07461</ele>
        <time>2021-07-15T15:42:44Z</time>
      </trkpt>
      <trkpt lat="36.23672" lon="-5.4024">
        <ele>52.5527</ele>
        <time>2021-07-15T15:42:55Z</time>
      </trkpt>
      <trkpt lat="36.23796" lon="-5.40427">
        <ele>53.07572</ele>
        <time>2021-07-15T15:43:06Z</time>
      </trkpt>
      <trkpt lat="36.23915" lon="-5.40624">
        <ele>53.88269</ele>
        <time>2021-07-15T15:43:17Z</time>
      </trkpt>
      <trkpt lat="36.24015" lon="-5.40884">
        <ele>57.59824</ele>
        <time>2021-07-15T15:43:28Z</time>
      </trkpt>
      <trkpt lat="36.24089" lon="-5.41087">
        <ele>60.67164</ele>
        <time>2021-07-15T15:43:39Z</time>
      </trkpt>
      <trkpt lat="36.24009" lon="-5.41232">
        <ele>58.24403</ele>
        <time>2021-07-15T15:43:50Z</time>
      </trkpt>
      <trkpt lat="36.23928" lon="-5.41369">
        <ele>57.31884</ele>
        <time>2021-07-15T15:44:01Z</time>
      </trkpt>
      <trkpt lat="36.23992" lon="-5.41482">
        <ele>59.86524</ele>
        <time>2021-07-15T15:44:12Z</time>
      </trkpt>
      <trkpt lat="36.2416" lon="-5.41537">
        <ele>60.92592</ele>
        <time>2021-07-15T15:44:23Z</time>
      </trkpt>
      <trkpt lat="36.24334" lon="-5.41589">
        <ele>60.36647</ele>
        <time>2021-07-15T15:44:34Z</time>
      </trkpt>
      <trkpt lat="36.24468" lon="-5.41554">
        <ele>68.62143</ele>
        <time>2021-07-15T15:44:45Z</time>
      </trkpt>
      <trkpt lat="36.24569" lon="-5.41462">
        <ele>79.17968</ele>
        <time>2021-07-15T15:44:56Z</time>
      </trkpt>
      <trkpt lat="36.24618" lon="-5.41433">
        <ele>77.18594</ele>
        <time>2021-07-15T15:45:07Z</time>
      </trkpt>
      <trkpt lat="36.24602" lon="-5.41435">
        <ele>81.03947</ele>
        <time>2021-07-15T15:45:18Z</time>
      </trkpt>
      <trkpt lat="36.24626" lon="-5.41433">
        <ele>79.60514</ele>
        <time>2021-07-15T15:45:29Z</time>
      </trkpt>
      <trkpt lat="36.24668" lon="-5.41427">
        <ele>77.94351</ele>
        <time>2021-07-15T15:45:40Z</time>
      </trkpt>
      <trkpt lat="36.24733" lon="-5.41492">
        <ele>77.98889</ele>
        <time>2021-07-15T15:45:51Z</time>
      </trkpt>
      <trkpt lat="36.24788" lon="-5.41509">
        <ele>79.72557</ele>
        <time>2021-07-15T15:46:02Z</time>
      </trkpt>
      <trkpt lat="36.24842" lon="-5.41523">
        <ele>81.01103</ele>
        <time>2021-07-15T15:46:13Z</time>
      </trkpt>
      <trkpt lat="36.2488" lon="-5.41482">
        <ele>85.15126</ele>
        <time>2021-07-15T15:46:24Z</time>
      </trkpt>
      <trkpt lat="36.24901" lon="-5.41384">
        <ele>85.1827</ele>
        <time>2021-07-15T15:46:35Z</time>
      </trkpt>
      <trkpt lat="36.24927" lon="-5.41309">
        <ele>83.06563</ele>
        <time>2021-07-15T15:46:46Z</time>
      </trkpt>
      <trkpt lat="36.24954" lon="-5.4125">
        <ele>84.27841</ele>
        <time>2021-07-15T15:46:57Z</time>
      </trkpt>
      <trkpt lat="36.24976" lon="-5.41187">
        <ele>89.08585</ele>
        <time>2021-07-15T15:47:08Z</time>
      </trkpt>
      <trkpt lat="36.24993" lon="-5.41156">
        <ele>89.03226</ele>
        <time>2021-07-15T15:47:19Z</time>
      </trkpt>
      <trkpt lat="36.24996" lon="-5.41151">
        <ele>85.49806</ele>
        <time>2021-07-15T15:47:35Z</time>
      </trkpt>
      <trkpt lat="36.24999" lon="-5.41147">
        <ele>89.46424</ele>
        <time>2021-07-15T15:47:46Z</time>
      </trkpt>
      <trkpt lat="36.24999" lon="-5.41143">
        <ele>94.81597</ele>
        <time>2021-07-15T15:48:02Z</time>
      </trkpt>
      <trkpt lat="36.25002" lon="-5.41151">
        <ele>89.41859</ele>
        <time>2021-07-15T15:48:13Z</time>
      </trkpt>
      <trkpt lat="36.24996" lon="-5.41171">
        <ele>83.8808</ele>
        <time>2021-07-15T15:48:24Z</time>
      </trkpt>
      <trkpt lat="36.25014" lon="-5.41229">
        <ele>79.72917</ele>
        <time>2021-07-15T15:48:35Z</time>
      </trkpt>
      <trkpt lat="36.25041" lon="-5.41258">
        <ele>78.90206</ele>
        <time>2021-07-15T15:48:46Z</time>
      </trkpt>
      <trkpt lat="36.2507" lon="-5.4129">
        <ele>77.67831</ele>
        <time>2021-07-15T15:48:57Z</time>
      </trkpt>
      <trkpt lat="36.25116" lon="-5.41329">
        <ele>76.84458</ele>
        <time>2021-07-15T15:49:08Z</time>
      </trkpt>
      <trkpt lat="36.25128" lon="-5.41408">
        <ele>77.15815</ele>
        <time>2021-07-15T15:49:19Z</time>
      </trkpt>
      <trkpt lat="36.25145" lon="-5.41529">
        <ele>78.14286</ele>
        <time>2021-07-15T15:49:30Z</time>
      </trkpt>
      <trkpt lat="36.25165" lon="-5.41614">
        <ele>76.7654</ele>
        <time>2021-07-15T15:49:41Z</time>
      </trkpt>
      <trkpt lat="36.25194" lon="-5.41687">
        <ele>75.59385</ele>
        <time>2021-07-15T15:49:52Z</time>
      </trkpt>
      <trkpt lat="36.25193" lon="-5.41767">
        <ele>74.5199</ele>
        <time>2021-07-15T15:50:03Z</time>
      </trkpt>
      <trkpt lat="36.25202" lon="-5.41835">
        <ele>68.1854</ele>
        <time>2021-07-15T15:50:14Z</time>
      </trkpt>
      <trkpt lat="36.25207" lon="-5.41893">
        <ele>68.41851</ele>
        <time>2021-07-15T15:50:25Z</time>
      </trkpt>
      <trkpt lat="36.25217" lon="-5.41948">
        <ele>65.18728</ele>
        <time>2021-07-15T15:50:36Z</time>
      </trkpt>
      <trkpt lat="36.25233" lon="-5.41993">
        <ele>66.43771</ele>
        <time>2021-07-15T15:50:47Z</time>
      </trkpt>
      <trkpt lat="36.25246" lon="-5.42008">
        <ele>66.52859</ele>
        <time>2021-07-15T15:50:58Z</time>
      </trkpt>
      <trkpt lat="36.25251" lon="-5.42013">
        <ele>63.53248</ele>
        <time>2021-07-15T15:51:12Z</time>
      </trkpt>
      <trkpt lat="36.25266" lon="-5.42042">
        <ele>63.41884</ele>
        <time>2021-07-15T15:51:23Z</time>
      </trkpt>
      <trkpt lat="36.25287" lon="-5.4209">
        <ele>66.355</ele>
        <time>2021-07-15T15:51:34Z</time>
      </trkpt>
      <trkpt lat="36.25303" lon="-5.42158">
        <ele>69.11886</ele>
        <time>2021-07-15T15:51:45Z</time>
      </trkpt>
      <trkpt lat="36.25281" lon="-5.42191">
        <ele>65.96574</ele>
        <time>2021-07-15T15:51:56Z</time>
      </trkpt>
      <trkpt lat="36.2526" lon="-5.42213">
        <ele>60.54014</ele>
        <time>2021-07-15T15:52:07Z</time>
      </trkpt>
      <trkpt lat="36.25233" lon="-5.4223">
        <ele>53.48292</ele>
        <time>2021-07-15T15:52:18Z</time>
      </trkpt>
      <trkpt lat="36.25206" lon="-5.42249">
        <ele>51.04888</ele>
        <time>2021-07-15T15:52:29Z</time>
      </trkpt>
      <trkpt lat="36.25186" lon="-5.42293">
        <ele>48.23857</ele>
        <time>2021-07-15T15:52:40Z</time>
      </trkpt>
      <trkpt lat="36.25201" lon="-5.42339">
        <ele>44.82308</ele>
        <time>2021-07-15T15:52:51Z</time>
      </trkpt>
      <trkpt lat="36.25209" lon="-5.42355">
        <ele>48.00155</ele>
        <time>2021-07-15T15:53:02Z</time>
      </trkpt>
      <trkpt lat="36.25209" lon="-5.42359">
        <ele>51.10057</ele>
        <time>2021-07-15T15:53:24Z</time>
      </trkpt>
      <trkpt lat="36.25226" lon="-5.42366">
        <ele>53.07729</ele>
        <time>2021-07-15T15:53:35Z</time>
      </trkpt>
      <trkpt lat="36.25227" lon="-5.4236">
        <ele>49.13898</ele>
        <time>2021-07-15T15:54:13Z</time>
      </trkpt>
      <trkpt lat="36.25282" lon="-5.4228">
        <ele>53.35393</ele>
        <time>2021-07-15T15:54:24Z</time>
      </trkpt>
      <trkpt lat="36.25373" lon="-5.42215">
        <ele>51.6155</ele>
        <time>2021-07-15T15:54:35Z</time>
      </trkpt>
      <trkpt lat="36.25361" lon="-5.42121">
        <ele>51.17609</ele>
        <time>2021-07-15T15:54:46Z</time>
      </trkpt>
      <trkpt lat="36.25343" lon="-5.42048">
        <ele>52.57814</ele>
        <time>2021-07-15T15:54:57Z</time>
      </trkpt>
      <trkpt lat="36.25358" lon="-5.41978">
        <ele>51.47277</ele>
        <time>2021-07-15T15:55:08Z</time>
      </trkpt>
      <trkpt lat="36.25411" lon="-5.4194">
        <ele>50.73587</ele>
        <time>2021-07-15T15:55:19Z</time>
      </trkpt>
      <trkpt lat="36.25519" lon="-5.42003">
        <ele>50.58706</ele>
        <time>2021-07-15T15:55:30Z</time>
      </trkpt>
      <trkpt lat="36.25594" lon="-5.41945">
        <ele>50.551</ele>
        <time>2021-07-15T15:55:41Z</time>
      </trkpt>
      <trkpt lat="36.25594" lon="-5.41737">
        <ele>50.84183</ele>
        <time>2021-07-15T15:55:52Z</time>
      </trkpt>
      <trkpt lat="36.25629" lon="-5.41545">
        <ele>50.4773</ele>
        <time>2021-07-15T15:56:03Z</time>
      </trkpt>
      <trkpt lat="36.25722" lon="-5.41461">
        <ele>53.80983</ele>
        <time>2021-07-15T15:56:14Z</time>
      </trkpt>
      <trkpt lat="36.25836" lon="-5.41499">
        <ele>52.7199</ele>
        <time>2021-07-15T15:56:25Z</time>
      </trkpt>
      <trkpt lat="36.2596" lon="-5.41412">
        <ele>54.66804</ele>
        <time>2021-07-15T15:56:36Z</time>
      </trkpt>
      <trkpt lat="36.26078" lon="-5.4135">
        <ele>52.59723</ele>
        <time>2021-07-15T15:56:47Z</time>
      </trkpt>
      <trkpt lat="36.26218" lon="-5.41396">
        <ele>51.73434</ele>
        <time>2021-07-15T15:56:58Z</time>
      </trkpt>
      <trkpt lat="36.26276" lon="-5.41266">
        <ele>51.33762</ele>
        <time>2021-07-15T15:57:09Z</time>
      </trkpt>
      <trkpt lat="36.26261" lon="-5.4108">
        <ele>49.59029</ele>
        <time>2021-07-15T15:57:20Z</time>
      </trkpt>
      <trkpt lat="36.26345" lon="-5.40958">
        <ele>50.4091</ele>
        <time>2021-07-15T15:57:31Z</time>
      </trkpt>
      <trkpt lat="36.26437" lon="-5.40883">
        <ele>52.02134</ele>
        <time>2021-07-15T15:57:42Z</time>
      </trkpt>
      <trkpt lat="36.26487" lon="-5.40875">
        <ele>55.66426</ele>
        <time>2021-07-15T15:57:53Z</time>
      </trkpt>
      <trkpt lat="36.26519" lon="-5.40818">
        <ele>55.28321</ele>
        <time>2021-07-15T15:58:04Z</time>
      </trkpt>
      <trkpt lat="36.26566" lon="-5.40814">
        <ele>53.47171</ele>
        <time>2021-07-15T15:58:15Z</time>
      </trkpt>
      <trkpt lat="36.26608" lon="-5.4082">
        <ele>56.05482</ele>
        <time>2021-07-15T15:58:26Z</time>
      </trkpt>
      <trkpt lat="36.26648" lon="-5.40813">
        <ele>59.7193</ele>
        <time>2021-07-15T15:58:37Z</time>
      </trkpt>
      <trkpt lat="36.26685" lon="-5.40789">
        <ele>63.55956</ele>
        <time>2021-07-15T15:58:48Z</time>
      </trkpt>
      <trkpt lat="36.26692" lon="-5.40773">
        <ele>67.78342</ele>
        <time>2021-07-15T15:58:59Z</time>
      </trkpt>
      <trkpt lat="36.26693" lon="-5.40768">
        <ele>69.05108</ele>
        <time>2021-07-15T15:59:14Z</time>
      </trkpt>
      <trkpt lat="36.26693" lon="-5.40763">
        <ele>69.35189</ele>
        <time>2021-07-15T15:59:25Z</time>
      </trkpt>
      <trkpt lat="36.26688" lon="-5.40762">
        <ele>71.70538</ele>
        <time>2021-07-15T15:59:36Z</time>
      </trkpt>
      <trkpt lat="36.26691" lon="-5.40766">
        <ele>69.27603</ele>
        <time>2021-07-15T15:59:48Z</time>
      </trkpt>
      <trkpt lat="36.26687" lon="-5.40761">
        <ele>70.34384</ele>
        <time>2021-07-15T16:00:29Z</time>
      </trkpt>
      <trkpt lat="36.26641" lon="-5.40752">
        <ele>75.77261</ele>
        <time>2021-07-15T16:00:40Z</time>
      </trkpt>
      <trkpt lat="36.26606" lon="-5.40735">
        <ele>78.02385</ele>
        <time>2021-07-15T16:00:51Z</time>
      </trkpt>
      <trkpt lat="36.26627" lon="-5.40707">
        <ele>81.95322</ele>
        <time>2021-07-15T16:01:02Z</time>
      </trkpt>
      <trkpt lat="36.26656" lon="-5.40672">
        <ele>82.02867</ele>
        <time>2021-07-15T16:01:13Z</time>
      </trkpt>
      <trkpt lat="36.2668" lon="-5.40642">
        <ele>86.92616</ele>
        <time>2021-07-15T16:01:24Z</time>
      </trkpt>
      <trkpt lat="36.26716" lon="-5.40593">
        <ele>92.50451</ele>
        <time>2021-07-15T16:01:35Z</time>
      </trkpt>
      <trkpt lat="36.26742" lon="-5.40552">
        <ele>95.99021</ele>
        <time>2021-07-15T16:01:46Z</time>
      </trkpt>
      <trkpt lat="36.26775" lon="-5.40513">
        <ele>99.68215</ele>
        <time>2021-07-15T16:01:57Z</time>
      </trkpt>
      <trkpt lat="36.26816" lon="-5.40494">
        <ele>107.5915</ele>
        <time>2021-07-15T16:02:08Z</time>
      </trkpt>
      <trkpt lat="36.26875" lon="-5.40492">
        <ele>111.7868</ele>
        <time>2021-07-15T16:02:19Z</time>
      </trkpt>
      <trkpt lat="36.26927" lon="-5.40495">
        <ele>117.9002</ele>
        <time>2021-07-15T16:02:30Z</time>
      </trkpt>
      <trkpt lat="36.26981" lon="-5.40475">
        <ele>116.7228</ele>
        <time>2021-07-15T16:02:41Z</time>
      </trkpt>
      <trkpt lat="36.26987" lon="-5.40452">
        <ele>125.377</ele>
        <time>2021-07-15T16:02:52Z</time>
      </trkpt>
      <trkpt lat="36.27033" lon="-5.40409">
        <ele>133.0339</ele>
        <time>2021-07-15T16:03:03Z</time>
      </trkpt>
      <trkpt lat="36.2705" lon="-5.40401">
        <ele>130.3011</ele>
        <time>2021-07-15T16:03:14Z</time>
      </trkpt>
      <trkpt lat="36.27058" lon="-5.40409">
        <ele>131.8462</ele>
        <time>2021-07-15T16:03:25Z</time>
      </trkpt>
      <trkpt lat="36.27092" lon="-5.40419">
        <ele>127.2441</ele>
        <time>2021-07-15T16:03:36Z</time>
      </trkpt>
      <trkpt lat="36.27124" lon="-5.40459">
        <ele>129.828</ele>
        <time>2021-07-15T16:03:47Z</time>
      </trkpt>
      <trkpt lat="36.27145" lon="-5.40478">
        <ele>122.0768</ele>
        <time>2021-07-15T16:03:58Z</time>
      </trkpt>
      <trkpt lat="36.27156" lon="-5.4049">
        <ele>118.1243</ele>
        <time>2021-07-15T16:04:09Z</time>
      </trkpt>
      <trkpt lat="36.27171" lon="-5.40513">
        <ele>116.4691</ele>
        <time>2021-07-15T16:04:20Z</time>
      </trkpt>
      <trkpt lat="36.27188" lon="-5.40542">
        <ele>113.7922</ele>
        <time>2021-07-15T16:04:31Z</time>
      </trkpt>
      <trkpt lat="36.27213" lon="-5.40587">
        <ele>113.8009</ele>
        <time>2021-07-15T16:04:42Z</time>
      </trkpt>
      <trkpt lat="36.27218" lon="-5.40601">
        <ele>110.9792</ele>
        <time>2021-07-15T16:04:53Z</time>
      </trkpt>
      <trkpt lat="36.2723" lon="-5.40618">
        <ele>105.9524</ele>
        <time>2021-07-15T16:05:04Z</time>
      </trkpt>
      <trkpt lat="36.27237" lon="-5.40643">
        <ele>102.927</ele>
        <time>2021-07-15T16:05:15Z</time>
      </trkpt>
      <trkpt lat="36.27248" lon="-5.40666">
        <ele>100.2636</ele>
        <time>2021-07-15T16:05:26Z</time>
      </trkpt>
      <trkpt lat="36.2728" lon="-5.4067">
        <ele>91.30782</ele>
        <time>2021-07-15T16:05:37Z</time>
      </trkpt>
      <trkpt lat="36.27286" lon="-5.40672">
        <ele>92.89923</ele>
        <time>2021-07-15T16:05:48Z</time>
      </trkpt>
      <trkpt lat="36.27287" lon="-5.4067">
        <ele>94.59118</ele>
        <time>2021-07-15T16:06:48Z</time>
      </trkpt>
      <trkpt lat="36.27286" lon="-5.40671">
        <ele>92.19659</ele>
        <time>2021-07-15T16:07:48Z</time>
      </trkpt>
      <trkpt lat="36.2729" lon="-5.40672">
        <ele>91.7687</ele>
        <time>2021-07-15T16:08:37Z</time>
      </trkpt>
      <trkpt lat="36.27302" lon="-5.40681">
        <ele>88.68323</ele>
        <time>2021-07-15T16:08:48Z</time>
      </trkpt>
      <trkpt lat="36.27309" lon="-5.40694">
        <ele>86.94243</ele>
        <time>2021-07-15T16:08:59Z</time>
      </trkpt>
      <trkpt lat="36.27316" lon="-5.40706">
        <ele>85.36058</ele>
        <time>2021-07-15T16:09:10Z</time>
      </trkpt>
      <trkpt lat="36.27318" lon="-5.40711">
        <ele>84.63867</ele>
        <time>2021-07-15T16:09:24Z</time>
      </trkpt>
      <trkpt lat="36.27321" lon="-5.40717">
        <ele>83.8131</ele>
        <time>2021-07-15T16:09:35Z</time>
      </trkpt>
      <trkpt lat="36.27323" lon="-5.40721">
        <ele>83.15228</ele>
        <time>2021-07-15T16:09:48Z</time>
      </trkpt>
      <trkpt lat="36.27328" lon="-5.4073">
        <ele>81.29365</ele>
        <time>2021-07-15T16:09:59Z</time>
      </trkpt>
      <trkpt lat="36.27335" lon="-5.40735">
        <ele>80.84417</ele>
        <time>2021-07-15T16:10:10Z</time>
      </trkpt>
      <trkpt lat="36.27339" lon="-5.40734">
        <ele>78.48633</ele>
        <time>2021-07-15T16:10:32Z</time>
      </trkpt>
      <trkpt lat="36.27355" lon="-5.40725">
        <ele>79.10175</ele>
        <time>2021-07-15T16:10:43Z</time>
      </trkpt>
      <trkpt lat="36.27359" lon="-5.40724">
        <ele>80.44175</ele>
        <time>2021-07-15T16:11:28Z</time>
      </trkpt>
      <trkpt lat="36.27364" lon="-5.40726">
        <ele>79.05459</ele>
        <time>2021-07-15T16:11:48Z</time>
      </trkpt>
      <trkpt lat="36.27366" lon="-5.40733">
        <ele>78.56648</ele>
        <time>2021-07-15T16:11:59Z</time>
      </trkpt>
      <trkpt lat="36.27363" lon="-5.40729">
        <ele>78.69295</ele>
        <time>2021-07-15T16:12:10Z</time>
      </trkpt>
      <trkpt lat="36.27346" lon="-5.40683">
        <ele>82.27722</ele>
        <time>2021-07-15T16:12:21Z</time>
      </trkpt>
      <trkpt lat="36.27342" lon="-5.4067">
        <ele>85.42996</ele>
        <time>2021-07-15T16:12:32Z</time>
      </trkpt>
      <trkpt lat="36.27346" lon="-5.40676">
        <ele>83.68435</ele>
        <time>2021-07-15T16:12:51Z</time>
      </trkpt>
      <trkpt lat="36.27353" lon="-5.40702">
        <ele>81.53232</ele>
        <time>2021-07-15T16:13:02Z</time>
      </trkpt>
      <trkpt lat="36.27359" lon="-5.4072">
        <ele>78.20119</ele>
        <time>2021-07-15T16:13:13Z</time>
      </trkpt>
      <trkpt lat="36.27345" lon="-5.40732">
        <ele>78.96358</ele>
        <time>2021-07-15T16:13:24Z</time>
      </trkpt>
      <trkpt lat="36.27343" lon="-5.40743">
        <ele>78.21319</ele>
        <time>2021-07-15T16:13:35Z</time>
      </trkpt>
      <trkpt lat="36.27342" lon="-5.40751">
        <ele>78.99403</ele>
        <time>2021-07-15T16:13:46Z</time>
      </trkpt>
      <trkpt lat="36.27338" lon="-5.40769">
        <ele>79.40602</ele>
        <time>2021-07-15T16:13:57Z</time>
      </trkpt>
      <trkpt lat="36.27338" lon="-5.40792">
        <ele>76.4666</ele>
        <time>2021-07-15T16:14:08Z</time>
      </trkpt>
      <trkpt lat="36.27339" lon="-5.40793">
        <ele>77.42673</ele>
        <time>2021-07-15T16:15:07Z</time>
      </trkpt>
      <trkpt lat="36.27337" lon="-5.40792">
        <ele>79.29167</ele>
        <time>2021-07-15T16:16:07Z</time>
      </trkpt>
      <trkpt lat="36.27337" lon="-5.40792">
        <ele>79.29167</ele>
        <time>2021-07-15T16:17:07Z</time>
      </trkpt>
      <trkpt lat="36.2734" lon="-5.40798">
        <ele>78.91379</ele>
        <time>2021-07-15T16:17:35Z</time>
      </trkpt>
      <trkpt lat="36.27355" lon="-5.40808">
        <ele>78.87931</ele>
        <time>2021-07-15T16:17:46Z</time>
      </trkpt>
      <trkpt lat="36.27363" lon="-5.40824">
        <ele>77.521</ele>
        <time>2021-07-15T16:17:57Z</time>
      </trkpt>
      <trkpt lat="36.2737" lon="-5.40851">
        <ele>74.03614</ele>
        <time>2021-07-15T16:18:08Z</time>
      </trkpt>
      <trkpt lat="36.27393" lon="-5.40914">
        <ele>72.60755</ele>
        <time>2021-07-15T16:18:19Z</time>
      </trkpt>
      <trkpt lat="36.27367" lon="-5.40887">
        <ele>75.36798</ele>
        <time>2021-07-15T16:18:30Z</time>
      </trkpt>
      <trkpt lat="36.27367" lon="-5.40901">
        <ele>75.70075</ele>
        <time>2021-07-15T16:18:41Z</time>
      </trkpt>
      <trkpt lat="36.27366" lon="-5.40908">
        <ele>71.69822</ele>
        <time>2021-07-15T16:19:17Z</time>
      </trkpt>
      <trkpt lat="36.27372" lon="-5.40925">
        <ele>72.06028</ele>
        <time>2021-07-15T16:19:28Z</time>
      </trkpt>
      <trkpt lat="36.27374" lon="-5.40951">
        <ele>72.94552</ele>
        <time>2021-07-15T16:19:39Z</time>
      </trkpt>
      <trkpt lat="36.27382" lon="-5.40977">
        <ele>71.57084</ele>
        <time>2021-07-15T16:19:50Z</time>
      </trkpt>
      <trkpt lat="36.27384" lon="-5.41002">
        <ele>71.55025</ele>
        <time>2021-07-15T16:20:01Z</time>
      </trkpt>
      <trkpt lat="36.27382" lon="-5.41036">
        <ele>70.65413</ele>
        <time>2021-07-15T16:20:12Z</time>
      </trkpt>
      <trkpt lat="36.27381" lon="-5.41071">
        <ele>69.7696</ele>
        <time>2021-07-15T16:20:23Z</time>
      </trkpt>
      <trkpt lat="36.27398" lon="-5.41099">
        <ele>67.91438</ele>
        <time>2021-07-15T16:20:34Z</time>
      </trkpt>
      <trkpt lat="36.27423" lon="-5.41133">
        <ele>65.97042</ele>
        <time>2021-07-15T16:20:45Z</time>
      </trkpt>
      <trkpt lat="36.27431" lon="-5.41145">
        <ele>65.77391</ele>
        <time>2021-07-15T16:20:56Z</time>
      </trkpt>
      <trkpt lat="36.27433" lon="-5.41143">
        <ele>68.02814</ele>
        <time>2021-07-15T16:21:56Z</time>
      </trkpt>
      <trkpt lat="36.27432" lon="-5.41145">
        <ele>65.33454</ele>
        <time>2021-07-15T16:22:56Z</time>
      </trkpt>
      <trkpt lat="36.27433" lon="-5.41146">
        <ele>66.2775</ele>
        <time>2021-07-15T16:23:56Z</time>
      </trkpt>
      <trkpt lat="36.27433" lon="-5.41147">
        <ele>67.02806</ele>
        <time>2021-07-15T16:24:56Z</time>
      </trkpt>
      <trkpt lat="36.27433" lon="-5.41147">
        <ele>67.02806</ele>
        <time>2021-07-15T16:25:56Z</time>
      </trkpt>
      <trkpt lat="36.27433" lon="-5.41147">
        <ele>67.02806</ele>
        <time>2021-07-15T16:26:56Z</time>
      </trkpt>
      <trkpt lat="36.27433" lon="-5.41147">
        <ele>67.02806</ele>
        <time>2021-07-15T16:27:56Z</time>
      </trkpt>
      <trkpt lat="36.27433" lon="-5.41147">
        <ele>67.02806</ele>
        <time>2021-07-15T16:28:56Z</time>
      </trkpt>
      <trkpt lat="36.27433" lon="-5.41144">
        <ele>67.37786</ele>
        <time>2021-07-15T16:29:56Z</time>
      </trkpt>
      <trkpt lat="36.27433" lon="-5.41143">
        <ele>66.99911</ele>
        <time>2021-07-15T16:30:56Z</time>
      </trkpt>
      <trkpt lat="36.27437" lon="-5.41147">
        <ele>66.9489</ele>
        <time>2021-07-15T16:31:22Z</time>
      </trkpt>
      <trkpt lat="36.27457" lon="-5.4117">
        <ele>65.16273</ele>
        <time>2021-07-15T16:31:33Z</time>
      </trkpt>
      <trkpt lat="36.27471" lon="-5.41214">
        <ele>61.41071</ele>
        <time>2021-07-15T16:31:44Z</time>
      </trkpt>
      <trkpt lat="36.27481" lon="-5.4125">
        <ele>58.39422</ele>
        <time>2021-07-15T16:31:55Z</time>
      </trkpt>
      <trkpt lat="36.27495" lon="-5.41297">
        <ele>58.27901</ele>
        <time>2021-07-15T16:32:06Z</time>
      </trkpt>
      <trkpt lat="36.27511" lon="-5.41337">
        <ele>59.2134</ele>
        <time>2021-07-15T16:32:17Z</time>
      </trkpt>
      <trkpt lat="36.2753" lon="-5.41375">
        <ele>56.62186</ele>
        <time>2021-07-15T16:32:28Z</time>
      </trkpt>
      <trkpt lat="36.27546" lon="-5.41396">
        <ele>55.59216</ele>
        <time>2021-07-15T16:32:39Z</time>
      </trkpt>
      <trkpt lat="36.27599" lon="-5.41382">
        <ele>55.92477</ele>
        <time>2021-07-15T16:32:50Z</time>
      </trkpt>
      <trkpt lat="36.27648" lon="-5.41473">
        <ele>57.66711</ele>
        <time>2021-07-15T16:33:01Z</time>
      </trkpt>
      <trkpt lat="36.27697" lon="-5.41608">
        <ele>57.5268</ele>
        <time>2021-07-15T16:33:12Z</time>
      </trkpt>
      <trkpt lat="36.27784" lon="-5.41665">
        <ele>55.59043</ele>
        <time>2021-07-15T16:33:23Z</time>
      </trkpt>
      <trkpt lat="36.2787" lon="-5.4157">
        <ele>55.56478</ele>
        <time>2021-07-15T16:33:34Z</time>
      </trkpt>
      <trkpt lat="36.27962" lon="-5.41582">
        <ele>54.97568</ele>
        <time>2021-07-15T16:33:45Z</time>
      </trkpt>
      <trkpt lat="36.27992" lon="-5.41648">
        <ele>55.42544</ele>
        <time>2021-07-15T16:33:56Z</time>
      </trkpt>
      <trkpt lat="36.28122" lon="-5.41602">
        <ele>54.46578</ele>
        <time>2021-07-15T16:34:07Z</time>
      </trkpt>
      <trkpt lat="36.28182" lon="-5.41494">
        <ele>55.00392</ele>
        <time>2021-07-15T16:34:18Z</time>
      </trkpt>
      <trkpt lat="36.28126" lon="-5.41388">
        <ele>53.37903</ele>
        <time>2021-07-15T16:34:29Z</time>
      </trkpt>
      <trkpt lat="36.28086" lon="-5.41224">
        <ele>54.64262</ele>
        <time>2021-07-15T16:34:40Z</time>
      </trkpt>
      <trkpt lat="36.28114" lon="-5.41077">
        <ele>55.25097</ele>
        <time>2021-07-15T16:34:51Z</time>
      </trkpt>
      <trkpt lat="36.28227" lon="-5.40917">
        <ele>57.47408</ele>
        <time>2021-07-15T16:35:02Z</time>
      </trkpt>
      <trkpt lat="36.28243" lon="-5.40816">
        <ele>56.55842</ele>
        <time>2021-07-15T16:35:13Z</time>
      </trkpt>
      <trkpt lat="36.28252" lon="-5.40742">
        <ele>54.34873</ele>
        <time>2021-07-15T16:35:24Z</time>
      </trkpt>
      <trkpt lat="36.28367" lon="-5.40766">
        <ele>53.07501</ele>
        <time>2021-07-15T16:35:35Z</time>
      </trkpt>
      <trkpt lat="36.28453" lon="-5.40668">
        <ele>52.05316</ele>
        <time>2021-07-15T16:35:46Z</time>
      </trkpt>
      <trkpt lat="36.28535" lon="-5.4068">
        <ele>50.59857</ele>
        <time>2021-07-15T16:35:57Z</time>
      </trkpt>
      <trkpt lat="36.28591" lon="-5.40822">
        <ele>49.62978</ele>
        <time>2021-07-15T16:36:08Z</time>
      </trkpt>
      <trkpt lat="36.28757" lon="-5.40786">
        <ele>53.61514</ele>
        <time>2021-07-15T16:36:19Z</time>
      </trkpt>
      <trkpt lat="36.289" lon="-5.4072">
        <ele>51.97465</ele>
        <time>2021-07-15T16:36:30Z</time>
      </trkpt>
      <trkpt lat="36.28948" lon="-5.40742">
        <ele>53.64603</ele>
        <time>2021-07-15T16:36:41Z</time>
      </trkpt>
      <trkpt lat="36.28945" lon="-5.40745">
        <ele>54.33302</ele>
        <time>2021-07-15T16:36:56Z</time>
      </trkpt>
      <trkpt lat="36.2887" lon="-5.40731">
        <ele>53.50713</ele>
        <time>2021-07-15T16:37:07Z</time>
      </trkpt>
      <trkpt lat="36.2869" lon="-5.40812">
        <ele>55.29187</ele>
        <time>2021-07-15T16:37:18Z</time>
      </trkpt>
      <trkpt lat="36.28573" lon="-5.40817">
        <ele>52.19308</ele>
        <time>2021-07-15T16:37:29Z</time>
      </trkpt>
      <trkpt lat="36.28532" lon="-5.40679">
        <ele>54.73388</ele>
        <time>2021-07-15T16:37:40Z</time>
      </trkpt>
      <trkpt lat="36.28537" lon="-5.40646">
        <ele>53.38861</ele>
        <time>2021-07-15T16:37:51Z</time>
      </trkpt>
      <trkpt lat="36.2854" lon="-5.40648">
        <ele>52.73932</ele>
        <time>2021-07-15T16:38:02Z</time>
      </trkpt>
      <trkpt lat="36.28548" lon="-5.40746">
        <ele>54.75755</ele>
        <time>2021-07-15T16:38:13Z</time>
      </trkpt>
      <trkpt lat="36.28601" lon="-5.40826">
        <ele>54.64172</ele>
        <time>2021-07-15T16:38:24Z</time>
      </trkpt>
      <trkpt lat="36.2868" lon="-5.40811">
        <ele>52.12265</ele>
        <time>2021-07-15T16:38:35Z</time>
      </trkpt>
      <trkpt lat="36.28764" lon="-5.4078">
        <ele>55.3843</ele>
        <time>2021-07-15T16:38:46Z</time>
      </trkpt>
      <trkpt lat="36.28855" lon="-5.40734">
        <ele>57.43887</ele>
        <time>2021-07-15T16:38:57Z</time>
      </trkpt>
      <trkpt lat="36.28895" lon="-5.40718">
        <ele>59.03249</ele>
        <time>2021-07-15T16:39:08Z</time>
      </trkpt>
      <trkpt lat="36.289" lon="-5.40717">
        <ele>61.00532</ele>
        <time>2021-07-15T16:39:19Z</time>
      </trkpt>
      <trkpt lat="36.28904" lon="-5.40717">
        <ele>61.63812</ele>
        <time>2021-07-15T16:39:35Z</time>
      </trkpt>
      <trkpt lat="36.289" lon="-5.40717">
        <ele>57.92632</ele>
        <time>2021-07-15T16:40:01Z</time>
      </trkpt>
      <trkpt lat="36.28926" lon="-5.40722">
        <ele>58.10645</ele>
        <time>2021-07-15T16:40:12Z</time>
      </trkpt>
      <trkpt lat="36.28941" lon="-5.40732">
        <ele>58.35555</ele>
        <time>2021-07-15T16:40:23Z</time>
      </trkpt>
      <trkpt lat="36.2895" lon="-5.407">
        <ele>55.90056</ele>
        <time>2021-07-15T16:40:46Z</time>
      </trkpt>
      <trkpt lat="36.28967" lon="-5.40688">
        <ele>57.45033</ele>
        <time>2021-07-15T16:40:57Z</time>
      </trkpt>
      <trkpt lat="36.28977" lon="-5.40718">
        <ele>54.59031</ele>
        <time>2021-07-15T16:41:08Z</time>
      </trkpt>
      <trkpt lat="36.28987" lon="-5.40721">
        <ele>56.04881</ele>
        <time>2021-07-15T16:41:19Z</time>
      </trkpt>
      <trkpt lat="36.28986" lon="-5.40717">
        <ele>63.11132</ele>
        <time>2021-07-15T16:41:54Z</time>
      </trkpt>
      <trkpt lat="36.28981" lon="-5.40715">
        <ele>63.51275</ele>
        <time>2021-07-15T16:42:05Z</time>
      </trkpt>
      <trkpt lat="36.28969" lon="-5.40726">
        <ele>61.97378</ele>
        <time>2021-07-15T16:42:16Z</time>
      </trkpt>
      <trkpt lat="36.28959" lon="-5.40729">
        <ele>60.63518</ele>
        <time>2021-07-15T16:42:27Z</time>
      </trkpt>
      <trkpt lat="36.2895" lon="-5.40721">
        <ele>58.88639</ele>
        <time>2021-07-15T16:42:38Z</time>
      </trkpt>
      <trkpt lat="36.28941" lon="-5.40716">
        <ele>54.1407</ele>
        <time>2021-07-15T16:42:49Z</time>
      </trkpt>
      <trkpt lat="36.28929" lon="-5.4071">
        <ele>55.04035</ele>
        <time>2021-07-15T16:43:00Z</time>
      </trkpt>
      <trkpt lat="36.28926" lon="-5.40711">
        <ele>52.29636</ele>
        <time>2021-07-15T16:43:20Z</time>
      </trkpt>
      <trkpt lat="36.28935" lon="-5.40715">
        <ele>49.58289</ele>
        <time>2021-07-15T16:43:31Z</time>
      </trkpt>
      <trkpt lat="36.28948" lon="-5.40722">
        <ele>53.72198</ele>
        <time>2021-07-15T16:43:42Z</time>
      </trkpt>
      <trkpt lat="36.28951" lon="-5.40719">
        <ele>54.18757</ele>
        <time>2021-07-15T16:43:54Z</time>
      </trkpt>
      <trkpt lat="36.28954" lon="-5.40717">
        <ele>57.29974</ele>
        <time>2021-07-15T16:44:27Z</time>
      </trkpt>
      <trkpt lat="36.28957" lon="-5.40721">
        <ele>55.10684</ele>
        <time>2021-07-15T16:44:56Z</time>
      </trkpt>
      <trkpt lat="36.28978" lon="-5.40725">
        <ele>49.9318</ele>
        <time>2021-07-15T16:45:07Z</time>
      </trkpt>
      <trkpt lat="36.28989" lon="-5.40723">
        <ele>50.41194</ele>
        <time>2021-07-15T16:45:18Z</time>
      </trkpt>
      <trkpt lat="36.28988" lon="-5.40719">
        <ele>56.69275</ele>
        <time>2021-07-15T16:45:32Z</time>
      </trkpt>
      <trkpt lat="36.2899" lon="-5.40721">
        <ele>54.92477</ele>
        <time>2021-07-15T16:46:32Z</time>
      </trkpt>
      <trkpt lat="36.28994" lon="-5.40717">
        <ele>54.3498</ele>
        <time>2021-07-15T16:46:54Z</time>
      </trkpt>
      <trkpt lat="36.29034" lon="-5.40697">
        <ele>56.68519</ele>
        <time>2021-07-15T16:47:05Z</time>
      </trkpt>
      <trkpt lat="36.29041" lon="-5.40697">
        <ele>58.54976</ele>
        <time>2021-07-15T16:47:17Z</time>
      </trkpt>
      <trkpt lat="36.29142" lon="-5.4061">
        <ele>61.40534</ele>
        <time>2021-07-15T16:47:28Z</time>
      </trkpt>
      <trkpt lat="36.29309" lon="-5.40521">
        <ele>63.01165</ele>
        <time>2021-07-15T16:47:39Z</time>
      </trkpt>
      <trkpt lat="36.29482" lon="-5.40437">
        <ele>64.17112</ele>
        <time>2021-07-15T16:47:50Z</time>
      </trkpt>
      <trkpt lat="36.29665" lon="-5.40343">
        <ele>72.0996</ele>
        <time>2021-07-15T16:48:01Z</time>
      </trkpt>
      <trkpt lat="36.29818" lon="-5.40178">
        <ele>77.51226</ele>
        <time>2021-07-15T16:48:12Z</time>
      </trkpt>
      <trkpt lat="36.29976" lon="-5.39993">
        <ele>82.75582</ele>
        <time>2021-07-15T16:48:23Z</time>
      </trkpt>
      <trkpt lat="36.30137" lon="-5.39833">
        <ele>82.23123</ele>
        <time>2021-07-15T16:48:34Z</time>
      </trkpt>
      <trkpt lat="36.30236" lon="-5.39708">
        <ele>86.7903</ele>
        <time>2021-07-15T16:48:45Z</time>
      </trkpt>
      <trkpt lat="36.30311" lon="-5.39814">
        <ele>87.11369</ele>
        <time>2021-07-15T16:48:56Z</time>
      </trkpt>
      <trkpt lat="36.30371" lon="-5.39986">
        <ele>78.51048</ele>
        <time>2021-07-15T16:49:07Z</time>
      </trkpt>
      <trkpt lat="36.30442" lon="-5.40059">
        <ele>79.90213</ele>
        <time>2021-07-15T16:49:18Z</time>
      </trkpt>
      <trkpt lat="36.30636" lon="-5.40059">
        <ele>84.68206</ele>
        <time>2021-07-15T16:49:29Z</time>
      </trkpt>
      <trkpt lat="36.30867" lon="-5.40049">
        <ele>88.71535</ele>
        <time>2021-07-15T16:49:40Z</time>
      </trkpt>
      <trkpt lat="36.31102" lon="-5.4004">
        <ele>88.12575</ele>
        <time>2021-07-15T16:49:52Z</time>
      </trkpt>
      <trkpt lat="36.31335" lon="-5.40032">
        <ele>89.03016</ele>
        <time>2021-07-15T16:50:03Z</time>
      </trkpt>
      <trkpt lat="36.31568" lon="-5.40024">
        <ele>89.90305</ele>
        <time>2021-07-15T16:50:14Z</time>
      </trkpt>
      <trkpt lat="36.31779" lon="-5.40161">
        <ele>78.57916</ele>
        <time>2021-07-15T16:50:25Z</time>
      </trkpt>
      <trkpt lat="36.31974" lon="-5.40321">
        <ele>57.16597</ele>
        <time>2021-07-15T16:50:36Z</time>
      </trkpt>
      <trkpt lat="36.32162" lon="-5.40508">
        <ele>37.41586</ele>
        <time>2021-07-15T16:50:47Z</time>
      </trkpt>
      <trkpt lat="36.32399" lon="-5.40484">
        <ele>31.02032</ele>
        <time>2021-07-15T16:50:58Z</time>
      </trkpt>
      <trkpt lat="36.32636" lon="-5.40454">
        <ele>25.89801</ele>
        <time>2021-07-15T16:51:09Z</time>
      </trkpt>
      <trkpt lat="36.32836" lon="-5.40424">
        <ele>24.49331</ele>
        <time>2021-07-15T16:51:20Z</time>
      </trkpt>
      <trkpt lat="36.33017" lon="-5.40333">
        <ele>27.02448</ele>
        <time>2021-07-15T16:51:31Z</time>
      </trkpt>
      <trkpt lat="36.33192" lon="-5.40258">
        <ele>20.65438</ele>
        <time>2021-07-15T16:51:42Z</time>
      </trkpt>
      <trkpt lat="36.33254" lon="-5.40198">
        <ele>21.7388</ele>
        <time>2021-07-15T16:51:53Z</time>
      </trkpt>
      <trkpt lat="36.33156" lon="-5.40279">
        <ele>22.96179</ele>
        <time>2021-07-15T16:52:04Z</time>
      </trkpt>
      <trkpt lat="36.32975" lon="-5.40365">
        <ele>23.67013</ele>
        <time>2021-07-15T16:52:15Z</time>
      </trkpt>
      <trkpt lat="36.32833" lon="-5.4043">
        <ele>20.33541</ele>
        <time>2021-07-15T16:52:26Z</time>
      </trkpt>
      <trkpt lat="36.32717" lon="-5.40446">
        <ele>29.4801</ele>
        <time>2021-07-15T16:52:37Z</time>
      </trkpt>
      <trkpt lat="36.32784" lon="-5.40452">
        <ele>24.42872</ele>
        <time>2021-07-15T16:52:48Z</time>
      </trkpt>
      <trkpt lat="36.32896" lon="-5.40425">
        <ele>19.36549</ele>
        <time>2021-07-15T16:52:59Z</time>
      </trkpt>
      <trkpt lat="36.32975" lon="-5.40413">
        <ele>14.35535</ele>
        <time>2021-07-15T16:53:10Z</time>
      </trkpt>
      <trkpt lat="36.33026" lon="-5.40563">
        <ele>8.938135</ele>
        <time>2021-07-15T16:53:21Z</time>
      </trkpt>
      <trkpt lat="36.33082" lon="-5.40704">
        <ele>24.09825</ele>
        <time>2021-07-15T16:53:32Z</time>
      </trkpt>
      <trkpt lat="36.33137" lon="-5.40843">
        <ele>21.49629</ele>
        <time>2021-07-15T16:53:43Z</time>
      </trkpt>
      <trkpt lat="36.33166" lon="-5.40835">
        <ele>23.48645</ele>
        <time>2021-07-15T16:53:54Z</time>
      </trkpt>
      <trkpt lat="36.33201" lon="-5.40868">
        <ele>22.52636</ele>
        <time>2021-07-15T16:54:05Z</time>
      </trkpt>
      <trkpt lat="36.33272" lon="-5.40971">
        <ele>21.63769</ele>
        <time>2021-07-15T16:54:16Z</time>
      </trkpt>
      <trkpt lat="36.3336" lon="-5.41049">
        <ele>22.00316</ele>
        <time>2021-07-15T16:54:27Z</time>
      </trkpt>
      <trkpt lat="36.33484" lon="-5.41144">
        <ele>22.23799</ele>
        <time>2021-07-15T16:54:38Z</time>
      </trkpt>
      <trkpt lat="36.33621" lon="-5.41253">
        <ele>23.81697</ele>
        <time>2021-07-15T16:54:49Z</time>
      </trkpt>
      <trkpt lat="36.3377" lon="-5.41374">
        <ele>22.21948</ele>
        <time>2021-07-15T16:55:00Z</time>
      </trkpt>
      <trkpt lat="36.33912" lon="-5.4149">
        <ele>16.71449</ele>
        <time>2021-07-15T16:55:11Z</time>
      </trkpt>
      <trkpt lat="36.34055" lon="-5.41604">
        <ele>18.07082</ele>
        <time>2021-07-15T16:55:22Z</time>
      </trkpt>
      <trkpt lat="36.34201" lon="-5.41731">
        <ele>18.84993</ele>
        <time>2021-07-15T16:55:33Z</time>
      </trkpt>
      <trkpt lat="36.34346" lon="-5.41847">
        <ele>22.51501</ele>
        <time>2021-07-15T16:55:44Z</time>
      </trkpt>
      <trkpt lat="36.34492" lon="-5.41964">
        <ele>26.59771</ele>
        <time>2021-07-15T16:55:55Z</time>
      </trkpt>
      <trkpt lat="36.34625" lon="-5.4207">
        <ele>19.5675</ele>
        <time>2021-07-15T16:56:06Z</time>
      </trkpt>
      <trkpt lat="36.34728" lon="-5.42152">
        <ele>19.26155</ele>
        <time>2021-07-15T16:56:17Z</time>
      </trkpt>
      <trkpt lat="36.34809" lon="-5.42217">
        <ele>25.99648</ele>
        <time>2021-07-15T16:56:28Z</time>
      </trkpt>
      <trkpt lat="36.3491" lon="-5.42298">
        <ele>19.30031</ele>
        <time>2021-07-15T16:56:39Z</time>
      </trkpt>
      <trkpt lat="36.35001" lon="-5.42372">
        <ele>15.77457</ele>
        <time>2021-07-15T16:56:50Z</time>
      </trkpt>
      <trkpt lat="36.35106" lon="-5.42469">
        <ele>19.51677</ele>
        <time>2021-07-15T16:57:01Z</time>
      </trkpt>
      <trkpt lat="36.35228" lon="-5.42567">
        <ele>21.61294</ele>
        <time>2021-07-15T16:57:12Z</time>
      </trkpt>
      <trkpt lat="36.35367" lon="-5.42616">
        <ele>24.67164</ele>
        <time>2021-07-15T16:57:23Z</time>
      </trkpt>
      <trkpt lat="36.35498" lon="-5.42645">
        <ele>26.61037</ele>
        <time>2021-07-15T16:57:34Z</time>
      </trkpt>
      <trkpt lat="36.35567" lon="-5.4265">
        <ele>22.4555</ele>
        <time>2021-07-15T16:57:45Z</time>
      </trkpt>
      <trkpt lat="36.35625" lon="-5.42557">
        <ele>10.80145</ele>
        <time>2021-07-15T16:57:56Z</time>
      </trkpt>
      <trkpt lat="36.35664" lon="-5.42579">
        <ele>10.93225</ele>
        <time>2021-07-15T16:58:07Z</time>
      </trkpt>
      <trkpt lat="36.35679" lon="-5.42651">
        <ele>22.63178</ele>
        <time>2021-07-15T16:58:18Z</time>
      </trkpt>
      <trkpt lat="36.3575" lon="-5.42668">
        <ele>24.50798</ele>
        <time>2021-07-15T16:58:29Z</time>
      </trkpt>
      <trkpt lat="36.35838" lon="-5.42664">
        <ele>28.29925</ele>
        <time>2021-07-15T16:58:40Z</time>
      </trkpt>
      <trkpt lat="36.35946" lon="-5.42658">
        <ele>27.16624</ele>
        <time>2021-07-15T16:58:51Z</time>
      </trkpt>
      <trkpt lat="36.36057" lon="-5.42656">
        <ele>24.58691</ele>
        <time>2021-07-15T16:59:02Z</time>
      </trkpt>
      <trkpt lat="36.36156" lon="-5.42632">
        <ele>16.65768</ele>
        <time>2021-07-15T16:59:13Z</time>
      </trkpt>
      <trkpt lat="36.36233" lon="-5.42613">
        <ele>15.92493</ele>
        <time>2021-07-15T16:59:24Z</time>
      </trkpt>
      <trkpt lat="36.3632" lon="-5.42592">
        <ele>21.62925</ele>
        <time>2021-07-15T16:59:35Z</time>
      </trkpt>
      <trkpt lat="36.36431" lon="-5.42565">
        <ele>21.13232</ele>
        <time>2021-07-15T16:59:46Z</time>
      </trkpt>
      <trkpt lat="36.36553" lon="-5.42536">
        <ele>22.40793</ele>
        <time>2021-07-15T16:59:57Z</time>
      </trkpt>
      <trkpt lat="36.3668" lon="-5.42505">
        <ele>22.09349</ele>
        <time>2021-07-15T17:00:08Z</time>
      </trkpt>
      <trkpt lat="36.36824" lon="-5.4247">
        <ele>31.7901</ele>
        <time>2021-07-15T17:00:19Z</time>
      </trkpt>
      <trkpt lat="36.36987" lon="-5.42432">
        <ele>43.1516</ele>
        <time>2021-07-15T17:00:30Z</time>
      </trkpt>
      <trkpt lat="36.3706" lon="-5.42415">
        <ele>21.20791</ele>
        <time>2021-07-15T17:00:41Z</time>
      </trkpt>
      <trkpt lat="36.37142" lon="-5.42412">
        <ele>19.34267</ele>
        <time>2021-07-15T17:00:52Z</time>
      </trkpt>
      <trkpt lat="36.37235" lon="-5.42316">
        <ele>20.4754</ele>
        <time>2021-07-15T17:01:03Z</time>
      </trkpt>
      <trkpt lat="36.37303" lon="-5.42339">
        <ele>21.82407</ele>
        <time>2021-07-15T17:01:14Z</time>
      </trkpt>
      <trkpt lat="36.37369" lon="-5.42436">
        <ele>22.57953</ele>
        <time>2021-07-15T17:01:25Z</time>
      </trkpt>
      <trkpt lat="36.37466" lon="-5.42449">
        <ele>22.33637</ele>
        <time>2021-07-15T17:01:36Z</time>
      </trkpt>
      <trkpt lat="36.37573" lon="-5.42466">
        <ele>21.53029</ele>
        <time>2021-07-15T17:01:47Z</time>
      </trkpt>
      <trkpt lat="36.37663" lon="-5.42507">
        <ele>20.57534</ele>
        <time>2021-07-15T17:01:58Z</time>
      </trkpt>
      <trkpt lat="36.37746" lon="-5.42579">
        <ele>22.24916</ele>
        <time>2021-07-15T17:02:09Z</time>
      </trkpt>
      <trkpt lat="36.3781" lon="-5.42691">
        <ele>22.99621</ele>
        <time>2021-07-15T17:02:20Z</time>
      </trkpt>
      <trkpt lat="36.37859" lon="-5.42806">
        <ele>27.41944</ele>
        <time>2021-07-15T17:02:31Z</time>
      </trkpt>
      <trkpt lat="36.37917" lon="-5.42943">
        <ele>29.78371</ele>
        <time>2021-07-15T17:02:42Z</time>
      </trkpt>
      <trkpt lat="36.37963" lon="-5.43051">
        <ele>25.38202</ele>
        <time>2021-07-15T17:02:53Z</time>
      </trkpt>
      <trkpt lat="36.38003" lon="-5.43">
        <ele>20.00822</ele>
        <time>2021-07-15T17:03:04Z</time>
      </trkpt>
      <trkpt lat="36.38032" lon="-5.42952">
        <ele>18.33849</ele>
        <time>2021-07-15T17:03:15Z</time>
      </trkpt>
      <trkpt lat="36.38049" lon="-5.42958">
        <ele>20.89687</ele>
        <time>2021-07-15T17:03:26Z</time>
      </trkpt>
      <trkpt lat="36.38062" lon="-5.42961">
        <ele>20.2235</ele>
        <time>2021-07-15T17:03:37Z</time>
      </trkpt>
      <trkpt lat="36.38065" lon="-5.42963">
        <ele>21.69169</ele>
        <time>2021-07-15T17:04:36Z</time>
      </trkpt>
      <trkpt lat="36.38063" lon="-5.4296">
        <ele>20.6613</ele>
        <time>2021-07-15T17:05:34Z</time>
      </trkpt>
      <trkpt lat="36.38063" lon="-5.42961">
        <ele>20.9899</ele>
        <time>2021-07-15T17:06:34Z</time>
      </trkpt>
      <trkpt lat="36.38064" lon="-5.42961">
        <ele>19.94095</ele>
        <time>2021-07-15T17:07:34Z</time>
      </trkpt>
      <trkpt lat="36.38064" lon="-5.42962">
        <ele>19.2015</ele>
        <time>2021-07-15T17:08:34Z</time>
      </trkpt>
      <trkpt lat="36.38064" lon="-5.42961">
        <ele>16.59865</ele>
        <time>2021-07-15T17:09:33Z</time>
      </trkpt>
      <trkpt lat="36.38064" lon="-5.42962">
        <ele>18.1252</ele>
        <time>2021-07-15T17:10:33Z</time>
      </trkpt>
      <trkpt lat="36.38064" lon="-5.42963">
        <ele>18.1686</ele>
        <time>2021-07-15T17:11:33Z</time>
      </trkpt>
      <trkpt lat="36.38064" lon="-5.42964">
        <ele>18.21268</ele>
        <time>2021-07-15T17:12:33Z</time>
      </trkpt>
      <trkpt lat="36.3807" lon="-5.42966">
        <ele>18.72141</ele>
        <time>2021-07-15T17:12:52Z</time>
      </trkpt>
      <trkpt lat="36.38131" lon="-5.43045">
        <ele>23.77477</ele>
        <time>2021-07-15T17:13:03Z</time>
      </trkpt>
      <trkpt lat="36.38199" lon="-5.43118">
        <ele>19.6353</ele>
        <time>2021-07-15T17:13:14Z</time>
      </trkpt>
      <trkpt lat="36.38283" lon="-5.43146">
        <ele>17.75018</ele>
        <time>2021-07-15T17:13:25Z</time>
      </trkpt>
      <trkpt lat="36.38331" lon="-5.43092">
        <ele>18.53743</ele>
        <time>2021-07-15T17:13:36Z</time>
      </trkpt>
      <trkpt lat="36.38397" lon="-5.42991">
        <ele>25.31042</ele>
        <time>2021-07-15T17:13:47Z</time>
      </trkpt>
      <trkpt lat="36.38492" lon="-5.42911">
        <ele>26.9605</ele>
        <time>2021-07-15T17:13:58Z</time>
      </trkpt>
      <trkpt lat="36.38539" lon="-5.42875">
        <ele>33.36635</ele>
        <time>2021-07-15T17:14:09Z</time>
      </trkpt>
      <trkpt lat="36.38635" lon="-5.42858">
        <ele>42.20621</ele>
        <time>2021-07-15T17:14:20Z</time>
      </trkpt>
      <trkpt lat="36.38725" lon="-5.42799">
        <ele>40.27928</ele>
        <time>2021-07-15T17:14:31Z</time>
      </trkpt>
      <trkpt lat="36.38836" lon="-5.42741">
        <ele>33.79405</ele>
        <time>2021-07-15T17:14:42Z</time>
      </trkpt>
      <trkpt lat="36.38958" lon="-5.42666">
        <ele>24.65706</ele>
        <time>2021-07-15T17:14:53Z</time>
      </trkpt>
      <trkpt lat="36.39111" lon="-5.42563">
        <ele>14.54584</ele>
        <time>2021-07-15T17:15:04Z</time>
      </trkpt>
      <trkpt lat="36.39259" lon="-5.42427">
        <ele>-5.617399</ele>
        <time>2021-07-15T17:15:15Z</time>
      </trkpt>
      <trkpt lat="36.39299" lon="-5.42272">
        <ele>36.78989</ele>
        <time>2021-07-15T17:15:26Z</time>
      </trkpt>
      <trkpt lat="36.39316" lon="-5.42068">
        <ele>37.42131</ele>
        <time>2021-07-15T17:15:37Z</time>
      </trkpt>
      <trkpt lat="36.39365" lon="-5.41873">
        <ele>25.39949</ele>
        <time>2021-07-15T17:15:48Z</time>
      </trkpt>
      <trkpt lat="36.39503" lon="-5.41778">
        <ele>30.20282</ele>
        <time>2021-07-15T17:15:59Z</time>
      </trkpt>
      <trkpt lat="36.39667" lon="-5.41705">
        <ele>33.83028</ele>
        <time>2021-07-15T17:16:10Z</time>
      </trkpt>
      <trkpt lat="36.39823" lon="-5.41615">
        <ele>36.23569</ele>
        <time>2021-07-15T17:16:21Z</time>
      </trkpt>
      <trkpt lat="36.40008" lon="-5.41563">
        <ele>42.8312</ele>
        <time>2021-07-15T17:16:32Z</time>
      </trkpt>
      <trkpt lat="36.40161" lon="-5.41518">
        <ele>45.07179</ele>
        <time>2021-07-15T17:16:43Z</time>
      </trkpt>
      <trkpt lat="36.4033" lon="-5.41462">
        <ele>49.42632</ele>
        <time>2021-07-15T17:16:54Z</time>
      </trkpt>
      <trkpt lat="36.405" lon="-5.41412">
        <ele>53.29216</ele>
        <time>2021-07-15T17:17:05Z</time>
      </trkpt>
      <trkpt lat="36.40627" lon="-5.41315">
        <ele>60.48307</ele>
        <time>2021-07-15T17:17:16Z</time>
      </trkpt>
      <trkpt lat="36.40752" lon="-5.41252">
        <ele>77.93885</ele>
        <time>2021-07-15T17:17:27Z</time>
      </trkpt>
      <trkpt lat="36.40868" lon="-5.41212">
        <ele>93.76083</ele>
        <time>2021-07-15T17:17:38Z</time>
      </trkpt>
      <trkpt lat="36.40937" lon="-5.41132">
        <ele>84.88713</ele>
        <time>2021-07-15T17:17:49Z</time>
      </trkpt>
      <trkpt lat="36.40998" lon="-5.41004">
        <ele>73.96423</ele>
        <time>2021-07-15T17:18:00Z</time>
      </trkpt>
      <trkpt lat="36.41083" lon="-5.40883">
        <ele>60.66514</ele>
        <time>2021-07-15T17:18:11Z</time>
      </trkpt>
      <trkpt lat="36.41169" lon="-5.40732">
        <ele>48.37875</ele>
        <time>2021-07-15T17:18:22Z</time>
      </trkpt>
      <trkpt lat="36.41214" lon="-5.40572">
        <ele>42.63856</ele>
        <time>2021-07-15T17:18:33Z</time>
      </trkpt>
      <trkpt lat="36.41231" lon="-5.40337">
        <ele>42.26471</ele>
        <time>2021-07-15T17:18:44Z</time>
      </trkpt>
      <trkpt lat="36.41255" lon="-5.40164">
        <ele>46.71476</ele>
        <time>2021-07-15T17:18:55Z</time>
      </trkpt>
      <trkpt lat="36.41363" lon="-5.40073">
        <ele>45.34409</ele>
        <time>2021-07-15T17:19:06Z</time>
      </trkpt>
      <trkpt lat="36.41439" lon="-5.40054">
        <ele>40.25811</ele>
        <time>2021-07-15T17:19:17Z</time>
      </trkpt>
      <trkpt lat="36.41484" lon="-5.40015">
        <ele>37.97088</ele>
        <time>2021-07-15T17:19:28Z</time>
      </trkpt>
      <trkpt lat="36.41527" lon="-5.39972">
        <ele>36.18726</ele>
        <time>2021-07-15T17:19:39Z</time>
      </trkpt>
      <trkpt lat="36.41585" lon="-5.39917">
        <ele>39.65834</ele>
        <time>2021-07-15T17:19:50Z</time>
      </trkpt>
      <trkpt lat="36.41683" lon="-5.3983">
        <ele>36.0422</ele>
        <time>2021-07-15T17:20:01Z</time>
      </trkpt>
      <trkpt lat="36.41775" lon="-5.39895">
        <ele>34.38602</ele>
        <time>2021-07-15T17:20:12Z</time>
      </trkpt>
      <trkpt lat="36.41942" lon="-5.40027">
        <ele>31.55095</ele>
        <time>2021-07-15T17:20:23Z</time>
      </trkpt>
      <trkpt lat="36.42155" lon="-5.40009">
        <ele>33.13569</ele>
        <time>2021-07-15T17:20:34Z</time>
      </trkpt>
      <trkpt lat="36.4231" lon="-5.39862">
        <ele>33.45941</ele>
        <time>2021-07-15T17:20:45Z</time>
      </trkpt>
      <trkpt lat="36.42417" lon="-5.39655">
        <ele>34.00901</ele>
        <time>2021-07-15T17:20:56Z</time>
      </trkpt>
      <trkpt lat="36.42616" lon="-5.39561">
        <ele>33.96047</ele>
        <time>2021-07-15T17:21:07Z</time>
      </trkpt>
      <trkpt lat="36.42788" lon="-5.39491">
        <ele>36.05911</ele>
        <time>2021-07-15T17:21:18Z</time>
      </trkpt>
      <trkpt lat="36.42947" lon="-5.39469">
        <ele>40.52046</ele>
        <time>2021-07-15T17:21:29Z</time>
      </trkpt>
      <trkpt lat="36.43158" lon="-5.39469">
        <ele>38.45957</ele>
        <time>2021-07-15T17:21:40Z</time>
      </trkpt>
      <trkpt lat="36.4332" lon="-5.39331">
        <ele>44.14401</ele>
        <time>2021-07-15T17:21:51Z</time>
      </trkpt>
      <trkpt lat="36.43496" lon="-5.39168">
        <ele>46.65531</ele>
        <time>2021-07-15T17:22:02Z</time>
      </trkpt>
      <trkpt lat="36.43602" lon="-5.39163">
        <ele>47.33233</ele>
        <time>2021-07-15T17:22:13Z</time>
      </trkpt>
      <trkpt lat="36.43655" lon="-5.39215">
        <ele>49.30895</ele>
        <time>2021-07-15T17:22:24Z</time>
      </trkpt>
      <trkpt lat="36.4367" lon="-5.39194">
        <ele>46.99773</ele>
        <time>2021-07-15T17:22:35Z</time>
      </trkpt>
      <trkpt lat="36.43676" lon="-5.39201">
        <ele>48.08454</ele>
        <time>2021-07-15T17:23:14Z</time>
      </trkpt>
      <trkpt lat="36.43666" lon="-5.39174">
        <ele>45.92819</ele>
        <time>2021-07-15T17:23:25Z</time>
      </trkpt>
      <trkpt lat="36.43643" lon="-5.39123">
        <ele>39.37705</ele>
        <time>2021-07-15T17:23:36Z</time>
      </trkpt>
      <trkpt lat="36.43639" lon="-5.39115">
        <ele>43.90488</ele>
        <time>2021-07-15T17:23:47Z</time>
      </trkpt>
      <trkpt lat="36.43641" lon="-5.39119">
        <ele>48.78255</ele>
        <time>2021-07-15T17:24:14Z</time>
      </trkpt>
      <trkpt lat="36.43646" lon="-5.39128">
        <ele>49.23902</ele>
        <time>2021-07-15T17:24:25Z</time>
      </trkpt>
      <trkpt lat="36.43649" lon="-5.39134">
        <ele>51.31653</ele>
        <time>2021-07-15T17:24:41Z</time>
      </trkpt>
      <trkpt lat="36.43676" lon="-5.39191">
        <ele>45.88745</ele>
        <time>2021-07-15T17:24:52Z</time>
      </trkpt>
      <trkpt lat="36.43645" lon="-5.39226">
        <ele>48.2392</ele>
        <time>2021-07-15T17:25:03Z</time>
      </trkpt>
      <trkpt lat="36.43671" lon="-5.39266">
        <ele>49.60575</ele>
        <time>2021-07-15T17:25:14Z</time>
      </trkpt>
      <trkpt lat="36.43761" lon="-5.39306">
        <ele>50.8643</ele>
        <time>2021-07-15T17:25:25Z</time>
      </trkpt>
      <trkpt lat="36.43838" lon="-5.39224">
        <ele>49.84136</ele>
        <time>2021-07-15T17:25:36Z</time>
      </trkpt>
      <trkpt lat="36.43977" lon="-5.39157">
        <ele>51.14233</ele>
        <time>2021-07-15T17:25:47Z</time>
      </trkpt>
      <trkpt lat="36.44117" lon="-5.39092">
        <ele>53.47301</ele>
        <time>2021-07-15T17:25:58Z</time>
      </trkpt>
      <trkpt lat="36.44212" lon="-5.38968">
        <ele>55.06041</ele>
        <time>2021-07-15T17:26:09Z</time>
      </trkpt>
      <trkpt lat="36.44339" lon="-5.38973">
        <ele>58.83177</ele>
        <time>2021-07-15T17:26:20Z</time>
      </trkpt>
      <trkpt lat="36.44471" lon="-5.38927">
        <ele>57.86001</ele>
        <time>2021-07-15T17:26:31Z</time>
      </trkpt>
      <trkpt lat="36.44582" lon="-5.38828">
        <ele>63.15988</ele>
        <time>2021-07-15T17:26:42Z</time>
      </trkpt>
      <trkpt lat="36.44693" lon="-5.38742">
        <ele>67.17859</ele>
        <time>2021-07-15T17:26:53Z</time>
      </trkpt>
      <trkpt lat="36.44786" lon="-5.38637">
        <ele>70.56673</ele>
        <time>2021-07-15T17:27:04Z</time>
      </trkpt>
      <trkpt lat="36.44889" lon="-5.38533">
        <ele>76.04026</ele>
        <time>2021-07-15T17:27:15Z</time>
      </trkpt>
      <trkpt lat="36.45009" lon="-5.38545">
        <ele>81.29301</ele>
        <time>2021-07-15T17:27:26Z</time>
      </trkpt>
      <trkpt lat="36.45083" lon="-5.38479">
        <ele>94.06413</ele>
        <time>2021-07-15T17:27:37Z</time>
      </trkpt>
      <trkpt lat="36.45136" lon="-5.38393">
        <ele>97.21866</ele>
        <time>2021-07-15T17:27:48Z</time>
      </trkpt>
      <trkpt lat="36.45206" lon="-5.383">
        <ele>100.1055</ele>
        <time>2021-07-15T17:27:59Z</time>
      </trkpt>
      <trkpt lat="36.45339" lon="-5.38306">
        <ele>102.1829</ele>
        <time>2021-07-15T17:28:10Z</time>
      </trkpt>
      <trkpt lat="36.45473" lon="-5.38322">
        <ele>94.87353</ele>
        <time>2021-07-15T17:28:21Z</time>
      </trkpt>
      <trkpt lat="36.45635" lon="-5.38312">
        <ele>107.2545</ele>
        <time>2021-07-15T17:28:32Z</time>
      </trkpt>
      <trkpt lat="36.4576" lon="-5.3825">
        <ele>108.3572</ele>
        <time>2021-07-15T17:28:43Z</time>
      </trkpt>
      <trkpt lat="36.45833" lon="-5.38147">
        <ele>115.0127</ele>
        <time>2021-07-15T17:28:54Z</time>
      </trkpt>
      <trkpt lat="36.45921" lon="-5.38045">
        <ele>114.5373</ele>
        <time>2021-07-15T17:29:05Z</time>
      </trkpt>
      <trkpt lat="36.4603" lon="-5.37971">
        <ele>105.1347</ele>
        <time>2021-07-15T17:29:16Z</time>
      </trkpt>
      <trkpt lat="36.46168" lon="-5.37921">
        <ele>109.9134</ele>
        <time>2021-07-15T17:29:27Z</time>
      </trkpt>
      <trkpt lat="36.46263" lon="-5.37869">
        <ele>116.507</ele>
        <time>2021-07-15T17:29:38Z</time>
      </trkpt>
      <trkpt lat="36.46389" lon="-5.37764">
        <ele>113.1036</ele>
        <time>2021-07-15T17:29:49Z</time>
      </trkpt>
      <trkpt lat="36.46543" lon="-5.37684">
        <ele>107.968</ele>
        <time>2021-07-15T17:30:00Z</time>
      </trkpt>
      <trkpt lat="36.46697" lon="-5.37623">
        <ele>107.1179</ele>
        <time>2021-07-15T17:30:11Z</time>
      </trkpt>
      <trkpt lat="36.4679" lon="-5.37548">
        <ele>112.6936</ele>
        <time>2021-07-15T17:30:22Z</time>
      </trkpt>
      <trkpt lat="36.46937" lon="-5.37545">
        <ele>120.2373</ele>
        <time>2021-07-15T17:30:33Z</time>
      </trkpt>
      <trkpt lat="36.47097" lon="-5.37614">
        <ele>127.7454</ele>
        <time>2021-07-15T17:30:44Z</time>
      </trkpt>
      <trkpt lat="36.47217" lon="-5.37755">
        <ele>126.8445</ele>
        <time>2021-07-15T17:30:55Z</time>
      </trkpt>
      <trkpt lat="36.4733" lon="-5.37838">
        <ele>131.0025</ele>
        <time>2021-07-15T17:31:06Z</time>
      </trkpt>
      <trkpt lat="36.47445" lon="-5.37904">
        <ele>139.1849</ele>
        <time>2021-07-15T17:31:17Z</time>
      </trkpt>
      <trkpt lat="36.47541" lon="-5.37859">
        <ele>145.0071</ele>
        <time>2021-07-15T17:31:28Z</time>
      </trkpt>
      <trkpt lat="36.47707" lon="-5.37718">
        <ele>157.0898</ele>
        <time>2021-07-15T17:31:39Z</time>
      </trkpt>
      <trkpt lat="36.4788" lon="-5.37607">
        <ele>169.986</ele>
        <time>2021-07-15T17:31:50Z</time>
      </trkpt>
      <trkpt lat="36.48107" lon="-5.37604">
        <ele>186.3366</ele>
        <time>2021-07-15T17:32:01Z</time>
      </trkpt>
      <trkpt lat="36.48305" lon="-5.37553">
        <ele>203.1588</ele>
        <time>2021-07-15T17:32:12Z</time>
      </trkpt>
      <trkpt lat="36.48455" lon="-5.37468">
        <ele>215.6863</ele>
        <time>2021-07-15T17:32:23Z</time>
      </trkpt>
      <trkpt lat="36.48573" lon="-5.37466">
        <ele>228.6223</ele>
        <time>2021-07-15T17:32:34Z</time>
      </trkpt>
      <trkpt lat="36.48695" lon="-5.3735">
        <ele>242.9968</ele>
        <time>2021-07-15T17:32:45Z</time>
      </trkpt>
      <trkpt lat="36.48828" lon="-5.37269">
        <ele>253.3744</ele>
        <time>2021-07-15T17:32:56Z</time>
      </trkpt>
      <trkpt lat="36.48954" lon="-5.3733">
        <ele>257.5334</ele>
        <time>2021-07-15T17:33:07Z</time>
      </trkpt>
      <trkpt lat="36.49019" lon="-5.37192">
        <ele>269.3474</ele>
        <time>2021-07-15T17:33:18Z</time>
      </trkpt>
      <trkpt lat="36.49158" lon="-5.37147">
        <ele>277.4312</ele>
        <time>2021-07-15T17:33:29Z</time>
      </trkpt>
      <trkpt lat="36.49306" lon="-5.3722">
        <ele>285.1958</ele>
        <time>2021-07-15T17:33:40Z</time>
      </trkpt>
      <trkpt lat="36.49455" lon="-5.37302">
        <ele>295.2663</ele>
        <time>2021-07-15T17:33:51Z</time>
      </trkpt>
      <trkpt lat="36.49603" lon="-5.37299">
        <ele>304.4691</ele>
        <time>2021-07-15T17:34:02Z</time>
      </trkpt>
      <trkpt lat="36.49723" lon="-5.37213">
        <ele>311.3102</ele>
        <time>2021-07-15T17:34:13Z</time>
      </trkpt>
      <trkpt lat="36.49868" lon="-5.37196">
        <ele>318.8515</ele>
        <time>2021-07-15T17:34:24Z</time>
      </trkpt>
      <trkpt lat="36.49903" lon="-5.37165">
        <ele>328.1801</ele>
        <time>2021-07-15T17:34:35Z</time>
      </trkpt>
      <trkpt lat="36.49775" lon="-5.37136">
        <ele>333.2376</ele>
        <time>2021-07-15T17:34:46Z</time>
      </trkpt>
      <trkpt lat="36.49744" lon="-5.37043">
        <ele>343.96</ele>
        <time>2021-07-15T17:34:57Z</time>
      </trkpt>
      <trkpt lat="36.49878" lon="-5.37018">
        <ele>352.7039</ele>
        <time>2021-07-15T17:35:08Z</time>
      </trkpt>
      <trkpt lat="36.49872" lon="-5.36919">
        <ele>359.008</ele>
        <time>2021-07-15T17:35:19Z</time>
      </trkpt>
      <trkpt lat="36.49743" lon="-5.36941">
        <ele>365.3643</ele>
        <time>2021-07-15T17:35:30Z</time>
      </trkpt>
      <trkpt lat="36.49823" lon="-5.3686">
        <ele>373.5158</ele>
        <time>2021-07-15T17:35:41Z</time>
      </trkpt>
      <trkpt lat="36.49913" lon="-5.36758">
        <ele>380.4378</ele>
        <time>2021-07-15T17:35:52Z</time>
      </trkpt>
      <trkpt lat="36.49968" lon="-5.36602">
        <ele>391.7127</ele>
        <time>2021-07-15T17:36:03Z</time>
      </trkpt>
      <trkpt lat="36.50039" lon="-5.36462">
        <ele>398.7447</ele>
        <time>2021-07-15T17:36:14Z</time>
      </trkpt>
      <trkpt lat="36.50052" lon="-5.36307">
        <ele>402.1389</ele>
        <time>2021-07-15T17:36:25Z</time>
      </trkpt>
      <trkpt lat="36.50147" lon="-5.36176">
        <ele>409.1688</ele>
        <time>2021-07-15T17:36:36Z</time>
      </trkpt>
      <trkpt lat="36.50267" lon="-5.36235">
        <ele>416.9712</ele>
        <time>2021-07-15T17:36:47Z</time>
      </trkpt>
      <trkpt lat="36.50334" lon="-5.36129">
        <ele>429.3288</ele>
        <time>2021-07-15T17:36:58Z</time>
      </trkpt>
      <trkpt lat="36.50344" lon="-5.35987">
        <ele>439.036</ele>
        <time>2021-07-15T17:37:09Z</time>
      </trkpt>
      <trkpt lat="36.50419" lon="-5.35987">
        <ele>445.3009</ele>
        <time>2021-07-15T17:37:20Z</time>
      </trkpt>
      <trkpt lat="36.50461" lon="-5.36141">
        <ele>450.7946</ele>
        <time>2021-07-15T17:37:31Z</time>
      </trkpt>
      <trkpt lat="36.50561" lon="-5.36076">
        <ele>457.5773</ele>
        <time>2021-07-15T17:37:42Z</time>
      </trkpt>
      <trkpt lat="36.50695" lon="-5.36089">
        <ele>468.6657</ele>
        <time>2021-07-15T17:37:53Z</time>
      </trkpt>
      <trkpt lat="36.50764" lon="-5.35977">
        <ele>479.6735</ele>
        <time>2021-07-15T17:38:04Z</time>
      </trkpt>
      <trkpt lat="36.50825" lon="-5.3584">
        <ele>490.5851</ele>
        <time>2021-07-15T17:38:15Z</time>
      </trkpt>
      <trkpt lat="36.5086" lon="-5.35698">
        <ele>497.2022</ele>
        <time>2021-07-15T17:38:26Z</time>
      </trkpt>
      <trkpt lat="36.50928" lon="-5.35704">
        <ele>502.8769</ele>
        <time>2021-07-15T17:38:37Z</time>
      </trkpt>
      <trkpt lat="36.50981" lon="-5.35818">
        <ele>511.2009</ele>
        <time>2021-07-15T17:38:48Z</time>
      </trkpt>
      <trkpt lat="36.51084" lon="-5.3585">
        <ele>519.007</ele>
        <time>2021-07-15T17:38:59Z</time>
      </trkpt>
      <trkpt lat="36.51183" lon="-5.35783">
        <ele>529.8535</ele>
        <time>2021-07-15T17:39:10Z</time>
      </trkpt>
      <trkpt lat="36.5129" lon="-5.35722">
        <ele>536.8541</ele>
        <time>2021-07-15T17:39:21Z</time>
      </trkpt>
      <trkpt lat="36.51356" lon="-5.35596">
        <ele>546.8626</ele>
        <time>2021-07-15T17:39:32Z</time>
      </trkpt>
      <trkpt lat="36.51405" lon="-5.35485">
        <ele>556.7263</ele>
        <time>2021-07-15T17:39:43Z</time>
      </trkpt>
      <trkpt lat="36.51492" lon="-5.35492">
        <ele>565.6256</ele>
        <time>2021-07-15T17:39:54Z</time>
      </trkpt>
      <trkpt lat="36.51559" lon="-5.35437">
        <ele>575.3475</ele>
        <time>2021-07-15T17:40:05Z</time>
      </trkpt>
      <trkpt lat="36.51553" lon="-5.35307">
        <ele>581.8153</ele>
        <time>2021-07-15T17:40:16Z</time>
      </trkpt>
      <trkpt lat="36.51515" lon="-5.3519">
        <ele>589.3217</ele>
        <time>2021-07-15T17:40:27Z</time>
      </trkpt>
      <trkpt lat="36.51404" lon="-5.3511">
        <ele>597.1549</ele>
        <time>2021-07-15T17:40:38Z</time>
      </trkpt>
      <trkpt lat="36.51316" lon="-5.35009">
        <ele>607.4828</ele>
        <time>2021-07-15T17:40:49Z</time>
      </trkpt>
      <trkpt lat="36.5133" lon="-5.34891">
        <ele>614.3802</ele>
        <time>2021-07-15T17:41:00Z</time>
      </trkpt>
      <trkpt lat="36.51426" lon="-5.34818">
        <ele>625.8032</ele>
        <time>2021-07-15T17:41:11Z</time>
      </trkpt>
      <trkpt lat="36.51441" lon="-5.34658">
        <ele>637.2886</ele>
        <time>2021-07-15T17:41:22Z</time>
      </trkpt>
      <trkpt lat="36.51488" lon="-5.34527">
        <ele>643.5336</ele>
        <time>2021-07-15T17:41:33Z</time>
      </trkpt>
      <trkpt lat="36.51422" lon="-5.34453">
        <ele>642.7359</ele>
        <time>2021-07-15T17:41:44Z</time>
      </trkpt>
      <trkpt lat="36.51398" lon="-5.34367">
        <ele>643.2674</ele>
        <time>2021-07-15T17:41:55Z</time>
      </trkpt>
      <trkpt lat="36.51357" lon="-5.34252">
        <ele>644.7708</ele>
        <time>2021-07-15T17:42:06Z</time>
      </trkpt>
      <trkpt lat="36.51372" lon="-5.3418">
        <ele>646.6405</ele>
        <time>2021-07-15T17:42:17Z</time>
      </trkpt>
      <trkpt lat="36.51337" lon="-5.34091">
        <ele>646.6583</ele>
        <time>2021-07-15T17:42:28Z</time>
      </trkpt>
      <trkpt lat="36.51333" lon="-5.34089">
        <ele>642.1721</ele>
        <time>2021-07-15T17:42:53Z</time>
      </trkpt>
      <trkpt lat="36.51331" lon="-5.34085">
        <ele>646.3649</ele>
        <time>2021-07-15T17:43:06Z</time>
      </trkpt>
      <trkpt lat="36.51335" lon="-5.34086">
        <ele>642.8889</ele>
        <time>2021-07-15T17:43:39Z</time>
      </trkpt>
      <trkpt lat="36.51337" lon="-5.34077">
        <ele>644.7425</ele>
        <time>2021-07-15T17:44:38Z</time>
      </trkpt>
      <trkpt lat="36.51379" lon="-5.33928">
        <ele>644.901</ele>
        <time>2021-07-15T17:44:49Z</time>
      </trkpt>
      <trkpt lat="36.51371" lon="-5.3375">
        <ele>644.9451</ele>
        <time>2021-07-15T17:45:00Z</time>
      </trkpt>
      <trkpt lat="36.51331" lon="-5.33577">
        <ele>645.4064</ele>
        <time>2021-07-15T17:45:11Z</time>
      </trkpt>
      <trkpt lat="36.51375" lon="-5.33389">
        <ele>650.2197</ele>
        <time>2021-07-15T17:45:22Z</time>
      </trkpt>
      <trkpt lat="36.51487" lon="-5.33271">
        <ele>652.5735</ele>
        <time>2021-07-15T17:45:33Z</time>
      </trkpt>
      <trkpt lat="36.51648" lon="-5.33143">
        <ele>651.279</ele>
        <time>2021-07-15T17:45:44Z</time>
      </trkpt>
      <trkpt lat="36.51768" lon="-5.33034">
        <ele>648.9697</ele>
        <time>2021-07-15T17:45:55Z</time>
      </trkpt>
      <trkpt lat="36.51847" lon="-5.32839">
        <ele>644.2232</ele>
        <time>2021-07-15T17:46:06Z</time>
      </trkpt>
      <trkpt lat="36.5194" lon="-5.32682">
        <ele>637.2699</ele>
        <time>2021-07-15T17:46:17Z</time>
      </trkpt>
      <trkpt lat="36.52" lon="-5.32556">
        <ele>634.2118</ele>
        <time>2021-07-15T17:46:28Z</time>
      </trkpt>
      <trkpt lat="36.52008" lon="-5.32485">
        <ele>636.9083</ele>
        <time>2021-07-15T17:46:39Z</time>
      </trkpt>
      <trkpt lat="36.52033" lon="-5.32318">
        <ele>629.6237</ele>
        <time>2021-07-15T17:46:50Z</time>
      </trkpt>
      <trkpt lat="36.5211" lon="-5.32149">
        <ele>620.22</ele>
        <time>2021-07-15T17:47:01Z</time>
      </trkpt>
      <trkpt lat="36.52109" lon="-5.31953">
        <ele>614.2693</ele>
        <time>2021-07-15T17:47:12Z</time>
      </trkpt>
      <trkpt lat="36.52017" lon="-5.31805">
        <ele>607.5099</ele>
        <time>2021-07-15T17:47:23Z</time>
      </trkpt>
      <trkpt lat="36.52049" lon="-5.31666">
        <ele>607.9489</ele>
        <time>2021-07-15T17:47:34Z</time>
      </trkpt>
      <trkpt lat="36.52201" lon="-5.31593">
        <ele>612.7745</ele>
        <time>2021-07-15T17:47:45Z</time>
      </trkpt>
      <trkpt lat="36.52336" lon="-5.31499">
        <ele>618.5738</ele>
        <time>2021-07-15T17:47:56Z</time>
      </trkpt>
      <trkpt lat="36.52445" lon="-5.31329">
        <ele>621.2254</ele>
        <time>2021-07-15T17:48:07Z</time>
      </trkpt>
      <trkpt lat="36.52581" lon="-5.31173">
        <ele>634.5568</ele>
        <time>2021-07-15T17:48:18Z</time>
      </trkpt>
      <trkpt lat="36.52742" lon="-5.31063">
        <ele>646.4608</ele>
        <time>2021-07-15T17:48:29Z</time>
      </trkpt>
      <trkpt lat="36.52865" lon="-5.30936">
        <ele>662.2524</ele>
        <time>2021-07-15T17:48:40Z</time>
      </trkpt>
      <trkpt lat="36.52995" lon="-5.30771">
        <ele>676.1142</ele>
        <time>2021-07-15T17:48:51Z</time>
      </trkpt>
      <trkpt lat="36.53134" lon="-5.3064">
        <ele>688.4537</ele>
        <time>2021-07-15T17:49:02Z</time>
      </trkpt>
      <trkpt lat="36.53143" lon="-5.3043">
        <ele>702.9614</ele>
        <time>2021-07-15T17:49:13Z</time>
      </trkpt>
      <trkpt lat="36.53287" lon="-5.30317">
        <ele>718.718</ele>
        <time>2021-07-15T17:49:24Z</time>
      </trkpt>
      <trkpt lat="36.53397" lon="-5.30172">
        <ele>737.4</ele>
        <time>2021-07-15T17:49:35Z</time>
      </trkpt>
      <trkpt lat="36.53526" lon="-5.30193">
        <ele>749.5854</ele>
        <time>2021-07-15T17:49:46Z</time>
      </trkpt>
      <trkpt lat="36.53703" lon="-5.30168">
        <ele>761.7164</ele>
        <time>2021-07-15T17:49:57Z</time>
      </trkpt>
      <trkpt lat="36.5389" lon="-5.30119">
        <ele>774.723</ele>
        <time>2021-07-15T17:50:08Z</time>
      </trkpt>
      <trkpt lat="36.54045" lon="-5.30257">
        <ele>789.1804</ele>
        <time>2021-07-15T17:50:19Z</time>
      </trkpt>
      <trkpt lat="36.5421" lon="-5.302">
        <ele>796.7131</ele>
        <time>2021-07-15T17:50:30Z</time>
      </trkpt>
      <trkpt lat="36.54313" lon="-5.3006">
        <ele>791.1287</ele>
        <time>2021-07-15T17:50:41Z</time>
      </trkpt>
      <trkpt lat="36.54273" lon="-5.30033">
        <ele>793.655</ele>
        <time>2021-07-15T17:50:52Z</time>
      </trkpt>
      <trkpt lat="36.54177" lon="-5.30037">
        <ele>797.7595</ele>
        <time>2021-07-15T17:51:03Z</time>
      </trkpt>
      <trkpt lat="36.54104" lon="-5.3005">
        <ele>798.8569</ele>
        <time>2021-07-15T17:51:14Z</time>
      </trkpt>
      <trkpt lat="36.54022" lon="-5.30097">
        <ele>793.4649</ele>
        <time>2021-07-15T17:51:25Z</time>
      </trkpt>
      <trkpt lat="36.53952" lon="-5.30082">
        <ele>779.0671</ele>
        <time>2021-07-15T17:51:36Z</time>
      </trkpt>
      <trkpt lat="36.53893" lon="-5.30034">
        <ele>767.2739</ele>
        <time>2021-07-15T17:51:47Z</time>
      </trkpt>
      <trkpt lat="36.53881" lon="-5.29927">
        <ele>766.8861</ele>
        <time>2021-07-15T17:51:58Z</time>
      </trkpt>
      <trkpt lat="36.53846" lon="-5.29813">
        <ele>755.9904</ele>
        <time>2021-07-15T17:52:09Z</time>
      </trkpt>
      <trkpt lat="36.53825" lon="-5.29699">
        <ele>745.7753</ele>
        <time>2021-07-15T17:52:20Z</time>
      </trkpt>
      <trkpt lat="36.53823" lon="-5.29572">
        <ele>736.4524</ele>
        <time>2021-07-15T17:52:31Z</time>
      </trkpt>
      <trkpt lat="36.53834" lon="-5.29413">
        <ele>739.6305</ele>
        <time>2021-07-15T17:52:42Z</time>
      </trkpt>
      <trkpt lat="36.53786" lon="-5.29326">
        <ele>725.942</ele>
        <time>2021-07-15T17:52:53Z</time>
      </trkpt>
      <trkpt lat="36.5376" lon="-5.29217">
        <ele>718.2634</ele>
        <time>2021-07-15T17:53:04Z</time>
      </trkpt>
      <trkpt lat="36.53695" lon="-5.29216">
        <ele>707.4273</ele>
        <time>2021-07-15T17:53:15Z</time>
      </trkpt>
      <trkpt lat="36.53627" lon="-5.29259">
        <ele>698.084</ele>
        <time>2021-07-15T17:53:26Z</time>
      </trkpt>
      <trkpt lat="36.5358" lon="-5.29226">
        <ele>694.1159</ele>
        <time>2021-07-15T17:53:37Z</time>
      </trkpt>
      <trkpt lat="36.53529" lon="-5.29179">
        <ele>687.7895</ele>
        <time>2021-07-15T17:53:48Z</time>
      </trkpt>
      <trkpt lat="36.53474" lon="-5.29113">
        <ele>680.6283</ele>
        <time>2021-07-15T17:53:59Z</time>
      </trkpt>
      <trkpt lat="36.53415" lon="-5.29089">
        <ele>675.3075</ele>
        <time>2021-07-15T17:54:10Z</time>
      </trkpt>
      <trkpt lat="36.53356" lon="-5.29068">
        <ele>667.8427</ele>
        <time>2021-07-15T17:54:21Z</time>
      </trkpt>
      <trkpt lat="36.53311" lon="-5.28997">
        <ele>662.9631</ele>
        <time>2021-07-15T17:54:32Z</time>
      </trkpt>
      <trkpt lat="36.53254" lon="-5.28918">
        <ele>656.4016</ele>
        <time>2021-07-15T17:54:43Z</time>
      </trkpt>
      <trkpt lat="36.53263" lon="-5.2879">
        <ele>653.4605</ele>
        <time>2021-07-15T17:54:54Z</time>
      </trkpt>
      <trkpt lat="36.53252" lon="-5.28669">
        <ele>647.0493</ele>
        <time>2021-07-15T17:55:05Z</time>
      </trkpt>
      <trkpt lat="36.53271" lon="-5.28557">
        <ele>637.6019</ele>
        <time>2021-07-15T17:55:16Z</time>
      </trkpt>
      <trkpt lat="36.53256" lon="-5.28524">
        <ele>628.4389</ele>
        <time>2021-07-15T17:55:27Z</time>
      </trkpt>
      <trkpt lat="36.53347" lon="-5.28493">
        <ele>620.2331</ele>
        <time>2021-07-15T17:55:38Z</time>
      </trkpt>
      <trkpt lat="36.53365" lon="-5.28397">
        <ele>609.0454</ele>
        <time>2021-07-15T17:55:49Z</time>
      </trkpt>
      <trkpt lat="36.53323" lon="-5.28428">
        <ele>606.1185</ele>
        <time>2021-07-15T17:56:00Z</time>
      </trkpt>
      <trkpt lat="36.53335" lon="-5.28306">
        <ele>601.5438</ele>
        <time>2021-07-15T17:56:11Z</time>
      </trkpt>
      <trkpt lat="36.53294" lon="-5.28236">
        <ele>587.2467</ele>
        <time>2021-07-15T17:56:22Z</time>
      </trkpt>
      <trkpt lat="36.53345" lon="-5.28231">
        <ele>573.5366</ele>
        <time>2021-07-15T17:56:33Z</time>
      </trkpt>
      <trkpt lat="36.53421" lon="-5.28227">
        <ele>560.228</ele>
        <time>2021-07-15T17:56:44Z</time>
      </trkpt>
      <trkpt lat="36.5346" lon="-5.28101">
        <ele>557.6013</ele>
        <time>2021-07-15T17:56:55Z</time>
      </trkpt>
      <trkpt lat="36.53535" lon="-5.28033">
        <ele>556.138</ele>
        <time>2021-07-15T17:57:06Z</time>
      </trkpt>
      <trkpt lat="36.5362" lon="-5.27956">
        <ele>548.8247</ele>
        <time>2021-07-15T17:57:17Z</time>
      </trkpt>
      <trkpt lat="36.53627" lon="-5.27854">
        <ele>542.2503</ele>
        <time>2021-07-15T17:57:28Z</time>
      </trkpt>
      <trkpt lat="36.53696" lon="-5.27753">
        <ele>531.9866</ele>
        <time>2021-07-15T17:57:39Z</time>
      </trkpt>
      <trkpt lat="36.53729" lon="-5.27635">
        <ele>523.0963</ele>
        <time>2021-07-15T17:57:50Z</time>
      </trkpt>
      <trkpt lat="36.53772" lon="-5.27555">
        <ele>512.9107</ele>
        <time>2021-07-15T17:58:01Z</time>
      </trkpt>
      <trkpt lat="36.53724" lon="-5.27449">
        <ele>508.6698</ele>
        <time>2021-07-15T17:58:12Z</time>
      </trkpt>
      <trkpt lat="36.53669" lon="-5.2733">
        <ele>494.0918</ele>
        <time>2021-07-15T17:58:23Z</time>
      </trkpt>
      <trkpt lat="36.53627" lon="-5.27196">
        <ele>490.7151</ele>
        <time>2021-07-15T17:58:34Z</time>
      </trkpt>
      <trkpt lat="36.53551" lon="-5.27141">
        <ele>487.8839</ele>
        <time>2021-07-15T17:58:45Z</time>
      </trkpt>
      <trkpt lat="36.53484" lon="-5.27158">
        <ele>483.6132</ele>
        <time>2021-07-15T17:58:56Z</time>
      </trkpt>
      <trkpt lat="36.53445" lon="-5.27211">
        <ele>477.5671</ele>
        <time>2021-07-15T17:59:07Z</time>
      </trkpt>
      <trkpt lat="36.53481" lon="-5.27122">
        <ele>467.5075</ele>
        <time>2021-07-15T17:59:18Z</time>
      </trkpt>
      <trkpt lat="36.53492" lon="-5.27031">
        <ele>457.3324</ele>
        <time>2021-07-15T17:59:29Z</time>
      </trkpt>
      <trkpt lat="36.53557" lon="-5.27069">
        <ele>450.2218</ele>
        <time>2021-07-15T17:59:40Z</time>
      </trkpt>
      <trkpt lat="36.5363" lon="-5.27072">
        <ele>443.3485</ele>
        <time>2021-07-15T17:59:51Z</time>
      </trkpt>
      <trkpt lat="36.53732" lon="-5.27092">
        <ele>429.5593</ele>
        <time>2021-07-15T18:00:02Z</time>
      </trkpt>
      <trkpt lat="36.53727" lon="-5.27088">
        <ele>418.9376</ele>
        <time>2021-07-15T18:00:14Z</time>
      </trkpt>
      <trkpt lat="36.53748" lon="-5.27085">
        <ele>417.0438</ele>
        <time>2021-07-15T18:00:25Z</time>
      </trkpt>
      <trkpt lat="36.53676" lon="-5.27041">
        <ele>409.4624</ele>
        <time>2021-07-15T18:00:36Z</time>
      </trkpt>
      <trkpt lat="36.53602" lon="-5.26998">
        <ele>403.1126</ele>
        <time>2021-07-15T18:00:47Z</time>
      </trkpt>
      <trkpt lat="36.5359" lon="-5.26913">
        <ele>398.978</ele>
        <time>2021-07-15T18:00:58Z</time>
      </trkpt>
      <trkpt lat="36.53543" lon="-5.26804">
        <ele>389.4372</ele>
        <time>2021-07-15T18:01:09Z</time>
      </trkpt>
      <trkpt lat="36.53499" lon="-5.26685">
        <ele>378.3797</ele>
        <time>2021-07-15T18:01:20Z</time>
      </trkpt>
      <trkpt lat="36.53452" lon="-5.26585">
        <ele>370.1449</ele>
        <time>2021-07-15T18:01:31Z</time>
      </trkpt>
      <trkpt lat="36.53389" lon="-5.26499">
        <ele>364.0848</ele>
        <time>2021-07-15T18:01:42Z</time>
      </trkpt>
      <trkpt lat="36.53369" lon="-5.26398">
        <ele>358.746</ele>
        <time>2021-07-15T18:01:53Z</time>
      </trkpt>
      <trkpt lat="36.5335" lon="-5.26308">
        <ele>354.9121</ele>
        <time>2021-07-15T18:02:04Z</time>
      </trkpt>
      <trkpt lat="36.53229" lon="-5.26293">
        <ele>347.2606</ele>
        <time>2021-07-15T18:02:15Z</time>
      </trkpt>
      <trkpt lat="36.53176" lon="-5.26338">
        <ele>340.7617</ele>
        <time>2021-07-15T18:02:26Z</time>
      </trkpt>
      <trkpt lat="36.53226" lon="-5.26266">
        <ele>336.402</ele>
        <time>2021-07-15T18:02:37Z</time>
      </trkpt>
      <trkpt lat="36.53329" lon="-5.26257">
        <ele>328.9274</ele>
        <time>2021-07-15T18:02:48Z</time>
      </trkpt>
      <trkpt lat="36.53403" lon="-5.26269">
        <ele>323.179</ele>
        <time>2021-07-15T18:02:59Z</time>
      </trkpt>
      <trkpt lat="36.5346" lon="-5.26276">
        <ele>315.9426</ele>
        <time>2021-07-15T18:03:10Z</time>
      </trkpt>
      <trkpt lat="36.53526" lon="-5.26326">
        <ele>306.6206</ele>
        <time>2021-07-15T18:03:21Z</time>
      </trkpt>
      <trkpt lat="36.5356" lon="-5.26427">
        <ele>295.4083</ele>
        <time>2021-07-15T18:03:32Z</time>
      </trkpt>
      <trkpt lat="36.5362" lon="-5.26455">
        <ele>294.237</ele>
        <time>2021-07-15T18:03:43Z</time>
      </trkpt>
      <trkpt lat="36.53687" lon="-5.2656">
        <ele>287.6005</ele>
        <time>2021-07-15T18:03:54Z</time>
      </trkpt>
      <trkpt lat="36.53757" lon="-5.26665">
        <ele>283.0656</ele>
        <time>2021-07-15T18:04:05Z</time>
      </trkpt>
      <trkpt lat="36.53811" lon="-5.2672">
        <ele>276.7391</ele>
        <time>2021-07-15T18:04:16Z</time>
      </trkpt>
      <trkpt lat="36.53809" lon="-5.26716">
        <ele>273.0052</ele>
        <time>2021-07-15T18:04:27Z</time>
      </trkpt>
      <trkpt lat="36.53776" lon="-5.26622">
        <ele>270.9892</ele>
        <time>2021-07-15T18:04:38Z</time>
      </trkpt>
      <trkpt lat="36.53735" lon="-5.26516">
        <ele>272.7257</ele>
        <time>2021-07-15T18:04:49Z</time>
      </trkpt>
      <trkpt lat="36.53744" lon="-5.26382">
        <ele>264.1229</ele>
        <time>2021-07-15T18:05:00Z</time>
      </trkpt>
      <trkpt lat="36.53783" lon="-5.2627">
        <ele>254.6383</ele>
        <time>2021-07-15T18:05:11Z</time>
      </trkpt>
      <trkpt lat="36.53815" lon="-5.26157">
        <ele>245.7566</ele>
        <time>2021-07-15T18:05:22Z</time>
      </trkpt>
      <trkpt lat="36.53834" lon="-5.26049">
        <ele>232.915</ele>
        <time>2021-07-15T18:05:33Z</time>
      </trkpt>
      <trkpt lat="36.53848" lon="-5.25973">
        <ele>231.7882</ele>
        <time>2021-07-15T18:05:44Z</time>
      </trkpt>
      <trkpt lat="36.53927" lon="-5.25952">
        <ele>225.5177</ele>
        <time>2021-07-15T18:05:55Z</time>
      </trkpt>
      <trkpt lat="36.54003" lon="-5.2596">
        <ele>217.2219</ele>
        <time>2021-07-15T18:06:06Z</time>
      </trkpt>
      <trkpt lat="36.54058" lon="-5.26039">
        <ele>208.7073</ele>
        <time>2021-07-15T18:06:17Z</time>
      </trkpt>
      <trkpt lat="36.54129" lon="-5.26112">
        <ele>204.4759</ele>
        <time>2021-07-15T18:06:28Z</time>
      </trkpt>
      <trkpt lat="36.54212" lon="-5.26167">
        <ele>196.6913</ele>
        <time>2021-07-15T18:06:39Z</time>
      </trkpt>
      <trkpt lat="36.54288" lon="-5.26171">
        <ele>183.957</ele>
        <time>2021-07-15T18:06:50Z</time>
      </trkpt>
      <trkpt lat="36.54331" lon="-5.26184">
        <ele>177.4548</ele>
        <time>2021-07-15T18:07:01Z</time>
      </trkpt>
      <trkpt lat="36.5438" lon="-5.26116">
        <ele>178.4615</ele>
        <time>2021-07-15T18:07:12Z</time>
      </trkpt>
      <trkpt lat="36.54429" lon="-5.26123">
        <ele>185.8505</ele>
        <time>2021-07-15T18:07:23Z</time>
      </trkpt>
      <trkpt lat="36.54505" lon="-5.26142">
        <ele>210.8624</ele>
        <time>2021-07-15T18:07:34Z</time>
      </trkpt>
      <trkpt lat="36.54436" lon="-5.26171">
        <ele>231.5132</ele>
        <time>2021-07-15T18:07:45Z</time>
      </trkpt>
      <trkpt lat="36.54455" lon="-5.26284">
        <ele>263.8976</ele>
        <time>2021-07-15T18:07:56Z</time>
      </trkpt>
      <trkpt lat="36.54491" lon="-5.26273">
        <ele>257.1223</ele>
        <time>2021-07-15T18:08:07Z</time>
      </trkpt>
      <trkpt lat="36.54509" lon="-5.26196">
        <ele>251.3785</ele>
        <time>2021-07-15T18:08:18Z</time>
      </trkpt>
      <trkpt lat="36.54583" lon="-5.26129">
        <ele>238.5909</ele>
        <time>2021-07-15T18:08:29Z</time>
      </trkpt>
      <trkpt lat="36.54659" lon="-5.26118">
        <ele>229.1327</ele>
        <time>2021-07-15T18:08:40Z</time>
      </trkpt>
      <trkpt lat="36.54719" lon="-5.26035">
        <ele>218.8322</ele>
        <time>2021-07-15T18:08:51Z</time>
      </trkpt>
      <trkpt lat="36.54805" lon="-5.25958">
        <ele>200.2645</ele>
        <time>2021-07-15T18:09:02Z</time>
      </trkpt>
      <trkpt lat="36.54868" lon="-5.25872">
        <ele>189.9279</ele>
        <time>2021-07-15T18:09:13Z</time>
      </trkpt>
      <trkpt lat="36.54891" lon="-5.25831">
        <ele>192.5723</ele>
        <time>2021-07-15T18:09:24Z</time>
      </trkpt>
      <trkpt lat="36.54889" lon="-5.25825">
        <ele>193.0943</ele>
        <time>2021-07-15T18:09:35Z</time>
      </trkpt>
      <trkpt lat="36.54852" lon="-5.25794">
        <ele>191.0444</ele>
        <time>2021-07-15T18:09:46Z</time>
      </trkpt>
      <trkpt lat="36.54826" lon="-5.25773">
        <ele>189.9802</ele>
        <time>2021-07-15T18:09:57Z</time>
      </trkpt>
      <trkpt lat="36.54828" lon="-5.25776">
        <ele>188.4044</ele>
        <time>2021-07-15T18:10:25Z</time>
      </trkpt>
      <trkpt lat="36.54826" lon="-5.25775">
        <ele>186.5401</ele>
        <time>2021-07-15T18:11:24Z</time>
      </trkpt>
      <trkpt lat="36.54828" lon="-5.25768">
        <ele>186.176</ele>
        <time>2021-07-15T18:11:39Z</time>
      </trkpt>
      <trkpt lat="36.54828" lon="-5.25767">
        <ele>186.0183</ele>
        <time>2021-07-15T18:12:38Z</time>
      </trkpt>
      <trkpt lat="36.54825" lon="-5.25766">
        <ele>190.1032</ele>
        <time>2021-07-15T18:13:37Z</time>
      </trkpt>
      <trkpt lat="36.54826" lon="-5.25766">
        <ele>184.949</ele>
        <time>2021-07-15T18:14:37Z</time>
      </trkpt>
      <trkpt lat="36.54828" lon="-5.25769">
        <ele>187.853</ele>
        <time>2021-07-15T18:15:37Z</time>
      </trkpt>
      <trkpt lat="36.54827" lon="-5.25766">
        <ele>187.4944</ele>
        <time>2021-07-15T18:16:37Z</time>
      </trkpt>
      <trkpt lat="36.54828" lon="-5.25768">
        <ele>187.2861</ele>
        <time>2021-07-15T18:17:36Z</time>
      </trkpt>
      <trkpt lat="36.54827" lon="-5.25768">
        <ele>187.6916</ele>
        <time>2021-07-15T18:18:34Z</time>
      </trkpt>
      <trkpt lat="36.5482" lon="-5.25767">
        <ele>188.2121</ele>
        <time>2021-07-15T18:19:30Z</time>
      </trkpt>
      <trkpt lat="36.54766" lon="-5.25724">
        <ele>191.563</ele>
        <time>2021-07-15T18:19:41Z</time>
      </trkpt>
      <trkpt lat="36.548" lon="-5.25657">
        <ele>195.571</ele>
        <time>2021-07-15T18:19:52Z</time>
      </trkpt>
      <trkpt lat="36.54814" lon="-5.25641">
        <ele>200.4802</ele>
        <time>2021-07-15T18:20:03Z</time>
      </trkpt>
      <trkpt lat="36.54818" lon="-5.25636">
        <ele>202.2838</ele>
        <time>2021-07-15T18:20:14Z</time>
      </trkpt>
      <trkpt lat="36.54843" lon="-5.25606">
        <ele>201.2513</ele>
        <time>2021-07-15T18:20:25Z</time>
      </trkpt>
      <trkpt lat="36.54793" lon="-5.25546">
        <ele>211.0743</ele>
        <time>2021-07-15T18:20:36Z</time>
      </trkpt>
      <trkpt lat="36.54691" lon="-5.25499">
        <ele>218.7754</ele>
        <time>2021-07-15T18:20:47Z</time>
      </trkpt>
      <trkpt lat="36.5468" lon="-5.25374">
        <ele>225.478</ele>
        <time>2021-07-15T18:20:58Z</time>
      </trkpt>
      <trkpt lat="36.5466" lon="-5.25284">
        <ele>238.5909</ele>
        <time>2021-07-15T18:21:09Z</time>
      </trkpt>
      <trkpt lat="36.5461" lon="-5.25261">
        <ele>239.6038</ele>
        <time>2021-07-15T18:21:20Z</time>
      </trkpt>
      <trkpt lat="36.54531" lon="-5.25297">
        <ele>223.2524</ele>
        <time>2021-07-15T18:21:31Z</time>
      </trkpt>
      <trkpt lat="36.54536" lon="-5.25337">
        <ele>213.0723</ele>
        <time>2021-07-15T18:21:42Z</time>
      </trkpt>
      <trkpt lat="36.54583" lon="-5.25373">
        <ele>207.2614</ele>
        <time>2021-07-15T18:21:53Z</time>
      </trkpt>
      <trkpt lat="36.54583" lon="-5.25443">
        <ele>194.1333</ele>
        <time>2021-07-15T18:22:04Z</time>
      </trkpt>
      <trkpt lat="36.54555" lon="-5.25476">
        <ele>192.3787</ele>
        <time>2021-07-15T18:22:15Z</time>
      </trkpt>
      <trkpt lat="36.54593" lon="-5.25516">
        <ele>192.2459</ele>
        <time>2021-07-15T18:22:26Z</time>
      </trkpt>
      <trkpt lat="36.54616" lon="-5.25557">
        <ele>198.6178</ele>
        <time>2021-07-15T18:22:37Z</time>
      </trkpt>
      <trkpt lat="36.54625" lon="-5.25576">
        <ele>198.3317</ele>
        <time>2021-07-15T18:22:48Z</time>
      </trkpt>
      <trkpt lat="36.54623" lon="-5.25571">
        <ele>194.7883</ele>
        <time>2021-07-15T18:22:59Z</time>
      </trkpt>
      <trkpt lat="36.54592" lon="-5.2553">
        <ele>193.339</ele>
        <time>2021-07-15T18:23:10Z</time>
      </trkpt>
      <trkpt lat="36.54584" lon="-5.25538">
        <ele>195.865</ele>
        <time>2021-07-15T18:23:23Z</time>
      </trkpt>
      <trkpt lat="36.54509" lon="-5.25563">
        <ele>204.4025</ele>
        <time>2021-07-15T18:23:34Z</time>
      </trkpt>
      <trkpt lat="36.5454" lon="-5.25641">
        <ele>216.9092</ele>
        <time>2021-07-15T18:23:45Z</time>
      </trkpt>
      <trkpt lat="36.54598" lon="-5.25699">
        <ele>226.1339</ele>
        <time>2021-07-15T18:23:56Z</time>
      </trkpt>
      <trkpt lat="36.54534" lon="-5.25735">
        <ele>236.1876</ele>
        <time>2021-07-15T18:24:07Z</time>
      </trkpt>
      <trkpt lat="36.54424" lon="-5.25698">
        <ele>251.9168</ele>
        <time>2021-07-15T18:24:18Z</time>
      </trkpt>
      <trkpt lat="36.5436" lon="-5.25732">
        <ele>268.5975</ele>
        <time>2021-07-15T18:24:29Z</time>
      </trkpt>
      <trkpt lat="36.54264" lon="-5.25673">
        <ele>284.8291</ele>
        <time>2021-07-15T18:24:40Z</time>
      </trkpt>
      <trkpt lat="36.54229" lon="-5.25566">
        <ele>281.767</ele>
        <time>2021-07-15T18:24:51Z</time>
      </trkpt>
      <trkpt lat="36.54211" lon="-5.25467">
        <ele>298.3553</ele>
        <time>2021-07-15T18:25:02Z</time>
      </trkpt>
      <trkpt lat="36.54119" lon="-5.25371">
        <ele>314.298</ele>
        <time>2021-07-15T18:25:13Z</time>
      </trkpt>
      <trkpt lat="36.54064" lon="-5.25279">
        <ele>324.7077</ele>
        <time>2021-07-15T18:25:24Z</time>
      </trkpt>
      <trkpt lat="36.54001" lon="-5.25209">
        <ele>340.2809</ele>
        <time>2021-07-15T18:25:35Z</time>
      </trkpt>
      <trkpt lat="36.53964" lon="-5.25157">
        <ele>348.6971</ele>
        <time>2021-07-15T18:25:46Z</time>
      </trkpt>
      <trkpt lat="36.53968" lon="-5.25154">
        <ele>347.4025</ele>
        <time>2021-07-15T18:25:59Z</time>
      </trkpt>
      <trkpt lat="36.53922" lon="-5.25147">
        <ele>357.5074</ele>
        <time>2021-07-15T18:26:10Z</time>
      </trkpt>
      <trkpt lat="36.53869" lon="-5.25166">
        <ele>364.2477</ele>
        <time>2021-07-15T18:26:21Z</time>
      </trkpt>
      <trkpt lat="36.53802" lon="-5.25189">
        <ele>365.1822</ele>
        <time>2021-07-15T18:26:32Z</time>
      </trkpt>
      <trkpt lat="36.53701" lon="-5.25108">
        <ele>373.3612</ele>
        <time>2021-07-15T18:26:43Z</time>
      </trkpt>
      <trkpt lat="36.5372" lon="-5.25068">
        <ele>380.3844</ele>
        <time>2021-07-15T18:26:54Z</time>
      </trkpt>
      <trkpt lat="36.53725" lon="-5.25067">
        <ele>382.6296</ele>
        <time>2021-07-15T18:27:19Z</time>
      </trkpt>
      <trkpt lat="36.53723" lon="-5.25064">
        <ele>387.3503</ele>
        <time>2021-07-15T18:28:18Z</time>
      </trkpt>
      <trkpt lat="36.53723" lon="-5.25064">
        <ele>387.3503</ele>
        <time>2021-07-15T18:29:17Z</time>
      </trkpt>
      <trkpt lat="36.53723" lon="-5.25064">
        <ele>387.3503</ele>
        <time>2021-07-15T18:30:17Z</time>
      </trkpt>
      <trkpt lat="36.53728" lon="-5.25065">
        <ele>384.7692</ele>
        <time>2021-07-15T18:30:46Z</time>
      </trkpt>
      <trkpt lat="36.53764" lon="-5.25107">
        <ele>378.8797</ele>
        <time>2021-07-15T18:30:57Z</time>
      </trkpt>
      <trkpt lat="36.53781" lon="-5.25112">
        <ele>381.577</ele>
        <time>2021-07-15T18:31:08Z</time>
      </trkpt>
      <trkpt lat="36.53782" lon="-5.25116">
        <ele>381.0921</ele>
        <time>2021-07-15T18:32:08Z</time>
      </trkpt>
      <trkpt lat="36.53784" lon="-5.25114">
        <ele>379.3307</ele>
        <time>2021-07-15T18:33:07Z</time>
      </trkpt>
      <trkpt lat="36.53787" lon="-5.25111">
        <ele>380.0226</ele>
        <time>2021-07-15T18:33:28Z</time>
      </trkpt>
      <trkpt lat="36.53785" lon="-5.2511">
        <ele>384.2936</ele>
        <time>2021-07-15T18:34:27Z</time>
      </trkpt>
      <trkpt lat="36.53787" lon="-5.2511">
        <ele>383.0811</ele>
        <time>2021-07-15T18:35:26Z</time>
      </trkpt>
      <trkpt lat="36.53783" lon="-5.2511">
        <ele>379.7774</ele>
        <time>2021-07-15T18:36:16Z</time>
      </trkpt>
      <trkpt lat="36.53787" lon="-5.25109">
        <ele>378.8589</ele>
        <time>2021-07-15T18:36:29Z</time>
      </trkpt>
      <trkpt lat="36.53789" lon="-5.25111">
        <ele>384.5576</ele>
        <time>2021-07-15T18:37:29Z</time>
      </trkpt>
      <trkpt lat="36.53792" lon="-5.25109">
        <ele>383.0521</ele>
        <time>2021-07-15T18:37:42Z</time>
      </trkpt>
      <trkpt lat="36.53782" lon="-5.2511">
        <ele>380.4604</ele>
        <time>2021-07-15T18:37:53Z</time>
      </trkpt>
      <trkpt lat="36.53779" lon="-5.25108">
        <ele>381.8133</ele>
        <time>2021-07-15T18:38:33Z</time>
      </trkpt>
      <trkpt lat="36.53775" lon="-5.25105">
        <ele>382.2869</ele>
        <time>2021-07-15T18:38:44Z</time>
      </trkpt>
      <trkpt lat="36.53776" lon="-5.2511">
        <ele>377.5071</ele>
        <time>2021-07-15T18:38:55Z</time>
      </trkpt>
      <trkpt lat="36.53778" lon="-5.25114">
        <ele>381.3201</ele>
        <time>2021-07-15T18:39:09Z</time>
      </trkpt>
      <trkpt lat="36.53781" lon="-5.25111">
        <ele>380.5777</ele>
        <time>2021-07-15T18:39:28Z</time>
      </trkpt>
      <trkpt lat="36.53781" lon="-5.25116">
        <ele>377.5398</ele>
        <time>2021-07-15T18:39:53Z</time>
      </trkpt>
      <trkpt lat="36.5378" lon="-5.2511">
        <ele>382.7529</ele>
        <time>2021-07-15T18:40:09Z</time>
      </trkpt>
      <trkpt lat="36.53777" lon="-5.25109">
        <ele>381.7116</ele>
        <time>2021-07-15T18:41:08Z</time>
      </trkpt>
      <trkpt lat="36.53773" lon="-5.25107">
        <ele>380.0318</ele>
        <time>2021-07-15T18:41:52Z</time>
      </trkpt>
      <trkpt lat="36.53773" lon="-5.25111">
        <ele>377.5011</ele>
        <time>2021-07-15T18:42:40Z</time>
      </trkpt>
      <trkpt lat="36.53777" lon="-5.2511">
        <ele>379.035</ele>
        <time>2021-07-15T18:42:53Z</time>
      </trkpt>
      <trkpt lat="36.53781" lon="-5.25111">
        <ele>383.4484</ele>
        <time>2021-07-15T18:43:16Z</time>
      </trkpt>
      <trkpt lat="36.5378" lon="-5.25111">
        <ele>383.0322</ele>
        <time>2021-07-15T18:44:15Z</time>
      </trkpt>
      <trkpt lat="36.53776" lon="-5.2511">
        <ele>382.2449</ele>
        <time>2021-07-15T18:44:37Z</time>
      </trkpt>
      <trkpt lat="36.53777" lon="-5.25106">
        <ele>382.1102</ele>
        <time>2021-07-15T18:45:20Z</time>
      </trkpt>
      <trkpt lat="36.5378" lon="-5.25109">
        <ele>378.0841</ele>
        <time>2021-07-15T18:45:35Z</time>
      </trkpt>
      <trkpt lat="36.53778" lon="-5.2511">
        <ele>380.0071</ele>
        <time>2021-07-15T18:46:34Z</time>
      </trkpt>
      <trkpt lat="36.53782" lon="-5.2511">
        <ele>382.309</ele>
        <time>2021-07-15T18:47:12Z</time>
      </trkpt>
      <trkpt lat="36.53778" lon="-5.25109">
        <ele>381.7119</ele>
        <time>2021-07-15T18:47:54Z</time>
      </trkpt>
      <trkpt lat="36.53777" lon="-5.25112">
        <ele>380.5051</ele>
        <time>2021-07-15T18:48:53Z</time>
      </trkpt>
      <trkpt lat="36.53774" lon="-5.2511">
        <ele>379.5454</ele>
        <time>2021-07-15T18:49:15Z</time>
      </trkpt>
      <trkpt lat="36.53778" lon="-5.2511">
        <ele>383.2944</ele>
        <time>2021-07-15T18:49:44Z</time>
      </trkpt>
      <trkpt lat="36.53778" lon="-5.25111">
        <ele>378.4343</ele>
        <time>2021-07-15T18:50:42Z</time>
      </trkpt>
      <trkpt lat="36.53777" lon="-5.25108">
        <ele>379.8103</ele>
        <time>2021-07-15T18:51:40Z</time>
      </trkpt>
      <trkpt lat="36.53778" lon="-5.2511">
        <ele>383.0045</ele>
        <time>2021-07-15T18:52:39Z</time>
      </trkpt>
      <trkpt lat="36.5378" lon="-5.2511">
        <ele>383.5346</ele>
        <time>2021-07-15T18:53:38Z</time>
      </trkpt>
      <trkpt lat="36.53777" lon="-5.25109">
        <ele>381.2866</ele>
        <time>2021-07-15T18:54:37Z</time>
      </trkpt>
      <trkpt lat="36.53778" lon="-5.2511">
        <ele>381.7818</ele>
        <time>2021-07-15T18:55:36Z</time>
      </trkpt>
      <trkpt lat="36.53779" lon="-5.25109">
        <ele>380.009</ele>
        <time>2021-07-15T18:56:34Z</time>
      </trkpt>
      <trkpt lat="36.53775" lon="-5.25111">
        <ele>377.0845</ele>
        <time>2021-07-15T18:57:32Z</time>
      </trkpt>
      <trkpt lat="36.53779" lon="-5.2511">
        <ele>378.8921</ele>
        <time>2021-07-15T18:58:13Z</time>
      </trkpt>
      <trkpt lat="36.53775" lon="-5.25109">
        <ele>383.4896</ele>
        <time>2021-07-15T18:58:41Z</time>
      </trkpt>
      <trkpt lat="36.53772" lon="-5.25111">
        <ele>379.3006</ele>
        <time>2021-07-15T18:59:01Z</time>
      </trkpt>
      <trkpt lat="36.53776" lon="-5.25111">
        <ele>381.2549</ele>
        <time>2021-07-15T18:59:21Z</time>
      </trkpt>
      <trkpt lat="36.53779" lon="-5.25109">
        <ele>379.616</ele>
        <time>2021-07-15T18:59:41Z</time>
      </trkpt>
      <trkpt lat="36.53775" lon="-5.25108">
        <ele>378.2193</ele>
        <time>2021-07-15T18:59:57Z</time>
      </trkpt>
      <trkpt lat="36.53773" lon="-5.25104">
        <ele>380.514</ele>
        <time>2021-07-15T19:00:14Z</time>
      </trkpt>
      <trkpt lat="36.53775" lon="-5.25108">
        <ele>378.9038</ele>
        <time>2021-07-15T19:01:04Z</time>
      </trkpt>
      <trkpt lat="36.53778" lon="-5.25113">
        <ele>380.7561</ele>
        <time>2021-07-15T19:01:47Z</time>
      </trkpt>
      <trkpt lat="36.53781" lon="-5.25118">
        <ele>379.2217</ele>
        <time>2021-07-15T19:01:58Z</time>
      </trkpt>
      <trkpt lat="36.53785" lon="-5.25117">
        <ele>378.6274</ele>
        <time>2021-07-15T19:02:28Z</time>
      </trkpt>
      <trkpt lat="36.53783" lon="-5.25116">
        <ele>381.3019</ele>
        <time>2021-07-15T19:03:28Z</time>
      </trkpt>
      <trkpt lat="36.53783" lon="-5.25116">
        <ele>381.3019</ele>
        <time>2021-07-15T19:04:27Z</time>
      </trkpt>
      <trkpt lat="36.53779" lon="-5.25113">
        <ele>382.3403</ele>
        <time>2021-07-15T19:05:13Z</time>
      </trkpt>
      <trkpt lat="36.53788" lon="-5.25118">
        <ele>380.8819</ele>
        <time>2021-07-15T19:05:24Z</time>
      </trkpt>
      <trkpt lat="36.53791" lon="-5.25122">
        <ele>378.2638</ele>
        <time>2021-07-15T19:05:35Z</time>
      </trkpt>
      <trkpt lat="36.53794" lon="-5.25126">
        <ele>376.6895</ele>
        <time>2021-07-15T19:05:52Z</time>
      </trkpt>
      <trkpt lat="36.53791" lon="-5.25122">
        <ele>379.8144</ele>
        <time>2021-07-15T19:06:03Z</time>
      </trkpt>
      <trkpt lat="36.53785" lon="-5.25114">
        <ele>378.4226</ele>
        <time>2021-07-15T19:06:14Z</time>
      </trkpt>
      <trkpt lat="36.53776" lon="-5.2511">
        <ele>381.25</ele>
        <time>2021-07-15T19:06:25Z</time>
      </trkpt>
      <trkpt lat="36.5378" lon="-5.25108">
        <ele>380.7578</ele>
        <time>2021-07-15T19:07:21Z</time>
      </trkpt>
      <trkpt lat="36.53779" lon="-5.25106">
        <ele>383.3268</ele>
        <time>2021-07-15T19:08:19Z</time>
      </trkpt>
      <trkpt lat="36.53775" lon="-5.25108">
        <ele>381.392</ele>
        <time>2021-07-15T19:09:06Z</time>
      </trkpt>
      <trkpt lat="36.53772" lon="-5.2511">
        <ele>377.5513</ele>
        <time>2021-07-15T19:09:28Z</time>
      </trkpt>
      <trkpt lat="36.53773" lon="-5.25105">
        <ele>378.6551</ele>
        <time>2021-07-15T19:09:56Z</time>
      </trkpt>
      <trkpt lat="36.53777" lon="-5.25108">
        <ele>380.2739</ele>
        <time>2021-07-15T19:10:20Z</time>
      </trkpt>
      <trkpt lat="36.53775" lon="-5.25108">
        <ele>378.9143</ele>
        <time>2021-07-15T19:11:18Z</time>
      </trkpt>
      <trkpt lat="36.53773" lon="-5.25112">
        <ele>380.7895</ele>
        <time>2021-07-15T19:11:48Z</time>
      </trkpt>
      <trkpt lat="36.53772" lon="-5.25107">
        <ele>380.1024</ele>
        <time>2021-07-15T19:12:22Z</time>
      </trkpt>
      <trkpt lat="36.53775" lon="-5.25112">
        <ele>380.3651</ele>
        <time>2021-07-15T19:13:04Z</time>
      </trkpt>
      <trkpt lat="36.53781" lon="-5.25112">
        <ele>379.6841</ele>
        <time>2021-07-15T19:13:15Z</time>
      </trkpt>
      <trkpt lat="36.53777" lon="-5.25111">
        <ele>379.0206</ele>
        <time>2021-07-15T19:13:26Z</time>
      </trkpt>
      <trkpt lat="36.53774" lon="-5.2511">
        <ele>380.7191</ele>
        <time>2021-07-15T19:13:37Z</time>
      </trkpt>
      <trkpt lat="36.53779" lon="-5.25112">
        <ele>380.9037</ele>
        <time>2021-07-15T19:13:48Z</time>
      </trkpt>
      <trkpt lat="36.53783" lon="-5.2511">
        <ele>383.2575</ele>
        <time>2021-07-15T19:14:17Z</time>
      </trkpt>
      <trkpt lat="36.53779" lon="-5.2511">
        <ele>380.1342</ele>
        <time>2021-07-15T19:14:39Z</time>
      </trkpt>
      <trkpt lat="36.53779" lon="-5.25115">
        <ele>380.8776</ele>
        <time>2021-07-15T19:15:28Z</time>
      </trkpt>
    </trkseg>
  </trk>
</gpx>